<?xml version="1.0" encoding="UTF-8" standalone="no" ?>
<gpx xmlns="http://www.topografix.com/GPX/1/1" xmlns:xsi="http://www.w3.org/2001/XMLSchema-instance" xsi:schemaLocation="http://www.topografix.com/GPX/1/1 http://www.topografix.com/GPX/1/1/gpx.xsd" version="1.1" creator="VisuGPX - https://www.visugpx.com">
  <metadata>
    <name>Le Pellerin Rezé la Jaguere, la Chezine, Coueron</name>
  </metadata>
  <trk>
    <name><![CDATA[Le Pellerin Rezé la Jaguere, la Chezine, Coueron_1]]></name>
    <trkseg>
      <trkpt lat="47.20586" lon="-1.78104">
        <ele>3</ele>
        <time>2022-01-23T09:37:13Z</time>
      </trkpt>
      <trkpt lat="47.20585" lon="-1.78036">
        <ele>2.8</ele>
        <time>2022-01-23T09:37:22Z</time>
      </trkpt>
      <trkpt lat="47.20584" lon="-1.78029">
        <ele>2.6</ele>
        <time>2022-01-23T09:37:23Z</time>
      </trkpt>
      <trkpt lat="47.20583" lon="-1.78015">
        <ele>2.6</ele>
        <time>2022-01-23T09:37:25Z</time>
      </trkpt>
      <trkpt lat="47.20583" lon="-1.78001">
        <ele>2.6</ele>
        <time>2022-01-23T09:37:27Z</time>
      </trkpt>
      <trkpt lat="47.20581" lon="-1.77956">
        <ele>2.2</ele>
        <time>2022-01-23T09:37:34Z</time>
      </trkpt>
      <trkpt lat="47.20582" lon="-1.77914">
        <ele>3.2</ele>
        <time>2022-01-23T09:37:40Z</time>
      </trkpt>
      <trkpt lat="47.20585" lon="-1.77879">
        <ele>3.2</ele>
        <time>2022-01-23T09:37:44Z</time>
      </trkpt>
      <trkpt lat="47.20588" lon="-1.77863">
        <ele>2.8</ele>
        <time>2022-01-23T09:37:46Z</time>
      </trkpt>
      <trkpt lat="47.20592" lon="-1.77826">
        <ele>3.6</ele>
        <time>2022-01-23T09:37:51Z</time>
      </trkpt>
      <trkpt lat="47.20593" lon="-1.77819">
        <ele>3.6</ele>
        <time>2022-01-23T09:37:52Z</time>
      </trkpt>
      <trkpt lat="47.20595" lon="-1.77806">
        <ele>3.2</ele>
        <time>2022-01-23T09:37:54Z</time>
      </trkpt>
      <trkpt lat="47.20597" lon="-1.77782">
        <ele>3.4</ele>
        <time>2022-01-23T09:37:58Z</time>
      </trkpt>
      <trkpt lat="47.20599" lon="-1.77743">
        <ele>3.8</ele>
        <time>2022-01-23T09:38:05Z</time>
      </trkpt>
      <trkpt lat="47.20595" lon="-1.77709">
        <ele>4.2</ele>
        <time>2022-01-23T09:38:11Z</time>
      </trkpt>
      <trkpt lat="47.20596" lon="-1.77694">
        <ele>4.2</ele>
        <time>2022-01-23T09:38:13Z</time>
      </trkpt>
      <trkpt lat="47.20598" lon="-1.77688">
        <ele>4.2</ele>
        <time>2022-01-23T09:38:14Z</time>
      </trkpt>
      <trkpt lat="47.206" lon="-1.7768">
        <ele>4.2</ele>
        <time>2022-01-23T09:38:15Z</time>
      </trkpt>
      <trkpt lat="47.20607" lon="-1.77647">
        <ele>4</ele>
        <time>2022-01-23T09:38:19Z</time>
      </trkpt>
      <trkpt lat="47.20608" lon="-1.77638">
        <ele>4</ele>
        <time>2022-01-23T09:38:20Z</time>
      </trkpt>
      <trkpt lat="47.20609" lon="-1.7762">
        <ele>3.8</ele>
        <time>2022-01-23T09:38:22Z</time>
      </trkpt>
      <trkpt lat="47.2061" lon="-1.77611">
        <ele>4.2</ele>
        <time>2022-01-23T09:38:23Z</time>
      </trkpt>
      <trkpt lat="47.20609" lon="-1.77557">
        <ele>3.4</ele>
        <time>2022-01-23T09:38:29Z</time>
      </trkpt>
      <trkpt lat="47.20609" lon="-1.7755">
        <ele>3.4</ele>
        <time>2022-01-23T09:38:30Z</time>
      </trkpt>
      <trkpt lat="47.20605" lon="-1.77522">
        <ele>3.2</ele>
        <time>2022-01-23T09:38:34Z</time>
      </trkpt>
      <trkpt lat="47.20602" lon="-1.77501">
        <ele>3</ele>
        <time>2022-01-23T09:38:37Z</time>
      </trkpt>
      <trkpt lat="47.20597" lon="-1.77482">
        <ele>3</ele>
        <time>2022-01-23T09:38:40Z</time>
      </trkpt>
      <trkpt lat="47.20586" lon="-1.77446">
        <ele>2.8</ele>
        <time>2022-01-23T09:38:46Z</time>
      </trkpt>
      <trkpt lat="47.20583" lon="-1.77408">
        <ele>3.4</ele>
        <time>2022-01-23T09:38:51Z</time>
      </trkpt>
      <trkpt lat="47.20571" lon="-1.77351">
        <ele>3</ele>
        <time>2022-01-23T09:38:58Z</time>
      </trkpt>
      <trkpt lat="47.2057" lon="-1.77343">
        <ele>3</ele>
        <time>2022-01-23T09:38:59Z</time>
      </trkpt>
      <trkpt lat="47.20567" lon="-1.77312">
        <ele>2.8</ele>
        <time>2022-01-23T09:39:03Z</time>
      </trkpt>
      <trkpt lat="47.2057" lon="-1.7729">
        <ele>2.8</ele>
        <time>2022-01-23T09:39:06Z</time>
      </trkpt>
      <trkpt lat="47.2057" lon="-1.77283">
        <ele>2.8</ele>
        <time>2022-01-23T09:39:07Z</time>
      </trkpt>
      <trkpt lat="47.2057" lon="-1.77233">
        <ele>2.8</ele>
        <time>2022-01-23T09:39:13Z</time>
      </trkpt>
      <trkpt lat="47.2057" lon="-1.77225">
        <ele>2.8</ele>
        <time>2022-01-23T09:39:14Z</time>
      </trkpt>
      <trkpt lat="47.2057" lon="-1.77213">
        <ele>2.6</ele>
        <time>2022-01-23T09:39:16Z</time>
      </trkpt>
      <trkpt lat="47.20569" lon="-1.77191">
        <ele>1.8</ele>
        <time>2022-01-23T09:39:20Z</time>
      </trkpt>
      <trkpt lat="47.20563" lon="-1.77154">
        <ele>0.60000000000002</ele>
        <time>2022-01-23T09:39:25Z</time>
      </trkpt>
      <trkpt lat="47.20562" lon="-1.77147">
        <ele>0.39999999999998</ele>
        <time>2022-01-23T09:39:26Z</time>
      </trkpt>
      <trkpt lat="47.20558" lon="-1.7712">
        <ele>-1</ele>
        <time>2022-01-23T09:39:30Z</time>
      </trkpt>
      <trkpt lat="47.20554" lon="-1.77078">
        <ele>-2.8</ele>
        <time>2022-01-23T09:39:36Z</time>
      </trkpt>
      <trkpt lat="47.20554" lon="-1.7707">
        <ele>-3.2</ele>
        <time>2022-01-23T09:39:37Z</time>
      </trkpt>
      <trkpt lat="47.20553" lon="-1.77055">
        <ele>-3.8</ele>
        <time>2022-01-23T09:39:39Z</time>
      </trkpt>
      <trkpt lat="47.20553" lon="-1.7704">
        <ele>-4.4</ele>
        <time>2022-01-23T09:39:41Z</time>
      </trkpt>
      <trkpt lat="47.20555" lon="-1.7701">
        <ele>-5.2</ele>
        <time>2022-01-23T09:39:45Z</time>
      </trkpt>
      <trkpt lat="47.20555" lon="-1.77002">
        <ele>-5.4</ele>
        <time>2022-01-23T09:39:46Z</time>
      </trkpt>
      <trkpt lat="47.20555" lon="-1.76981">
        <ele>-6</ele>
        <time>2022-01-23T09:39:49Z</time>
      </trkpt>
      <trkpt lat="47.20555" lon="-1.76974">
        <ele>-6.2</ele>
        <time>2022-01-23T09:39:50Z</time>
      </trkpt>
      <trkpt lat="47.20551" lon="-1.76939">
        <ele>-7</ele>
        <time>2022-01-23T09:39:54Z</time>
      </trkpt>
      <trkpt lat="47.20537" lon="-1.76887">
        <ele>-7.8</ele>
        <time>2022-01-23T09:40:00Z</time>
      </trkpt>
      <trkpt lat="47.20535" lon="-1.7688">
        <ele>-7.8</ele>
        <time>2022-01-23T09:40:01Z</time>
      </trkpt>
      <trkpt lat="47.20529" lon="-1.76868">
        <ele>-8</ele>
        <time>2022-01-23T09:40:03Z</time>
      </trkpt>
      <trkpt lat="47.20526" lon="-1.76862">
        <ele>-8.2</ele>
        <time>2022-01-23T09:40:04Z</time>
      </trkpt>
      <trkpt lat="47.20519" lon="-1.76836">
        <ele>-9</ele>
        <time>2022-01-23T09:40:08Z</time>
      </trkpt>
      <trkpt lat="47.20517" lon="-1.76831">
        <ele>-9.2</ele>
        <time>2022-01-23T09:40:09Z</time>
      </trkpt>
      <trkpt lat="47.20515" lon="-1.76825">
        <ele>-9.4</ele>
        <time>2022-01-23T09:40:12Z</time>
      </trkpt>
      <trkpt lat="47.20514" lon="-1.76802">
        <ele>-9.4</ele>
        <time>2022-01-23T09:40:17Z</time>
      </trkpt>
      <trkpt lat="47.20509" lon="-1.76781">
        <ele>-9.6</ele>
        <time>2022-01-23T09:40:21Z</time>
      </trkpt>
      <trkpt lat="47.20503" lon="-1.76747">
        <ele>-10.6</ele>
        <time>2022-01-23T09:40:27Z</time>
      </trkpt>
      <trkpt lat="47.205" lon="-1.7673">
        <ele>-11</ele>
        <time>2022-01-23T09:40:30Z</time>
      </trkpt>
      <trkpt lat="47.205" lon="-1.76723">
        <ele>-11</ele>
        <time>2022-01-23T09:40:31Z</time>
      </trkpt>
      <trkpt lat="47.205" lon="-1.76715">
        <ele>-11.2</ele>
        <time>2022-01-23T09:40:32Z</time>
      </trkpt>
      <trkpt lat="47.20498" lon="-1.76695">
        <ele>-11.6</ele>
        <time>2022-01-23T09:40:34Z</time>
      </trkpt>
      <trkpt lat="47.20487" lon="-1.76637">
        <ele>-12.4</ele>
        <time>2022-01-23T09:40:40Z</time>
      </trkpt>
      <trkpt lat="47.20476" lon="-1.76576">
        <ele>-11.6</ele>
        <time>2022-01-23T09:40:47Z</time>
      </trkpt>
      <trkpt lat="47.20474" lon="-1.76568">
        <ele>-13</ele>
        <time>2022-01-23T09:40:48Z</time>
      </trkpt>
      <trkpt lat="47.20468" lon="-1.76547">
        <ele>-11.6</ele>
        <time>2022-01-23T09:40:51Z</time>
      </trkpt>
      <trkpt lat="47.20467" lon="-1.76531">
        <ele>-10.4</ele>
        <time>2022-01-23T09:40:53Z</time>
      </trkpt>
      <trkpt lat="47.20467" lon="-1.76506">
        <ele>-10.8</ele>
        <time>2022-01-23T09:40:56Z</time>
      </trkpt>
      <trkpt lat="47.20466" lon="-1.7649">
        <ele>-10.8</ele>
        <time>2022-01-23T09:40:58Z</time>
      </trkpt>
      <trkpt lat="47.20465" lon="-1.76465">
        <ele>-10.4</ele>
        <time>2022-01-23T09:41:01Z</time>
      </trkpt>
      <trkpt lat="47.20453" lon="-1.76401">
        <ele>-9.4</ele>
        <time>2022-01-23T09:41:09Z</time>
      </trkpt>
      <trkpt lat="47.20442" lon="-1.76327">
        <ele>-8.2</ele>
        <time>2022-01-23T09:41:18Z</time>
      </trkpt>
      <trkpt lat="47.20436" lon="-1.7628">
        <ele>-7.4</ele>
        <time>2022-01-23T09:41:24Z</time>
      </trkpt>
      <trkpt lat="47.20433" lon="-1.76268">
        <ele>-7.2</ele>
        <time>2022-01-23T09:41:26Z</time>
      </trkpt>
      <trkpt lat="47.20428" lon="-1.76238">
        <ele>-6.8</ele>
        <time>2022-01-23T09:41:31Z</time>
      </trkpt>
      <trkpt lat="47.20417" lon="-1.76188">
        <ele>-6</ele>
        <time>2022-01-23T09:41:39Z</time>
      </trkpt>
      <trkpt lat="47.20411" lon="-1.76142">
        <ele>-5.2</ele>
        <time>2022-01-23T09:41:46Z</time>
      </trkpt>
      <trkpt lat="47.20408" lon="-1.76115">
        <ele>-4.6</ele>
        <time>2022-01-23T09:41:50Z</time>
      </trkpt>
      <trkpt lat="47.20408" lon="-1.76101">
        <ele>-4.4</ele>
        <time>2022-01-23T09:41:52Z</time>
      </trkpt>
      <trkpt lat="47.20403" lon="-1.76045">
        <ele>-3.6</ele>
        <time>2022-01-23T09:42:00Z</time>
      </trkpt>
      <trkpt lat="47.20397" lon="-1.75994">
        <ele>-3</ele>
        <time>2022-01-23T09:42:06Z</time>
      </trkpt>
      <trkpt lat="47.20386" lon="-1.75933">
        <ele>-2.8</ele>
        <time>2022-01-23T09:42:13Z</time>
      </trkpt>
      <trkpt lat="47.20376" lon="-1.75879">
        <ele>-2.2</ele>
        <time>2022-01-23T09:42:20Z</time>
      </trkpt>
      <trkpt lat="47.20373" lon="-1.75865">
        <ele>-2</ele>
        <time>2022-01-23T09:42:22Z</time>
      </trkpt>
      <trkpt lat="47.20366" lon="-1.75836">
        <ele>-1.8</ele>
        <time>2022-01-23T09:42:26Z</time>
      </trkpt>
      <trkpt lat="47.20353" lon="-1.7578">
        <ele>-1.4</ele>
        <time>2022-01-23T09:42:34Z</time>
      </trkpt>
      <trkpt lat="47.20348" lon="-1.75759">
        <ele>-1.2</ele>
        <time>2022-01-23T09:42:37Z</time>
      </trkpt>
      <trkpt lat="47.20343" lon="-1.75737">
        <ele>-1</ele>
        <time>2022-01-23T09:42:40Z</time>
      </trkpt>
      <trkpt lat="47.20337" lon="-1.75686">
        <ele>-0.60000000000002</ele>
        <time>2022-01-23T09:42:47Z</time>
      </trkpt>
      <trkpt lat="47.20335" lon="-1.75679">
        <ele>-0.60000000000002</ele>
        <time>2022-01-23T09:42:48Z</time>
      </trkpt>
      <trkpt lat="47.20326" lon="-1.75644">
        <ele>-0.60000000000002</ele>
        <time>2022-01-23T09:42:53Z</time>
      </trkpt>
      <trkpt lat="47.20315" lon="-1.75601">
        <ele>-0.39999999999998</ele>
        <time>2022-01-23T09:42:59Z</time>
      </trkpt>
      <trkpt lat="47.20313" lon="-1.75595">
        <ele>-0.19999999999999</ele>
        <time>2022-01-23T09:43:00Z</time>
      </trkpt>
      <trkpt lat="47.20311" lon="-1.75586">
        <ele>-0.19999999999999</ele>
        <time>2022-01-23T09:43:03Z</time>
      </trkpt>
      <trkpt lat="47.20307" lon="-1.75572">
        <ele>-0.19999999999999</ele>
        <time>2022-01-23T09:43:06Z</time>
      </trkpt>
      <trkpt lat="47.20298" lon="-1.75535">
        <ele>-0.39999999999998</ele>
        <time>2022-01-23T09:43:11Z</time>
      </trkpt>
      <trkpt lat="47.20287" lon="-1.75489">
        <ele>-0.39999999999998</ele>
        <time>2022-01-23T09:43:17Z</time>
      </trkpt>
      <trkpt lat="47.20278" lon="-1.75451">
        <ele>-0.19999999999999</ele>
        <time>2022-01-23T09:43:22Z</time>
      </trkpt>
      <trkpt lat="47.20274" lon="-1.75437">
        <ele>-0.19999999999999</ele>
        <time>2022-01-23T09:43:24Z</time>
      </trkpt>
      <trkpt lat="47.2027" lon="-1.75423">
        <ele>-0.19999999999999</ele>
        <time>2022-01-23T09:43:26Z</time>
      </trkpt>
      <trkpt lat="47.20264" lon="-1.75403">
        <ele>-0.19999999999999</ele>
        <time>2022-01-23T09:43:29Z</time>
      </trkpt>
      <trkpt lat="47.20259" lon="-1.75389">
        <ele>-0.19999999999999</ele>
        <time>2022-01-23T09:43:31Z</time>
      </trkpt>
      <trkpt lat="47.20254" lon="-1.75368">
        <ele>-0.19999999999999</ele>
        <time>2022-01-23T09:43:34Z</time>
      </trkpt>
      <trkpt lat="47.2024" lon="-1.75318">
        <ele>-0.19999999999999</ele>
        <time>2022-01-23T09:43:41Z</time>
      </trkpt>
      <trkpt lat="47.20228" lon="-1.75269">
        <ele>0.19999999999999</ele>
        <time>2022-01-23T09:43:48Z</time>
      </trkpt>
      <trkpt lat="47.20224" lon="-1.75256">
        <ele>0.19999999999999</ele>
        <time>2022-01-23T09:43:50Z</time>
      </trkpt>
      <trkpt lat="47.2022" lon="-1.75242">
        <ele>0.19999999999999</ele>
        <time>2022-01-23T09:43:52Z</time>
      </trkpt>
      <trkpt lat="47.20215" lon="-1.75228">
        <ele>0.19999999999999</ele>
        <time>2022-01-23T09:43:54Z</time>
      </trkpt>
      <trkpt lat="47.20213" lon="-1.75221">
        <ele>0.39999999999998</ele>
        <time>2022-01-23T09:43:55Z</time>
      </trkpt>
      <trkpt lat="47.20198" lon="-1.75172">
        <ele>0.39999999999998</ele>
        <time>2022-01-23T09:44:02Z</time>
      </trkpt>
      <trkpt lat="47.20185" lon="-1.75118">
        <ele>0.60000000000002</ele>
        <time>2022-01-23T09:44:09Z</time>
      </trkpt>
      <trkpt lat="47.20173" lon="-1.75061">
        <ele>0.80000000000001</ele>
        <time>2022-01-23T09:44:16Z</time>
      </trkpt>
      <trkpt lat="47.20161" lon="-1.75005">
        <ele>0.80000000000001</ele>
        <time>2022-01-23T09:44:23Z</time>
      </trkpt>
      <trkpt lat="47.20151" lon="-1.7495">
        <ele>0.80000000000001</ele>
        <time>2022-01-23T09:44:30Z</time>
      </trkpt>
      <trkpt lat="47.20142" lon="-1.74907">
        <ele>1</ele>
        <time>2022-01-23T09:44:36Z</time>
      </trkpt>
      <trkpt lat="47.20138" lon="-1.74901">
        <ele>1</ele>
        <time>2022-01-23T09:44:37Z</time>
      </trkpt>
      <trkpt lat="47.20135" lon="-1.74895">
        <ele>1</ele>
        <time>2022-01-23T09:44:38Z</time>
      </trkpt>
      <trkpt lat="47.20135" lon="-1.74879">
        <ele>1</ele>
        <time>2022-01-23T09:44:40Z</time>
      </trkpt>
      <trkpt lat="47.20135" lon="-1.74863">
        <ele>1</ele>
        <time>2022-01-23T09:44:42Z</time>
      </trkpt>
      <trkpt lat="47.20132" lon="-1.74837">
        <ele>1</ele>
        <time>2022-01-23T09:44:45Z</time>
      </trkpt>
      <trkpt lat="47.20123" lon="-1.74779">
        <ele>1</ele>
        <time>2022-01-23T09:44:52Z</time>
      </trkpt>
      <trkpt lat="47.20113" lon="-1.7473">
        <ele>0.80000000000001</ele>
        <time>2022-01-23T09:44:58Z</time>
      </trkpt>
      <trkpt lat="47.20101" lon="-1.74672">
        <ele>0.60000000000002</ele>
        <time>2022-01-23T09:45:05Z</time>
      </trkpt>
      <trkpt lat="47.2009" lon="-1.74615">
        <ele>0.60000000000002</ele>
        <time>2022-01-23T09:45:12Z</time>
      </trkpt>
      <trkpt lat="47.20079" lon="-1.74556">
        <ele>-0.39999999999998</ele>
        <time>2022-01-23T09:45:19Z</time>
      </trkpt>
      <trkpt lat="47.20067" lon="-1.74488">
        <ele>-0.60000000000002</ele>
        <time>2022-01-23T09:45:27Z</time>
      </trkpt>
      <trkpt lat="47.2006" lon="-1.74445">
        <ele>-0.80000000000001</ele>
        <time>2022-01-23T09:45:32Z</time>
      </trkpt>
      <trkpt lat="47.20059" lon="-1.74436">
        <ele>-0.80000000000001</ele>
        <time>2022-01-23T09:45:33Z</time>
      </trkpt>
      <trkpt lat="47.20054" lon="-1.7441">
        <ele>-0.80000000000001</ele>
        <time>2022-01-23T09:45:36Z</time>
      </trkpt>
      <trkpt lat="47.20049" lon="-1.74394">
        <ele>-1</ele>
        <time>2022-01-23T09:45:38Z</time>
      </trkpt>
      <trkpt lat="47.20039" lon="-1.74337">
        <ele>-1.2</ele>
        <time>2022-01-23T09:45:45Z</time>
      </trkpt>
      <trkpt lat="47.20036" lon="-1.7433">
        <ele>-1.2</ele>
        <time>2022-01-23T09:45:46Z</time>
      </trkpt>
      <trkpt lat="47.20032" lon="-1.74315">
        <ele>-1.4</ele>
        <time>2022-01-23T09:45:48Z</time>
      </trkpt>
      <trkpt lat="47.20025" lon="-1.743">
        <ele>-1.2</ele>
        <time>2022-01-23T09:45:50Z</time>
      </trkpt>
      <trkpt lat="47.20015" lon="-1.74281">
        <ele>-1.2</ele>
        <time>2022-01-23T09:45:53Z</time>
      </trkpt>
      <trkpt lat="47.19995" lon="-1.74248">
        <ele>-1.6</ele>
        <time>2022-01-23T09:45:59Z</time>
      </trkpt>
      <trkpt lat="47.19988" lon="-1.74221">
        <ele>-1.6</ele>
        <time>2022-01-23T09:46:04Z</time>
      </trkpt>
      <trkpt lat="47.19985" lon="-1.742">
        <ele>-1.8</ele>
        <time>2022-01-23T09:46:08Z</time>
      </trkpt>
      <trkpt lat="47.19982" lon="-1.74166">
        <ele>-1.2</ele>
        <time>2022-01-23T09:46:15Z</time>
      </trkpt>
      <trkpt lat="47.19977" lon="-1.74139">
        <ele>-0.39999999999998</ele>
        <time>2022-01-23T09:46:21Z</time>
      </trkpt>
      <trkpt lat="47.19975" lon="-1.74116">
        <ele>-0.39999999999998</ele>
        <time>2022-01-23T09:46:26Z</time>
      </trkpt>
      <trkpt lat="47.19974" lon="-1.74112">
        <ele>-0.39999999999998</ele>
        <time>2022-01-23T09:46:27Z</time>
      </trkpt>
      <trkpt lat="47.19971" lon="-1.7409">
        <ele>0.39999999999998</ele>
        <time>2022-01-23T09:46:32Z</time>
      </trkpt>
      <trkpt lat="47.19966" lon="-1.74048">
        <ele>0.80000000000001</ele>
        <time>2022-01-23T09:46:40Z</time>
      </trkpt>
      <trkpt lat="47.1996" lon="-1.74004">
        <ele>2</ele>
        <time>2022-01-23T09:46:49Z</time>
      </trkpt>
      <trkpt lat="47.19956" lon="-1.73971">
        <ele>3</ele>
        <time>2022-01-23T09:46:56Z</time>
      </trkpt>
      <trkpt lat="47.19957" lon="-1.73968">
        <ele>3.2</ele>
        <time>2022-01-23T09:46:57Z</time>
      </trkpt>
      <trkpt lat="47.19961" lon="-1.73965">
        <ele>3.4</ele>
        <time>2022-01-23T09:46:58Z</time>
      </trkpt>
      <trkpt lat="47.19973" lon="-1.73953">
        <ele>3.8</ele>
        <time>2022-01-23T09:47:01Z</time>
      </trkpt>
      <trkpt lat="47.19982" lon="-1.73942">
        <ele>3.8</ele>
        <time>2022-01-23T09:47:03Z</time>
      </trkpt>
      <trkpt lat="47.19989" lon="-1.73927">
        <ele>4</ele>
        <time>2022-01-23T09:47:05Z</time>
      </trkpt>
      <trkpt lat="47.19991" lon="-1.73919">
        <ele>4</ele>
        <time>2022-01-23T09:47:06Z</time>
      </trkpt>
      <trkpt lat="47.19995" lon="-1.73902">
        <ele>3.8</ele>
        <time>2022-01-23T09:47:08Z</time>
      </trkpt>
      <trkpt lat="47.19998" lon="-1.73886">
        <ele>3.8</ele>
        <time>2022-01-23T09:47:10Z</time>
      </trkpt>
      <trkpt lat="47.20004" lon="-1.73862">
        <ele>3.8</ele>
        <time>2022-01-23T09:47:14Z</time>
      </trkpt>
      <trkpt lat="47.20009" lon="-1.73857">
        <ele>4</ele>
        <time>2022-01-23T09:47:16Z</time>
      </trkpt>
      <trkpt lat="47.20011" lon="-1.73854">
        <ele>4</ele>
        <time>2022-01-23T09:47:17Z</time>
      </trkpt>
      <trkpt lat="47.20013" lon="-1.73848">
        <ele>4</ele>
        <time>2022-01-23T09:47:18Z</time>
      </trkpt>
      <trkpt lat="47.20018" lon="-1.73824">
        <ele>4</ele>
        <time>2022-01-23T09:47:22Z</time>
      </trkpt>
      <trkpt lat="47.20029" lon="-1.73788">
        <ele>4</ele>
        <time>2022-01-23T09:47:27Z</time>
      </trkpt>
      <trkpt lat="47.20031" lon="-1.73771">
        <ele>4</ele>
        <time>2022-01-23T09:47:29Z</time>
      </trkpt>
      <trkpt lat="47.20033" lon="-1.73753">
        <ele>4</ele>
        <time>2022-01-23T09:47:31Z</time>
      </trkpt>
      <trkpt lat="47.20038" lon="-1.73704">
        <ele>3.8</ele>
        <time>2022-01-23T09:47:36Z</time>
      </trkpt>
      <trkpt lat="47.20039" lon="-1.73687">
        <ele>3.6</ele>
        <time>2022-01-23T09:47:38Z</time>
      </trkpt>
      <trkpt lat="47.20044" lon="-1.7366">
        <ele>3.4</ele>
        <time>2022-01-23T09:47:41Z</time>
      </trkpt>
      <trkpt lat="47.20046" lon="-1.73635">
        <ele>3.2</ele>
        <time>2022-01-23T09:47:44Z</time>
      </trkpt>
      <trkpt lat="47.20044" lon="-1.73627">
        <ele>3</ele>
        <time>2022-01-23T09:47:45Z</time>
      </trkpt>
      <trkpt lat="47.20042" lon="-1.73603">
        <ele>2.6</ele>
        <time>2022-01-23T09:47:48Z</time>
      </trkpt>
      <trkpt lat="47.20043" lon="-1.73588">
        <ele>2.2</ele>
        <time>2022-01-23T09:47:50Z</time>
      </trkpt>
      <trkpt lat="47.20046" lon="-1.73571">
        <ele>1.8</ele>
        <time>2022-01-23T09:47:53Z</time>
      </trkpt>
      <trkpt lat="47.2005" lon="-1.73568">
        <ele>1.6</ele>
        <time>2022-01-23T09:47:54Z</time>
      </trkpt>
      <trkpt lat="47.20053" lon="-1.73564">
        <ele>1.4</ele>
        <time>2022-01-23T09:47:55Z</time>
      </trkpt>
      <trkpt lat="47.20062" lon="-1.73554">
        <ele>1</ele>
        <time>2022-01-23T09:47:57Z</time>
      </trkpt>
      <trkpt lat="47.20066" lon="-1.73549">
        <ele>0.80000000000001</ele>
        <time>2022-01-23T09:47:58Z</time>
      </trkpt>
      <trkpt lat="47.2007" lon="-1.73536">
        <ele>0.39999999999998</ele>
        <time>2022-01-23T09:48:00Z</time>
      </trkpt>
      <trkpt lat="47.20073" lon="-1.73518">
        <ele>0.39999999999998</ele>
        <time>2022-01-23T09:48:02Z</time>
      </trkpt>
      <trkpt lat="47.20073" lon="-1.73508">
        <ele>-0.19999999999999</ele>
        <time>2022-01-23T09:48:03Z</time>
      </trkpt>
      <trkpt lat="47.20074" lon="-1.73499">
        <ele>-0.19999999999999</ele>
        <time>2022-01-23T09:48:04Z</time>
      </trkpt>
      <trkpt lat="47.20072" lon="-1.73481">
        <ele>-0.60000000000002</ele>
        <time>2022-01-23T09:48:06Z</time>
      </trkpt>
      <trkpt lat="47.20071" lon="-1.73473">
        <ele>-0.80000000000001</ele>
        <time>2022-01-23T09:48:07Z</time>
      </trkpt>
      <trkpt lat="47.20066" lon="-1.73431">
        <ele>-2</ele>
        <time>2022-01-23T09:48:12Z</time>
      </trkpt>
      <trkpt lat="47.20061" lon="-1.73379">
        <ele>-4</ele>
        <time>2022-01-23T09:48:18Z</time>
      </trkpt>
      <trkpt lat="47.20061" lon="-1.73362">
        <ele>-4.4</ele>
        <time>2022-01-23T09:48:20Z</time>
      </trkpt>
      <trkpt lat="47.2006" lon="-1.73347">
        <ele>-5.2</ele>
        <time>2022-01-23T09:48:22Z</time>
      </trkpt>
      <trkpt lat="47.20056" lon="-1.73312">
        <ele>-6.6</ele>
        <time>2022-01-23T09:48:26Z</time>
      </trkpt>
      <trkpt lat="47.20054" lon="-1.73282">
        <ele>-7.6</ele>
        <time>2022-01-23T09:48:29Z</time>
      </trkpt>
      <trkpt lat="47.20053" lon="-1.73273">
        <ele>-8</ele>
        <time>2022-01-23T09:48:30Z</time>
      </trkpt>
      <trkpt lat="47.20059" lon="-1.73228">
        <ele>-9</ele>
        <time>2022-01-23T09:48:35Z</time>
      </trkpt>
      <trkpt lat="47.20054" lon="-1.73184">
        <ele>-9.8</ele>
        <time>2022-01-23T09:48:40Z</time>
      </trkpt>
      <trkpt lat="47.20053" lon="-1.73169">
        <ele>-9.8</ele>
        <time>2022-01-23T09:48:42Z</time>
      </trkpt>
      <trkpt lat="47.20052" lon="-1.7316">
        <ele>-10</ele>
        <time>2022-01-23T09:48:43Z</time>
      </trkpt>
      <trkpt lat="47.20051" lon="-1.73152">
        <ele>-10.2</ele>
        <time>2022-01-23T09:48:44Z</time>
      </trkpt>
      <trkpt lat="47.2005" lon="-1.73135">
        <ele>-10.6</ele>
        <time>2022-01-23T09:48:46Z</time>
      </trkpt>
      <trkpt lat="47.20049" lon="-1.73126">
        <ele>-10.8</ele>
        <time>2022-01-23T09:48:47Z</time>
      </trkpt>
      <trkpt lat="47.20049" lon="-1.73108">
        <ele>-11</ele>
        <time>2022-01-23T09:48:49Z</time>
      </trkpt>
      <trkpt lat="47.20048" lon="-1.7309">
        <ele>-11.2</ele>
        <time>2022-01-23T09:48:51Z</time>
      </trkpt>
      <trkpt lat="47.20047" lon="-1.73082">
        <ele>-11.4</ele>
        <time>2022-01-23T09:48:52Z</time>
      </trkpt>
      <trkpt lat="47.20047" lon="-1.73073">
        <ele>-11.6</ele>
        <time>2022-01-23T09:48:53Z</time>
      </trkpt>
      <trkpt lat="47.20047" lon="-1.73048">
        <ele>-12</ele>
        <time>2022-01-23T09:48:56Z</time>
      </trkpt>
      <trkpt lat="47.20038" lon="-1.72992">
        <ele>-12.4</ele>
        <time>2022-01-23T09:49:03Z</time>
      </trkpt>
      <trkpt lat="47.20033" lon="-1.7298">
        <ele>-12.8</ele>
        <time>2022-01-23T09:49:06Z</time>
      </trkpt>
      <trkpt lat="47.20025" lon="-1.72965">
        <ele>-12.6</ele>
        <time>2022-01-23T09:49:11Z</time>
      </trkpt>
      <trkpt lat="47.20024" lon="-1.72952">
        <ele>-12.6</ele>
        <time>2022-01-23T09:49:13Z</time>
      </trkpt>
      <trkpt lat="47.20023" lon="-1.72937">
        <ele>-12.8</ele>
        <time>2022-01-23T09:49:15Z</time>
      </trkpt>
      <trkpt lat="47.2002" lon="-1.72914">
        <ele>-13.2</ele>
        <time>2022-01-23T09:49:18Z</time>
      </trkpt>
      <trkpt lat="47.20019" lon="-1.72906">
        <ele>-13.4</ele>
        <time>2022-01-23T09:49:19Z</time>
      </trkpt>
      <trkpt lat="47.20014" lon="-1.72882">
        <ele>-14</ele>
        <time>2022-01-23T09:49:22Z</time>
      </trkpt>
      <trkpt lat="47.20012" lon="-1.72874">
        <ele>-14.2</ele>
        <time>2022-01-23T09:49:23Z</time>
      </trkpt>
      <trkpt lat="47.19998" lon="-1.7283">
        <ele>-15</ele>
        <time>2022-01-23T09:49:29Z</time>
      </trkpt>
      <trkpt lat="47.19993" lon="-1.72816">
        <ele>-15.4</ele>
        <time>2022-01-23T09:49:31Z</time>
      </trkpt>
      <trkpt lat="47.19987" lon="-1.72803">
        <ele>-15.8</ele>
        <time>2022-01-23T09:49:33Z</time>
      </trkpt>
      <trkpt lat="47.19984" lon="-1.72797">
        <ele>-16</ele>
        <time>2022-01-23T09:49:34Z</time>
      </trkpt>
      <trkpt lat="47.19982" lon="-1.72791">
        <ele>-16.4</ele>
        <time>2022-01-23T09:49:35Z</time>
      </trkpt>
      <trkpt lat="47.19975" lon="-1.72763">
        <ele>-17.2</ele>
        <time>2022-01-23T09:49:39Z</time>
      </trkpt>
      <trkpt lat="47.19974" lon="-1.72748">
        <ele>-17.8</ele>
        <time>2022-01-23T09:49:41Z</time>
      </trkpt>
      <trkpt lat="47.19973" lon="-1.72733">
        <ele>-18</ele>
        <time>2022-01-23T09:49:43Z</time>
      </trkpt>
      <trkpt lat="47.19973" lon="-1.72725">
        <ele>-18.2</ele>
        <time>2022-01-23T09:49:44Z</time>
      </trkpt>
      <trkpt lat="47.19972" lon="-1.72709">
        <ele>-18.6</ele>
        <time>2022-01-23T09:49:46Z</time>
      </trkpt>
      <trkpt lat="47.1997" lon="-1.72701">
        <ele>-18.6</ele>
        <time>2022-01-23T09:49:47Z</time>
      </trkpt>
      <trkpt lat="47.19965" lon="-1.72671">
        <ele>-19.2</ele>
        <time>2022-01-23T09:49:51Z</time>
      </trkpt>
      <trkpt lat="47.19964" lon="-1.72664">
        <ele>-19.4</ele>
        <time>2022-01-23T09:49:52Z</time>
      </trkpt>
      <trkpt lat="47.19963" lon="-1.7265">
        <ele>-19.8</ele>
        <time>2022-01-23T09:49:54Z</time>
      </trkpt>
      <trkpt lat="47.19959" lon="-1.72634">
        <ele>-20</ele>
        <time>2022-01-23T09:49:56Z</time>
      </trkpt>
      <trkpt lat="47.19945" lon="-1.72587">
        <ele>-20.6</ele>
        <time>2022-01-23T09:50:02Z</time>
      </trkpt>
      <trkpt lat="47.19936" lon="-1.72566">
        <ele>-21</ele>
        <time>2022-01-23T09:50:05Z</time>
      </trkpt>
      <trkpt lat="47.19931" lon="-1.72561">
        <ele>-21</ele>
        <time>2022-01-23T09:50:06Z</time>
      </trkpt>
      <trkpt lat="47.19926" lon="-1.72555">
        <ele>-20.6</ele>
        <time>2022-01-23T09:50:07Z</time>
      </trkpt>
      <trkpt lat="47.19919" lon="-1.72536">
        <ele>-20</ele>
        <time>2022-01-23T09:50:09Z</time>
      </trkpt>
      <trkpt lat="47.19914" lon="-1.7252">
        <ele>-21.2</ele>
        <time>2022-01-23T09:50:11Z</time>
      </trkpt>
      <trkpt lat="47.1991" lon="-1.72514">
        <ele>-20.8</ele>
        <time>2022-01-23T09:50:12Z</time>
      </trkpt>
      <trkpt lat="47.19889" lon="-1.72482">
        <ele>-20.4</ele>
        <time>2022-01-23T09:50:17Z</time>
      </trkpt>
      <trkpt lat="47.19891" lon="-1.72468">
        <ele>-20.4</ele>
        <time>2022-01-23T09:50:19Z</time>
      </trkpt>
      <trkpt lat="47.19901" lon="-1.72456">
        <ele>-19.2</ele>
        <time>2022-01-23T09:50:22Z</time>
      </trkpt>
      <trkpt lat="47.19904" lon="-1.72454">
        <ele>-19.2</ele>
        <time>2022-01-23T09:50:23Z</time>
      </trkpt>
      <trkpt lat="47.19919" lon="-1.7245">
        <ele>-18.8</ele>
        <time>2022-01-23T09:50:26Z</time>
      </trkpt>
      <trkpt lat="47.19937" lon="-1.72446">
        <ele>-18</ele>
        <time>2022-01-23T09:50:29Z</time>
      </trkpt>
      <trkpt lat="47.19948" lon="-1.7244">
        <ele>-17.6</ele>
        <time>2022-01-23T09:50:31Z</time>
      </trkpt>
      <trkpt lat="47.19957" lon="-1.7243">
        <ele>-17.2</ele>
        <time>2022-01-23T09:50:34Z</time>
      </trkpt>
      <trkpt lat="47.19959" lon="-1.72427">
        <ele>-17</ele>
        <time>2022-01-23T09:50:35Z</time>
      </trkpt>
      <trkpt lat="47.19964" lon="-1.7241">
        <ele>-16.6</ele>
        <time>2022-01-23T09:50:38Z</time>
      </trkpt>
      <trkpt lat="47.19966" lon="-1.72397">
        <ele>-16.2</ele>
        <time>2022-01-23T09:50:40Z</time>
      </trkpt>
      <trkpt lat="47.19966" lon="-1.72382">
        <ele>-16</ele>
        <time>2022-01-23T09:50:42Z</time>
      </trkpt>
      <trkpt lat="47.19966" lon="-1.72376">
        <ele>-15.8</ele>
        <time>2022-01-23T09:50:43Z</time>
      </trkpt>
      <trkpt lat="47.19964" lon="-1.72371">
        <ele>-15.8</ele>
        <time>2022-01-23T09:50:44Z</time>
      </trkpt>
      <trkpt lat="47.19958" lon="-1.72364">
        <ele>-15.6</ele>
        <time>2022-01-23T09:50:46Z</time>
      </trkpt>
      <trkpt lat="47.19949" lon="-1.72358">
        <ele>-15.2</ele>
        <time>2022-01-23T09:50:48Z</time>
      </trkpt>
      <trkpt lat="47.19946" lon="-1.72352">
        <ele>-15.2</ele>
        <time>2022-01-23T09:50:49Z</time>
      </trkpt>
      <trkpt lat="47.19943" lon="-1.72346">
        <ele>-15</ele>
        <time>2022-01-23T09:50:50Z</time>
      </trkpt>
      <trkpt lat="47.19938" lon="-1.72325">
        <ele>-15</ele>
        <time>2022-01-23T09:50:53Z</time>
      </trkpt>
      <trkpt lat="47.19935" lon="-1.72311">
        <ele>-14.8</ele>
        <time>2022-01-23T09:50:55Z</time>
      </trkpt>
      <trkpt lat="47.19934" lon="-1.72303">
        <ele>-14.8</ele>
        <time>2022-01-23T09:50:56Z</time>
      </trkpt>
      <trkpt lat="47.19934" lon="-1.72287">
        <ele>-14.6</ele>
        <time>2022-01-23T09:50:58Z</time>
      </trkpt>
      <trkpt lat="47.19934" lon="-1.72273">
        <ele>-14.6</ele>
        <time>2022-01-23T09:51:00Z</time>
      </trkpt>
      <trkpt lat="47.19933" lon="-1.72268">
        <ele>-14.6</ele>
        <time>2022-01-23T09:51:01Z</time>
      </trkpt>
      <trkpt lat="47.19927" lon="-1.7226">
        <ele>-14.8</ele>
        <time>2022-01-23T09:51:03Z</time>
      </trkpt>
      <trkpt lat="47.1992" lon="-1.72253">
        <ele>-14.8</ele>
        <time>2022-01-23T09:51:05Z</time>
      </trkpt>
      <trkpt lat="47.19916" lon="-1.72249">
        <ele>-14.8</ele>
        <time>2022-01-23T09:51:06Z</time>
      </trkpt>
      <trkpt lat="47.19913" lon="-1.72245">
        <ele>-14.8</ele>
        <time>2022-01-23T09:51:07Z</time>
      </trkpt>
      <trkpt lat="47.19908" lon="-1.7223">
        <ele>-14.8</ele>
        <time>2022-01-23T09:51:10Z</time>
      </trkpt>
      <trkpt lat="47.19904" lon="-1.72231">
        <ele>-14.8</ele>
        <time>2022-01-23T09:51:12Z</time>
      </trkpt>
      <trkpt lat="47.19903" lon="-1.72233">
        <ele>-14.8</ele>
        <time>2022-01-23T09:51:13Z</time>
      </trkpt>
      <trkpt lat="47.19903" lon="-1.72237">
        <ele>-14.2</ele>
        <time>2022-01-23T09:51:15Z</time>
      </trkpt>
      <trkpt lat="47.19899" lon="-1.72244">
        <ele>-15.6</ele>
        <time>2022-01-23T09:51:17Z</time>
      </trkpt>
      <trkpt lat="47.19895" lon="-1.72247">
        <ele>-15.2</ele>
        <time>2022-01-23T09:51:18Z</time>
      </trkpt>
      <trkpt lat="47.1989" lon="-1.72249">
        <ele>-15.4</ele>
        <time>2022-01-23T09:51:19Z</time>
      </trkpt>
      <trkpt lat="47.1988" lon="-1.72252">
        <ele>-15.8</ele>
        <time>2022-01-23T09:51:21Z</time>
      </trkpt>
      <trkpt lat="47.19866" lon="-1.72257">
        <ele>-16.4</ele>
        <time>2022-01-23T09:51:24Z</time>
      </trkpt>
      <trkpt lat="47.19856" lon="-1.72259">
        <ele>-17.2</ele>
        <time>2022-01-23T09:51:26Z</time>
      </trkpt>
      <trkpt lat="47.19849" lon="-1.72263">
        <ele>-18</ele>
        <time>2022-01-23T09:51:28Z</time>
      </trkpt>
      <trkpt lat="47.19839" lon="-1.72265">
        <ele>-18.8</ele>
        <time>2022-01-23T09:51:30Z</time>
      </trkpt>
      <trkpt lat="47.19815" lon="-1.7227">
        <ele>-20.2</ele>
        <time>2022-01-23T09:51:35Z</time>
      </trkpt>
      <trkpt lat="47.19796" lon="-1.72275">
        <ele>-20.4</ele>
        <time>2022-01-23T09:51:39Z</time>
      </trkpt>
      <trkpt lat="47.19781" lon="-1.72277">
        <ele>-21.4</ele>
        <time>2022-01-23T09:51:43Z</time>
      </trkpt>
      <trkpt lat="47.19775" lon="-1.72276">
        <ele>-22</ele>
        <time>2022-01-23T09:51:45Z</time>
      </trkpt>
      <trkpt lat="47.19766" lon="-1.72274">
        <ele>-22.6</ele>
        <time>2022-01-23T09:51:47Z</time>
      </trkpt>
      <trkpt lat="47.19757" lon="-1.72272">
        <ele>-23</ele>
        <time>2022-01-23T09:51:49Z</time>
      </trkpt>
      <trkpt lat="47.19744" lon="-1.7227">
        <ele>-23.6</ele>
        <time>2022-01-23T09:51:52Z</time>
      </trkpt>
      <trkpt lat="47.19733" lon="-1.72266">
        <ele>-23</ele>
        <time>2022-01-23T09:51:55Z</time>
      </trkpt>
      <trkpt lat="47.19726" lon="-1.72253">
        <ele>-23.8</ele>
        <time>2022-01-23T09:51:57Z</time>
      </trkpt>
      <trkpt lat="47.19725" lon="-1.72245">
        <ele>-20.8</ele>
        <time>2022-01-23T09:51:58Z</time>
      </trkpt>
      <trkpt lat="47.19721" lon="-1.72201">
        <ele>-19.6</ele>
        <time>2022-01-23T09:52:03Z</time>
      </trkpt>
      <trkpt lat="47.1972" lon="-1.72192">
        <ele>-19.6</ele>
        <time>2022-01-23T09:52:04Z</time>
      </trkpt>
      <trkpt lat="47.1972" lon="-1.72174">
        <ele>-20</ele>
        <time>2022-01-23T09:52:06Z</time>
      </trkpt>
      <trkpt lat="47.19717" lon="-1.72157">
        <ele>-19.8</ele>
        <time>2022-01-23T09:52:08Z</time>
      </trkpt>
      <trkpt lat="47.19714" lon="-1.72106">
        <ele>-19.2</ele>
        <time>2022-01-23T09:52:13Z</time>
      </trkpt>
      <trkpt lat="47.19713" lon="-1.72095">
        <ele>-19.2</ele>
        <time>2022-01-23T09:52:14Z</time>
      </trkpt>
      <trkpt lat="47.1971" lon="-1.72063">
        <ele>-18.8</ele>
        <time>2022-01-23T09:52:17Z</time>
      </trkpt>
      <trkpt lat="47.1971" lon="-1.72053">
        <ele>-18.8</ele>
        <time>2022-01-23T09:52:18Z</time>
      </trkpt>
      <trkpt lat="47.19709" lon="-1.72032">
        <ele>-18.8</ele>
        <time>2022-01-23T09:52:20Z</time>
      </trkpt>
      <trkpt lat="47.19708" lon="-1.71999">
        <ele>-19</ele>
        <time>2022-01-23T09:52:23Z</time>
      </trkpt>
      <trkpt lat="47.19708" lon="-1.71983">
        <ele>-19</ele>
        <time>2022-01-23T09:52:25Z</time>
      </trkpt>
      <trkpt lat="47.19707" lon="-1.71978">
        <ele>-19</ele>
        <time>2022-01-23T09:52:26Z</time>
      </trkpt>
      <trkpt lat="47.19704" lon="-1.71974">
        <ele>-19</ele>
        <time>2022-01-23T09:52:27Z</time>
      </trkpt>
      <trkpt lat="47.19698" lon="-1.71968">
        <ele>-19.2</ele>
        <time>2022-01-23T09:52:29Z</time>
      </trkpt>
      <trkpt lat="47.19691" lon="-1.71965">
        <ele>-17.8</ele>
        <time>2022-01-23T09:52:31Z</time>
      </trkpt>
      <trkpt lat="47.19683" lon="-1.71961">
        <ele>-19.4</ele>
        <time>2022-01-23T09:52:33Z</time>
      </trkpt>
      <trkpt lat="47.19671" lon="-1.71952">
        <ele>-19.8</ele>
        <time>2022-01-23T09:52:36Z</time>
      </trkpt>
      <trkpt lat="47.19663" lon="-1.71946">
        <ele>-20</ele>
        <time>2022-01-23T09:52:38Z</time>
      </trkpt>
      <trkpt lat="47.19656" lon="-1.71942">
        <ele>-20.2</ele>
        <time>2022-01-23T09:52:40Z</time>
      </trkpt>
      <trkpt lat="47.19651" lon="-1.71945">
        <ele>-19.8</ele>
        <time>2022-01-23T09:52:42Z</time>
      </trkpt>
      <trkpt lat="47.19652" lon="-1.71953">
        <ele>-19.4</ele>
        <time>2022-01-23T09:52:44Z</time>
      </trkpt>
      <trkpt lat="47.19651" lon="-1.71959">
        <ele>-19</ele>
        <time>2022-01-23T09:52:45Z</time>
      </trkpt>
      <trkpt lat="47.19647" lon="-1.71965">
        <ele>-19</ele>
        <time>2022-01-23T09:52:46Z</time>
      </trkpt>
      <trkpt lat="47.19643" lon="-1.71969">
        <ele>-18.8</ele>
        <time>2022-01-23T09:52:47Z</time>
      </trkpt>
      <trkpt lat="47.19628" lon="-1.71981">
        <ele>-18.6</ele>
        <time>2022-01-23T09:52:50Z</time>
      </trkpt>
      <trkpt lat="47.19619" lon="-1.7198">
        <ele>-18.4</ele>
        <time>2022-01-23T09:52:52Z</time>
      </trkpt>
      <trkpt lat="47.19614" lon="-1.71971">
        <ele>-18</ele>
        <time>2022-01-23T09:52:54Z</time>
      </trkpt>
      <trkpt lat="47.19612" lon="-1.71965">
        <ele>-17.8</ele>
        <time>2022-01-23T09:52:55Z</time>
      </trkpt>
      <trkpt lat="47.19606" lon="-1.71931">
        <ele>-16.8</ele>
        <time>2022-01-23T09:53:00Z</time>
      </trkpt>
      <trkpt lat="47.19604" lon="-1.71923">
        <ele>-16.6</ele>
        <time>2022-01-23T09:53:01Z</time>
      </trkpt>
      <trkpt lat="47.19596" lon="-1.71884">
        <ele>-16</ele>
        <time>2022-01-23T09:53:07Z</time>
      </trkpt>
      <trkpt lat="47.19586" lon="-1.71832">
        <ele>-14</ele>
        <time>2022-01-23T09:53:14Z</time>
      </trkpt>
      <trkpt lat="47.19579" lon="-1.71781">
        <ele>-12.6</ele>
        <time>2022-01-23T09:53:21Z</time>
      </trkpt>
      <trkpt lat="47.19571" lon="-1.71727">
        <ele>-10.8</ele>
        <time>2022-01-23T09:53:29Z</time>
      </trkpt>
      <trkpt lat="47.19561" lon="-1.71672">
        <ele>-9</ele>
        <time>2022-01-23T09:53:37Z</time>
      </trkpt>
      <trkpt lat="47.19558" lon="-1.71653">
        <ele>-8.4</ele>
        <time>2022-01-23T09:53:40Z</time>
      </trkpt>
      <trkpt lat="47.19555" lon="-1.71641">
        <ele>-8</ele>
        <time>2022-01-23T09:53:42Z</time>
      </trkpt>
      <trkpt lat="47.19547" lon="-1.71598">
        <ele>-6.4</ele>
        <time>2022-01-23T09:53:49Z</time>
      </trkpt>
      <trkpt lat="47.19537" lon="-1.71559">
        <ele>-5</ele>
        <time>2022-01-23T09:53:56Z</time>
      </trkpt>
      <trkpt lat="47.19526" lon="-1.71516">
        <ele>-3.2</ele>
        <time>2022-01-23T09:54:04Z</time>
      </trkpt>
      <trkpt lat="47.19514" lon="-1.71466">
        <ele>-1.4</ele>
        <time>2022-01-23T09:54:13Z</time>
      </trkpt>
      <trkpt lat="47.1951" lon="-1.71441">
        <ele>-0.39999999999998</ele>
        <time>2022-01-23T09:54:18Z</time>
      </trkpt>
      <trkpt lat="47.19511" lon="-1.71436">
        <ele>-0.19999999999999</ele>
        <time>2022-01-23T09:54:19Z</time>
      </trkpt>
      <trkpt lat="47.19516" lon="-1.71429">
        <ele>0.19999999999999</ele>
        <time>2022-01-23T09:54:21Z</time>
      </trkpt>
      <trkpt lat="47.19539" lon="-1.71419">
        <ele>1.2</ele>
        <time>2022-01-23T09:54:27Z</time>
      </trkpt>
      <trkpt lat="47.19568" lon="-1.71404">
        <ele>3</ele>
        <time>2022-01-23T09:54:35Z</time>
      </trkpt>
      <trkpt lat="47.19591" lon="-1.71392">
        <ele>4.6</ele>
        <time>2022-01-23T09:54:42Z</time>
      </trkpt>
      <trkpt lat="47.19595" lon="-1.71385">
        <ele>5</ele>
        <time>2022-01-23T09:54:44Z</time>
      </trkpt>
      <trkpt lat="47.19596" lon="-1.71381">
        <ele>5.2</ele>
        <time>2022-01-23T09:54:45Z</time>
      </trkpt>
      <trkpt lat="47.19595" lon="-1.71376">
        <ele>5.4</ele>
        <time>2022-01-23T09:54:46Z</time>
      </trkpt>
      <trkpt lat="47.1959" lon="-1.71369">
        <ele>5.8</ele>
        <time>2022-01-23T09:54:48Z</time>
      </trkpt>
      <trkpt lat="47.19574" lon="-1.71347">
        <ele>6.8</ele>
        <time>2022-01-23T09:54:53Z</time>
      </trkpt>
      <trkpt lat="47.19548" lon="-1.71316">
        <ele>7.6</ele>
        <time>2022-01-23T09:54:59Z</time>
      </trkpt>
      <trkpt lat="47.19516" lon="-1.7127">
        <ele>8.4</ele>
        <time>2022-01-23T09:55:07Z</time>
      </trkpt>
      <trkpt lat="47.19506" lon="-1.71251">
        <ele>8.8</ele>
        <time>2022-01-23T09:55:10Z</time>
      </trkpt>
      <trkpt lat="47.195" lon="-1.71237">
        <ele>9</ele>
        <time>2022-01-23T09:55:12Z</time>
      </trkpt>
      <trkpt lat="47.19498" lon="-1.7123">
        <ele>9.2</ele>
        <time>2022-01-23T09:55:13Z</time>
      </trkpt>
      <trkpt lat="47.19492" lon="-1.71205">
        <ele>9.6</ele>
        <time>2022-01-23T09:55:17Z</time>
      </trkpt>
      <trkpt lat="47.19483" lon="-1.71167">
        <ele>10.4</ele>
        <time>2022-01-23T09:55:24Z</time>
      </trkpt>
      <trkpt lat="47.19485" lon="-1.71124">
        <ele>11.6</ele>
        <time>2022-01-23T09:55:32Z</time>
      </trkpt>
      <trkpt lat="47.19487" lon="-1.71093">
        <ele>12.4</ele>
        <time>2022-01-23T09:55:38Z</time>
      </trkpt>
      <trkpt lat="47.19494" lon="-1.7107">
        <ele>13.2</ele>
        <time>2022-01-23T09:55:43Z</time>
      </trkpt>
      <trkpt lat="47.19508" lon="-1.71055">
        <ele>14.2</ele>
        <time>2022-01-23T09:55:48Z</time>
      </trkpt>
      <trkpt lat="47.19528" lon="-1.71046">
        <ele>15.6</ele>
        <time>2022-01-23T09:55:54Z</time>
      </trkpt>
      <trkpt lat="47.19547" lon="-1.71036">
        <ele>16.6</ele>
        <time>2022-01-23T09:56:00Z</time>
      </trkpt>
      <trkpt lat="47.19568" lon="-1.71026">
        <ele>17.4</ele>
        <time>2022-01-23T09:56:06Z</time>
      </trkpt>
      <trkpt lat="47.19592" lon="-1.71014">
        <ele>18.6</ele>
        <time>2022-01-23T09:56:13Z</time>
      </trkpt>
      <trkpt lat="47.19612" lon="-1.71003">
        <ele>19.2</ele>
        <time>2022-01-23T09:56:18Z</time>
      </trkpt>
      <trkpt lat="47.1962" lon="-1.70998">
        <ele>19.4</ele>
        <time>2022-01-23T09:56:20Z</time>
      </trkpt>
      <trkpt lat="47.19644" lon="-1.70985">
        <ele>20</ele>
        <time>2022-01-23T09:56:26Z</time>
      </trkpt>
      <trkpt lat="47.19652" lon="-1.70979">
        <ele>20.2</ele>
        <time>2022-01-23T09:56:28Z</time>
      </trkpt>
      <trkpt lat="47.19661" lon="-1.70972">
        <ele>20.4</ele>
        <time>2022-01-23T09:56:30Z</time>
      </trkpt>
      <trkpt lat="47.19673" lon="-1.70962">
        <ele>20.6</ele>
        <time>2022-01-23T09:56:33Z</time>
      </trkpt>
      <trkpt lat="47.19677" lon="-1.70958">
        <ele>20.6</ele>
        <time>2022-01-23T09:56:34Z</time>
      </trkpt>
      <trkpt lat="47.19684" lon="-1.70952">
        <ele>20.6</ele>
        <time>2022-01-23T09:56:36Z</time>
      </trkpt>
      <trkpt lat="47.19693" lon="-1.70949">
        <ele>20.6</ele>
        <time>2022-01-23T09:56:38Z</time>
      </trkpt>
      <trkpt lat="47.19711" lon="-1.70947">
        <ele>20.6</ele>
        <time>2022-01-23T09:56:41Z</time>
      </trkpt>
      <trkpt lat="47.19722" lon="-1.70942">
        <ele>20.4</ele>
        <time>2022-01-23T09:56:43Z</time>
      </trkpt>
      <trkpt lat="47.19733" lon="-1.70931">
        <ele>21</ele>
        <time>2022-01-23T09:56:46Z</time>
      </trkpt>
      <trkpt lat="47.1974" lon="-1.70921">
        <ele>19.4</ele>
        <time>2022-01-23T09:56:48Z</time>
      </trkpt>
      <trkpt lat="47.19747" lon="-1.70914">
        <ele>19.6</ele>
        <time>2022-01-23T09:56:49Z</time>
      </trkpt>
      <trkpt lat="47.19756" lon="-1.70901">
        <ele>19.2</ele>
        <time>2022-01-23T09:56:51Z</time>
      </trkpt>
      <trkpt lat="47.1976" lon="-1.70893">
        <ele>18.8</ele>
        <time>2022-01-23T09:56:52Z</time>
      </trkpt>
      <trkpt lat="47.19761" lon="-1.70884">
        <ele>18.6</ele>
        <time>2022-01-23T09:56:53Z</time>
      </trkpt>
      <trkpt lat="47.19761" lon="-1.70864">
        <ele>18</ele>
        <time>2022-01-23T09:56:55Z</time>
      </trkpt>
      <trkpt lat="47.19761" lon="-1.70852">
        <ele>17.6</ele>
        <time>2022-01-23T09:56:56Z</time>
      </trkpt>
      <trkpt lat="47.19761" lon="-1.70826">
        <ele>16.8</ele>
        <time>2022-01-23T09:56:58Z</time>
      </trkpt>
      <trkpt lat="47.19759" lon="-1.70813">
        <ele>16.4</ele>
        <time>2022-01-23T09:56:59Z</time>
      </trkpt>
      <trkpt lat="47.19757" lon="-1.70787">
        <ele>15.4</ele>
        <time>2022-01-23T09:57:01Z</time>
      </trkpt>
      <trkpt lat="47.1975" lon="-1.70741">
        <ele>13.6</ele>
        <time>2022-01-23T09:57:05Z</time>
      </trkpt>
      <trkpt lat="47.19748" lon="-1.70725">
        <ele>12.4</ele>
        <time>2022-01-23T09:57:08Z</time>
      </trkpt>
      <trkpt lat="47.19746" lon="-1.7072">
        <ele>12</ele>
        <time>2022-01-23T09:57:09Z</time>
      </trkpt>
      <trkpt lat="47.1974" lon="-1.70703">
        <ele>11</ele>
        <time>2022-01-23T09:57:12Z</time>
      </trkpt>
      <trkpt lat="47.19738" lon="-1.70697">
        <ele>10.6</ele>
        <time>2022-01-23T09:57:13Z</time>
      </trkpt>
      <trkpt lat="47.19733" lon="-1.70677">
        <ele>9.6</ele>
        <time>2022-01-23T09:57:16Z</time>
      </trkpt>
      <trkpt lat="47.19731" lon="-1.7067">
        <ele>9.2</ele>
        <time>2022-01-23T09:57:17Z</time>
      </trkpt>
      <trkpt lat="47.19724" lon="-1.70635">
        <ele>7.2</ele>
        <time>2022-01-23T09:57:22Z</time>
      </trkpt>
      <trkpt lat="47.19722" lon="-1.70621">
        <ele>6.6</ele>
        <time>2022-01-23T09:57:24Z</time>
      </trkpt>
      <trkpt lat="47.19716" lon="-1.70599">
        <ele>5.6</ele>
        <time>2022-01-23T09:57:27Z</time>
      </trkpt>
      <trkpt lat="47.19714" lon="-1.70591">
        <ele>5.2</ele>
        <time>2022-01-23T09:57:28Z</time>
      </trkpt>
      <trkpt lat="47.1971" lon="-1.70578">
        <ele>4.4</ele>
        <time>2022-01-23T09:57:30Z</time>
      </trkpt>
      <trkpt lat="47.1971" lon="-1.70559">
        <ele>3.2</ele>
        <time>2022-01-23T09:57:33Z</time>
      </trkpt>
      <trkpt lat="47.1971" lon="-1.70551">
        <ele>2.8</ele>
        <time>2022-01-23T09:57:34Z</time>
      </trkpt>
      <trkpt lat="47.19709" lon="-1.70543">
        <ele>2.6</ele>
        <time>2022-01-23T09:57:35Z</time>
      </trkpt>
      <trkpt lat="47.19706" lon="-1.7053">
        <ele>1.8</ele>
        <time>2022-01-23T09:57:37Z</time>
      </trkpt>
      <trkpt lat="47.19705" lon="-1.70524">
        <ele>1.6</ele>
        <time>2022-01-23T09:57:38Z</time>
      </trkpt>
      <trkpt lat="47.19704" lon="-1.70518">
        <ele>1.2</ele>
        <time>2022-01-23T09:57:39Z</time>
      </trkpt>
      <trkpt lat="47.19703" lon="-1.70507">
        <ele>0.80000000000001</ele>
        <time>2022-01-23T09:57:41Z</time>
      </trkpt>
      <trkpt lat="47.19703" lon="-1.705">
        <ele>0.39999999999998</ele>
        <time>2022-01-23T09:57:42Z</time>
      </trkpt>
      <trkpt lat="47.19703" lon="-1.70494">
        <ele>0.39999999999998</ele>
        <time>2022-01-23T09:57:43Z</time>
      </trkpt>
      <trkpt lat="47.19704" lon="-1.70477">
        <ele>-0.39999999999998</ele>
        <time>2022-01-23T09:57:45Z</time>
      </trkpt>
      <trkpt lat="47.19705" lon="-1.7047">
        <ele>-0.80000000000001</ele>
        <time>2022-01-23T09:57:46Z</time>
      </trkpt>
      <trkpt lat="47.19703" lon="-1.70454">
        <ele>-1.2</ele>
        <time>2022-01-23T09:57:48Z</time>
      </trkpt>
      <trkpt lat="47.19702" lon="-1.70447">
        <ele>-1.6</ele>
        <time>2022-01-23T09:57:49Z</time>
      </trkpt>
      <trkpt lat="47.19699" lon="-1.70425">
        <ele>-2.6</ele>
        <time>2022-01-23T09:57:52Z</time>
      </trkpt>
      <trkpt lat="47.19695" lon="-1.70411">
        <ele>-3.2</ele>
        <time>2022-01-23T09:57:54Z</time>
      </trkpt>
      <trkpt lat="47.19687" lon="-1.70384">
        <ele>-4.2</ele>
        <time>2022-01-23T09:57:58Z</time>
      </trkpt>
      <trkpt lat="47.19685" lon="-1.70378">
        <ele>-4.6</ele>
        <time>2022-01-23T09:57:59Z</time>
      </trkpt>
      <trkpt lat="47.19682" lon="-1.70365">
        <ele>-5.4</ele>
        <time>2022-01-23T09:58:01Z</time>
      </trkpt>
      <trkpt lat="47.19681" lon="-1.7035">
        <ele>-6.2</ele>
        <time>2022-01-23T09:58:03Z</time>
      </trkpt>
      <trkpt lat="47.19677" lon="-1.70334">
        <ele>-7</ele>
        <time>2022-01-23T09:58:05Z</time>
      </trkpt>
      <trkpt lat="47.19674" lon="-1.70319">
        <ele>-7.8</ele>
        <time>2022-01-23T09:58:07Z</time>
      </trkpt>
      <trkpt lat="47.19673" lon="-1.70312">
        <ele>-8.4</ele>
        <time>2022-01-23T09:58:08Z</time>
      </trkpt>
      <trkpt lat="47.19671" lon="-1.70295">
        <ele>-9.4</ele>
        <time>2022-01-23T09:58:10Z</time>
      </trkpt>
      <trkpt lat="47.1967" lon="-1.70277">
        <ele>-10.2</ele>
        <time>2022-01-23T09:58:12Z</time>
      </trkpt>
      <trkpt lat="47.1967" lon="-1.70248">
        <ele>-11.4</ele>
        <time>2022-01-23T09:58:15Z</time>
      </trkpt>
      <trkpt lat="47.19671" lon="-1.70241">
        <ele>-11.8</ele>
        <time>2022-01-23T09:58:16Z</time>
      </trkpt>
      <trkpt lat="47.19671" lon="-1.70234">
        <ele>-12.2</ele>
        <time>2022-01-23T09:58:17Z</time>
      </trkpt>
      <trkpt lat="47.19666" lon="-1.70214">
        <ele>-13.4</ele>
        <time>2022-01-23T09:58:20Z</time>
      </trkpt>
      <trkpt lat="47.19664" lon="-1.702">
        <ele>-14</ele>
        <time>2022-01-23T09:58:22Z</time>
      </trkpt>
      <trkpt lat="47.19665" lon="-1.70186">
        <ele>-14.8</ele>
        <time>2022-01-23T09:58:24Z</time>
      </trkpt>
      <trkpt lat="47.19664" lon="-1.70169">
        <ele>-15.4</ele>
        <time>2022-01-23T09:58:26Z</time>
      </trkpt>
      <trkpt lat="47.19661" lon="-1.7015">
        <ele>-15.6</ele>
        <time>2022-01-23T09:58:28Z</time>
      </trkpt>
      <trkpt lat="47.1966" lon="-1.70141">
        <ele>-15.8</ele>
        <time>2022-01-23T09:58:29Z</time>
      </trkpt>
      <trkpt lat="47.19658" lon="-1.70125">
        <ele>-16.2</ele>
        <time>2022-01-23T09:58:31Z</time>
      </trkpt>
      <trkpt lat="47.19659" lon="-1.70109">
        <ele>-16.6</ele>
        <time>2022-01-23T09:58:33Z</time>
      </trkpt>
      <trkpt lat="47.19662" lon="-1.70091">
        <ele>-16.4</ele>
        <time>2022-01-23T09:58:35Z</time>
      </trkpt>
      <trkpt lat="47.19666" lon="-1.70074">
        <ele>-16.2</ele>
        <time>2022-01-23T09:58:37Z</time>
      </trkpt>
      <trkpt lat="47.19667" lon="-1.70066">
        <ele>-16.4</ele>
        <time>2022-01-23T09:58:38Z</time>
      </trkpt>
      <trkpt lat="47.1967" lon="-1.70053">
        <ele>-16.6</ele>
        <time>2022-01-23T09:58:40Z</time>
      </trkpt>
      <trkpt lat="47.19668" lon="-1.70034">
        <ele>-16.8</ele>
        <time>2022-01-23T09:58:43Z</time>
      </trkpt>
      <trkpt lat="47.1967" lon="-1.70026">
        <ele>-16.8</ele>
        <time>2022-01-23T09:58:44Z</time>
      </trkpt>
      <trkpt lat="47.19673" lon="-1.70002">
        <ele>-16.6</ele>
        <time>2022-01-23T09:58:47Z</time>
      </trkpt>
      <trkpt lat="47.19674" lon="-1.69995">
        <ele>-16.4</ele>
        <time>2022-01-23T09:58:48Z</time>
      </trkpt>
      <trkpt lat="47.19674" lon="-1.69981">
        <ele>-18.4</ele>
        <time>2022-01-23T09:58:50Z</time>
      </trkpt>
      <trkpt lat="47.19675" lon="-1.69967">
        <ele>-17.2</ele>
        <time>2022-01-23T09:58:52Z</time>
      </trkpt>
      <trkpt lat="47.19672" lon="-1.69936">
        <ele>-15.8</ele>
        <time>2022-01-23T09:58:57Z</time>
      </trkpt>
      <trkpt lat="47.1967" lon="-1.69922">
        <ele>-15.8</ele>
        <time>2022-01-23T09:58:59Z</time>
      </trkpt>
      <trkpt lat="47.1967" lon="-1.69907">
        <ele>-15.8</ele>
        <time>2022-01-23T09:59:01Z</time>
      </trkpt>
      <trkpt lat="47.19669" lon="-1.69893">
        <ele>-15.6</ele>
        <time>2022-01-23T09:59:03Z</time>
      </trkpt>
      <trkpt lat="47.19669" lon="-1.69874">
        <ele>-15.6</ele>
        <time>2022-01-23T09:59:06Z</time>
      </trkpt>
      <trkpt lat="47.19674" lon="-1.69845">
        <ele>-15.2</ele>
        <time>2022-01-23T09:59:11Z</time>
      </trkpt>
      <trkpt lat="47.19676" lon="-1.69838">
        <ele>-15</ele>
        <time>2022-01-23T09:59:12Z</time>
      </trkpt>
      <trkpt lat="47.19675" lon="-1.69825">
        <ele>-14.8</ele>
        <time>2022-01-23T09:59:14Z</time>
      </trkpt>
      <trkpt lat="47.19663" lon="-1.69803">
        <ele>-14.4</ele>
        <time>2022-01-23T09:59:18Z</time>
      </trkpt>
      <trkpt lat="47.19659" lon="-1.69799">
        <ele>-14.2</ele>
        <time>2022-01-23T09:59:19Z</time>
      </trkpt>
      <trkpt lat="47.19647" lon="-1.69786">
        <ele>-13.8</ele>
        <time>2022-01-23T09:59:22Z</time>
      </trkpt>
      <trkpt lat="47.19641" lon="-1.69774">
        <ele>-13.6</ele>
        <time>2022-01-23T09:59:24Z</time>
      </trkpt>
      <trkpt lat="47.19637" lon="-1.69761">
        <ele>-13.6</ele>
        <time>2022-01-23T09:59:26Z</time>
      </trkpt>
      <trkpt lat="47.19635" lon="-1.69754">
        <ele>-13.4</ele>
        <time>2022-01-23T09:59:27Z</time>
      </trkpt>
      <trkpt lat="47.19627" lon="-1.69733">
        <ele>-13.2</ele>
        <time>2022-01-23T09:59:30Z</time>
      </trkpt>
      <trkpt lat="47.19624" lon="-1.69726">
        <ele>-13.4</ele>
        <time>2022-01-23T09:59:31Z</time>
      </trkpt>
      <trkpt lat="47.19615" lon="-1.69705">
        <ele>-13.2</ele>
        <time>2022-01-23T09:59:34Z</time>
      </trkpt>
      <trkpt lat="47.19601" lon="-1.6967">
        <ele>-13</ele>
        <time>2022-01-23T09:59:39Z</time>
      </trkpt>
      <trkpt lat="47.19598" lon="-1.69662">
        <ele>-13</ele>
        <time>2022-01-23T09:59:40Z</time>
      </trkpt>
      <trkpt lat="47.19588" lon="-1.6964">
        <ele>-12.8</ele>
        <time>2022-01-23T09:59:43Z</time>
      </trkpt>
      <trkpt lat="47.19573" lon="-1.69606">
        <ele>-12.6</ele>
        <time>2022-01-23T09:59:48Z</time>
      </trkpt>
      <trkpt lat="47.19558" lon="-1.69572">
        <ele>-12.2</ele>
        <time>2022-01-23T09:59:53Z</time>
      </trkpt>
      <trkpt lat="47.19541" lon="-1.69532">
        <ele>-11.8</ele>
        <time>2022-01-23T09:59:59Z</time>
      </trkpt>
      <trkpt lat="47.19525" lon="-1.6949">
        <ele>-11.4</ele>
        <time>2022-01-23T10:00:05Z</time>
      </trkpt>
      <trkpt lat="47.1952" lon="-1.69476">
        <ele>-11.2</ele>
        <time>2022-01-23T10:00:07Z</time>
      </trkpt>
      <trkpt lat="47.19511" lon="-1.69464">
        <ele>-11</ele>
        <time>2022-01-23T10:00:09Z</time>
      </trkpt>
      <trkpt lat="47.19502" lon="-1.69445">
        <ele>-11</ele>
        <time>2022-01-23T10:00:12Z</time>
      </trkpt>
      <trkpt lat="47.19499" lon="-1.69432">
        <ele>-11</ele>
        <time>2022-01-23T10:00:14Z</time>
      </trkpt>
      <trkpt lat="47.19492" lon="-1.69421">
        <ele>-11</ele>
        <time>2022-01-23T10:00:16Z</time>
      </trkpt>
      <trkpt lat="47.1948" lon="-1.69408">
        <ele>-10.8</ele>
        <time>2022-01-23T10:00:19Z</time>
      </trkpt>
      <trkpt lat="47.19465" lon="-1.694">
        <ele>-10.6</ele>
        <time>2022-01-23T10:00:22Z</time>
      </trkpt>
      <trkpt lat="47.19455" lon="-1.69395">
        <ele>-10</ele>
        <time>2022-01-23T10:00:24Z</time>
      </trkpt>
      <trkpt lat="47.19429" lon="-1.69384">
        <ele>-9.4</ele>
        <time>2022-01-23T10:00:30Z</time>
      </trkpt>
      <trkpt lat="47.19425" lon="-1.69385">
        <ele>-9.4</ele>
        <time>2022-01-23T10:00:31Z</time>
      </trkpt>
      <trkpt lat="47.19417" lon="-1.69391">
        <ele>-9</ele>
        <time>2022-01-23T10:00:33Z</time>
      </trkpt>
      <trkpt lat="47.19413" lon="-1.69395">
        <ele>-8.8</ele>
        <time>2022-01-23T10:00:34Z</time>
      </trkpt>
      <trkpt lat="47.19405" lon="-1.69401">
        <ele>-8.6</ele>
        <time>2022-01-23T10:00:36Z</time>
      </trkpt>
      <trkpt lat="47.19395" lon="-1.69403">
        <ele>-8.6</ele>
        <time>2022-01-23T10:00:38Z</time>
      </trkpt>
      <trkpt lat="47.1938" lon="-1.69413">
        <ele>-8.4</ele>
        <time>2022-01-23T10:00:41Z</time>
      </trkpt>
      <trkpt lat="47.19375" lon="-1.69415">
        <ele>-8.2</ele>
        <time>2022-01-23T10:00:42Z</time>
      </trkpt>
      <trkpt lat="47.1937" lon="-1.69418">
        <ele>-8.2</ele>
        <time>2022-01-23T10:00:43Z</time>
      </trkpt>
      <trkpt lat="47.19354" lon="-1.6942">
        <ele>-8</ele>
        <time>2022-01-23T10:00:46Z</time>
      </trkpt>
      <trkpt lat="47.19312" lon="-1.69429">
        <ele>-7.4</ele>
        <time>2022-01-23T10:00:54Z</time>
      </trkpt>
      <trkpt lat="47.19307" lon="-1.69432">
        <ele>-7.2</ele>
        <time>2022-01-23T10:00:55Z</time>
      </trkpt>
      <trkpt lat="47.1929" lon="-1.69448">
        <ele>-6.8</ele>
        <time>2022-01-23T10:00:59Z</time>
      </trkpt>
      <trkpt lat="47.19283" lon="-1.6945">
        <ele>-6.6</ele>
        <time>2022-01-23T10:01:02Z</time>
      </trkpt>
      <trkpt lat="47.19284" lon="-1.69445">
        <ele>-6.6</ele>
        <time>2022-01-23T10:01:04Z</time>
      </trkpt>
      <trkpt lat="47.19285" lon="-1.69442">
        <ele>-6.6</ele>
        <time>2022-01-23T10:01:05Z</time>
      </trkpt>
      <trkpt lat="47.19298" lon="-1.69429">
        <ele>-5.8</ele>
        <time>2022-01-23T10:01:10Z</time>
      </trkpt>
      <trkpt lat="47.19312" lon="-1.69418">
        <ele>-5</ele>
        <time>2022-01-23T10:01:15Z</time>
      </trkpt>
      <trkpt lat="47.19327" lon="-1.69408">
        <ele>-4.4</ele>
        <time>2022-01-23T10:01:20Z</time>
      </trkpt>
      <trkpt lat="47.19348" lon="-1.69397">
        <ele>-3</ele>
        <time>2022-01-23T10:01:27Z</time>
      </trkpt>
      <trkpt lat="47.19361" lon="-1.6939">
        <ele>-2</ele>
        <time>2022-01-23T10:01:32Z</time>
      </trkpt>
      <trkpt lat="47.19372" lon="-1.69382">
        <ele>-1</ele>
        <time>2022-01-23T10:01:36Z</time>
      </trkpt>
      <trkpt lat="47.19384" lon="-1.69363">
        <ele>-1</ele>
        <time>2022-01-23T10:01:41Z</time>
      </trkpt>
      <trkpt lat="47.19396" lon="-1.69338">
        <ele>1</ele>
        <time>2022-01-23T10:01:47Z</time>
      </trkpt>
      <trkpt lat="47.19405" lon="-1.69313">
        <ele>2.2</ele>
        <time>2022-01-23T10:01:53Z</time>
      </trkpt>
      <trkpt lat="47.19409" lon="-1.69305">
        <ele>2.6</ele>
        <time>2022-01-23T10:01:55Z</time>
      </trkpt>
      <trkpt lat="47.19412" lon="-1.69296">
        <ele>3</ele>
        <time>2022-01-23T10:01:57Z</time>
      </trkpt>
      <trkpt lat="47.19412" lon="-1.69277">
        <ele>4</ele>
        <time>2022-01-23T10:02:01Z</time>
      </trkpt>
      <trkpt lat="47.19409" lon="-1.69267">
        <ele>4.4</ele>
        <time>2022-01-23T10:02:03Z</time>
      </trkpt>
      <trkpt lat="47.19407" lon="-1.69257">
        <ele>4.8</ele>
        <time>2022-01-23T10:02:05Z</time>
      </trkpt>
      <trkpt lat="47.19405" lon="-1.69251">
        <ele>5</ele>
        <time>2022-01-23T10:02:06Z</time>
      </trkpt>
      <trkpt lat="47.19403" lon="-1.69246">
        <ele>5.2</ele>
        <time>2022-01-23T10:02:07Z</time>
      </trkpt>
      <trkpt lat="47.19399" lon="-1.69234">
        <ele>5.4</ele>
        <time>2022-01-23T10:02:09Z</time>
      </trkpt>
      <trkpt lat="47.19397" lon="-1.69229">
        <ele>5.6</ele>
        <time>2022-01-23T10:02:10Z</time>
      </trkpt>
      <trkpt lat="47.19394" lon="-1.69212">
        <ele>6</ele>
        <time>2022-01-23T10:02:13Z</time>
      </trkpt>
      <trkpt lat="47.19386" lon="-1.69185">
        <ele>6.6</ele>
        <time>2022-01-23T10:02:18Z</time>
      </trkpt>
      <trkpt lat="47.19378" lon="-1.69151">
        <ele>7.2</ele>
        <time>2022-01-23T10:02:25Z</time>
      </trkpt>
      <trkpt lat="47.19365" lon="-1.69113">
        <ele>8.6</ele>
        <time>2022-01-23T10:02:33Z</time>
      </trkpt>
      <trkpt lat="47.19358" lon="-1.69088">
        <ele>9.4</ele>
        <time>2022-01-23T10:02:38Z</time>
      </trkpt>
      <trkpt lat="47.1935" lon="-1.69052">
        <ele>10.8</ele>
        <time>2022-01-23T10:02:46Z</time>
      </trkpt>
      <trkpt lat="47.19343" lon="-1.69032">
        <ele>11.8</ele>
        <time>2022-01-23T10:02:51Z</time>
      </trkpt>
      <trkpt lat="47.19335" lon="-1.69021">
        <ele>12.4</ele>
        <time>2022-01-23T10:02:55Z</time>
      </trkpt>
      <trkpt lat="47.19333" lon="-1.69018">
        <ele>12.6</ele>
        <time>2022-01-23T10:02:56Z</time>
      </trkpt>
      <trkpt lat="47.19328" lon="-1.6901">
        <ele>13</ele>
        <time>2022-01-23T10:02:59Z</time>
      </trkpt>
      <trkpt lat="47.19318" lon="-1.68988">
        <ele>13.6</ele>
        <time>2022-01-23T10:03:05Z</time>
      </trkpt>
      <trkpt lat="47.19308" lon="-1.68966">
        <ele>14.2</ele>
        <time>2022-01-23T10:03:10Z</time>
      </trkpt>
      <trkpt lat="47.19295" lon="-1.68941">
        <ele>15</ele>
        <time>2022-01-23T10:03:16Z</time>
      </trkpt>
      <trkpt lat="47.19277" lon="-1.68908">
        <ele>16</ele>
        <time>2022-01-23T10:03:23Z</time>
      </trkpt>
      <trkpt lat="47.19265" lon="-1.68883">
        <ele>16.6</ele>
        <time>2022-01-23T10:03:28Z</time>
      </trkpt>
      <trkpt lat="47.19263" lon="-1.68878">
        <ele>16.8</ele>
        <time>2022-01-23T10:03:29Z</time>
      </trkpt>
      <trkpt lat="47.19248" lon="-1.68848">
        <ele>17.4</ele>
        <time>2022-01-23T10:03:35Z</time>
      </trkpt>
      <trkpt lat="47.19244" lon="-1.68844">
        <ele>17.4</ele>
        <time>2022-01-23T10:03:36Z</time>
      </trkpt>
      <trkpt lat="47.19239" lon="-1.68837">
        <ele>17.6</ele>
        <time>2022-01-23T10:03:38Z</time>
      </trkpt>
      <trkpt lat="47.19239" lon="-1.68831">
        <ele>17.6</ele>
        <time>2022-01-23T10:03:39Z</time>
      </trkpt>
      <trkpt lat="47.19241" lon="-1.68803">
        <ele>17.8</ele>
        <time>2022-01-23T10:03:43Z</time>
      </trkpt>
      <trkpt lat="47.19239" lon="-1.68785">
        <ele>17.8</ele>
        <time>2022-01-23T10:03:45Z</time>
      </trkpt>
      <trkpt lat="47.19234" lon="-1.68767">
        <ele>18</ele>
        <time>2022-01-23T10:03:47Z</time>
      </trkpt>
      <trkpt lat="47.19223" lon="-1.68732">
        <ele>18</ele>
        <time>2022-01-23T10:03:52Z</time>
      </trkpt>
      <trkpt lat="47.19221" lon="-1.68725">
        <ele>18</ele>
        <time>2022-01-23T10:03:54Z</time>
      </trkpt>
      <trkpt lat="47.19215" lon="-1.68723">
        <ele>18</ele>
        <time>2022-01-23T10:03:56Z</time>
      </trkpt>
      <trkpt lat="47.19204" lon="-1.68715">
        <ele>18</ele>
        <time>2022-01-23T10:04:00Z</time>
      </trkpt>
      <trkpt lat="47.19192" lon="-1.68698">
        <ele>18</ele>
        <time>2022-01-23T10:04:07Z</time>
      </trkpt>
      <trkpt lat="47.19182" lon="-1.6869">
        <ele>18.2</ele>
        <time>2022-01-23T10:04:12Z</time>
      </trkpt>
      <trkpt lat="47.19168" lon="-1.68695">
        <ele>18.6</ele>
        <time>2022-01-23T10:04:17Z</time>
      </trkpt>
      <trkpt lat="47.19165" lon="-1.68694">
        <ele>18.8</ele>
        <time>2022-01-23T10:04:18Z</time>
      </trkpt>
      <trkpt lat="47.19159" lon="-1.68686">
        <ele>19.2</ele>
        <time>2022-01-23T10:04:21Z</time>
      </trkpt>
      <trkpt lat="47.19155" lon="-1.6867">
        <ele>19.8</ele>
        <time>2022-01-23T10:04:25Z</time>
      </trkpt>
      <trkpt lat="47.1916" lon="-1.68655">
        <ele>20.2</ele>
        <time>2022-01-23T10:04:29Z</time>
      </trkpt>
      <trkpt lat="47.19164" lon="-1.68649">
        <ele>20.6</ele>
        <time>2022-01-23T10:04:31Z</time>
      </trkpt>
      <trkpt lat="47.19166" lon="-1.68644">
        <ele>20.6</ele>
        <time>2022-01-23T10:04:32Z</time>
      </trkpt>
      <trkpt lat="47.19167" lon="-1.68634">
        <ele>20.6</ele>
        <time>2022-01-23T10:04:34Z</time>
      </trkpt>
      <trkpt lat="47.19167" lon="-1.6863">
        <ele>20.6</ele>
        <time>2022-01-23T10:04:35Z</time>
      </trkpt>
      <trkpt lat="47.19157" lon="-1.68601">
        <ele>21</ele>
        <time>2022-01-23T10:04:41Z</time>
      </trkpt>
      <trkpt lat="47.19152" lon="-1.68579">
        <ele>21.2</ele>
        <time>2022-01-23T10:04:45Z</time>
      </trkpt>
      <trkpt lat="47.19145" lon="-1.68555">
        <ele>21.4</ele>
        <time>2022-01-23T10:04:50Z</time>
      </trkpt>
      <trkpt lat="47.19143" lon="-1.6855">
        <ele>21.4</ele>
        <time>2022-01-23T10:04:51Z</time>
      </trkpt>
      <trkpt lat="47.19139" lon="-1.68539">
        <ele>21.6</ele>
        <time>2022-01-23T10:04:53Z</time>
      </trkpt>
      <trkpt lat="47.19137" lon="-1.68527">
        <ele>21.8</ele>
        <time>2022-01-23T10:04:55Z</time>
      </trkpt>
      <trkpt lat="47.19121" lon="-1.68485">
        <ele>22.6</ele>
        <time>2022-01-23T10:05:03Z</time>
      </trkpt>
      <trkpt lat="47.19114" lon="-1.68462">
        <ele>22.8</ele>
        <time>2022-01-23T10:05:07Z</time>
      </trkpt>
      <trkpt lat="47.19112" lon="-1.68452">
        <ele>23</ele>
        <time>2022-01-23T10:05:09Z</time>
      </trkpt>
      <trkpt lat="47.19103" lon="-1.68425">
        <ele>23.4</ele>
        <time>2022-01-23T10:05:15Z</time>
      </trkpt>
      <trkpt lat="47.19103" lon="-1.68403">
        <ele>23.6</ele>
        <time>2022-01-23T10:05:19Z</time>
      </trkpt>
      <trkpt lat="47.19102" lon="-1.68382">
        <ele>23.8</ele>
        <time>2022-01-23T10:05:23Z</time>
      </trkpt>
      <trkpt lat="47.19102" lon="-1.68377">
        <ele>23.8</ele>
        <time>2022-01-23T10:05:24Z</time>
      </trkpt>
      <trkpt lat="47.19101" lon="-1.68356">
        <ele>24</ele>
        <time>2022-01-23T10:05:28Z</time>
      </trkpt>
      <trkpt lat="47.19099" lon="-1.6835">
        <ele>24</ele>
        <time>2022-01-23T10:05:29Z</time>
      </trkpt>
      <trkpt lat="47.19097" lon="-1.68344">
        <ele>24</ele>
        <time>2022-01-23T10:05:30Z</time>
      </trkpt>
      <trkpt lat="47.19101" lon="-1.6833">
        <ele>24</ele>
        <time>2022-01-23T10:05:32Z</time>
      </trkpt>
      <trkpt lat="47.19102" lon="-1.68324">
        <ele>24</ele>
        <time>2022-01-23T10:05:33Z</time>
      </trkpt>
      <trkpt lat="47.19102" lon="-1.68302">
        <ele>23.8</ele>
        <time>2022-01-23T10:05:36Z</time>
      </trkpt>
      <trkpt lat="47.19101" lon="-1.68296">
        <ele>24.2</ele>
        <time>2022-01-23T10:05:37Z</time>
      </trkpt>
      <trkpt lat="47.191" lon="-1.6829">
        <ele>23.6</ele>
        <time>2022-01-23T10:05:38Z</time>
      </trkpt>
      <trkpt lat="47.19095" lon="-1.68274">
        <ele>23.4</ele>
        <time>2022-01-23T10:05:41Z</time>
      </trkpt>
      <trkpt lat="47.19093" lon="-1.68269">
        <ele>23.2</ele>
        <time>2022-01-23T10:05:42Z</time>
      </trkpt>
      <trkpt lat="47.19084" lon="-1.68244">
        <ele>23</ele>
        <time>2022-01-23T10:05:46Z</time>
      </trkpt>
      <trkpt lat="47.19083" lon="-1.68238">
        <ele>23</ele>
        <time>2022-01-23T10:05:47Z</time>
      </trkpt>
      <trkpt lat="47.19077" lon="-1.68217">
        <ele>22.8</ele>
        <time>2022-01-23T10:05:50Z</time>
      </trkpt>
      <trkpt lat="47.19075" lon="-1.68211">
        <ele>22.8</ele>
        <time>2022-01-23T10:05:51Z</time>
      </trkpt>
      <trkpt lat="47.19063" lon="-1.6817">
        <ele>22.6</ele>
        <time>2022-01-23T10:05:58Z</time>
      </trkpt>
      <trkpt lat="47.19052" lon="-1.68146">
        <ele>22.4</ele>
        <time>2022-01-23T10:06:02Z</time>
      </trkpt>
      <trkpt lat="47.19049" lon="-1.6814">
        <ele>22.4</ele>
        <time>2022-01-23T10:06:03Z</time>
      </trkpt>
      <trkpt lat="47.1904" lon="-1.68123">
        <ele>22.4</ele>
        <time>2022-01-23T10:06:06Z</time>
      </trkpt>
      <trkpt lat="47.19038" lon="-1.68117">
        <ele>22.6</ele>
        <time>2022-01-23T10:06:07Z</time>
      </trkpt>
      <trkpt lat="47.19031" lon="-1.68107">
        <ele>22.4</ele>
        <time>2022-01-23T10:06:09Z</time>
      </trkpt>
      <trkpt lat="47.19018" lon="-1.68086">
        <ele>22.4</ele>
        <time>2022-01-23T10:06:13Z</time>
      </trkpt>
      <trkpt lat="47.18994" lon="-1.6805">
        <ele>22.6</ele>
        <time>2022-01-23T10:06:20Z</time>
      </trkpt>
      <trkpt lat="47.18972" lon="-1.68016">
        <ele>23.2</ele>
        <time>2022-01-23T10:06:26Z</time>
      </trkpt>
      <trkpt lat="47.18966" lon="-1.68006">
        <ele>23</ele>
        <time>2022-01-23T10:06:28Z</time>
      </trkpt>
      <trkpt lat="47.18957" lon="-1.67989">
        <ele>23</ele>
        <time>2022-01-23T10:06:31Z</time>
      </trkpt>
      <trkpt lat="47.18948" lon="-1.67972">
        <ele>23</ele>
        <time>2022-01-23T10:06:34Z</time>
      </trkpt>
      <trkpt lat="47.18945" lon="-1.67966">
        <ele>23</ele>
        <time>2022-01-23T10:06:35Z</time>
      </trkpt>
      <trkpt lat="47.18942" lon="-1.6796">
        <ele>23</ele>
        <time>2022-01-23T10:06:36Z</time>
      </trkpt>
      <trkpt lat="47.18933" lon="-1.67942">
        <ele>23</ele>
        <time>2022-01-23T10:06:39Z</time>
      </trkpt>
      <trkpt lat="47.18928" lon="-1.6793">
        <ele>23</ele>
        <time>2022-01-23T10:06:41Z</time>
      </trkpt>
      <trkpt lat="47.18923" lon="-1.6792">
        <ele>23.2</ele>
        <time>2022-01-23T10:06:43Z</time>
      </trkpt>
      <trkpt lat="47.1892" lon="-1.67916">
        <ele>22.8</ele>
        <time>2022-01-23T10:06:44Z</time>
      </trkpt>
      <trkpt lat="47.18913" lon="-1.6791">
        <ele>22.6</ele>
        <time>2022-01-23T10:06:46Z</time>
      </trkpt>
      <trkpt lat="47.18908" lon="-1.67909">
        <ele>22.6</ele>
        <time>2022-01-23T10:06:47Z</time>
      </trkpt>
      <trkpt lat="47.18882" lon="-1.67899">
        <ele>22.6</ele>
        <time>2022-01-23T10:06:53Z</time>
      </trkpt>
      <trkpt lat="47.18868" lon="-1.67886">
        <ele>23.2</ele>
        <time>2022-01-23T10:06:57Z</time>
      </trkpt>
      <trkpt lat="47.18856" lon="-1.67866">
        <ele>23.4</ele>
        <time>2022-01-23T10:07:02Z</time>
      </trkpt>
      <trkpt lat="47.18846" lon="-1.67838">
        <ele>23.6</ele>
        <time>2022-01-23T10:07:08Z</time>
      </trkpt>
      <trkpt lat="47.18833" lon="-1.67805">
        <ele>24.2</ele>
        <time>2022-01-23T10:07:15Z</time>
      </trkpt>
      <trkpt lat="47.18823" lon="-1.67775">
        <ele>24.8</ele>
        <time>2022-01-23T10:07:21Z</time>
      </trkpt>
      <trkpt lat="47.18808" lon="-1.67743">
        <ele>25.8</ele>
        <time>2022-01-23T10:07:28Z</time>
      </trkpt>
      <trkpt lat="47.18802" lon="-1.67734">
        <ele>26</ele>
        <time>2022-01-23T10:07:30Z</time>
      </trkpt>
      <trkpt lat="47.188" lon="-1.67723">
        <ele>26.2</ele>
        <time>2022-01-23T10:07:32Z</time>
      </trkpt>
      <trkpt lat="47.18792" lon="-1.67697">
        <ele>27</ele>
        <time>2022-01-23T10:07:37Z</time>
      </trkpt>
      <trkpt lat="47.18769" lon="-1.67661">
        <ele>28</ele>
        <time>2022-01-23T10:07:45Z</time>
      </trkpt>
      <trkpt lat="47.18755" lon="-1.67634">
        <ele>28.6</ele>
        <time>2022-01-23T10:07:51Z</time>
      </trkpt>
      <trkpt lat="47.18747" lon="-1.676">
        <ele>29.2</ele>
        <time>2022-01-23T10:07:58Z</time>
      </trkpt>
      <trkpt lat="47.18745" lon="-1.67589">
        <ele>29.4</ele>
        <time>2022-01-23T10:08:01Z</time>
      </trkpt>
      <trkpt lat="47.18746" lon="-1.67588">
        <ele>29.6</ele>
        <time>2022-01-23T10:08:02Z</time>
      </trkpt>
      <trkpt lat="47.18747" lon="-1.67595">
        <ele>29.6</ele>
        <time>2022-01-23T10:08:04Z</time>
      </trkpt>
      <trkpt lat="47.18748" lon="-1.676">
        <ele>29.8</ele>
        <time>2022-01-23T10:08:05Z</time>
      </trkpt>
      <trkpt lat="47.18746" lon="-1.67604">
        <ele>29.8</ele>
        <time>2022-01-23T10:08:06Z</time>
      </trkpt>
      <trkpt lat="47.1874" lon="-1.67612">
        <ele>30</ele>
        <time>2022-01-23T10:08:08Z</time>
      </trkpt>
      <trkpt lat="47.18714" lon="-1.67622">
        <ele>30.4</ele>
        <time>2022-01-23T10:08:14Z</time>
      </trkpt>
      <trkpt lat="47.18704" lon="-1.67624">
        <ele>30.4</ele>
        <time>2022-01-23T10:08:16Z</time>
      </trkpt>
      <trkpt lat="47.18694" lon="-1.6762">
        <ele>30.6</ele>
        <time>2022-01-23T10:08:18Z</time>
      </trkpt>
      <trkpt lat="47.18685" lon="-1.67613">
        <ele>30.6</ele>
        <time>2022-01-23T10:08:20Z</time>
      </trkpt>
      <trkpt lat="47.18674" lon="-1.67597">
        <ele>30.8</ele>
        <time>2022-01-23T10:08:23Z</time>
      </trkpt>
      <trkpt lat="47.18653" lon="-1.67568">
        <ele>31</ele>
        <time>2022-01-23T10:08:28Z</time>
      </trkpt>
      <trkpt lat="47.18631" lon="-1.67537">
        <ele>31.2</ele>
        <time>2022-01-23T10:08:33Z</time>
      </trkpt>
      <trkpt lat="47.18627" lon="-1.67531">
        <ele>31.2</ele>
        <time>2022-01-23T10:08:34Z</time>
      </trkpt>
      <trkpt lat="47.18614" lon="-1.67502">
        <ele>31.2</ele>
        <time>2022-01-23T10:08:38Z</time>
      </trkpt>
      <trkpt lat="47.18609" lon="-1.67487">
        <ele>31.2</ele>
        <time>2022-01-23T10:08:40Z</time>
      </trkpt>
      <trkpt lat="47.18602" lon="-1.67466">
        <ele>31.2</ele>
        <time>2022-01-23T10:08:43Z</time>
      </trkpt>
      <trkpt lat="47.18594" lon="-1.67445">
        <ele>31.2</ele>
        <time>2022-01-23T10:08:46Z</time>
      </trkpt>
      <trkpt lat="47.18586" lon="-1.67436">
        <ele>31.2</ele>
        <time>2022-01-23T10:08:48Z</time>
      </trkpt>
      <trkpt lat="47.18575" lon="-1.67436">
        <ele>31.2</ele>
        <time>2022-01-23T10:08:50Z</time>
      </trkpt>
      <trkpt lat="47.18569" lon="-1.67438">
        <ele>31.2</ele>
        <time>2022-01-23T10:08:51Z</time>
      </trkpt>
      <trkpt lat="47.18547" lon="-1.67451">
        <ele>31.4</ele>
        <time>2022-01-23T10:08:56Z</time>
      </trkpt>
      <trkpt lat="47.18543" lon="-1.67453">
        <ele>31.4</ele>
        <time>2022-01-23T10:09:00Z</time>
      </trkpt>
      <trkpt lat="47.18537" lon="-1.67452">
        <ele>31.2</ele>
        <time>2022-01-23T10:09:03Z</time>
      </trkpt>
      <trkpt lat="47.18535" lon="-1.67449">
        <ele>31.2</ele>
        <time>2022-01-23T10:09:04Z</time>
      </trkpt>
      <trkpt lat="47.1853" lon="-1.6744">
        <ele>31</ele>
        <time>2022-01-23T10:09:06Z</time>
      </trkpt>
      <trkpt lat="47.18524" lon="-1.6743">
        <ele>30.8</ele>
        <time>2022-01-23T10:09:08Z</time>
      </trkpt>
      <trkpt lat="47.18522" lon="-1.67412">
        <ele>30.6</ele>
        <time>2022-01-23T10:09:10Z</time>
      </trkpt>
      <trkpt lat="47.18523" lon="-1.67403">
        <ele>30.6</ele>
        <time>2022-01-23T10:09:11Z</time>
      </trkpt>
      <trkpt lat="47.18522" lon="-1.67384">
        <ele>30.4</ele>
        <time>2022-01-23T10:09:13Z</time>
      </trkpt>
      <trkpt lat="47.18521" lon="-1.67374">
        <ele>30.4</ele>
        <time>2022-01-23T10:09:14Z</time>
      </trkpt>
      <trkpt lat="47.18519" lon="-1.67364">
        <ele>30.4</ele>
        <time>2022-01-23T10:09:15Z</time>
      </trkpt>
      <trkpt lat="47.18507" lon="-1.67305">
        <ele>30.4</ele>
        <time>2022-01-23T10:09:22Z</time>
      </trkpt>
      <trkpt lat="47.18495" lon="-1.67237">
        <ele>30.4</ele>
        <time>2022-01-23T10:09:30Z</time>
      </trkpt>
      <trkpt lat="47.18484" lon="-1.67179">
        <ele>30.8</ele>
        <time>2022-01-23T10:09:36Z</time>
      </trkpt>
      <trkpt lat="47.1847" lon="-1.67092">
        <ele>30.8</ele>
        <time>2022-01-23T10:09:44Z</time>
      </trkpt>
      <trkpt lat="47.18458" lon="-1.67023">
        <ele>30.8</ele>
        <time>2022-01-23T10:09:50Z</time>
      </trkpt>
      <trkpt lat="47.18452" lon="-1.66991">
        <ele>30.8</ele>
        <time>2022-01-23T10:09:53Z</time>
      </trkpt>
      <trkpt lat="47.18448" lon="-1.66983">
        <ele>31</ele>
        <time>2022-01-23T10:09:54Z</time>
      </trkpt>
      <trkpt lat="47.18444" lon="-1.66975">
        <ele>30.8</ele>
        <time>2022-01-23T10:09:55Z</time>
      </trkpt>
      <trkpt lat="47.1844" lon="-1.66956">
        <ele>30.6</ele>
        <time>2022-01-23T10:09:57Z</time>
      </trkpt>
      <trkpt lat="47.1844" lon="-1.66918">
        <ele>30.8</ele>
        <time>2022-01-23T10:10:01Z</time>
      </trkpt>
      <trkpt lat="47.18439" lon="-1.66909">
        <ele>30.8</ele>
        <time>2022-01-23T10:10:02Z</time>
      </trkpt>
      <trkpt lat="47.18431" lon="-1.66861">
        <ele>31</ele>
        <time>2022-01-23T10:10:08Z</time>
      </trkpt>
      <trkpt lat="47.18427" lon="-1.66841">
        <ele>31.2</ele>
        <time>2022-01-23T10:10:11Z</time>
      </trkpt>
      <trkpt lat="47.18425" lon="-1.66828">
        <ele>31.2</ele>
        <time>2022-01-23T10:10:13Z</time>
      </trkpt>
      <trkpt lat="47.18422" lon="-1.66816">
        <ele>31.4</ele>
        <time>2022-01-23T10:10:15Z</time>
      </trkpt>
      <trkpt lat="47.1842" lon="-1.66798">
        <ele>31.6</ele>
        <time>2022-01-23T10:10:18Z</time>
      </trkpt>
      <trkpt lat="47.18415" lon="-1.66763">
        <ele>32</ele>
        <time>2022-01-23T10:10:24Z</time>
      </trkpt>
      <trkpt lat="47.18408" lon="-1.66725">
        <ele>32.6</ele>
        <time>2022-01-23T10:10:31Z</time>
      </trkpt>
      <trkpt lat="47.18407" lon="-1.66719">
        <ele>32.8</ele>
        <time>2022-01-23T10:10:32Z</time>
      </trkpt>
      <trkpt lat="47.18399" lon="-1.66676">
        <ele>33.6</ele>
        <time>2022-01-23T10:10:39Z</time>
      </trkpt>
      <trkpt lat="47.18392" lon="-1.66631">
        <ele>34.2</ele>
        <time>2022-01-23T10:10:46Z</time>
      </trkpt>
      <trkpt lat="47.18389" lon="-1.66605">
        <ele>34.6</ele>
        <time>2022-01-23T10:10:50Z</time>
      </trkpt>
      <trkpt lat="47.18387" lon="-1.66591">
        <ele>34.8</ele>
        <time>2022-01-23T10:10:52Z</time>
      </trkpt>
      <trkpt lat="47.18386" lon="-1.66576">
        <ele>35</ele>
        <time>2022-01-23T10:10:54Z</time>
      </trkpt>
      <trkpt lat="47.18384" lon="-1.66545">
        <ele>35.2</ele>
        <time>2022-01-23T10:10:58Z</time>
      </trkpt>
      <trkpt lat="47.18381" lon="-1.66498">
        <ele>35.6</ele>
        <time>2022-01-23T10:11:04Z</time>
      </trkpt>
      <trkpt lat="47.1837" lon="-1.66442">
        <ele>35.8</ele>
        <time>2022-01-23T10:11:11Z</time>
      </trkpt>
      <trkpt lat="47.18351" lon="-1.66399">
        <ele>35.8</ele>
        <time>2022-01-23T10:11:17Z</time>
      </trkpt>
      <trkpt lat="47.1833" lon="-1.66357">
        <ele>36</ele>
        <time>2022-01-23T10:11:23Z</time>
      </trkpt>
      <trkpt lat="47.18317" lon="-1.66328">
        <ele>36</ele>
        <time>2022-01-23T10:11:27Z</time>
      </trkpt>
      <trkpt lat="47.1831" lon="-1.66314">
        <ele>36</ele>
        <time>2022-01-23T10:11:29Z</time>
      </trkpt>
      <trkpt lat="47.18307" lon="-1.66307">
        <ele>36</ele>
        <time>2022-01-23T10:11:30Z</time>
      </trkpt>
      <trkpt lat="47.18301" lon="-1.66293">
        <ele>35.8</ele>
        <time>2022-01-23T10:11:32Z</time>
      </trkpt>
      <trkpt lat="47.18298" lon="-1.66285">
        <ele>36.2</ele>
        <time>2022-01-23T10:11:33Z</time>
      </trkpt>
      <trkpt lat="47.18295" lon="-1.66278">
        <ele>36.2</ele>
        <time>2022-01-23T10:11:34Z</time>
      </trkpt>
      <trkpt lat="47.18292" lon="-1.66264">
        <ele>35.6</ele>
        <time>2022-01-23T10:11:36Z</time>
      </trkpt>
      <trkpt lat="47.18299" lon="-1.66252">
        <ele>35.6</ele>
        <time>2022-01-23T10:11:38Z</time>
      </trkpt>
      <trkpt lat="47.18316" lon="-1.66239">
        <ele>35.4</ele>
        <time>2022-01-23T10:11:41Z</time>
      </trkpt>
      <trkpt lat="47.18321" lon="-1.66234">
        <ele>35.2</ele>
        <time>2022-01-23T10:11:42Z</time>
      </trkpt>
      <trkpt lat="47.18351" lon="-1.66215">
        <ele>35</ele>
        <time>2022-01-23T10:11:47Z</time>
      </trkpt>
      <trkpt lat="47.18356" lon="-1.66212">
        <ele>34.8</ele>
        <time>2022-01-23T10:11:48Z</time>
      </trkpt>
      <trkpt lat="47.18373" lon="-1.66208">
        <ele>34.4</ele>
        <time>2022-01-23T10:11:51Z</time>
      </trkpt>
      <trkpt lat="47.18394" lon="-1.66207">
        <ele>34</ele>
        <time>2022-01-23T10:11:55Z</time>
      </trkpt>
      <trkpt lat="47.184" lon="-1.66208">
        <ele>33.8</ele>
        <time>2022-01-23T10:11:56Z</time>
      </trkpt>
      <trkpt lat="47.18409" lon="-1.6621">
        <ele>33.6</ele>
        <time>2022-01-23T10:11:58Z</time>
      </trkpt>
      <trkpt lat="47.18411" lon="-1.66207">
        <ele>33.4</ele>
        <time>2022-01-23T10:11:59Z</time>
      </trkpt>
      <trkpt lat="47.18412" lon="-1.66194">
        <ele>32.8</ele>
        <time>2022-01-23T10:12:01Z</time>
      </trkpt>
      <trkpt lat="47.18415" lon="-1.66188">
        <ele>32.6</ele>
        <time>2022-01-23T10:12:02Z</time>
      </trkpt>
      <trkpt lat="47.18423" lon="-1.66172">
        <ele>32</ele>
        <time>2022-01-23T10:12:04Z</time>
      </trkpt>
      <trkpt lat="47.18426" lon="-1.66166">
        <ele>31.6</ele>
        <time>2022-01-23T10:12:05Z</time>
      </trkpt>
      <trkpt lat="47.18428" lon="-1.66161">
        <ele>31.4</ele>
        <time>2022-01-23T10:12:06Z</time>
      </trkpt>
      <trkpt lat="47.18435" lon="-1.6615">
        <ele>31.2</ele>
        <time>2022-01-23T10:12:08Z</time>
      </trkpt>
      <trkpt lat="47.18453" lon="-1.6613">
        <ele>30.6</ele>
        <time>2022-01-23T10:12:12Z</time>
      </trkpt>
      <trkpt lat="47.18461" lon="-1.6612">
        <ele>30.2</ele>
        <time>2022-01-23T10:12:14Z</time>
      </trkpt>
      <trkpt lat="47.18467" lon="-1.6611">
        <ele>30</ele>
        <time>2022-01-23T10:12:16Z</time>
      </trkpt>
      <trkpt lat="47.18474" lon="-1.66103">
        <ele>29.6</ele>
        <time>2022-01-23T10:12:18Z</time>
      </trkpt>
      <trkpt lat="47.18479" lon="-1.66099">
        <ele>29.6</ele>
        <time>2022-01-23T10:12:19Z</time>
      </trkpt>
      <trkpt lat="47.18487" lon="-1.66094">
        <ele>29.2</ele>
        <time>2022-01-23T10:12:21Z</time>
      </trkpt>
      <trkpt lat="47.18491" lon="-1.66091">
        <ele>29.2</ele>
        <time>2022-01-23T10:12:22Z</time>
      </trkpt>
      <trkpt lat="47.18502" lon="-1.6608">
        <ele>28.8</ele>
        <time>2022-01-23T10:12:26Z</time>
      </trkpt>
      <trkpt lat="47.18504" lon="-1.66077">
        <ele>28.8</ele>
        <time>2022-01-23T10:12:27Z</time>
      </trkpt>
      <trkpt lat="47.18513" lon="-1.66071">
        <ele>28.2</ele>
        <time>2022-01-23T10:12:31Z</time>
      </trkpt>
      <trkpt lat="47.18522" lon="-1.66064">
        <ele>27.2</ele>
        <time>2022-01-23T10:12:36Z</time>
      </trkpt>
      <trkpt lat="47.1853" lon="-1.66059">
        <ele>27</ele>
        <time>2022-01-23T10:12:39Z</time>
      </trkpt>
      <trkpt lat="47.18538" lon="-1.66059">
        <ele>26.4</ele>
        <time>2022-01-23T10:12:42Z</time>
      </trkpt>
      <trkpt lat="47.18552" lon="-1.66059">
        <ele>24</ele>
        <time>2022-01-23T10:13:02Z</time>
      </trkpt>
      <trkpt lat="47.1855" lon="-1.66058">
        <ele>23.6</ele>
        <time>2022-01-23T10:13:04Z</time>
      </trkpt>
      <trkpt lat="47.1855" lon="-1.66058">
        <ele>23.4</ele>
        <time>2022-01-23T10:13:05Z</time>
      </trkpt>
      <trkpt lat="47.1855" lon="-1.66059">
        <ele>23.2</ele>
        <time>2022-01-23T10:13:06Z</time>
      </trkpt>
      <trkpt lat="47.18546" lon="-1.66058">
        <ele>22.8</ele>
        <time>2022-01-23T10:13:07Z</time>
      </trkpt>
      <trkpt lat="47.18541" lon="-1.66058">
        <ele>22.2</ele>
        <time>2022-01-23T10:13:09Z</time>
      </trkpt>
      <trkpt lat="47.18537" lon="-1.66056">
        <ele>21.4</ele>
        <time>2022-01-23T10:13:11Z</time>
      </trkpt>
      <trkpt lat="47.18531" lon="-1.66055">
        <ele>19.4</ele>
        <time>2022-01-23T10:13:15Z</time>
      </trkpt>
      <trkpt lat="47.18517" lon="-1.66036">
        <ele>16.8</ele>
        <time>2022-01-23T10:13:23Z</time>
      </trkpt>
      <trkpt lat="47.1851" lon="-1.66029">
        <ele>16.2</ele>
        <time>2022-01-23T10:13:26Z</time>
      </trkpt>
      <trkpt lat="47.18503" lon="-1.66019">
        <ele>15.2</ele>
        <time>2022-01-23T10:13:30Z</time>
      </trkpt>
      <trkpt lat="47.18501" lon="-1.66018">
        <ele>15</ele>
        <time>2022-01-23T10:13:31Z</time>
      </trkpt>
      <trkpt lat="47.18496" lon="-1.66011">
        <ele>14.8</ele>
        <time>2022-01-23T10:13:33Z</time>
      </trkpt>
      <trkpt lat="47.18491" lon="-1.66005">
        <ele>14</ele>
        <time>2022-01-23T10:13:36Z</time>
      </trkpt>
      <trkpt lat="47.1849" lon="-1.66003">
        <ele>13.6</ele>
        <time>2022-01-23T10:13:38Z</time>
      </trkpt>
      <trkpt lat="47.18488" lon="-1.65997">
        <ele>13</ele>
        <time>2022-01-23T10:13:40Z</time>
      </trkpt>
      <trkpt lat="47.18487" lon="-1.65995">
        <ele>12.6</ele>
        <time>2022-01-23T10:13:41Z</time>
      </trkpt>
      <trkpt lat="47.18485" lon="-1.6599">
        <ele>12.2</ele>
        <time>2022-01-23T10:13:43Z</time>
      </trkpt>
      <trkpt lat="47.18483" lon="-1.65989">
        <ele>11.8</ele>
        <time>2022-01-23T10:13:44Z</time>
      </trkpt>
      <trkpt lat="47.18471" lon="-1.65972">
        <ele>11</ele>
        <time>2022-01-23T10:13:50Z</time>
      </trkpt>
      <trkpt lat="47.18469" lon="-1.6597">
        <ele>10.8</ele>
        <time>2022-01-23T10:13:51Z</time>
      </trkpt>
      <trkpt lat="47.18461" lon="-1.65961">
        <ele>10.2</ele>
        <time>2022-01-23T10:13:55Z</time>
      </trkpt>
      <trkpt lat="47.18458" lon="-1.65951">
        <ele>9.8</ele>
        <time>2022-01-23T10:13:58Z</time>
      </trkpt>
      <trkpt lat="47.18461" lon="-1.65948">
        <ele>9.6</ele>
        <time>2022-01-23T10:13:59Z</time>
      </trkpt>
      <trkpt lat="47.1846" lon="-1.65945">
        <ele>9.4</ele>
        <time>2022-01-23T10:14:01Z</time>
      </trkpt>
      <trkpt lat="47.18463" lon="-1.65941">
        <ele>9.4</ele>
        <time>2022-01-23T10:14:02Z</time>
      </trkpt>
      <trkpt lat="47.18469" lon="-1.65932">
        <ele>9.8</ele>
        <time>2022-01-23T10:14:05Z</time>
      </trkpt>
      <trkpt lat="47.18488" lon="-1.65893">
        <ele>11.6</ele>
        <time>2022-01-23T10:14:20Z</time>
      </trkpt>
      <trkpt lat="47.1849" lon="-1.6589">
        <ele>11.8</ele>
        <time>2022-01-23T10:14:21Z</time>
      </trkpt>
      <trkpt lat="47.18494" lon="-1.65883">
        <ele>12.4</ele>
        <time>2022-01-23T10:14:24Z</time>
      </trkpt>
      <trkpt lat="47.18496" lon="-1.6588">
        <ele>12.8</ele>
        <time>2022-01-23T10:14:25Z</time>
      </trkpt>
      <trkpt lat="47.18498" lon="-1.65874">
        <ele>13.2</ele>
        <time>2022-01-23T10:14:27Z</time>
      </trkpt>
      <trkpt lat="47.18502" lon="-1.65869">
        <ele>13.4</ele>
        <time>2022-01-23T10:14:29Z</time>
      </trkpt>
      <trkpt lat="47.18507" lon="-1.65862">
        <ele>14</ele>
        <time>2022-01-23T10:14:32Z</time>
      </trkpt>
      <trkpt lat="47.18509" lon="-1.65857">
        <ele>14.4</ele>
        <time>2022-01-23T10:14:34Z</time>
      </trkpt>
      <trkpt lat="47.1851" lon="-1.6585">
        <ele>14.6</ele>
        <time>2022-01-23T10:14:38Z</time>
      </trkpt>
      <trkpt lat="47.1851" lon="-1.65845">
        <ele>14.6</ele>
        <time>2022-01-23T10:14:40Z</time>
      </trkpt>
      <trkpt lat="47.18511" lon="-1.65843">
        <ele>14.6</ele>
        <time>2022-01-23T10:14:41Z</time>
      </trkpt>
      <trkpt lat="47.18513" lon="-1.65835">
        <ele>15</ele>
        <time>2022-01-23T10:14:44Z</time>
      </trkpt>
      <trkpt lat="47.18516" lon="-1.65824">
        <ele>15.2</ele>
        <time>2022-01-23T10:14:48Z</time>
      </trkpt>
      <trkpt lat="47.18517" lon="-1.65821">
        <ele>15.4</ele>
        <time>2022-01-23T10:14:49Z</time>
      </trkpt>
      <trkpt lat="47.18519" lon="-1.65806">
        <ele>15.2</ele>
        <time>2022-01-23T10:14:54Z</time>
      </trkpt>
      <trkpt lat="47.18521" lon="-1.65789">
        <ele>15.4</ele>
        <time>2022-01-23T10:14:59Z</time>
      </trkpt>
      <trkpt lat="47.18523" lon="-1.6578">
        <ele>15.4</ele>
        <time>2022-01-23T10:15:01Z</time>
      </trkpt>
      <trkpt lat="47.18523" lon="-1.6577">
        <ele>15.6</ele>
        <time>2022-01-23T10:15:03Z</time>
      </trkpt>
      <trkpt lat="47.18524" lon="-1.65738">
        <ele>15.8</ele>
        <time>2022-01-23T10:15:10Z</time>
      </trkpt>
      <trkpt lat="47.18523" lon="-1.65721">
        <ele>15.8</ele>
        <time>2022-01-23T10:15:15Z</time>
      </trkpt>
      <trkpt lat="47.1852" lon="-1.65702">
        <ele>15.8</ele>
        <time>2022-01-23T10:15:21Z</time>
      </trkpt>
      <trkpt lat="47.18519" lon="-1.65701">
        <ele>15.8</ele>
        <time>2022-01-23T10:15:22Z</time>
      </trkpt>
      <trkpt lat="47.18517" lon="-1.65697">
        <ele>15.6</ele>
        <time>2022-01-23T10:15:25Z</time>
      </trkpt>
      <trkpt lat="47.18515" lon="-1.65692">
        <ele>14.8</ele>
        <time>2022-01-23T10:15:28Z</time>
      </trkpt>
      <trkpt lat="47.18513" lon="-1.6569">
        <ele>14.2</ele>
        <time>2022-01-23T10:15:30Z</time>
      </trkpt>
      <trkpt lat="47.18512" lon="-1.65688">
        <ele>13.8</ele>
        <time>2022-01-23T10:15:31Z</time>
      </trkpt>
      <trkpt lat="47.18505" lon="-1.65672">
        <ele>12.2</ele>
        <time>2022-01-23T10:15:36Z</time>
      </trkpt>
      <trkpt lat="47.18497" lon="-1.65656">
        <ele>11.2</ele>
        <time>2022-01-23T10:15:40Z</time>
      </trkpt>
      <trkpt lat="47.18488" lon="-1.65633">
        <ele>10.6</ele>
        <time>2022-01-23T10:15:45Z</time>
      </trkpt>
      <trkpt lat="47.18481" lon="-1.6562">
        <ele>10.8</ele>
        <time>2022-01-23T10:15:49Z</time>
      </trkpt>
      <trkpt lat="47.18479" lon="-1.65617">
        <ele>10.8</ele>
        <time>2022-01-23T10:15:50Z</time>
      </trkpt>
      <trkpt lat="47.18475" lon="-1.65613">
        <ele>10.8</ele>
        <time>2022-01-23T10:15:52Z</time>
      </trkpt>
      <trkpt lat="47.1847" lon="-1.65605">
        <ele>10.8</ele>
        <time>2022-01-23T10:15:54Z</time>
      </trkpt>
      <trkpt lat="47.18457" lon="-1.65581">
        <ele>10.8</ele>
        <time>2022-01-23T10:15:58Z</time>
      </trkpt>
      <trkpt lat="47.1845" lon="-1.65569">
        <ele>10.6</ele>
        <time>2022-01-23T10:16:00Z</time>
      </trkpt>
      <trkpt lat="47.18443" lon="-1.65562">
        <ele>10.4</ele>
        <time>2022-01-23T10:16:02Z</time>
      </trkpt>
      <trkpt lat="47.18434" lon="-1.65559">
        <ele>10</ele>
        <time>2022-01-23T10:16:06Z</time>
      </trkpt>
      <trkpt lat="47.18411" lon="-1.65549">
        <ele>10</ele>
        <time>2022-01-23T10:16:12Z</time>
      </trkpt>
      <trkpt lat="47.18384" lon="-1.6554">
        <ele>10</ele>
        <time>2022-01-23T10:16:19Z</time>
      </trkpt>
      <trkpt lat="47.1837" lon="-1.6553">
        <ele>9.6</ele>
        <time>2022-01-23T10:16:24Z</time>
      </trkpt>
      <trkpt lat="47.18356" lon="-1.65512">
        <ele>9.8</ele>
        <time>2022-01-23T10:16:29Z</time>
      </trkpt>
      <trkpt lat="47.18341" lon="-1.6549">
        <ele>9.6</ele>
        <time>2022-01-23T10:16:33Z</time>
      </trkpt>
      <trkpt lat="47.18331" lon="-1.65477">
        <ele>9.8</ele>
        <time>2022-01-23T10:16:35Z</time>
      </trkpt>
      <trkpt lat="47.18322" lon="-1.65466">
        <ele>9.6</ele>
        <time>2022-01-23T10:16:37Z</time>
      </trkpt>
      <trkpt lat="47.18314" lon="-1.65463">
        <ele>9.6</ele>
        <time>2022-01-23T10:16:39Z</time>
      </trkpt>
      <trkpt lat="47.18311" lon="-1.65465">
        <ele>9.4</ele>
        <time>2022-01-23T10:16:40Z</time>
      </trkpt>
      <trkpt lat="47.18292" lon="-1.65477">
        <ele>8.8</ele>
        <time>2022-01-23T10:16:45Z</time>
      </trkpt>
      <trkpt lat="47.18288" lon="-1.65479">
        <ele>8.6</ele>
        <time>2022-01-23T10:16:46Z</time>
      </trkpt>
      <trkpt lat="47.18268" lon="-1.6549">
        <ele>9.2</ele>
        <time>2022-01-23T10:16:51Z</time>
      </trkpt>
      <trkpt lat="47.18258" lon="-1.65487">
        <ele>8.8</ele>
        <time>2022-01-23T10:16:54Z</time>
      </trkpt>
      <trkpt lat="47.18255" lon="-1.65485">
        <ele>9.6</ele>
        <time>2022-01-23T10:16:56Z</time>
      </trkpt>
      <trkpt lat="47.18247" lon="-1.65469">
        <ele>9.8</ele>
        <time>2022-01-23T10:16:59Z</time>
      </trkpt>
      <trkpt lat="47.18233" lon="-1.65435">
        <ele>10</ele>
        <time>2022-01-23T10:17:04Z</time>
      </trkpt>
      <trkpt lat="47.1823" lon="-1.65429">
        <ele>10</ele>
        <time>2022-01-23T10:17:05Z</time>
      </trkpt>
      <trkpt lat="47.18226" lon="-1.65417">
        <ele>10</ele>
        <time>2022-01-23T10:17:07Z</time>
      </trkpt>
      <trkpt lat="47.18221" lon="-1.65404">
        <ele>10</ele>
        <time>2022-01-23T10:17:09Z</time>
      </trkpt>
      <trkpt lat="47.18215" lon="-1.65384">
        <ele>10</ele>
        <time>2022-01-23T10:17:12Z</time>
      </trkpt>
      <trkpt lat="47.18211" lon="-1.65363">
        <ele>10</ele>
        <time>2022-01-23T10:17:16Z</time>
      </trkpt>
      <trkpt lat="47.18205" lon="-1.65341">
        <ele>10.2</ele>
        <time>2022-01-23T10:17:20Z</time>
      </trkpt>
      <trkpt lat="47.18202" lon="-1.65329">
        <ele>10.4</ele>
        <time>2022-01-23T10:17:22Z</time>
      </trkpt>
      <trkpt lat="47.18195" lon="-1.65313">
        <ele>10.8</ele>
        <time>2022-01-23T10:17:25Z</time>
      </trkpt>
      <trkpt lat="47.18192" lon="-1.65309">
        <ele>10.8</ele>
        <time>2022-01-23T10:17:26Z</time>
      </trkpt>
      <trkpt lat="47.18185" lon="-1.65294">
        <ele>10.8</ele>
        <time>2022-01-23T10:17:29Z</time>
      </trkpt>
      <trkpt lat="47.18181" lon="-1.65277">
        <ele>10.2</ele>
        <time>2022-01-23T10:17:33Z</time>
      </trkpt>
      <trkpt lat="47.18176" lon="-1.65263">
        <ele>9.2</ele>
        <time>2022-01-23T10:17:37Z</time>
      </trkpt>
      <trkpt lat="47.18174" lon="-1.6526">
        <ele>8.4</ele>
        <time>2022-01-23T10:17:40Z</time>
      </trkpt>
      <trkpt lat="47.18174" lon="-1.6526">
        <ele>7.8</ele>
        <time>2022-01-23T10:17:44Z</time>
      </trkpt>
      <trkpt lat="47.18172" lon="-1.65258">
        <ele>3.8</ele>
        <time>2022-01-23T10:19:07Z</time>
      </trkpt>
      <trkpt lat="47.1817" lon="-1.65259">
        <ele>4</ele>
        <time>2022-01-23T10:19:08Z</time>
      </trkpt>
      <trkpt lat="47.18169" lon="-1.65262">
        <ele>4</ele>
        <time>2022-01-23T10:19:10Z</time>
      </trkpt>
      <trkpt lat="47.18166" lon="-1.65264">
        <ele>4.2</ele>
        <time>2022-01-23T10:19:12Z</time>
      </trkpt>
      <trkpt lat="47.18159" lon="-1.65274">
        <ele>3.8</ele>
        <time>2022-01-23T10:19:17Z</time>
      </trkpt>
      <trkpt lat="47.18148" lon="-1.65279">
        <ele>3.8</ele>
        <time>2022-01-23T10:19:22Z</time>
      </trkpt>
      <trkpt lat="47.18134" lon="-1.6529">
        <ele>4.2</ele>
        <time>2022-01-23T10:19:27Z</time>
      </trkpt>
      <trkpt lat="47.18129" lon="-1.65292">
        <ele>4.4</ele>
        <time>2022-01-23T10:19:30Z</time>
      </trkpt>
      <trkpt lat="47.18125" lon="-1.65292">
        <ele>5.2</ele>
        <time>2022-01-23T10:19:33Z</time>
      </trkpt>
      <trkpt lat="47.18126" lon="-1.65291">
        <ele>5</ele>
        <time>2022-01-23T10:19:34Z</time>
      </trkpt>
      <trkpt lat="47.18131" lon="-1.65285">
        <ele>5</ele>
        <time>2022-01-23T10:19:37Z</time>
      </trkpt>
      <trkpt lat="47.18136" lon="-1.65278">
        <ele>5.2</ele>
        <time>2022-01-23T10:19:39Z</time>
      </trkpt>
      <trkpt lat="47.18141" lon="-1.65274">
        <ele>5.2</ele>
        <time>2022-01-23T10:19:40Z</time>
      </trkpt>
      <trkpt lat="47.18152" lon="-1.65254">
        <ele>5.4</ele>
        <time>2022-01-23T10:19:43Z</time>
      </trkpt>
      <trkpt lat="47.18158" lon="-1.6523">
        <ele>5.8</ele>
        <time>2022-01-23T10:19:46Z</time>
      </trkpt>
      <trkpt lat="47.18159" lon="-1.65223">
        <ele>5.8</ele>
        <time>2022-01-23T10:19:47Z</time>
      </trkpt>
      <trkpt lat="47.18162" lon="-1.65208">
        <ele>6</ele>
        <time>2022-01-23T10:19:49Z</time>
      </trkpt>
      <trkpt lat="47.18162" lon="-1.65199">
        <ele>6</ele>
        <time>2022-01-23T10:19:50Z</time>
      </trkpt>
      <trkpt lat="47.18163" lon="-1.65167">
        <ele>6.2</ele>
        <time>2022-01-23T10:19:53Z</time>
      </trkpt>
      <trkpt lat="47.18164" lon="-1.65156">
        <ele>6.2</ele>
        <time>2022-01-23T10:19:54Z</time>
      </trkpt>
      <trkpt lat="47.18164" lon="-1.65144">
        <ele>6.2</ele>
        <time>2022-01-23T10:19:55Z</time>
      </trkpt>
      <trkpt lat="47.18164" lon="-1.65133">
        <ele>6.2</ele>
        <time>2022-01-23T10:19:56Z</time>
      </trkpt>
      <trkpt lat="47.18164" lon="-1.65125">
        <ele>6.2</ele>
        <time>2022-01-23T10:19:57Z</time>
      </trkpt>
      <trkpt lat="47.18164" lon="-1.6511">
        <ele>6.2</ele>
        <time>2022-01-23T10:19:59Z</time>
      </trkpt>
      <trkpt lat="47.1817" lon="-1.65098">
        <ele>6.2</ele>
        <time>2022-01-23T10:20:01Z</time>
      </trkpt>
      <trkpt lat="47.18174" lon="-1.65092">
        <ele>6.2</ele>
        <time>2022-01-23T10:20:02Z</time>
      </trkpt>
      <trkpt lat="47.18183" lon="-1.65085">
        <ele>6.2</ele>
        <time>2022-01-23T10:20:03Z</time>
      </trkpt>
      <trkpt lat="47.18201" lon="-1.65078">
        <ele>6.4</ele>
        <time>2022-01-23T10:20:05Z</time>
      </trkpt>
      <trkpt lat="47.18223" lon="-1.6507">
        <ele>6.4</ele>
        <time>2022-01-23T10:20:08Z</time>
      </trkpt>
      <trkpt lat="47.18253" lon="-1.6506">
        <ele>6.4</ele>
        <time>2022-01-23T10:20:12Z</time>
      </trkpt>
      <trkpt lat="47.18288" lon="-1.65052">
        <ele>6.6</ele>
        <time>2022-01-23T10:20:16Z</time>
      </trkpt>
      <trkpt lat="47.18316" lon="-1.65051">
        <ele>6.6</ele>
        <time>2022-01-23T10:20:20Z</time>
      </trkpt>
      <trkpt lat="47.18339" lon="-1.65057">
        <ele>6.8</ele>
        <time>2022-01-23T10:20:24Z</time>
      </trkpt>
      <trkpt lat="47.18345" lon="-1.65057">
        <ele>6.8</ele>
        <time>2022-01-23T10:20:25Z</time>
      </trkpt>
      <trkpt lat="47.1835" lon="-1.65054">
        <ele>6.8</ele>
        <time>2022-01-23T10:20:26Z</time>
      </trkpt>
      <trkpt lat="47.18355" lon="-1.65049">
        <ele>6.8</ele>
        <time>2022-01-23T10:20:27Z</time>
      </trkpt>
      <trkpt lat="47.18362" lon="-1.65034">
        <ele>6.8</ele>
        <time>2022-01-23T10:20:29Z</time>
      </trkpt>
      <trkpt lat="47.18371" lon="-1.6502">
        <ele>6.8</ele>
        <time>2022-01-23T10:20:31Z</time>
      </trkpt>
      <trkpt lat="47.18375" lon="-1.65007">
        <ele>6.6</ele>
        <time>2022-01-23T10:20:33Z</time>
      </trkpt>
      <trkpt lat="47.18376" lon="-1.65001">
        <ele>6.6</ele>
        <time>2022-01-23T10:20:34Z</time>
      </trkpt>
      <trkpt lat="47.1838" lon="-1.64989">
        <ele>6.2</ele>
        <time>2022-01-23T10:20:36Z</time>
      </trkpt>
      <trkpt lat="47.18383" lon="-1.64976">
        <ele>5.8</ele>
        <time>2022-01-23T10:20:38Z</time>
      </trkpt>
      <trkpt lat="47.18387" lon="-1.64964">
        <ele>5.6</ele>
        <time>2022-01-23T10:20:40Z</time>
      </trkpt>
      <trkpt lat="47.18394" lon="-1.64951">
        <ele>5.4</ele>
        <time>2022-01-23T10:20:42Z</time>
      </trkpt>
      <trkpt lat="47.18399" lon="-1.64937">
        <ele>5.2</ele>
        <time>2022-01-23T10:20:44Z</time>
      </trkpt>
      <trkpt lat="47.184" lon="-1.64929">
        <ele>5.2</ele>
        <time>2022-01-23T10:20:45Z</time>
      </trkpt>
      <trkpt lat="47.18402" lon="-1.64907">
        <ele>5.4</ele>
        <time>2022-01-23T10:20:48Z</time>
      </trkpt>
      <trkpt lat="47.18404" lon="-1.64896">
        <ele>5.2</ele>
        <time>2022-01-23T10:20:50Z</time>
      </trkpt>
      <trkpt lat="47.18417" lon="-1.64887">
        <ele>4.6</ele>
        <time>2022-01-23T10:20:53Z</time>
      </trkpt>
      <trkpt lat="47.18427" lon="-1.64891">
        <ele>4.6</ele>
        <time>2022-01-23T10:20:55Z</time>
      </trkpt>
      <trkpt lat="47.1843" lon="-1.64894">
        <ele>4.6</ele>
        <time>2022-01-23T10:20:56Z</time>
      </trkpt>
      <trkpt lat="47.18432" lon="-1.64906">
        <ele>4.2</ele>
        <time>2022-01-23T10:21:00Z</time>
      </trkpt>
      <trkpt lat="47.18435" lon="-1.64925">
        <ele>3.8</ele>
        <time>2022-01-23T10:21:04Z</time>
      </trkpt>
      <trkpt lat="47.18445" lon="-1.64941">
        <ele>3.2</ele>
        <time>2022-01-23T10:21:08Z</time>
      </trkpt>
      <trkpt lat="47.18449" lon="-1.64945">
        <ele>3.2</ele>
        <time>2022-01-23T10:21:09Z</time>
      </trkpt>
      <trkpt lat="47.1846" lon="-1.64955">
        <ele>2.6</ele>
        <time>2022-01-23T10:21:12Z</time>
      </trkpt>
      <trkpt lat="47.18475" lon="-1.64971">
        <ele>2.2</ele>
        <time>2022-01-23T10:21:16Z</time>
      </trkpt>
      <trkpt lat="47.18484" lon="-1.6498">
        <ele>2.2</ele>
        <time>2022-01-23T10:21:18Z</time>
      </trkpt>
      <trkpt lat="47.18498" lon="-1.64992">
        <ele>2.2</ele>
        <time>2022-01-23T10:21:21Z</time>
      </trkpt>
      <trkpt lat="47.18502" lon="-1.64996">
        <ele>2.2</ele>
        <time>2022-01-23T10:21:22Z</time>
      </trkpt>
      <trkpt lat="47.18506" lon="-1.65">
        <ele>2.2</ele>
        <time>2022-01-23T10:21:23Z</time>
      </trkpt>
      <trkpt lat="47.18517" lon="-1.65014">
        <ele>2</ele>
        <time>2022-01-23T10:21:26Z</time>
      </trkpt>
      <trkpt lat="47.18521" lon="-1.65018">
        <ele>1.8</ele>
        <time>2022-01-23T10:21:27Z</time>
      </trkpt>
      <trkpt lat="47.18534" lon="-1.65028">
        <ele>1.6</ele>
        <time>2022-01-23T10:21:30Z</time>
      </trkpt>
      <trkpt lat="47.18546" lon="-1.65038">
        <ele>1.4</ele>
        <time>2022-01-23T10:21:33Z</time>
      </trkpt>
      <trkpt lat="47.18553" lon="-1.65044">
        <ele>1.2</ele>
        <time>2022-01-23T10:21:35Z</time>
      </trkpt>
      <trkpt lat="47.1857" lon="-1.65056">
        <ele>0.80000000000001</ele>
        <time>2022-01-23T10:21:40Z</time>
      </trkpt>
      <trkpt lat="47.18579" lon="-1.6506">
        <ele>0.19999999999999</ele>
        <time>2022-01-23T10:21:43Z</time>
      </trkpt>
      <trkpt lat="47.18582" lon="-1.65061">
        <ele>0.19999999999999</ele>
        <time>2022-01-23T10:21:45Z</time>
      </trkpt>
      <trkpt lat="47.18588" lon="-1.65064">
        <ele>-0.19999999999999</ele>
        <time>2022-01-23T10:21:47Z</time>
      </trkpt>
      <trkpt lat="47.18601" lon="-1.6507">
        <ele>-0.19999999999999</ele>
        <time>2022-01-23T10:21:50Z</time>
      </trkpt>
      <trkpt lat="47.18607" lon="-1.65073">
        <ele>-0.19999999999999</ele>
        <time>2022-01-23T10:21:51Z</time>
      </trkpt>
      <trkpt lat="47.18613" lon="-1.65074">
        <ele>-0.19999999999999</ele>
        <time>2022-01-23T10:21:52Z</time>
      </trkpt>
      <trkpt lat="47.18628" lon="-1.6508">
        <ele>-0.60000000000002</ele>
        <time>2022-01-23T10:21:55Z</time>
      </trkpt>
      <trkpt lat="47.18641" lon="-1.65085">
        <ele>-1</ele>
        <time>2022-01-23T10:21:58Z</time>
      </trkpt>
      <trkpt lat="47.18645" lon="-1.65087">
        <ele>-1.2</ele>
        <time>2022-01-23T10:21:59Z</time>
      </trkpt>
      <trkpt lat="47.18652" lon="-1.65091">
        <ele>-1.6</ele>
        <time>2022-01-23T10:22:01Z</time>
      </trkpt>
      <trkpt lat="47.18671" lon="-1.651">
        <ele>-2.2</ele>
        <time>2022-01-23T10:22:07Z</time>
      </trkpt>
      <trkpt lat="47.18694" lon="-1.65109">
        <ele>-2.4</ele>
        <time>2022-01-23T10:22:12Z</time>
      </trkpt>
      <trkpt lat="47.18703" lon="-1.65113">
        <ele>-2.4</ele>
        <time>2022-01-23T10:22:14Z</time>
      </trkpt>
      <trkpt lat="47.18713" lon="-1.65117">
        <ele>-2.4</ele>
        <time>2022-01-23T10:22:16Z</time>
      </trkpt>
      <trkpt lat="47.18736" lon="-1.65125">
        <ele>-2.8</ele>
        <time>2022-01-23T10:22:20Z</time>
      </trkpt>
      <trkpt lat="47.18758" lon="-1.65133">
        <ele>-3.4</ele>
        <time>2022-01-23T10:22:24Z</time>
      </trkpt>
      <trkpt lat="47.18768" lon="-1.65137">
        <ele>-3.8</ele>
        <time>2022-01-23T10:22:26Z</time>
      </trkpt>
      <trkpt lat="47.1878" lon="-1.65148">
        <ele>-4.4</ele>
        <time>2022-01-23T10:22:29Z</time>
      </trkpt>
      <trkpt lat="47.18787" lon="-1.65157">
        <ele>-4.8</ele>
        <time>2022-01-23T10:22:31Z</time>
      </trkpt>
      <trkpt lat="47.18791" lon="-1.65158">
        <ele>-4.8</ele>
        <time>2022-01-23T10:22:32Z</time>
      </trkpt>
      <trkpt lat="47.18796" lon="-1.65158">
        <ele>-5</ele>
        <time>2022-01-23T10:22:33Z</time>
      </trkpt>
      <trkpt lat="47.18806" lon="-1.65166">
        <ele>-5.2</ele>
        <time>2022-01-23T10:22:35Z</time>
      </trkpt>
      <trkpt lat="47.18815" lon="-1.65176">
        <ele>-5.4</ele>
        <time>2022-01-23T10:22:37Z</time>
      </trkpt>
      <trkpt lat="47.1882" lon="-1.65179">
        <ele>-5.6</ele>
        <time>2022-01-23T10:22:38Z</time>
      </trkpt>
      <trkpt lat="47.18834" lon="-1.65191">
        <ele>-5.8</ele>
        <time>2022-01-23T10:22:41Z</time>
      </trkpt>
      <trkpt lat="47.18843" lon="-1.65198">
        <ele>-6</ele>
        <time>2022-01-23T10:22:43Z</time>
      </trkpt>
      <trkpt lat="47.18851" lon="-1.65206">
        <ele>-6.2</ele>
        <time>2022-01-23T10:22:45Z</time>
      </trkpt>
      <trkpt lat="47.18865" lon="-1.65217">
        <ele>-6.2</ele>
        <time>2022-01-23T10:22:49Z</time>
      </trkpt>
      <trkpt lat="47.18884" lon="-1.6523">
        <ele>-6.2</ele>
        <time>2022-01-23T10:22:53Z</time>
      </trkpt>
      <trkpt lat="47.18889" lon="-1.65232">
        <ele>-6.2</ele>
        <time>2022-01-23T10:22:54Z</time>
      </trkpt>
      <trkpt lat="47.18894" lon="-1.65235">
        <ele>-6.2</ele>
        <time>2022-01-23T10:22:55Z</time>
      </trkpt>
      <trkpt lat="47.18909" lon="-1.65243">
        <ele>-6.4</ele>
        <time>2022-01-23T10:22:58Z</time>
      </trkpt>
      <trkpt lat="47.18929" lon="-1.65256">
        <ele>-6.6</ele>
        <time>2022-01-23T10:23:02Z</time>
      </trkpt>
      <trkpt lat="47.18938" lon="-1.6526">
        <ele>-6.8</ele>
        <time>2022-01-23T10:23:04Z</time>
      </trkpt>
      <trkpt lat="47.18946" lon="-1.65265">
        <ele>-7</ele>
        <time>2022-01-23T10:23:06Z</time>
      </trkpt>
      <trkpt lat="47.18951" lon="-1.65267">
        <ele>-7</ele>
        <time>2022-01-23T10:23:07Z</time>
      </trkpt>
      <trkpt lat="47.18957" lon="-1.65268">
        <ele>-7</ele>
        <time>2022-01-23T10:23:08Z</time>
      </trkpt>
      <trkpt lat="47.18971" lon="-1.65271">
        <ele>-7</ele>
        <time>2022-01-23T10:23:11Z</time>
      </trkpt>
      <trkpt lat="47.18974" lon="-1.65271">
        <ele>-7</ele>
        <time>2022-01-23T10:23:12Z</time>
      </trkpt>
      <trkpt lat="47.1898" lon="-1.65269">
        <ele>-7</ele>
        <time>2022-01-23T10:23:15Z</time>
      </trkpt>
      <trkpt lat="47.18994" lon="-1.65264">
        <ele>-7.2</ele>
        <time>2022-01-23T10:23:19Z</time>
      </trkpt>
      <trkpt lat="47.19002" lon="-1.65257">
        <ele>-7.2</ele>
        <time>2022-01-23T10:23:21Z</time>
      </trkpt>
      <trkpt lat="47.19008" lon="-1.65248">
        <ele>-7.4</ele>
        <time>2022-01-23T10:23:23Z</time>
      </trkpt>
      <trkpt lat="47.19009" lon="-1.65244">
        <ele>-7.4</ele>
        <time>2022-01-23T10:23:24Z</time>
      </trkpt>
      <trkpt lat="47.19017" lon="-1.65235">
        <ele>-7.2</ele>
        <time>2022-01-23T10:23:26Z</time>
      </trkpt>
      <trkpt lat="47.19011" lon="-1.65207">
        <ele>-6.8</ele>
        <time>2022-01-23T10:23:31Z</time>
      </trkpt>
      <trkpt lat="47.1901" lon="-1.65201">
        <ele>-6.8</ele>
        <time>2022-01-23T10:23:32Z</time>
      </trkpt>
      <trkpt lat="47.1901" lon="-1.65188">
        <ele>-6.6</ele>
        <time>2022-01-23T10:23:34Z</time>
      </trkpt>
      <trkpt lat="47.1901" lon="-1.65175">
        <ele>-6.6</ele>
        <time>2022-01-23T10:23:36Z</time>
      </trkpt>
      <trkpt lat="47.19008" lon="-1.65163">
        <ele>-6.6</ele>
        <time>2022-01-23T10:23:38Z</time>
      </trkpt>
      <trkpt lat="47.19005" lon="-1.65145">
        <ele>-6.4</ele>
        <time>2022-01-23T10:23:41Z</time>
      </trkpt>
      <trkpt lat="47.19006" lon="-1.65141">
        <ele>-6.2</ele>
        <time>2022-01-23T10:23:42Z</time>
      </trkpt>
      <trkpt lat="47.19009" lon="-1.65133">
        <ele>-6</ele>
        <time>2022-01-23T10:23:44Z</time>
      </trkpt>
      <trkpt lat="47.19011" lon="-1.6513">
        <ele>-5.8</ele>
        <time>2022-01-23T10:23:45Z</time>
      </trkpt>
      <trkpt lat="47.19016" lon="-1.65117">
        <ele>-5.8</ele>
        <time>2022-01-23T10:23:49Z</time>
      </trkpt>
      <trkpt lat="47.19018" lon="-1.65081">
        <ele>-5.6</ele>
        <time>2022-01-23T10:23:55Z</time>
      </trkpt>
      <trkpt lat="47.19017" lon="-1.65052">
        <ele>-5</ele>
        <time>2022-01-23T10:24:00Z</time>
      </trkpt>
      <trkpt lat="47.19014" lon="-1.65046">
        <ele>-4.8</ele>
        <time>2022-01-23T10:24:01Z</time>
      </trkpt>
      <trkpt lat="47.19009" lon="-1.65035">
        <ele>-4.6</ele>
        <time>2022-01-23T10:24:03Z</time>
      </trkpt>
      <trkpt lat="47.19003" lon="-1.65025">
        <ele>-4.4</ele>
        <time>2022-01-23T10:24:05Z</time>
      </trkpt>
      <trkpt lat="47.18998" lon="-1.65006">
        <ele>-4</ele>
        <time>2022-01-23T10:24:09Z</time>
      </trkpt>
      <trkpt lat="47.18999" lon="-1.64981">
        <ele>-3.4</ele>
        <time>2022-01-23T10:24:14Z</time>
      </trkpt>
      <trkpt lat="47.19004" lon="-1.6495">
        <ele>-2.8</ele>
        <time>2022-01-23T10:24:20Z</time>
      </trkpt>
      <trkpt lat="47.19008" lon="-1.64923">
        <ele>-2.2</ele>
        <time>2022-01-23T10:24:25Z</time>
      </trkpt>
      <trkpt lat="47.19011" lon="-1.64905">
        <ele>-2</ele>
        <time>2022-01-23T10:24:30Z</time>
      </trkpt>
      <trkpt lat="47.19013" lon="-1.649">
        <ele>-1.8</ele>
        <time>2022-01-23T10:24:31Z</time>
      </trkpt>
      <trkpt lat="47.19015" lon="-1.64887">
        <ele>-1.8</ele>
        <time>2022-01-23T10:24:33Z</time>
      </trkpt>
      <trkpt lat="47.19017" lon="-1.64865">
        <ele>-1.6</ele>
        <time>2022-01-23T10:24:36Z</time>
      </trkpt>
      <trkpt lat="47.19018" lon="-1.64851">
        <ele>-1.6</ele>
        <time>2022-01-23T10:24:38Z</time>
      </trkpt>
      <trkpt lat="47.19019" lon="-1.64836">
        <ele>-1.6</ele>
        <time>2022-01-23T10:24:40Z</time>
      </trkpt>
      <trkpt lat="47.19019" lon="-1.64823">
        <ele>-1.4</ele>
        <time>2022-01-23T10:24:42Z</time>
      </trkpt>
      <trkpt lat="47.19018" lon="-1.64817">
        <ele>-1.4</ele>
        <time>2022-01-23T10:24:43Z</time>
      </trkpt>
      <trkpt lat="47.19018" lon="-1.64811">
        <ele>-1.4</ele>
        <time>2022-01-23T10:24:44Z</time>
      </trkpt>
      <trkpt lat="47.1902" lon="-1.64793">
        <ele>-1.2</ele>
        <time>2022-01-23T10:24:47Z</time>
      </trkpt>
      <trkpt lat="47.19021" lon="-1.64787">
        <ele>-1.2</ele>
        <time>2022-01-23T10:24:48Z</time>
      </trkpt>
      <trkpt lat="47.19021" lon="-1.64781">
        <ele>-1.2</ele>
        <time>2022-01-23T10:24:49Z</time>
      </trkpt>
      <trkpt lat="47.19019" lon="-1.64769">
        <ele>-1</ele>
        <time>2022-01-23T10:24:51Z</time>
      </trkpt>
      <trkpt lat="47.19017" lon="-1.64763">
        <ele>-1</ele>
        <time>2022-01-23T10:24:52Z</time>
      </trkpt>
      <trkpt lat="47.19016" lon="-1.64758">
        <ele>-1</ele>
        <time>2022-01-23T10:24:53Z</time>
      </trkpt>
      <trkpt lat="47.19016" lon="-1.64746">
        <ele>-0.80000000000001</ele>
        <time>2022-01-23T10:24:55Z</time>
      </trkpt>
      <trkpt lat="47.19011" lon="-1.64734">
        <ele>-0.80000000000001</ele>
        <time>2022-01-23T10:24:57Z</time>
      </trkpt>
      <trkpt lat="47.19008" lon="-1.64728">
        <ele>-0.60000000000002</ele>
        <time>2022-01-23T10:24:58Z</time>
      </trkpt>
      <trkpt lat="47.19007" lon="-1.64722">
        <ele>-0.60000000000002</ele>
        <time>2022-01-23T10:24:59Z</time>
      </trkpt>
      <trkpt lat="47.19007" lon="-1.6471">
        <ele>-0.39999999999998</ele>
        <time>2022-01-23T10:25:01Z</time>
      </trkpt>
      <trkpt lat="47.19008" lon="-1.64678">
        <ele>-0.39999999999998</ele>
        <time>2022-01-23T10:25:07Z</time>
      </trkpt>
      <trkpt lat="47.19008" lon="-1.64673">
        <ele>-0.39999999999998</ele>
        <time>2022-01-23T10:25:08Z</time>
      </trkpt>
      <trkpt lat="47.1901" lon="-1.64661">
        <ele>0.19999999999999</ele>
        <time>2022-01-23T10:25:11Z</time>
      </trkpt>
      <trkpt lat="47.19011" lon="-1.64648">
        <ele>0.39999999999998</ele>
        <time>2022-01-23T10:25:14Z</time>
      </trkpt>
      <trkpt lat="47.19004" lon="-1.64625">
        <ele>0.60000000000002</ele>
        <time>2022-01-23T10:25:19Z</time>
      </trkpt>
      <trkpt lat="47.18999" lon="-1.64597">
        <ele>1.2</ele>
        <time>2022-01-23T10:25:25Z</time>
      </trkpt>
      <trkpt lat="47.18996" lon="-1.64568">
        <ele>1.6</ele>
        <time>2022-01-23T10:25:31Z</time>
      </trkpt>
      <trkpt lat="47.18993" lon="-1.64543">
        <ele>2</ele>
        <time>2022-01-23T10:25:37Z</time>
      </trkpt>
      <trkpt lat="47.18993" lon="-1.64519">
        <ele>2.4</ele>
        <time>2022-01-23T10:25:42Z</time>
      </trkpt>
      <trkpt lat="47.18997" lon="-1.64486">
        <ele>2.6</ele>
        <time>2022-01-23T10:25:49Z</time>
      </trkpt>
      <trkpt lat="47.19001" lon="-1.6446">
        <ele>3</ele>
        <time>2022-01-23T10:25:54Z</time>
      </trkpt>
      <trkpt lat="47.19008" lon="-1.6444">
        <ele>3</ele>
        <time>2022-01-23T10:25:59Z</time>
      </trkpt>
      <trkpt lat="47.19011" lon="-1.64434">
        <ele>3</ele>
        <time>2022-01-23T10:26:01Z</time>
      </trkpt>
      <trkpt lat="47.19014" lon="-1.64429">
        <ele>3.2</ele>
        <time>2022-01-23T10:26:03Z</time>
      </trkpt>
      <trkpt lat="47.19021" lon="-1.64422">
        <ele>3</ele>
        <time>2022-01-23T10:26:07Z</time>
      </trkpt>
      <trkpt lat="47.19023" lon="-1.64422">
        <ele>3</ele>
        <time>2022-01-23T10:26:08Z</time>
      </trkpt>
      <trkpt lat="47.19031" lon="-1.64423">
        <ele>3</ele>
        <time>2022-01-23T10:26:10Z</time>
      </trkpt>
      <trkpt lat="47.19043" lon="-1.64424">
        <ele>2.8</ele>
        <time>2022-01-23T10:26:14Z</time>
      </trkpt>
      <trkpt lat="47.19048" lon="-1.64417">
        <ele>3</ele>
        <time>2022-01-23T10:26:16Z</time>
      </trkpt>
      <trkpt lat="47.19049" lon="-1.64413">
        <ele>3</ele>
        <time>2022-01-23T10:26:17Z</time>
      </trkpt>
      <trkpt lat="47.19051" lon="-1.64408">
        <ele>3.2</ele>
        <time>2022-01-23T10:26:18Z</time>
      </trkpt>
      <trkpt lat="47.19053" lon="-1.644">
        <ele>2.8</ele>
        <time>2022-01-23T10:26:20Z</time>
      </trkpt>
      <trkpt lat="47.19059" lon="-1.64378">
        <ele>2.6</ele>
        <time>2022-01-23T10:26:25Z</time>
      </trkpt>
      <trkpt lat="47.19061" lon="-1.64374">
        <ele>2.4</ele>
        <time>2022-01-23T10:26:26Z</time>
      </trkpt>
      <trkpt lat="47.19063" lon="-1.64363">
        <ele>2.2</ele>
        <time>2022-01-23T10:26:28Z</time>
      </trkpt>
      <trkpt lat="47.19065" lon="-1.64336">
        <ele>1.8</ele>
        <time>2022-01-23T10:26:33Z</time>
      </trkpt>
      <trkpt lat="47.19065" lon="-1.64329">
        <ele>1.8</ele>
        <time>2022-01-23T10:26:35Z</time>
      </trkpt>
      <trkpt lat="47.19063" lon="-1.64326">
        <ele>1.8</ele>
        <time>2022-01-23T10:26:36Z</time>
      </trkpt>
      <trkpt lat="47.19061" lon="-1.64319">
        <ele>1.8</ele>
        <time>2022-01-23T10:26:38Z</time>
      </trkpt>
      <trkpt lat="47.19058" lon="-1.64318">
        <ele>1.8</ele>
        <time>2022-01-23T10:26:39Z</time>
      </trkpt>
      <trkpt lat="47.19037" lon="-1.64314">
        <ele>1.8</ele>
        <time>2022-01-23T10:26:45Z</time>
      </trkpt>
      <trkpt lat="47.19034" lon="-1.64313">
        <ele>1.8</ele>
        <time>2022-01-23T10:26:46Z</time>
      </trkpt>
      <trkpt lat="47.19031" lon="-1.64303">
        <ele>1.6</ele>
        <time>2022-01-23T10:26:48Z</time>
      </trkpt>
      <trkpt lat="47.1903" lon="-1.64285">
        <ele>1.4</ele>
        <time>2022-01-23T10:26:51Z</time>
      </trkpt>
      <trkpt lat="47.1903" lon="-1.64268">
        <ele>1.2</ele>
        <time>2022-01-23T10:26:54Z</time>
      </trkpt>
      <trkpt lat="47.19032" lon="-1.64254">
        <ele>1.2</ele>
        <time>2022-01-23T10:26:56Z</time>
      </trkpt>
      <trkpt lat="47.19037" lon="-1.64233">
        <ele>1.2</ele>
        <time>2022-01-23T10:26:59Z</time>
      </trkpt>
      <trkpt lat="47.19046" lon="-1.64191">
        <ele>1.2</ele>
        <time>2022-01-23T10:27:05Z</time>
      </trkpt>
      <trkpt lat="47.19047" lon="-1.64184">
        <ele>1</ele>
        <time>2022-01-23T10:27:06Z</time>
      </trkpt>
      <trkpt lat="47.19046" lon="-1.64178">
        <ele>1</ele>
        <time>2022-01-23T10:27:07Z</time>
      </trkpt>
      <trkpt lat="47.19042" lon="-1.64166">
        <ele>1</ele>
        <time>2022-01-23T10:27:09Z</time>
      </trkpt>
      <trkpt lat="47.19032" lon="-1.6415">
        <ele>1.2</ele>
        <time>2022-01-23T10:27:12Z</time>
      </trkpt>
      <trkpt lat="47.19022" lon="-1.64132">
        <ele>1.2</ele>
        <time>2022-01-23T10:27:15Z</time>
      </trkpt>
      <trkpt lat="47.18999" lon="-1.64097">
        <ele>1</ele>
        <time>2022-01-23T10:27:21Z</time>
      </trkpt>
      <trkpt lat="47.18979" lon="-1.64063">
        <ele>1</ele>
        <time>2022-01-23T10:27:26Z</time>
      </trkpt>
      <trkpt lat="47.18975" lon="-1.64055">
        <ele>1</ele>
        <time>2022-01-23T10:27:27Z</time>
      </trkpt>
      <trkpt lat="47.18962" lon="-1.64033">
        <ele>1</ele>
        <time>2022-01-23T10:27:30Z</time>
      </trkpt>
      <trkpt lat="47.18958" lon="-1.64026">
        <ele>1</ele>
        <time>2022-01-23T10:27:31Z</time>
      </trkpt>
      <trkpt lat="47.18927" lon="-1.63977">
        <ele>1</ele>
        <time>2022-01-23T10:27:38Z</time>
      </trkpt>
      <trkpt lat="47.18898" lon="-1.63928">
        <ele>1</ele>
        <time>2022-01-23T10:27:45Z</time>
      </trkpt>
      <trkpt lat="47.18871" lon="-1.63887">
        <ele>0.80000000000001</ele>
        <time>2022-01-23T10:27:51Z</time>
      </trkpt>
      <trkpt lat="47.18863" lon="-1.63873">
        <ele>0.80000000000001</ele>
        <time>2022-01-23T10:27:53Z</time>
      </trkpt>
      <trkpt lat="47.18849" lon="-1.63844">
        <ele>0.80000000000001</ele>
        <time>2022-01-23T10:27:57Z</time>
      </trkpt>
      <trkpt lat="47.18841" lon="-1.63831">
        <ele>1</ele>
        <time>2022-01-23T10:27:59Z</time>
      </trkpt>
      <trkpt lat="47.18831" lon="-1.63809">
        <ele>1</ele>
        <time>2022-01-23T10:28:02Z</time>
      </trkpt>
      <trkpt lat="47.18815" lon="-1.63768">
        <ele>1</ele>
        <time>2022-01-23T10:28:08Z</time>
      </trkpt>
      <trkpt lat="47.18808" lon="-1.63749">
        <ele>1</ele>
        <time>2022-01-23T10:28:12Z</time>
      </trkpt>
      <trkpt lat="47.18801" lon="-1.63732">
        <ele>1.2</ele>
        <time>2022-01-23T10:28:17Z</time>
      </trkpt>
      <trkpt lat="47.18797" lon="-1.63717">
        <ele>1.2</ele>
        <time>2022-01-23T10:28:20Z</time>
      </trkpt>
      <trkpt lat="47.18793" lon="-1.63707">
        <ele>1.2</ele>
        <time>2022-01-23T10:28:22Z</time>
      </trkpt>
      <trkpt lat="47.18789" lon="-1.63695">
        <ele>1.2</ele>
        <time>2022-01-23T10:28:24Z</time>
      </trkpt>
      <trkpt lat="47.18785" lon="-1.63683">
        <ele>1.2</ele>
        <time>2022-01-23T10:28:26Z</time>
      </trkpt>
      <trkpt lat="47.1877" lon="-1.63647">
        <ele>1.2</ele>
        <time>2022-01-23T10:28:32Z</time>
      </trkpt>
      <trkpt lat="47.1875" lon="-1.63597">
        <ele>1</ele>
        <time>2022-01-23T10:28:39Z</time>
      </trkpt>
      <trkpt lat="47.18739" lon="-1.63565">
        <ele>1</ele>
        <time>2022-01-23T10:28:43Z</time>
      </trkpt>
      <trkpt lat="47.18733" lon="-1.63549">
        <ele>1.2</ele>
        <time>2022-01-23T10:28:45Z</time>
      </trkpt>
      <trkpt lat="47.18706" lon="-1.63493">
        <ele>1.4</ele>
        <time>2022-01-23T10:28:53Z</time>
      </trkpt>
      <trkpt lat="47.1868" lon="-1.63448">
        <ele>1.6</ele>
        <time>2022-01-23T10:29:00Z</time>
      </trkpt>
      <trkpt lat="47.18666" lon="-1.63424">
        <ele>1.6</ele>
        <time>2022-01-23T10:29:04Z</time>
      </trkpt>
      <trkpt lat="47.18662" lon="-1.63418">
        <ele>1.6</ele>
        <time>2022-01-23T10:29:05Z</time>
      </trkpt>
      <trkpt lat="47.18659" lon="-1.63412">
        <ele>1.6</ele>
        <time>2022-01-23T10:29:06Z</time>
      </trkpt>
      <trkpt lat="47.18648" lon="-1.63392">
        <ele>1.6</ele>
        <time>2022-01-23T10:29:09Z</time>
      </trkpt>
      <trkpt lat="47.18645" lon="-1.63385">
        <ele>1.6</ele>
        <time>2022-01-23T10:29:10Z</time>
      </trkpt>
      <trkpt lat="47.18638" lon="-1.63363">
        <ele>1.6</ele>
        <time>2022-01-23T10:29:13Z</time>
      </trkpt>
      <trkpt lat="47.18629" lon="-1.63346">
        <ele>1.6</ele>
        <time>2022-01-23T10:29:16Z</time>
      </trkpt>
      <trkpt lat="47.18614" lon="-1.63311">
        <ele>1.8</ele>
        <time>2022-01-23T10:29:22Z</time>
      </trkpt>
      <trkpt lat="47.18602" lon="-1.63292">
        <ele>2</ele>
        <time>2022-01-23T10:29:27Z</time>
      </trkpt>
      <trkpt lat="47.18588" lon="-1.63271">
        <ele>2</ele>
        <time>2022-01-23T10:29:32Z</time>
      </trkpt>
      <trkpt lat="47.18578" lon="-1.63254">
        <ele>2.2</ele>
        <time>2022-01-23T10:29:35Z</time>
      </trkpt>
      <trkpt lat="47.18569" lon="-1.63245">
        <ele>2</ele>
        <time>2022-01-23T10:29:37Z</time>
      </trkpt>
      <trkpt lat="47.18558" lon="-1.63228">
        <ele>2</ele>
        <time>2022-01-23T10:29:40Z</time>
      </trkpt>
      <trkpt lat="47.18556" lon="-1.63215">
        <ele>2</ele>
        <time>2022-01-23T10:29:42Z</time>
      </trkpt>
      <trkpt lat="47.18558" lon="-1.63199">
        <ele>1.6</ele>
        <time>2022-01-23T10:29:45Z</time>
      </trkpt>
      <trkpt lat="47.18563" lon="-1.63184">
        <ele>1.4</ele>
        <time>2022-01-23T10:29:48Z</time>
      </trkpt>
      <trkpt lat="47.18563" lon="-1.63178">
        <ele>1.4</ele>
        <time>2022-01-23T10:29:49Z</time>
      </trkpt>
      <trkpt lat="47.18561" lon="-1.63174">
        <ele>1.2</ele>
        <time>2022-01-23T10:29:50Z</time>
      </trkpt>
      <trkpt lat="47.18556" lon="-1.63167">
        <ele>1.2</ele>
        <time>2022-01-23T10:29:52Z</time>
      </trkpt>
      <trkpt lat="47.18541" lon="-1.63151">
        <ele>1.2</ele>
        <time>2022-01-23T10:29:56Z</time>
      </trkpt>
      <trkpt lat="47.18538" lon="-1.63147">
        <ele>1.2</ele>
        <time>2022-01-23T10:29:57Z</time>
      </trkpt>
      <trkpt lat="47.18525" lon="-1.6313">
        <ele>1.4</ele>
        <time>2022-01-23T10:30:01Z</time>
      </trkpt>
      <trkpt lat="47.1851" lon="-1.63113">
        <ele>1.8</ele>
        <time>2022-01-23T10:30:05Z</time>
      </trkpt>
      <trkpt lat="47.18493" lon="-1.63091">
        <ele>2.2</ele>
        <time>2022-01-23T10:30:09Z</time>
      </trkpt>
      <trkpt lat="47.18477" lon="-1.63071">
        <ele>2.4</ele>
        <time>2022-01-23T10:30:13Z</time>
      </trkpt>
      <trkpt lat="47.18458" lon="-1.6305">
        <ele>2.4</ele>
        <time>2022-01-23T10:30:17Z</time>
      </trkpt>
      <trkpt lat="47.18454" lon="-1.63045">
        <ele>2</ele>
        <time>2022-01-23T10:30:18Z</time>
      </trkpt>
      <trkpt lat="47.18445" lon="-1.63038">
        <ele>2.2</ele>
        <time>2022-01-23T10:30:20Z</time>
      </trkpt>
      <trkpt lat="47.18441" lon="-1.63033">
        <ele>2.2</ele>
        <time>2022-01-23T10:30:21Z</time>
      </trkpt>
      <trkpt lat="47.18426" lon="-1.63015">
        <ele>1.4</ele>
        <time>2022-01-23T10:30:25Z</time>
      </trkpt>
      <trkpt lat="47.18413" lon="-1.62999">
        <ele>1.2</ele>
        <time>2022-01-23T10:30:29Z</time>
      </trkpt>
      <trkpt lat="47.18407" lon="-1.62988">
        <ele>1</ele>
        <time>2022-01-23T10:30:31Z</time>
      </trkpt>
      <trkpt lat="47.18404" lon="-1.6298">
        <ele>1</ele>
        <time>2022-01-23T10:30:32Z</time>
      </trkpt>
      <trkpt lat="47.18397" lon="-1.62958">
        <ele>0.60000000000002</ele>
        <time>2022-01-23T10:30:35Z</time>
      </trkpt>
      <trkpt lat="47.18396" lon="-1.62937">
        <ele>0.19999999999999</ele>
        <time>2022-01-23T10:30:38Z</time>
      </trkpt>
      <trkpt lat="47.18396" lon="-1.62918">
        <ele>-0.39999999999998</ele>
        <time>2022-01-23T10:30:42Z</time>
      </trkpt>
      <trkpt lat="47.18397" lon="-1.62896">
        <ele>-0.80000000000001</ele>
        <time>2022-01-23T10:30:47Z</time>
      </trkpt>
      <trkpt lat="47.18396" lon="-1.62886">
        <ele>-1</ele>
        <time>2022-01-23T10:30:49Z</time>
      </trkpt>
      <trkpt lat="47.18397" lon="-1.62877">
        <ele>-1.4</ele>
        <time>2022-01-23T10:30:51Z</time>
      </trkpt>
      <trkpt lat="47.184" lon="-1.6286">
        <ele>-1.6</ele>
        <time>2022-01-23T10:30:55Z</time>
      </trkpt>
      <trkpt lat="47.18405" lon="-1.62842">
        <ele>-1.8</ele>
        <time>2022-01-23T10:30:59Z</time>
      </trkpt>
      <trkpt lat="47.18408" lon="-1.6283">
        <ele>-2</ele>
        <time>2022-01-23T10:31:01Z</time>
      </trkpt>
      <trkpt lat="47.18408" lon="-1.62818">
        <ele>-2.4</ele>
        <time>2022-01-23T10:31:03Z</time>
      </trkpt>
      <trkpt lat="47.18411" lon="-1.62795">
        <ele>-2.8</ele>
        <time>2022-01-23T10:31:07Z</time>
      </trkpt>
      <trkpt lat="47.18414" lon="-1.62777">
        <ele>-3.2</ele>
        <time>2022-01-23T10:31:10Z</time>
      </trkpt>
      <trkpt lat="47.18417" lon="-1.62764">
        <ele>-3.4</ele>
        <time>2022-01-23T10:31:12Z</time>
      </trkpt>
      <trkpt lat="47.18419" lon="-1.62717">
        <ele>-5</ele>
        <time>2022-01-23T10:31:19Z</time>
      </trkpt>
      <trkpt lat="47.18424" lon="-1.62698">
        <ele>-5.6</ele>
        <time>2022-01-23T10:31:22Z</time>
      </trkpt>
      <trkpt lat="47.18427" lon="-1.62688">
        <ele>-5.8</ele>
        <time>2022-01-23T10:31:24Z</time>
      </trkpt>
      <trkpt lat="47.18427" lon="-1.62676">
        <ele>-5.8</ele>
        <time>2022-01-23T10:31:26Z</time>
      </trkpt>
      <trkpt lat="47.18433" lon="-1.62651">
        <ele>-6</ele>
        <time>2022-01-23T10:31:30Z</time>
      </trkpt>
      <trkpt lat="47.18437" lon="-1.62626">
        <ele>-5.8</ele>
        <time>2022-01-23T10:31:34Z</time>
      </trkpt>
      <trkpt lat="47.18439" lon="-1.626">
        <ele>-6.2</ele>
        <time>2022-01-23T10:31:38Z</time>
      </trkpt>
      <trkpt lat="47.1844" lon="-1.62591">
        <ele>-6.4</ele>
        <time>2022-01-23T10:31:39Z</time>
      </trkpt>
      <trkpt lat="47.18443" lon="-1.62558">
        <ele>-6.8</ele>
        <time>2022-01-23T10:31:43Z</time>
      </trkpt>
      <trkpt lat="47.18443" lon="-1.6255">
        <ele>-6.8</ele>
        <time>2022-01-23T10:31:44Z</time>
      </trkpt>
      <trkpt lat="47.18443" lon="-1.62524">
        <ele>-7.4</ele>
        <time>2022-01-23T10:31:47Z</time>
      </trkpt>
      <trkpt lat="47.18445" lon="-1.62498">
        <ele>-7.8</ele>
        <time>2022-01-23T10:31:50Z</time>
      </trkpt>
      <trkpt lat="47.18445" lon="-1.62482">
        <ele>-8</ele>
        <time>2022-01-23T10:31:52Z</time>
      </trkpt>
      <trkpt lat="47.18446" lon="-1.62466">
        <ele>-8.2</ele>
        <time>2022-01-23T10:31:54Z</time>
      </trkpt>
      <trkpt lat="47.18446" lon="-1.62458">
        <ele>-8.4</ele>
        <time>2022-01-23T10:31:55Z</time>
      </trkpt>
      <trkpt lat="47.18446" lon="-1.6245">
        <ele>-8.4</ele>
        <time>2022-01-23T10:31:56Z</time>
      </trkpt>
      <trkpt lat="47.18446" lon="-1.62435">
        <ele>-8.6</ele>
        <time>2022-01-23T10:31:58Z</time>
      </trkpt>
      <trkpt lat="47.18445" lon="-1.62427">
        <ele>-8.6</ele>
        <time>2022-01-23T10:31:59Z</time>
      </trkpt>
      <trkpt lat="47.18444" lon="-1.62418">
        <ele>-8.6</ele>
        <time>2022-01-23T10:32:00Z</time>
      </trkpt>
      <trkpt lat="47.18444" lon="-1.62402">
        <ele>-8.4</ele>
        <time>2022-01-23T10:32:02Z</time>
      </trkpt>
      <trkpt lat="47.18444" lon="-1.62394">
        <ele>-8.4</ele>
        <time>2022-01-23T10:32:03Z</time>
      </trkpt>
      <trkpt lat="47.18444" lon="-1.62378">
        <ele>-8.4</ele>
        <time>2022-01-23T10:32:05Z</time>
      </trkpt>
      <trkpt lat="47.18445" lon="-1.62364">
        <ele>-8.4</ele>
        <time>2022-01-23T10:32:07Z</time>
      </trkpt>
      <trkpt lat="47.18446" lon="-1.62349">
        <ele>-8.2</ele>
        <time>2022-01-23T10:32:09Z</time>
      </trkpt>
      <trkpt lat="47.18446" lon="-1.62342">
        <ele>-8</ele>
        <time>2022-01-23T10:32:10Z</time>
      </trkpt>
      <trkpt lat="47.18446" lon="-1.62336">
        <ele>-9.4</ele>
        <time>2022-01-23T10:32:11Z</time>
      </trkpt>
      <trkpt lat="47.18444" lon="-1.62326">
        <ele>-8.6</ele>
        <time>2022-01-23T10:32:13Z</time>
      </trkpt>
      <trkpt lat="47.18443" lon="-1.62322">
        <ele>-8.4</ele>
        <time>2022-01-23T10:32:14Z</time>
      </trkpt>
      <trkpt lat="47.18438" lon="-1.62318">
        <ele>-7.4</ele>
        <time>2022-01-23T10:32:16Z</time>
      </trkpt>
      <trkpt lat="47.18429" lon="-1.62307">
        <ele>-7.4</ele>
        <time>2022-01-23T10:32:21Z</time>
      </trkpt>
      <trkpt lat="47.18428" lon="-1.62305">
        <ele>-7.4</ele>
        <time>2022-01-23T10:32:22Z</time>
      </trkpt>
      <trkpt lat="47.18427" lon="-1.62299">
        <ele>-7</ele>
        <time>2022-01-23T10:32:24Z</time>
      </trkpt>
      <trkpt lat="47.18429" lon="-1.62295">
        <ele>-7</ele>
        <time>2022-01-23T10:32:25Z</time>
      </trkpt>
      <trkpt lat="47.18436" lon="-1.62284">
        <ele>-6.6</ele>
        <time>2022-01-23T10:32:28Z</time>
      </trkpt>
      <trkpt lat="47.1844" lon="-1.6228">
        <ele>-6.6</ele>
        <time>2022-01-23T10:32:29Z</time>
      </trkpt>
      <trkpt lat="47.18463" lon="-1.62263">
        <ele>-6</ele>
        <time>2022-01-23T10:32:35Z</time>
      </trkpt>
      <trkpt lat="47.18479" lon="-1.6225">
        <ele>-5.8</ele>
        <time>2022-01-23T10:32:40Z</time>
      </trkpt>
      <trkpt lat="47.1848" lon="-1.62245">
        <ele>-5.8</ele>
        <time>2022-01-23T10:32:41Z</time>
      </trkpt>
      <trkpt lat="47.18479" lon="-1.62206">
        <ele>-5.2</ele>
        <time>2022-01-23T10:32:47Z</time>
      </trkpt>
      <trkpt lat="47.18479" lon="-1.62161">
        <ele>-4.8</ele>
        <time>2022-01-23T10:32:53Z</time>
      </trkpt>
      <trkpt lat="47.18477" lon="-1.62091">
        <ele>-3.8</ele>
        <time>2022-01-23T10:33:02Z</time>
      </trkpt>
      <trkpt lat="47.18477" lon="-1.62083">
        <ele>-3.8</ele>
        <time>2022-01-23T10:33:03Z</time>
      </trkpt>
      <trkpt lat="47.18475" lon="-1.62059">
        <ele>-3.6</ele>
        <time>2022-01-23T10:33:06Z</time>
      </trkpt>
      <trkpt lat="47.18472" lon="-1.62">
        <ele>-3</ele>
        <time>2022-01-23T10:33:13Z</time>
      </trkpt>
      <trkpt lat="47.18468" lon="-1.61941">
        <ele>-2.4</ele>
        <time>2022-01-23T10:33:20Z</time>
      </trkpt>
      <trkpt lat="47.18465" lon="-1.6188">
        <ele>-1.8</ele>
        <time>2022-01-23T10:33:27Z</time>
      </trkpt>
      <trkpt lat="47.18462" lon="-1.61839">
        <ele>-1.4</ele>
        <time>2022-01-23T10:33:32Z</time>
      </trkpt>
      <trkpt lat="47.18462" lon="-1.61831">
        <ele>-1.4</ele>
        <time>2022-01-23T10:33:33Z</time>
      </trkpt>
      <trkpt lat="47.18457" lon="-1.6179">
        <ele>-1.2</ele>
        <time>2022-01-23T10:33:38Z</time>
      </trkpt>
      <trkpt lat="47.18457" lon="-1.61781">
        <ele>-1</ele>
        <time>2022-01-23T10:33:39Z</time>
      </trkpt>
      <trkpt lat="47.18454" lon="-1.61731">
        <ele>-0.60000000000002</ele>
        <time>2022-01-23T10:33:45Z</time>
      </trkpt>
      <trkpt lat="47.18454" lon="-1.61706">
        <ele>-0.60000000000002</ele>
        <time>2022-01-23T10:33:48Z</time>
      </trkpt>
      <trkpt lat="47.18453" lon="-1.61689">
        <ele>-0.39999999999998</ele>
        <time>2022-01-23T10:33:50Z</time>
      </trkpt>
      <trkpt lat="47.1845" lon="-1.61631">
        <ele>-0.39999999999998</ele>
        <time>2022-01-23T10:33:57Z</time>
      </trkpt>
      <trkpt lat="47.18446" lon="-1.61582">
        <ele>0.19999999999999</ele>
        <time>2022-01-23T10:34:03Z</time>
      </trkpt>
      <trkpt lat="47.18443" lon="-1.61518">
        <ele>0.19999999999999</ele>
        <time>2022-01-23T10:34:11Z</time>
      </trkpt>
      <trkpt lat="47.18438" lon="-1.61453">
        <ele>0.60000000000002</ele>
        <time>2022-01-23T10:34:19Z</time>
      </trkpt>
      <trkpt lat="47.18433" lon="-1.61377">
        <ele>0.80000000000001</ele>
        <time>2022-01-23T10:34:28Z</time>
      </trkpt>
      <trkpt lat="47.18433" lon="-1.61339">
        <ele>1</ele>
        <time>2022-01-23T10:34:33Z</time>
      </trkpt>
      <trkpt lat="47.18427" lon="-1.61274">
        <ele>1.2</ele>
        <time>2022-01-23T10:34:41Z</time>
      </trkpt>
      <trkpt lat="47.18423" lon="-1.61206">
        <ele>1.4</ele>
        <time>2022-01-23T10:34:50Z</time>
      </trkpt>
      <trkpt lat="47.18419" lon="-1.61137">
        <ele>1.6</ele>
        <time>2022-01-23T10:34:59Z</time>
      </trkpt>
      <trkpt lat="47.18414" lon="-1.61078">
        <ele>1.8</ele>
        <time>2022-01-23T10:35:07Z</time>
      </trkpt>
      <trkpt lat="47.18411" lon="-1.61023">
        <ele>2</ele>
        <time>2022-01-23T10:35:14Z</time>
      </trkpt>
      <trkpt lat="47.1841" lon="-1.60962">
        <ele>2</ele>
        <time>2022-01-23T10:35:22Z</time>
      </trkpt>
      <trkpt lat="47.18411" lon="-1.60899">
        <ele>2.4</ele>
        <time>2022-01-23T10:35:30Z</time>
      </trkpt>
      <trkpt lat="47.18414" lon="-1.60842">
        <ele>2.6</ele>
        <time>2022-01-23T10:35:37Z</time>
      </trkpt>
      <trkpt lat="47.18416" lon="-1.60817">
        <ele>2.6</ele>
        <time>2022-01-23T10:35:40Z</time>
      </trkpt>
      <trkpt lat="47.18418" lon="-1.608">
        <ele>2.6</ele>
        <time>2022-01-23T10:35:42Z</time>
      </trkpt>
      <trkpt lat="47.18422" lon="-1.60739">
        <ele>2.6</ele>
        <time>2022-01-23T10:35:49Z</time>
      </trkpt>
      <trkpt lat="47.18428" lon="-1.60682">
        <ele>2.8</ele>
        <time>2022-01-23T10:35:56Z</time>
      </trkpt>
      <trkpt lat="47.18438" lon="-1.60619">
        <ele>3</ele>
        <time>2022-01-23T10:36:04Z</time>
      </trkpt>
      <trkpt lat="47.1845" lon="-1.6055">
        <ele>3.2</ele>
        <time>2022-01-23T10:36:13Z</time>
      </trkpt>
      <trkpt lat="47.18463" lon="-1.60494">
        <ele>3.2</ele>
        <time>2022-01-23T10:36:20Z</time>
      </trkpt>
      <trkpt lat="47.18481" lon="-1.60429">
        <ele>3.4</ele>
        <time>2022-01-23T10:36:28Z</time>
      </trkpt>
      <trkpt lat="47.18502" lon="-1.60362">
        <ele>3.6</ele>
        <time>2022-01-23T10:36:37Z</time>
      </trkpt>
      <trkpt lat="47.18522" lon="-1.60308">
        <ele>3.8</ele>
        <time>2022-01-23T10:36:45Z</time>
      </trkpt>
      <trkpt lat="47.18533" lon="-1.60281">
        <ele>3.8</ele>
        <time>2022-01-23T10:36:49Z</time>
      </trkpt>
      <trkpt lat="47.18538" lon="-1.60269">
        <ele>3.8</ele>
        <time>2022-01-23T10:36:51Z</time>
      </trkpt>
      <trkpt lat="47.1854" lon="-1.60263">
        <ele>3.8</ele>
        <time>2022-01-23T10:36:52Z</time>
      </trkpt>
      <trkpt lat="47.18549" lon="-1.60239">
        <ele>4</ele>
        <time>2022-01-23T10:36:56Z</time>
      </trkpt>
      <trkpt lat="47.18553" lon="-1.60226">
        <ele>3.8</ele>
        <time>2022-01-23T10:36:58Z</time>
      </trkpt>
      <trkpt lat="47.18555" lon="-1.60219">
        <ele>4</ele>
        <time>2022-01-23T10:36:59Z</time>
      </trkpt>
      <trkpt lat="47.18567" lon="-1.60185">
        <ele>4</ele>
        <time>2022-01-23T10:37:04Z</time>
      </trkpt>
      <trkpt lat="47.18578" lon="-1.60151">
        <ele>4</ele>
        <time>2022-01-23T10:37:09Z</time>
      </trkpt>
      <trkpt lat="47.18581" lon="-1.60137">
        <ele>4</ele>
        <time>2022-01-23T10:37:11Z</time>
      </trkpt>
      <trkpt lat="47.18583" lon="-1.6013">
        <ele>4</ele>
        <time>2022-01-23T10:37:12Z</time>
      </trkpt>
      <trkpt lat="47.18601" lon="-1.60077">
        <ele>4</ele>
        <time>2022-01-23T10:37:20Z</time>
      </trkpt>
      <trkpt lat="47.18618" lon="-1.60027">
        <ele>4</ele>
        <time>2022-01-23T10:37:28Z</time>
      </trkpt>
      <trkpt lat="47.18628" lon="-1.6001">
        <ele>4</ele>
        <time>2022-01-23T10:37:32Z</time>
      </trkpt>
      <trkpt lat="47.18623" lon="-1.6">
        <ele>4</ele>
        <time>2022-01-23T10:37:35Z</time>
      </trkpt>
      <trkpt lat="47.18622" lon="-1.59997">
        <ele>4</ele>
        <time>2022-01-23T10:37:36Z</time>
      </trkpt>
      <trkpt lat="47.18625" lon="-1.59989">
        <ele>3.8</ele>
        <time>2022-01-23T10:37:38Z</time>
      </trkpt>
      <trkpt lat="47.18627" lon="-1.59985">
        <ele>4</ele>
        <time>2022-01-23T10:37:39Z</time>
      </trkpt>
      <trkpt lat="47.1863" lon="-1.59971">
        <ele>3.8</ele>
        <time>2022-01-23T10:37:42Z</time>
      </trkpt>
      <trkpt lat="47.1864" lon="-1.59944">
        <ele>3.8</ele>
        <time>2022-01-23T10:37:48Z</time>
      </trkpt>
      <trkpt lat="47.1865" lon="-1.59917">
        <ele>3.8</ele>
        <time>2022-01-23T10:37:55Z</time>
      </trkpt>
      <trkpt lat="47.18657" lon="-1.59903">
        <ele>4.2</ele>
        <time>2022-01-23T10:38:00Z</time>
      </trkpt>
      <trkpt lat="47.18663" lon="-1.59898">
        <ele>4.2</ele>
        <time>2022-01-23T10:38:04Z</time>
      </trkpt>
      <trkpt lat="47.18663" lon="-1.59898">
        <ele>4.2</ele>
        <time>2022-01-23T10:38:05Z</time>
      </trkpt>
      <trkpt lat="47.18663" lon="-1.59896">
        <ele>4.8</ele>
        <time>2022-01-23T10:39:14Z</time>
      </trkpt>
      <trkpt lat="47.18664" lon="-1.5989">
        <ele>4.8</ele>
        <time>2022-01-23T10:39:16Z</time>
      </trkpt>
      <trkpt lat="47.18664" lon="-1.59872">
        <ele>4.8</ele>
        <time>2022-01-23T10:39:22Z</time>
      </trkpt>
      <trkpt lat="47.18661" lon="-1.59863">
        <ele>4.8</ele>
        <time>2022-01-23T10:39:28Z</time>
      </trkpt>
      <trkpt lat="47.18661" lon="-1.59863">
        <ele>4.8</ele>
        <time>2022-01-23T10:39:29Z</time>
      </trkpt>
      <trkpt lat="47.18658" lon="-1.59858">
        <ele>4.8</ele>
        <time>2022-01-23T10:39:33Z</time>
      </trkpt>
      <trkpt lat="47.18655" lon="-1.59855">
        <ele>4.8</ele>
        <time>2022-01-23T10:39:34Z</time>
      </trkpt>
      <trkpt lat="47.18651" lon="-1.59852">
        <ele>4.8</ele>
        <time>2022-01-23T10:39:35Z</time>
      </trkpt>
      <trkpt lat="47.18634" lon="-1.59836">
        <ele>4.6</ele>
        <time>2022-01-23T10:39:39Z</time>
      </trkpt>
      <trkpt lat="47.18631" lon="-1.59831">
        <ele>4.6</ele>
        <time>2022-01-23T10:39:40Z</time>
      </trkpt>
      <trkpt lat="47.18628" lon="-1.59817">
        <ele>4.6</ele>
        <time>2022-01-23T10:39:42Z</time>
      </trkpt>
      <trkpt lat="47.18627" lon="-1.5981">
        <ele>4.4</ele>
        <time>2022-01-23T10:39:43Z</time>
      </trkpt>
      <trkpt lat="47.1863" lon="-1.59786">
        <ele>4.4</ele>
        <time>2022-01-23T10:39:46Z</time>
      </trkpt>
      <trkpt lat="47.18631" lon="-1.59769">
        <ele>4.4</ele>
        <time>2022-01-23T10:39:48Z</time>
      </trkpt>
      <trkpt lat="47.1863" lon="-1.59761">
        <ele>4.2</ele>
        <time>2022-01-23T10:39:49Z</time>
      </trkpt>
      <trkpt lat="47.18629" lon="-1.59753">
        <ele>4.2</ele>
        <time>2022-01-23T10:39:50Z</time>
      </trkpt>
      <trkpt lat="47.18625" lon="-1.59739">
        <ele>4.2</ele>
        <time>2022-01-23T10:39:52Z</time>
      </trkpt>
      <trkpt lat="47.18621" lon="-1.59732">
        <ele>4.2</ele>
        <time>2022-01-23T10:39:53Z</time>
      </trkpt>
      <trkpt lat="47.18618" lon="-1.59726">
        <ele>4.2</ele>
        <time>2022-01-23T10:39:54Z</time>
      </trkpt>
      <trkpt lat="47.18608" lon="-1.59717">
        <ele>4.4</ele>
        <time>2022-01-23T10:39:56Z</time>
      </trkpt>
      <trkpt lat="47.18602" lon="-1.59713">
        <ele>4.4</ele>
        <time>2022-01-23T10:39:57Z</time>
      </trkpt>
      <trkpt lat="47.18597" lon="-1.59711">
        <ele>4.4</ele>
        <time>2022-01-23T10:39:58Z</time>
      </trkpt>
      <trkpt lat="47.18582" lon="-1.5971">
        <ele>4.8</ele>
        <time>2022-01-23T10:40:01Z</time>
      </trkpt>
      <trkpt lat="47.18557" lon="-1.59712">
        <ele>5</ele>
        <time>2022-01-23T10:40:06Z</time>
      </trkpt>
      <trkpt lat="47.18552" lon="-1.59714">
        <ele>5</ele>
        <time>2022-01-23T10:40:07Z</time>
      </trkpt>
      <trkpt lat="47.18537" lon="-1.59718">
        <ele>5.2</ele>
        <time>2022-01-23T10:40:10Z</time>
      </trkpt>
      <trkpt lat="47.18518" lon="-1.59726">
        <ele>5.4</ele>
        <time>2022-01-23T10:40:14Z</time>
      </trkpt>
      <trkpt lat="47.18489" lon="-1.59749">
        <ele>6</ele>
        <time>2022-01-23T10:40:21Z</time>
      </trkpt>
      <trkpt lat="47.18467" lon="-1.5977">
        <ele>6.6</ele>
        <time>2022-01-23T10:40:27Z</time>
      </trkpt>
      <trkpt lat="47.18441" lon="-1.5978">
        <ele>7.2</ele>
        <time>2022-01-23T10:40:33Z</time>
      </trkpt>
      <trkpt lat="47.18408" lon="-1.59787">
        <ele>7.8</ele>
        <time>2022-01-23T10:40:40Z</time>
      </trkpt>
      <trkpt lat="47.18404" lon="-1.59788">
        <ele>8</ele>
        <time>2022-01-23T10:40:41Z</time>
      </trkpt>
      <trkpt lat="47.18399" lon="-1.59789">
        <ele>8</ele>
        <time>2022-01-23T10:40:42Z</time>
      </trkpt>
      <trkpt lat="47.18375" lon="-1.59793">
        <ele>8.4</ele>
        <time>2022-01-23T10:40:47Z</time>
      </trkpt>
      <trkpt lat="47.18346" lon="-1.59797">
        <ele>9</ele>
        <time>2022-01-23T10:40:53Z</time>
      </trkpt>
      <trkpt lat="47.18337" lon="-1.59797">
        <ele>9</ele>
        <time>2022-01-23T10:40:55Z</time>
      </trkpt>
      <trkpt lat="47.18332" lon="-1.59797">
        <ele>9.2</ele>
        <time>2022-01-23T10:40:56Z</time>
      </trkpt>
      <trkpt lat="47.18323" lon="-1.59794">
        <ele>9.4</ele>
        <time>2022-01-23T10:40:58Z</time>
      </trkpt>
      <trkpt lat="47.18314" lon="-1.59789">
        <ele>9.4</ele>
        <time>2022-01-23T10:41:00Z</time>
      </trkpt>
      <trkpt lat="47.1831" lon="-1.59787">
        <ele>9.4</ele>
        <time>2022-01-23T10:41:01Z</time>
      </trkpt>
      <trkpt lat="47.18299" lon="-1.59778">
        <ele>9.6</ele>
        <time>2022-01-23T10:41:04Z</time>
      </trkpt>
      <trkpt lat="47.18295" lon="-1.59774">
        <ele>9.6</ele>
        <time>2022-01-23T10:41:05Z</time>
      </trkpt>
      <trkpt lat="47.18275" lon="-1.59749">
        <ele>10</ele>
        <time>2022-01-23T10:41:11Z</time>
      </trkpt>
      <trkpt lat="47.18268" lon="-1.59741">
        <ele>10.2</ele>
        <time>2022-01-23T10:41:13Z</time>
      </trkpt>
      <trkpt lat="47.18245" lon="-1.59711">
        <ele>10.6</ele>
        <time>2022-01-23T10:41:20Z</time>
      </trkpt>
      <trkpt lat="47.18219" lon="-1.59678">
        <ele>11.2</ele>
        <time>2022-01-23T10:41:28Z</time>
      </trkpt>
      <trkpt lat="47.182" lon="-1.59649">
        <ele>11.6</ele>
        <time>2022-01-23T10:41:34Z</time>
      </trkpt>
      <trkpt lat="47.18194" lon="-1.59638">
        <ele>11.8</ele>
        <time>2022-01-23T10:41:36Z</time>
      </trkpt>
      <trkpt lat="47.18185" lon="-1.59615">
        <ele>12</ele>
        <time>2022-01-23T10:41:40Z</time>
      </trkpt>
      <trkpt lat="47.18183" lon="-1.59608">
        <ele>12</ele>
        <time>2022-01-23T10:41:41Z</time>
      </trkpt>
      <trkpt lat="47.1818" lon="-1.59595">
        <ele>12.2</ele>
        <time>2022-01-23T10:41:43Z</time>
      </trkpt>
      <trkpt lat="47.18178" lon="-1.59582">
        <ele>12.2</ele>
        <time>2022-01-23T10:41:45Z</time>
      </trkpt>
      <trkpt lat="47.18164" lon="-1.59546">
        <ele>12.8</ele>
        <time>2022-01-23T10:41:51Z</time>
      </trkpt>
      <trkpt lat="47.18153" lon="-1.59508">
        <ele>13.2</ele>
        <time>2022-01-23T10:41:57Z</time>
      </trkpt>
      <trkpt lat="47.18149" lon="-1.59496">
        <ele>13.2</ele>
        <time>2022-01-23T10:41:59Z</time>
      </trkpt>
      <trkpt lat="47.18139" lon="-1.59471">
        <ele>13.4</ele>
        <time>2022-01-23T10:42:03Z</time>
      </trkpt>
      <trkpt lat="47.18133" lon="-1.59459">
        <ele>13.4</ele>
        <time>2022-01-23T10:42:05Z</time>
      </trkpt>
      <trkpt lat="47.1812" lon="-1.59439">
        <ele>13.6</ele>
        <time>2022-01-23T10:42:09Z</time>
      </trkpt>
      <trkpt lat="47.18114" lon="-1.5943">
        <ele>13.8</ele>
        <time>2022-01-23T10:42:11Z</time>
      </trkpt>
      <trkpt lat="47.18105" lon="-1.59417">
        <ele>14</ele>
        <time>2022-01-23T10:42:14Z</time>
      </trkpt>
      <trkpt lat="47.18093" lon="-1.59401">
        <ele>14.4</ele>
        <time>2022-01-23T10:42:19Z</time>
      </trkpt>
      <trkpt lat="47.1808" lon="-1.59408">
        <ele>14.8</ele>
        <time>2022-01-23T10:42:23Z</time>
      </trkpt>
      <trkpt lat="47.18073" lon="-1.59423">
        <ele>15</ele>
        <time>2022-01-23T10:42:27Z</time>
      </trkpt>
      <trkpt lat="47.1807" lon="-1.59429">
        <ele>15.2</ele>
        <time>2022-01-23T10:42:29Z</time>
      </trkpt>
      <trkpt lat="47.18066" lon="-1.5943">
        <ele>15.2</ele>
        <time>2022-01-23T10:42:30Z</time>
      </trkpt>
      <trkpt lat="47.18052" lon="-1.5943">
        <ele>15.6</ele>
        <time>2022-01-23T10:42:34Z</time>
      </trkpt>
      <trkpt lat="47.18046" lon="-1.59413">
        <ele>15.6</ele>
        <time>2022-01-23T10:42:38Z</time>
      </trkpt>
      <trkpt lat="47.18043" lon="-1.59409">
        <ele>15.8</ele>
        <time>2022-01-23T10:42:39Z</time>
      </trkpt>
      <trkpt lat="47.18035" lon="-1.59403">
        <ele>15.8</ele>
        <time>2022-01-23T10:42:41Z</time>
      </trkpt>
      <trkpt lat="47.18031" lon="-1.59403">
        <ele>15.8</ele>
        <time>2022-01-23T10:42:42Z</time>
      </trkpt>
      <trkpt lat="47.17999" lon="-1.59394">
        <ele>16.2</ele>
        <time>2022-01-23T10:42:48Z</time>
      </trkpt>
      <trkpt lat="47.17979" lon="-1.59381">
        <ele>16.4</ele>
        <time>2022-01-23T10:42:52Z</time>
      </trkpt>
      <trkpt lat="47.17974" lon="-1.59377">
        <ele>16.4</ele>
        <time>2022-01-23T10:42:53Z</time>
      </trkpt>
      <trkpt lat="47.17942" lon="-1.59347">
        <ele>16.8</ele>
        <time>2022-01-23T10:43:00Z</time>
      </trkpt>
      <trkpt lat="47.17915" lon="-1.59308">
        <ele>17</ele>
        <time>2022-01-23T10:43:07Z</time>
      </trkpt>
      <trkpt lat="47.17884" lon="-1.5927">
        <ele>17.2</ele>
        <time>2022-01-23T10:43:14Z</time>
      </trkpt>
      <trkpt lat="47.17866" lon="-1.59249">
        <ele>17.2</ele>
        <time>2022-01-23T10:43:18Z</time>
      </trkpt>
      <trkpt lat="47.17859" lon="-1.59236">
        <ele>17.2</ele>
        <time>2022-01-23T10:43:20Z</time>
      </trkpt>
      <trkpt lat="47.17852" lon="-1.59222">
        <ele>17.2</ele>
        <time>2022-01-23T10:43:22Z</time>
      </trkpt>
      <trkpt lat="47.17839" lon="-1.59205">
        <ele>17.2</ele>
        <time>2022-01-23T10:43:25Z</time>
      </trkpt>
      <trkpt lat="47.1783" lon="-1.59197">
        <ele>17.2</ele>
        <time>2022-01-23T10:43:27Z</time>
      </trkpt>
      <trkpt lat="47.17822" lon="-1.59189">
        <ele>17.2</ele>
        <time>2022-01-23T10:43:29Z</time>
      </trkpt>
      <trkpt lat="47.17812" lon="-1.59186">
        <ele>17.2</ele>
        <time>2022-01-23T10:43:31Z</time>
      </trkpt>
      <trkpt lat="47.17803" lon="-1.59179">
        <ele>17.4</ele>
        <time>2022-01-23T10:43:33Z</time>
      </trkpt>
      <trkpt lat="47.17792" lon="-1.59163">
        <ele>17.4</ele>
        <time>2022-01-23T10:43:36Z</time>
      </trkpt>
      <trkpt lat="47.17783" lon="-1.59155">
        <ele>17.4</ele>
        <time>2022-01-23T10:43:38Z</time>
      </trkpt>
      <trkpt lat="47.17762" lon="-1.59136">
        <ele>17.6</ele>
        <time>2022-01-23T10:43:43Z</time>
      </trkpt>
      <trkpt lat="47.1772" lon="-1.59099">
        <ele>18</ele>
        <time>2022-01-23T10:43:52Z</time>
      </trkpt>
      <trkpt lat="47.17679" lon="-1.5906">
        <ele>18.2</ele>
        <time>2022-01-23T10:44:01Z</time>
      </trkpt>
      <trkpt lat="47.17637" lon="-1.59026">
        <ele>18.8</ele>
        <time>2022-01-23T10:44:10Z</time>
      </trkpt>
      <trkpt lat="47.17585" lon="-1.58986">
        <ele>20</ele>
        <time>2022-01-23T10:44:21Z</time>
      </trkpt>
      <trkpt lat="47.17549" lon="-1.58956">
        <ele>20.4</ele>
        <time>2022-01-23T10:44:29Z</time>
      </trkpt>
      <trkpt lat="47.17544" lon="-1.58954">
        <ele>20.6</ele>
        <time>2022-01-23T10:44:30Z</time>
      </trkpt>
      <trkpt lat="47.17534" lon="-1.58956">
        <ele>20.8</ele>
        <time>2022-01-23T10:44:32Z</time>
      </trkpt>
      <trkpt lat="47.17524" lon="-1.58955">
        <ele>20.8</ele>
        <time>2022-01-23T10:44:34Z</time>
      </trkpt>
      <trkpt lat="47.17522" lon="-1.58949">
        <ele>20.8</ele>
        <time>2022-01-23T10:44:35Z</time>
      </trkpt>
      <trkpt lat="47.1752" lon="-1.58931">
        <ele>20.8</ele>
        <time>2022-01-23T10:44:38Z</time>
      </trkpt>
      <trkpt lat="47.17512" lon="-1.58918">
        <ele>21</ele>
        <time>2022-01-23T10:44:42Z</time>
      </trkpt>
      <trkpt lat="47.17502" lon="-1.58901">
        <ele>21</ele>
        <time>2022-01-23T10:44:46Z</time>
      </trkpt>
      <trkpt lat="47.17492" lon="-1.5889">
        <ele>21.2</ele>
        <time>2022-01-23T10:44:50Z</time>
      </trkpt>
      <trkpt lat="47.17485" lon="-1.58876">
        <ele>21.4</ele>
        <time>2022-01-23T10:44:56Z</time>
      </trkpt>
      <trkpt lat="47.17485" lon="-1.58875">
        <ele>21.4</ele>
        <time>2022-01-23T10:44:57Z</time>
      </trkpt>
      <trkpt lat="47.17483" lon="-1.58871">
        <ele>21.6</ele>
        <time>2022-01-23T10:45:04Z</time>
      </trkpt>
      <trkpt lat="47.17481" lon="-1.58868">
        <ele>21.8</ele>
        <time>2022-01-23T10:45:06Z</time>
      </trkpt>
      <trkpt lat="47.17481" lon="-1.58867">
        <ele>21.8</ele>
        <time>2022-01-23T10:45:08Z</time>
      </trkpt>
      <trkpt lat="47.17474" lon="-1.58863">
        <ele>21.8</ele>
        <time>2022-01-23T10:45:20Z</time>
      </trkpt>
      <trkpt lat="47.17472" lon="-1.58861">
        <ele>21.8</ele>
        <time>2022-01-23T10:45:21Z</time>
      </trkpt>
      <trkpt lat="47.17458" lon="-1.58853">
        <ele>21.8</ele>
        <time>2022-01-23T10:45:25Z</time>
      </trkpt>
      <trkpt lat="47.17444" lon="-1.58845">
        <ele>22</ele>
        <time>2022-01-23T10:45:28Z</time>
      </trkpt>
      <trkpt lat="47.17439" lon="-1.58842">
        <ele>22</ele>
        <time>2022-01-23T10:45:29Z</time>
      </trkpt>
      <trkpt lat="47.17435" lon="-1.58838">
        <ele>21.8</ele>
        <time>2022-01-23T10:45:30Z</time>
      </trkpt>
      <trkpt lat="47.17426" lon="-1.5883">
        <ele>21.8</ele>
        <time>2022-01-23T10:45:32Z</time>
      </trkpt>
      <trkpt lat="47.17422" lon="-1.58824">
        <ele>21.6</ele>
        <time>2022-01-23T10:45:33Z</time>
      </trkpt>
      <trkpt lat="47.17418" lon="-1.58819">
        <ele>21.6</ele>
        <time>2022-01-23T10:45:34Z</time>
      </trkpt>
      <trkpt lat="47.17403" lon="-1.588">
        <ele>21.4</ele>
        <time>2022-01-23T10:45:38Z</time>
      </trkpt>
      <trkpt lat="47.17399" lon="-1.58796">
        <ele>21.4</ele>
        <time>2022-01-23T10:45:39Z</time>
      </trkpt>
      <trkpt lat="47.17391" lon="-1.58789">
        <ele>21.4</ele>
        <time>2022-01-23T10:45:41Z</time>
      </trkpt>
      <trkpt lat="47.17387" lon="-1.58787">
        <ele>21.2</ele>
        <time>2022-01-23T10:45:42Z</time>
      </trkpt>
      <trkpt lat="47.17382" lon="-1.58786">
        <ele>21.2</ele>
        <time>2022-01-23T10:45:43Z</time>
      </trkpt>
      <trkpt lat="47.17369" lon="-1.58784">
        <ele>21</ele>
        <time>2022-01-23T10:45:46Z</time>
      </trkpt>
      <trkpt lat="47.17361" lon="-1.58784">
        <ele>20.8</ele>
        <time>2022-01-23T10:45:48Z</time>
      </trkpt>
      <trkpt lat="47.17347" lon="-1.58784">
        <ele>20.8</ele>
        <time>2022-01-23T10:45:51Z</time>
      </trkpt>
      <trkpt lat="47.17313" lon="-1.58779">
        <ele>20.6</ele>
        <time>2022-01-23T10:45:58Z</time>
      </trkpt>
      <trkpt lat="47.17288" lon="-1.58774">
        <ele>20.6</ele>
        <time>2022-01-23T10:46:03Z</time>
      </trkpt>
      <trkpt lat="47.17284" lon="-1.58769">
        <ele>20.8</ele>
        <time>2022-01-23T10:46:04Z</time>
      </trkpt>
      <trkpt lat="47.17283" lon="-1.58763">
        <ele>21</ele>
        <time>2022-01-23T10:46:05Z</time>
      </trkpt>
      <trkpt lat="47.17282" lon="-1.58748">
        <ele>21.6</ele>
        <time>2022-01-23T10:46:07Z</time>
      </trkpt>
      <trkpt lat="47.17282" lon="-1.5874">
        <ele>21.6</ele>
        <time>2022-01-23T10:46:08Z</time>
      </trkpt>
      <trkpt lat="47.1728" lon="-1.58707">
        <ele>21.2</ele>
        <time>2022-01-23T10:46:12Z</time>
      </trkpt>
      <trkpt lat="47.17274" lon="-1.58659">
        <ele>21.4</ele>
        <time>2022-01-23T10:46:18Z</time>
      </trkpt>
      <trkpt lat="47.17267" lon="-1.58593">
        <ele>21.8</ele>
        <time>2022-01-23T10:46:26Z</time>
      </trkpt>
      <trkpt lat="47.17264" lon="-1.58527">
        <ele>22</ele>
        <time>2022-01-23T10:46:34Z</time>
      </trkpt>
      <trkpt lat="47.17262" lon="-1.58512">
        <ele>22.2</ele>
        <time>2022-01-23T10:46:36Z</time>
      </trkpt>
      <trkpt lat="47.17261" lon="-1.58498">
        <ele>22.4</ele>
        <time>2022-01-23T10:46:38Z</time>
      </trkpt>
      <trkpt lat="47.1726" lon="-1.58493">
        <ele>22.4</ele>
        <time>2022-01-23T10:46:39Z</time>
      </trkpt>
      <trkpt lat="47.1726" lon="-1.58488">
        <ele>22.4</ele>
        <time>2022-01-23T10:46:40Z</time>
      </trkpt>
      <trkpt lat="47.17262" lon="-1.58475">
        <ele>22.6</ele>
        <time>2022-01-23T10:46:42Z</time>
      </trkpt>
      <trkpt lat="47.1727" lon="-1.58446">
        <ele>22.6</ele>
        <time>2022-01-23T10:46:46Z</time>
      </trkpt>
      <trkpt lat="47.17271" lon="-1.58439">
        <ele>22.6</ele>
        <time>2022-01-23T10:46:47Z</time>
      </trkpt>
      <trkpt lat="47.17281" lon="-1.58387">
        <ele>22.6</ele>
        <time>2022-01-23T10:46:54Z</time>
      </trkpt>
      <trkpt lat="47.17284" lon="-1.58373">
        <ele>22.6</ele>
        <time>2022-01-23T10:46:56Z</time>
      </trkpt>
      <trkpt lat="47.17289" lon="-1.58352">
        <ele>22.4</ele>
        <time>2022-01-23T10:46:59Z</time>
      </trkpt>
      <trkpt lat="47.17295" lon="-1.58334">
        <ele>22.2</ele>
        <time>2022-01-23T10:47:02Z</time>
      </trkpt>
      <trkpt lat="47.17295" lon="-1.58328">
        <ele>22.2</ele>
        <time>2022-01-23T10:47:03Z</time>
      </trkpt>
      <trkpt lat="47.17293" lon="-1.58323">
        <ele>22.2</ele>
        <time>2022-01-23T10:47:04Z</time>
      </trkpt>
      <trkpt lat="47.17288" lon="-1.58313">
        <ele>22</ele>
        <time>2022-01-23T10:47:06Z</time>
      </trkpt>
      <trkpt lat="47.17285" lon="-1.58308">
        <ele>22</ele>
        <time>2022-01-23T10:47:07Z</time>
      </trkpt>
      <trkpt lat="47.17274" lon="-1.58296">
        <ele>21.6</ele>
        <time>2022-01-23T10:47:10Z</time>
      </trkpt>
      <trkpt lat="47.17261" lon="-1.58278">
        <ele>21.2</ele>
        <time>2022-01-23T10:47:14Z</time>
      </trkpt>
      <trkpt lat="47.17243" lon="-1.58251">
        <ele>21.4</ele>
        <time>2022-01-23T10:47:19Z</time>
      </trkpt>
      <trkpt lat="47.1724" lon="-1.58235">
        <ele>21.6</ele>
        <time>2022-01-23T10:47:21Z</time>
      </trkpt>
      <trkpt lat="47.17239" lon="-1.5822">
        <ele>21.4</ele>
        <time>2022-01-23T10:47:23Z</time>
      </trkpt>
      <trkpt lat="47.17237" lon="-1.58162">
        <ele>21.2</ele>
        <time>2022-01-23T10:47:30Z</time>
      </trkpt>
      <trkpt lat="47.17237" lon="-1.58154">
        <ele>21.2</ele>
        <time>2022-01-23T10:47:31Z</time>
      </trkpt>
      <trkpt lat="47.17236" lon="-1.5813">
        <ele>21</ele>
        <time>2022-01-23T10:47:34Z</time>
      </trkpt>
      <trkpt lat="47.17236" lon="-1.58106">
        <ele>21</ele>
        <time>2022-01-23T10:47:37Z</time>
      </trkpt>
      <trkpt lat="47.17235" lon="-1.58076">
        <ele>21</ele>
        <time>2022-01-23T10:47:41Z</time>
      </trkpt>
      <trkpt lat="47.17236" lon="-1.58062">
        <ele>21</ele>
        <time>2022-01-23T10:47:43Z</time>
      </trkpt>
      <trkpt lat="47.17238" lon="-1.58048">
        <ele>20.8</ele>
        <time>2022-01-23T10:47:45Z</time>
      </trkpt>
      <trkpt lat="47.17242" lon="-1.5803">
        <ele>20.8</ele>
        <time>2022-01-23T10:47:48Z</time>
      </trkpt>
      <trkpt lat="47.17243" lon="-1.58025">
        <ele>20.8</ele>
        <time>2022-01-23T10:47:49Z</time>
      </trkpt>
      <trkpt lat="47.17246" lon="-1.58012">
        <ele>20.6</ele>
        <time>2022-01-23T10:47:51Z</time>
      </trkpt>
      <trkpt lat="47.17252" lon="-1.57974">
        <ele>20.2</ele>
        <time>2022-01-23T10:47:56Z</time>
      </trkpt>
      <trkpt lat="47.17254" lon="-1.57966">
        <ele>20</ele>
        <time>2022-01-23T10:47:57Z</time>
      </trkpt>
      <trkpt lat="47.1726" lon="-1.57935">
        <ele>19.8</ele>
        <time>2022-01-23T10:48:01Z</time>
      </trkpt>
      <trkpt lat="47.17261" lon="-1.57928">
        <ele>19.8</ele>
        <time>2022-01-23T10:48:02Z</time>
      </trkpt>
      <trkpt lat="47.17262" lon="-1.57921">
        <ele>19.8</ele>
        <time>2022-01-23T10:48:03Z</time>
      </trkpt>
      <trkpt lat="47.17267" lon="-1.579">
        <ele>19.6</ele>
        <time>2022-01-23T10:48:06Z</time>
      </trkpt>
      <trkpt lat="47.1727" lon="-1.57879">
        <ele>19.6</ele>
        <time>2022-01-23T10:48:09Z</time>
      </trkpt>
      <trkpt lat="47.17272" lon="-1.57867">
        <ele>19.4</ele>
        <time>2022-01-23T10:48:11Z</time>
      </trkpt>
      <trkpt lat="47.17277" lon="-1.57838">
        <ele>19.2</ele>
        <time>2022-01-23T10:48:16Z</time>
      </trkpt>
      <trkpt lat="47.1728" lon="-1.57826">
        <ele>19.2</ele>
        <time>2022-01-23T10:48:18Z</time>
      </trkpt>
      <trkpt lat="47.17282" lon="-1.57813">
        <ele>19.2</ele>
        <time>2022-01-23T10:48:20Z</time>
      </trkpt>
      <trkpt lat="47.17283" lon="-1.57807">
        <ele>19.2</ele>
        <time>2022-01-23T10:48:21Z</time>
      </trkpt>
      <trkpt lat="47.17293" lon="-1.57765">
        <ele>19.6</ele>
        <time>2022-01-23T10:48:28Z</time>
      </trkpt>
      <trkpt lat="47.17296" lon="-1.5773">
        <ele>20</ele>
        <time>2022-01-23T10:48:34Z</time>
      </trkpt>
      <trkpt lat="47.17292" lon="-1.57721">
        <ele>20.4</ele>
        <time>2022-01-23T10:48:36Z</time>
      </trkpt>
      <trkpt lat="47.17285" lon="-1.57714">
        <ele>20.6</ele>
        <time>2022-01-23T10:48:38Z</time>
      </trkpt>
      <trkpt lat="47.17258" lon="-1.57689">
        <ele>20.8</ele>
        <time>2022-01-23T10:48:45Z</time>
      </trkpt>
      <trkpt lat="47.17225" lon="-1.5766">
        <ele>21.2</ele>
        <time>2022-01-23T10:48:53Z</time>
      </trkpt>
      <trkpt lat="47.17196" lon="-1.57636">
        <ele>21.8</ele>
        <time>2022-01-23T10:49:00Z</time>
      </trkpt>
      <trkpt lat="47.17166" lon="-1.57609">
        <ele>22.4</ele>
        <time>2022-01-23T10:49:07Z</time>
      </trkpt>
      <trkpt lat="47.17124" lon="-1.57568">
        <ele>23</ele>
        <time>2022-01-23T10:49:17Z</time>
      </trkpt>
      <trkpt lat="47.17095" lon="-1.57542">
        <ele>23.4</ele>
        <time>2022-01-23T10:49:24Z</time>
      </trkpt>
      <trkpt lat="47.17067" lon="-1.57523">
        <ele>24.2</ele>
        <time>2022-01-23T10:49:31Z</time>
      </trkpt>
      <trkpt lat="47.17064" lon="-1.57522">
        <ele>24.4</ele>
        <time>2022-01-23T10:49:34Z</time>
      </trkpt>
      <trkpt lat="47.17064" lon="-1.57522">
        <ele>24.4</ele>
        <time>2022-01-23T10:49:35Z</time>
      </trkpt>
      <trkpt lat="47.17056" lon="-1.57523">
        <ele>24.6</ele>
        <time>2022-01-23T10:49:38Z</time>
      </trkpt>
      <trkpt lat="47.17053" lon="-1.57521">
        <ele>24.8</ele>
        <time>2022-01-23T10:49:39Z</time>
      </trkpt>
      <trkpt lat="47.17046" lon="-1.57512">
        <ele>25</ele>
        <time>2022-01-23T10:49:41Z</time>
      </trkpt>
      <trkpt lat="47.17041" lon="-1.575">
        <ele>25.2</ele>
        <time>2022-01-23T10:49:43Z</time>
      </trkpt>
      <trkpt lat="47.17032" lon="-1.57489">
        <ele>25.2</ele>
        <time>2022-01-23T10:49:45Z</time>
      </trkpt>
      <trkpt lat="47.17006" lon="-1.57457">
        <ele>25.8</ele>
        <time>2022-01-23T10:49:51Z</time>
      </trkpt>
      <trkpt lat="47.16969" lon="-1.57426">
        <ele>26.4</ele>
        <time>2022-01-23T10:49:58Z</time>
      </trkpt>
      <trkpt lat="47.16937" lon="-1.574">
        <ele>26.8</ele>
        <time>2022-01-23T10:50:04Z</time>
      </trkpt>
      <trkpt lat="47.16925" lon="-1.57391">
        <ele>26.8</ele>
        <time>2022-01-23T10:50:06Z</time>
      </trkpt>
      <trkpt lat="47.1691" lon="-1.57375">
        <ele>27</ele>
        <time>2022-01-23T10:50:09Z</time>
      </trkpt>
      <trkpt lat="47.16883" lon="-1.57355">
        <ele>27.4</ele>
        <time>2022-01-23T10:50:14Z</time>
      </trkpt>
      <trkpt lat="47.16845" lon="-1.57322">
        <ele>27.6</ele>
        <time>2022-01-23T10:50:21Z</time>
      </trkpt>
      <trkpt lat="47.16823" lon="-1.57302">
        <ele>27.8</ele>
        <time>2022-01-23T10:50:25Z</time>
      </trkpt>
      <trkpt lat="47.16813" lon="-1.5729">
        <ele>27.8</ele>
        <time>2022-01-23T10:50:27Z</time>
      </trkpt>
      <trkpt lat="47.16779" lon="-1.57242">
        <ele>27.8</ele>
        <time>2022-01-23T10:50:34Z</time>
      </trkpt>
      <trkpt lat="47.1675" lon="-1.57188">
        <ele>27.8</ele>
        <time>2022-01-23T10:50:41Z</time>
      </trkpt>
      <trkpt lat="47.16746" lon="-1.57181">
        <ele>27.8</ele>
        <time>2022-01-23T10:50:42Z</time>
      </trkpt>
      <trkpt lat="47.16737" lon="-1.57167">
        <ele>27.8</ele>
        <time>2022-01-23T10:50:44Z</time>
      </trkpt>
      <trkpt lat="47.16734" lon="-1.57159">
        <ele>27.8</ele>
        <time>2022-01-23T10:50:45Z</time>
      </trkpt>
      <trkpt lat="47.16711" lon="-1.57112">
        <ele>27.6</ele>
        <time>2022-01-23T10:50:51Z</time>
      </trkpt>
      <trkpt lat="47.16678" lon="-1.57047">
        <ele>27.4</ele>
        <time>2022-01-23T10:50:59Z</time>
      </trkpt>
      <trkpt lat="47.16674" lon="-1.57038">
        <ele>27.4</ele>
        <time>2022-01-23T10:51:00Z</time>
      </trkpt>
      <trkpt lat="47.1666" lon="-1.57009">
        <ele>27.4</ele>
        <time>2022-01-23T10:51:04Z</time>
      </trkpt>
      <trkpt lat="47.16659" lon="-1.57001">
        <ele>27.4</ele>
        <time>2022-01-23T10:51:06Z</time>
      </trkpt>
      <trkpt lat="47.16667" lon="-1.56997">
        <ele>27.2</ele>
        <time>2022-01-23T10:51:08Z</time>
      </trkpt>
      <trkpt lat="47.1667" lon="-1.56994">
        <ele>27.2</ele>
        <time>2022-01-23T10:51:09Z</time>
      </trkpt>
      <trkpt lat="47.16672" lon="-1.56988">
        <ele>27</ele>
        <time>2022-01-23T10:51:10Z</time>
      </trkpt>
      <trkpt lat="47.16675" lon="-1.56974">
        <ele>27.2</ele>
        <time>2022-01-23T10:51:12Z</time>
      </trkpt>
      <trkpt lat="47.16682" lon="-1.56934">
        <ele>26.8</ele>
        <time>2022-01-23T10:51:17Z</time>
      </trkpt>
      <trkpt lat="47.16684" lon="-1.56926">
        <ele>26.8</ele>
        <time>2022-01-23T10:51:18Z</time>
      </trkpt>
      <trkpt lat="47.167" lon="-1.56858">
        <ele>26.4</ele>
        <time>2022-01-23T10:51:26Z</time>
      </trkpt>
      <trkpt lat="47.16709" lon="-1.56816">
        <ele>26.2</ele>
        <time>2022-01-23T10:51:31Z</time>
      </trkpt>
      <trkpt lat="47.16712" lon="-1.56809">
        <ele>26.2</ele>
        <time>2022-01-23T10:51:32Z</time>
      </trkpt>
      <trkpt lat="47.1672" lon="-1.56795">
        <ele>26</ele>
        <time>2022-01-23T10:51:34Z</time>
      </trkpt>
      <trkpt lat="47.16731" lon="-1.56778">
        <ele>25.8</ele>
        <time>2022-01-23T10:51:37Z</time>
      </trkpt>
      <trkpt lat="47.16749" lon="-1.56744">
        <ele>25.6</ele>
        <time>2022-01-23T10:51:44Z</time>
      </trkpt>
      <trkpt lat="47.16758" lon="-1.56726">
        <ele>25.4</ele>
        <time>2022-01-23T10:51:49Z</time>
      </trkpt>
      <trkpt lat="47.16763" lon="-1.56698">
        <ele>24.8</ele>
        <time>2022-01-23T10:51:54Z</time>
      </trkpt>
      <trkpt lat="47.16763" lon="-1.56692">
        <ele>24.8</ele>
        <time>2022-01-23T10:51:55Z</time>
      </trkpt>
      <trkpt lat="47.16765" lon="-1.56672">
        <ele>24.2</ele>
        <time>2022-01-23T10:51:58Z</time>
      </trkpt>
      <trkpt lat="47.16765" lon="-1.56665">
        <ele>24.2</ele>
        <time>2022-01-23T10:51:59Z</time>
      </trkpt>
      <trkpt lat="47.16765" lon="-1.56658">
        <ele>24</ele>
        <time>2022-01-23T10:52:00Z</time>
      </trkpt>
      <trkpt lat="47.16767" lon="-1.56643">
        <ele>23.6</ele>
        <time>2022-01-23T10:52:02Z</time>
      </trkpt>
      <trkpt lat="47.16768" lon="-1.56635">
        <ele>23.4</ele>
        <time>2022-01-23T10:52:03Z</time>
      </trkpt>
      <trkpt lat="47.16771" lon="-1.5662">
        <ele>22.8</ele>
        <time>2022-01-23T10:52:05Z</time>
      </trkpt>
      <trkpt lat="47.16776" lon="-1.56597">
        <ele>22.2</ele>
        <time>2022-01-23T10:52:08Z</time>
      </trkpt>
      <trkpt lat="47.16777" lon="-1.56581">
        <ele>21.8</ele>
        <time>2022-01-23T10:52:10Z</time>
      </trkpt>
      <trkpt lat="47.16781" lon="-1.56565">
        <ele>21.6</ele>
        <time>2022-01-23T10:52:12Z</time>
      </trkpt>
      <trkpt lat="47.16784" lon="-1.56548">
        <ele>21</ele>
        <time>2022-01-23T10:52:14Z</time>
      </trkpt>
      <trkpt lat="47.16789" lon="-1.56526">
        <ele>20.4</ele>
        <time>2022-01-23T10:52:17Z</time>
      </trkpt>
      <trkpt lat="47.1679" lon="-1.56511">
        <ele>19.8</ele>
        <time>2022-01-23T10:52:19Z</time>
      </trkpt>
      <trkpt lat="47.16792" lon="-1.56504">
        <ele>19.6</ele>
        <time>2022-01-23T10:52:20Z</time>
      </trkpt>
      <trkpt lat="47.16797" lon="-1.56481">
        <ele>18.8</ele>
        <time>2022-01-23T10:52:23Z</time>
      </trkpt>
      <trkpt lat="47.16799" lon="-1.56467">
        <ele>18.2</ele>
        <time>2022-01-23T10:52:25Z</time>
      </trkpt>
      <trkpt lat="47.16808" lon="-1.56424">
        <ele>16.8</ele>
        <time>2022-01-23T10:52:31Z</time>
      </trkpt>
      <trkpt lat="47.16811" lon="-1.56411">
        <ele>16.4</ele>
        <time>2022-01-23T10:52:33Z</time>
      </trkpt>
      <trkpt lat="47.16819" lon="-1.564">
        <ele>16.8</ele>
        <time>2022-01-23T10:52:35Z</time>
      </trkpt>
      <trkpt lat="47.16825" lon="-1.56385">
        <ele>17.2</ele>
        <time>2022-01-23T10:52:37Z</time>
      </trkpt>
      <trkpt lat="47.16825" lon="-1.56378">
        <ele>17.2</ele>
        <time>2022-01-23T10:52:38Z</time>
      </trkpt>
      <trkpt lat="47.16824" lon="-1.5637">
        <ele>17.2</ele>
        <time>2022-01-23T10:52:39Z</time>
      </trkpt>
      <trkpt lat="47.16819" lon="-1.56357">
        <ele>17.2</ele>
        <time>2022-01-23T10:52:41Z</time>
      </trkpt>
      <trkpt lat="47.16801" lon="-1.5632">
        <ele>17</ele>
        <time>2022-01-23T10:52:47Z</time>
      </trkpt>
      <trkpt lat="47.16779" lon="-1.56276">
        <ele>16.6</ele>
        <time>2022-01-23T10:52:54Z</time>
      </trkpt>
      <trkpt lat="47.16757" lon="-1.56242">
        <ele>16.6</ele>
        <time>2022-01-23T10:53:00Z</time>
      </trkpt>
      <trkpt lat="47.16754" lon="-1.56237">
        <ele>16.6</ele>
        <time>2022-01-23T10:53:01Z</time>
      </trkpt>
      <trkpt lat="47.16748" lon="-1.56227">
        <ele>16.6</ele>
        <time>2022-01-23T10:53:03Z</time>
      </trkpt>
      <trkpt lat="47.16744" lon="-1.56222">
        <ele>16.6</ele>
        <time>2022-01-23T10:53:04Z</time>
      </trkpt>
      <trkpt lat="47.16738" lon="-1.56209">
        <ele>16.6</ele>
        <time>2022-01-23T10:53:07Z</time>
      </trkpt>
      <trkpt lat="47.16742" lon="-1.56195">
        <ele>16.6</ele>
        <time>2022-01-23T10:53:10Z</time>
      </trkpt>
      <trkpt lat="47.16751" lon="-1.56172">
        <ele>17.2</ele>
        <time>2022-01-23T10:53:13Z</time>
      </trkpt>
      <trkpt lat="47.16761" lon="-1.56152">
        <ele>17.2</ele>
        <time>2022-01-23T10:53:16Z</time>
      </trkpt>
      <trkpt lat="47.16766" lon="-1.56136">
        <ele>17.2</ele>
        <time>2022-01-23T10:53:18Z</time>
      </trkpt>
      <trkpt lat="47.16769" lon="-1.56119">
        <ele>17.2</ele>
        <time>2022-01-23T10:53:20Z</time>
      </trkpt>
      <trkpt lat="47.1677" lon="-1.56102">
        <ele>17.4</ele>
        <time>2022-01-23T10:53:22Z</time>
      </trkpt>
      <trkpt lat="47.1677" lon="-1.56069">
        <ele>17.6</ele>
        <time>2022-01-23T10:53:26Z</time>
      </trkpt>
      <trkpt lat="47.1677" lon="-1.56061">
        <ele>17.6</ele>
        <time>2022-01-23T10:53:27Z</time>
      </trkpt>
      <trkpt lat="47.16769" lon="-1.56039">
        <ele>17.8</ele>
        <time>2022-01-23T10:53:30Z</time>
      </trkpt>
      <trkpt lat="47.1677" lon="-1.56025">
        <ele>18</ele>
        <time>2022-01-23T10:53:32Z</time>
      </trkpt>
      <trkpt lat="47.16766" lon="-1.56015">
        <ele>18</ele>
        <time>2022-01-23T10:53:34Z</time>
      </trkpt>
      <trkpt lat="47.16752" lon="-1.56015">
        <ele>18.2</ele>
        <time>2022-01-23T10:53:37Z</time>
      </trkpt>
      <trkpt lat="47.16748" lon="-1.56015">
        <ele>18.2</ele>
        <time>2022-01-23T10:53:38Z</time>
      </trkpt>
      <trkpt lat="47.16743" lon="-1.56018">
        <ele>18.4</ele>
        <time>2022-01-23T10:53:40Z</time>
      </trkpt>
      <trkpt lat="47.1674" lon="-1.56019">
        <ele>18.4</ele>
        <time>2022-01-23T10:53:42Z</time>
      </trkpt>
      <trkpt lat="47.16738" lon="-1.56016">
        <ele>18.4</ele>
        <time>2022-01-23T10:53:44Z</time>
      </trkpt>
      <trkpt lat="47.16739" lon="-1.56016">
        <ele>18.4</ele>
        <time>2022-01-23T10:53:45Z</time>
      </trkpt>
      <trkpt lat="47.16747" lon="-1.56016">
        <ele>18.4</ele>
        <time>2022-01-23T10:53:47Z</time>
      </trkpt>
      <trkpt lat="47.16781" lon="-1.56016">
        <ele>18.6</ele>
        <time>2022-01-23T10:53:53Z</time>
      </trkpt>
      <trkpt lat="47.16796" lon="-1.56016">
        <ele>18.4</ele>
        <time>2022-01-23T10:53:56Z</time>
      </trkpt>
      <trkpt lat="47.16808" lon="-1.56013">
        <ele>18.6</ele>
        <time>2022-01-23T10:53:58Z</time>
      </trkpt>
      <trkpt lat="47.16828" lon="-1.56013">
        <ele>18.6</ele>
        <time>2022-01-23T10:54:02Z</time>
      </trkpt>
      <trkpt lat="47.16837" lon="-1.56015">
        <ele>18.6</ele>
        <time>2022-01-23T10:54:04Z</time>
      </trkpt>
      <trkpt lat="47.16841" lon="-1.56019">
        <ele>18.6</ele>
        <time>2022-01-23T10:54:05Z</time>
      </trkpt>
      <trkpt lat="47.16847" lon="-1.56032">
        <ele>18.2</ele>
        <time>2022-01-23T10:54:08Z</time>
      </trkpt>
      <trkpt lat="47.1685" lon="-1.56036">
        <ele>18.2</ele>
        <time>2022-01-23T10:54:09Z</time>
      </trkpt>
      <trkpt lat="47.16853" lon="-1.56039">
        <ele>18.2</ele>
        <time>2022-01-23T10:54:10Z</time>
      </trkpt>
      <trkpt lat="47.16862" lon="-1.5605">
        <ele>18</ele>
        <time>2022-01-23T10:54:12Z</time>
      </trkpt>
      <trkpt lat="47.16871" lon="-1.56061">
        <ele>17.6</ele>
        <time>2022-01-23T10:54:14Z</time>
      </trkpt>
      <trkpt lat="47.16884" lon="-1.5608">
        <ele>17.4</ele>
        <time>2022-01-23T10:54:17Z</time>
      </trkpt>
      <trkpt lat="47.16904" lon="-1.56114">
        <ele>17</ele>
        <time>2022-01-23T10:54:22Z</time>
      </trkpt>
      <trkpt lat="47.16913" lon="-1.56125">
        <ele>16.8</ele>
        <time>2022-01-23T10:54:24Z</time>
      </trkpt>
      <trkpt lat="47.16924" lon="-1.56134">
        <ele>16.6</ele>
        <time>2022-01-23T10:54:26Z</time>
      </trkpt>
      <trkpt lat="47.16928" lon="-1.56138">
        <ele>16.6</ele>
        <time>2022-01-23T10:54:27Z</time>
      </trkpt>
      <trkpt lat="47.16943" lon="-1.56154">
        <ele>16</ele>
        <time>2022-01-23T10:54:30Z</time>
      </trkpt>
      <trkpt lat="47.16947" lon="-1.56159">
        <ele>15.8</ele>
        <time>2022-01-23T10:54:31Z</time>
      </trkpt>
      <trkpt lat="47.16951" lon="-1.56164">
        <ele>15.6</ele>
        <time>2022-01-23T10:54:32Z</time>
      </trkpt>
      <trkpt lat="47.16961" lon="-1.56176">
        <ele>15.4</ele>
        <time>2022-01-23T10:54:34Z</time>
      </trkpt>
      <trkpt lat="47.16966" lon="-1.56182">
        <ele>15.2</ele>
        <time>2022-01-23T10:54:35Z</time>
      </trkpt>
      <trkpt lat="47.16974" lon="-1.56197">
        <ele>14.8</ele>
        <time>2022-01-23T10:54:37Z</time>
      </trkpt>
      <trkpt lat="47.16977" lon="-1.56207">
        <ele>14.6</ele>
        <time>2022-01-23T10:54:38Z</time>
      </trkpt>
      <trkpt lat="47.16986" lon="-1.56232">
        <ele>14</ele>
        <time>2022-01-23T10:54:41Z</time>
      </trkpt>
      <trkpt lat="47.1699" lon="-1.56236">
        <ele>13.8</ele>
        <time>2022-01-23T10:54:42Z</time>
      </trkpt>
      <trkpt lat="47.16995" lon="-1.56239">
        <ele>13.6</ele>
        <time>2022-01-23T10:54:43Z</time>
      </trkpt>
      <trkpt lat="47.17005" lon="-1.56239">
        <ele>13.4</ele>
        <time>2022-01-23T10:54:45Z</time>
      </trkpt>
      <trkpt lat="47.17022" lon="-1.5624">
        <ele>13.2</ele>
        <time>2022-01-23T10:54:48Z</time>
      </trkpt>
      <trkpt lat="47.17032" lon="-1.56245">
        <ele>12.8</ele>
        <time>2022-01-23T10:54:50Z</time>
      </trkpt>
      <trkpt lat="47.17042" lon="-1.5625">
        <ele>12.4</ele>
        <time>2022-01-23T10:54:52Z</time>
      </trkpt>
      <trkpt lat="47.17048" lon="-1.56249">
        <ele>12.2</ele>
        <time>2022-01-23T10:54:53Z</time>
      </trkpt>
      <trkpt lat="47.17052" lon="-1.56247">
        <ele>12</ele>
        <time>2022-01-23T10:54:54Z</time>
      </trkpt>
      <trkpt lat="47.1706" lon="-1.56241">
        <ele>11.6</ele>
        <time>2022-01-23T10:54:56Z</time>
      </trkpt>
      <trkpt lat="47.17072" lon="-1.56238">
        <ele>10.8</ele>
        <time>2022-01-23T10:54:59Z</time>
      </trkpt>
      <trkpt lat="47.17076" lon="-1.56241">
        <ele>10.6</ele>
        <time>2022-01-23T10:55:00Z</time>
      </trkpt>
      <trkpt lat="47.17082" lon="-1.56249">
        <ele>10.2</ele>
        <time>2022-01-23T10:55:02Z</time>
      </trkpt>
      <trkpt lat="47.17085" lon="-1.56257">
        <ele>9.8</ele>
        <time>2022-01-23T10:55:03Z</time>
      </trkpt>
      <trkpt lat="47.17088" lon="-1.56264">
        <ele>9.4</ele>
        <time>2022-01-23T10:55:04Z</time>
      </trkpt>
      <trkpt lat="47.17096" lon="-1.56278">
        <ele>9</ele>
        <time>2022-01-23T10:55:06Z</time>
      </trkpt>
      <trkpt lat="47.17105" lon="-1.5629">
        <ele>8.2</ele>
        <time>2022-01-23T10:55:08Z</time>
      </trkpt>
      <trkpt lat="47.17113" lon="-1.56303">
        <ele>7.6</ele>
        <time>2022-01-23T10:55:10Z</time>
      </trkpt>
      <trkpt lat="47.17117" lon="-1.56308">
        <ele>7.4</ele>
        <time>2022-01-23T10:55:11Z</time>
      </trkpt>
      <trkpt lat="47.17124" lon="-1.56321">
        <ele>7</ele>
        <time>2022-01-23T10:55:13Z</time>
      </trkpt>
      <trkpt lat="47.17129" lon="-1.56327">
        <ele>6.8</ele>
        <time>2022-01-23T10:55:14Z</time>
      </trkpt>
      <trkpt lat="47.17134" lon="-1.56332">
        <ele>6.6</ele>
        <time>2022-01-23T10:55:15Z</time>
      </trkpt>
      <trkpt lat="47.1714" lon="-1.56343">
        <ele>6.2</ele>
        <time>2022-01-23T10:55:17Z</time>
      </trkpt>
      <trkpt lat="47.17148" lon="-1.56345">
        <ele>6</ele>
        <time>2022-01-23T10:55:19Z</time>
      </trkpt>
      <trkpt lat="47.17153" lon="-1.56345">
        <ele>5.8</ele>
        <time>2022-01-23T10:55:20Z</time>
      </trkpt>
      <trkpt lat="47.17163" lon="-1.56349">
        <ele>5.8</ele>
        <time>2022-01-23T10:55:22Z</time>
      </trkpt>
      <trkpt lat="47.17165" lon="-1.56352">
        <ele>5.6</ele>
        <time>2022-01-23T10:55:23Z</time>
      </trkpt>
      <trkpt lat="47.17165" lon="-1.56355">
        <ele>5.4</ele>
        <time>2022-01-23T10:55:24Z</time>
      </trkpt>
      <trkpt lat="47.17167" lon="-1.5636">
        <ele>5.2</ele>
        <time>2022-01-23T10:55:25Z</time>
      </trkpt>
      <trkpt lat="47.17175" lon="-1.56371">
        <ele>4.6</ele>
        <time>2022-01-23T10:55:27Z</time>
      </trkpt>
      <trkpt lat="47.1719" lon="-1.56391">
        <ele>4</ele>
        <time>2022-01-23T10:55:31Z</time>
      </trkpt>
      <trkpt lat="47.172" lon="-1.56402">
        <ele>3.8</ele>
        <time>2022-01-23T10:55:33Z</time>
      </trkpt>
      <trkpt lat="47.17207" lon="-1.56414">
        <ele>3.6</ele>
        <time>2022-01-23T10:55:35Z</time>
      </trkpt>
      <trkpt lat="47.17212" lon="-1.56427">
        <ele>3.4</ele>
        <time>2022-01-23T10:55:37Z</time>
      </trkpt>
      <trkpt lat="47.17218" lon="-1.56437">
        <ele>3.2</ele>
        <time>2022-01-23T10:55:39Z</time>
      </trkpt>
      <trkpt lat="47.17226" lon="-1.56443">
        <ele>2.8</ele>
        <time>2022-01-23T10:55:41Z</time>
      </trkpt>
      <trkpt lat="47.17231" lon="-1.56444">
        <ele>2.8</ele>
        <time>2022-01-23T10:55:42Z</time>
      </trkpt>
      <trkpt lat="47.17234" lon="-1.56444">
        <ele>2.8</ele>
        <time>2022-01-23T10:55:43Z</time>
      </trkpt>
      <trkpt lat="47.17242" lon="-1.56445">
        <ele>3</ele>
        <time>2022-01-23T10:55:45Z</time>
      </trkpt>
      <trkpt lat="47.17247" lon="-1.56446">
        <ele>3</ele>
        <time>2022-01-23T10:55:46Z</time>
      </trkpt>
      <trkpt lat="47.17261" lon="-1.56449">
        <ele>3.6</ele>
        <time>2022-01-23T10:55:50Z</time>
      </trkpt>
      <trkpt lat="47.17268" lon="-1.56456">
        <ele>2</ele>
        <time>2022-01-23T10:55:52Z</time>
      </trkpt>
      <trkpt lat="47.17278" lon="-1.56463">
        <ele>3.4</ele>
        <time>2022-01-23T10:55:54Z</time>
      </trkpt>
      <trkpt lat="47.17302" lon="-1.56481">
        <ele>5</ele>
        <time>2022-01-23T10:55:59Z</time>
      </trkpt>
      <trkpt lat="47.17304" lon="-1.56484">
        <ele>5</ele>
        <time>2022-01-23T10:56:00Z</time>
      </trkpt>
      <trkpt lat="47.17308" lon="-1.5649">
        <ele>5.2</ele>
        <time>2022-01-23T10:56:02Z</time>
      </trkpt>
      <trkpt lat="47.17326" lon="-1.56505">
        <ele>5.8</ele>
        <time>2022-01-23T10:56:06Z</time>
      </trkpt>
      <trkpt lat="47.17351" lon="-1.56525">
        <ele>6.4</ele>
        <time>2022-01-23T10:56:11Z</time>
      </trkpt>
      <trkpt lat="47.17357" lon="-1.56526">
        <ele>6.4</ele>
        <time>2022-01-23T10:56:12Z</time>
      </trkpt>
      <trkpt lat="47.17362" lon="-1.56526">
        <ele>6.6</ele>
        <time>2022-01-23T10:56:13Z</time>
      </trkpt>
      <trkpt lat="47.17376" lon="-1.56523">
        <ele>6.8</ele>
        <time>2022-01-23T10:56:16Z</time>
      </trkpt>
      <trkpt lat="47.17381" lon="-1.56524">
        <ele>7</ele>
        <time>2022-01-23T10:56:17Z</time>
      </trkpt>
      <trkpt lat="47.17386" lon="-1.56526">
        <ele>7</ele>
        <time>2022-01-23T10:56:18Z</time>
      </trkpt>
      <trkpt lat="47.17395" lon="-1.56535">
        <ele>7.2</ele>
        <time>2022-01-23T10:56:20Z</time>
      </trkpt>
      <trkpt lat="47.17399" lon="-1.56541">
        <ele>7.2</ele>
        <time>2022-01-23T10:56:21Z</time>
      </trkpt>
      <trkpt lat="47.17412" lon="-1.56571">
        <ele>7.2</ele>
        <time>2022-01-23T10:56:25Z</time>
      </trkpt>
      <trkpt lat="47.17418" lon="-1.56593">
        <ele>7.4</ele>
        <time>2022-01-23T10:56:28Z</time>
      </trkpt>
      <trkpt lat="47.17422" lon="-1.56597">
        <ele>7.6</ele>
        <time>2022-01-23T10:56:29Z</time>
      </trkpt>
      <trkpt lat="47.17427" lon="-1.56599">
        <ele>7.6</ele>
        <time>2022-01-23T10:56:30Z</time>
      </trkpt>
      <trkpt lat="47.17447" lon="-1.566">
        <ele>7.8</ele>
        <time>2022-01-23T10:56:33Z</time>
      </trkpt>
      <trkpt lat="47.17453" lon="-1.56601">
        <ele>8</ele>
        <time>2022-01-23T10:56:34Z</time>
      </trkpt>
      <trkpt lat="47.17471" lon="-1.56607">
        <ele>8.4</ele>
        <time>2022-01-23T10:56:37Z</time>
      </trkpt>
      <trkpt lat="47.17477" lon="-1.56611">
        <ele>8.4</ele>
        <time>2022-01-23T10:56:38Z</time>
      </trkpt>
      <trkpt lat="47.17489" lon="-1.56621">
        <ele>9</ele>
        <time>2022-01-23T10:56:40Z</time>
      </trkpt>
      <trkpt lat="47.17499" lon="-1.56631">
        <ele>9.2</ele>
        <time>2022-01-23T10:56:42Z</time>
      </trkpt>
      <trkpt lat="47.17526" lon="-1.56658">
        <ele>10</ele>
        <time>2022-01-23T10:56:48Z</time>
      </trkpt>
      <trkpt lat="47.17546" lon="-1.56677">
        <ele>10.8</ele>
        <time>2022-01-23T10:56:53Z</time>
      </trkpt>
      <trkpt lat="47.17554" lon="-1.5668">
        <ele>11.2</ele>
        <time>2022-01-23T10:56:56Z</time>
      </trkpt>
      <trkpt lat="47.17556" lon="-1.56681">
        <ele>11.4</ele>
        <time>2022-01-23T10:56:57Z</time>
      </trkpt>
      <trkpt lat="47.17558" lon="-1.56687">
        <ele>11.6</ele>
        <time>2022-01-23T10:56:59Z</time>
      </trkpt>
      <trkpt lat="47.17559" lon="-1.56693">
        <ele>11.8</ele>
        <time>2022-01-23T10:57:00Z</time>
      </trkpt>
      <trkpt lat="47.17559" lon="-1.56715">
        <ele>12</ele>
        <time>2022-01-23T10:57:03Z</time>
      </trkpt>
      <trkpt lat="47.17559" lon="-1.56759">
        <ele>12.6</ele>
        <time>2022-01-23T10:57:08Z</time>
      </trkpt>
      <trkpt lat="47.17557" lon="-1.56794">
        <ele>13</ele>
        <time>2022-01-23T10:57:12Z</time>
      </trkpt>
      <trkpt lat="47.17558" lon="-1.56801">
        <ele>13</ele>
        <time>2022-01-23T10:57:13Z</time>
      </trkpt>
      <trkpt lat="47.17561" lon="-1.56816">
        <ele>13.2</ele>
        <time>2022-01-23T10:57:15Z</time>
      </trkpt>
      <trkpt lat="47.17558" lon="-1.56828">
        <ele>13.2</ele>
        <time>2022-01-23T10:57:17Z</time>
      </trkpt>
      <trkpt lat="47.17548" lon="-1.56835">
        <ele>13.2</ele>
        <time>2022-01-23T10:57:19Z</time>
      </trkpt>
      <trkpt lat="47.17543" lon="-1.5684">
        <ele>13.2</ele>
        <time>2022-01-23T10:57:20Z</time>
      </trkpt>
      <trkpt lat="47.17531" lon="-1.56856">
        <ele>13.4</ele>
        <time>2022-01-23T10:57:24Z</time>
      </trkpt>
      <trkpt lat="47.17531" lon="-1.56857">
        <ele>13.6</ele>
        <time>2022-01-23T10:57:27Z</time>
      </trkpt>
      <trkpt lat="47.17532" lon="-1.56855">
        <ele>13.6</ele>
        <time>2022-01-23T10:57:28Z</time>
      </trkpt>
      <trkpt lat="47.17539" lon="-1.56844">
        <ele>14</ele>
        <time>2022-01-23T10:57:32Z</time>
      </trkpt>
      <trkpt lat="47.17543" lon="-1.5684">
        <ele>14</ele>
        <time>2022-01-23T10:57:34Z</time>
      </trkpt>
      <trkpt lat="47.17547" lon="-1.56842">
        <ele>14</ele>
        <time>2022-01-23T10:57:36Z</time>
      </trkpt>
      <trkpt lat="47.17554" lon="-1.56845">
        <ele>14.2</ele>
        <time>2022-01-23T10:57:39Z</time>
      </trkpt>
      <trkpt lat="47.17556" lon="-1.56848">
        <ele>14.2</ele>
        <time>2022-01-23T10:57:40Z</time>
      </trkpt>
      <trkpt lat="47.17564" lon="-1.56862">
        <ele>14</ele>
        <time>2022-01-23T10:57:44Z</time>
      </trkpt>
      <trkpt lat="47.17567" lon="-1.56866">
        <ele>13.4</ele>
        <time>2022-01-23T10:57:45Z</time>
      </trkpt>
      <trkpt lat="47.17578" lon="-1.56883">
        <ele>12.4</ele>
        <time>2022-01-23T10:57:48Z</time>
      </trkpt>
      <trkpt lat="47.17583" lon="-1.56889">
        <ele>12</ele>
        <time>2022-01-23T10:57:49Z</time>
      </trkpt>
      <trkpt lat="47.17594" lon="-1.56901">
        <ele>11.2</ele>
        <time>2022-01-23T10:57:51Z</time>
      </trkpt>
      <trkpt lat="47.17606" lon="-1.56918">
        <ele>10.6</ele>
        <time>2022-01-23T10:57:53Z</time>
      </trkpt>
      <trkpt lat="47.17633" lon="-1.56964">
        <ele>9.2</ele>
        <time>2022-01-23T10:57:58Z</time>
      </trkpt>
      <trkpt lat="47.17639" lon="-1.56972">
        <ele>9</ele>
        <time>2022-01-23T10:57:59Z</time>
      </trkpt>
      <trkpt lat="47.17665" lon="-1.57007">
        <ele>7.6</ele>
        <time>2022-01-23T10:58:04Z</time>
      </trkpt>
      <trkpt lat="47.17688" lon="-1.57042">
        <ele>6.2</ele>
        <time>2022-01-23T10:58:09Z</time>
      </trkpt>
      <trkpt lat="47.17691" lon="-1.57047">
        <ele>6</ele>
        <time>2022-01-23T10:58:10Z</time>
      </trkpt>
      <trkpt lat="47.177" lon="-1.57062">
        <ele>5</ele>
        <time>2022-01-23T10:58:13Z</time>
      </trkpt>
      <trkpt lat="47.1771" lon="-1.57076">
        <ele>4</ele>
        <time>2022-01-23T10:58:16Z</time>
      </trkpt>
      <trkpt lat="47.17713" lon="-1.57083">
        <ele>3.6</ele>
        <time>2022-01-23T10:58:17Z</time>
      </trkpt>
      <trkpt lat="47.17726" lon="-1.57112">
        <ele>2</ele>
        <time>2022-01-23T10:58:21Z</time>
      </trkpt>
      <trkpt lat="47.17731" lon="-1.57118">
        <ele>1.4</ele>
        <time>2022-01-23T10:58:22Z</time>
      </trkpt>
      <trkpt lat="47.17761" lon="-1.57162">
        <ele>-1.4</ele>
        <time>2022-01-23T10:58:28Z</time>
      </trkpt>
      <trkpt lat="47.17782" lon="-1.572">
        <ele>-4.2</ele>
        <time>2022-01-23T10:58:33Z</time>
      </trkpt>
      <trkpt lat="47.178" lon="-1.57228">
        <ele>-6.6</ele>
        <time>2022-01-23T10:58:37Z</time>
      </trkpt>
      <trkpt lat="47.17821" lon="-1.57262">
        <ele>-9.8</ele>
        <time>2022-01-23T10:58:42Z</time>
      </trkpt>
      <trkpt lat="47.17828" lon="-1.5727">
        <ele>-10.2</ele>
        <time>2022-01-23T10:58:43Z</time>
      </trkpt>
      <trkpt lat="47.17834" lon="-1.57277">
        <ele>-10.6</ele>
        <time>2022-01-23T10:58:44Z</time>
      </trkpt>
      <trkpt lat="47.17841" lon="-1.57296">
        <ele>-11.2</ele>
        <time>2022-01-23T10:58:46Z</time>
      </trkpt>
      <trkpt lat="47.1785" lon="-1.57314">
        <ele>-12.2</ele>
        <time>2022-01-23T10:58:48Z</time>
      </trkpt>
      <trkpt lat="47.17859" lon="-1.57331">
        <ele>-13.4</ele>
        <time>2022-01-23T10:58:50Z</time>
      </trkpt>
      <trkpt lat="47.1788" lon="-1.57359">
        <ele>-15.4</ele>
        <time>2022-01-23T10:58:54Z</time>
      </trkpt>
      <trkpt lat="47.17897" lon="-1.57379">
        <ele>-18</ele>
        <time>2022-01-23T10:58:58Z</time>
      </trkpt>
      <trkpt lat="47.17921" lon="-1.57391">
        <ele>-19.6</ele>
        <time>2022-01-23T10:59:02Z</time>
      </trkpt>
      <trkpt lat="47.17927" lon="-1.57392">
        <ele>-20.2</ele>
        <time>2022-01-23T10:59:03Z</time>
      </trkpt>
      <trkpt lat="47.17942" lon="-1.57396">
        <ele>-21</ele>
        <time>2022-01-23T10:59:05Z</time>
      </trkpt>
      <trkpt lat="47.17949" lon="-1.57397">
        <ele>-21.4</ele>
        <time>2022-01-23T10:59:06Z</time>
      </trkpt>
      <trkpt lat="47.1797" lon="-1.57399">
        <ele>-22.8</ele>
        <time>2022-01-23T10:59:09Z</time>
      </trkpt>
      <trkpt lat="47.17992" lon="-1.57397">
        <ele>-24</ele>
        <time>2022-01-23T10:59:12Z</time>
      </trkpt>
      <trkpt lat="47.1802" lon="-1.57388">
        <ele>-25.6</ele>
        <time>2022-01-23T10:59:16Z</time>
      </trkpt>
      <trkpt lat="47.1804" lon="-1.57378">
        <ele>-26.2</ele>
        <time>2022-01-23T10:59:19Z</time>
      </trkpt>
      <trkpt lat="47.18046" lon="-1.57375">
        <ele>-26.2</ele>
        <time>2022-01-23T10:59:20Z</time>
      </trkpt>
      <trkpt lat="47.18052" lon="-1.57373">
        <ele>-26.4</ele>
        <time>2022-01-23T10:59:21Z</time>
      </trkpt>
      <trkpt lat="47.1808" lon="-1.57364">
        <ele>-26.6</ele>
        <time>2022-01-23T10:59:25Z</time>
      </trkpt>
      <trkpt lat="47.18091" lon="-1.5736">
        <ele>-27</ele>
        <time>2022-01-23T10:59:27Z</time>
      </trkpt>
      <trkpt lat="47.18101" lon="-1.57354">
        <ele>-27.4</ele>
        <time>2022-01-23T10:59:29Z</time>
      </trkpt>
      <trkpt lat="47.18121" lon="-1.57356">
        <ele>-27.6</ele>
        <time>2022-01-23T10:59:34Z</time>
      </trkpt>
      <trkpt lat="47.18132" lon="-1.57356">
        <ele>-28.2</ele>
        <time>2022-01-23T10:59:38Z</time>
      </trkpt>
      <trkpt lat="47.18145" lon="-1.57359">
        <ele>-28.6</ele>
        <time>2022-01-23T10:59:42Z</time>
      </trkpt>
      <trkpt lat="47.18165" lon="-1.57365">
        <ele>-28.8</ele>
        <time>2022-01-23T10:59:47Z</time>
      </trkpt>
      <trkpt lat="47.18181" lon="-1.57368">
        <ele>-29.2</ele>
        <time>2022-01-23T10:59:52Z</time>
      </trkpt>
      <trkpt lat="47.18183" lon="-1.57368">
        <ele>-29.4</ele>
        <time>2022-01-23T10:59:54Z</time>
      </trkpt>
      <trkpt lat="47.18187" lon="-1.57369">
        <ele>-31.8</ele>
        <time>2022-01-23T11:00:42Z</time>
      </trkpt>
      <trkpt lat="47.18189" lon="-1.57374">
        <ele>-29.2</ele>
        <time>2022-01-23T11:00:46Z</time>
      </trkpt>
      <trkpt lat="47.18185" lon="-1.57377">
        <ele>-27.4</ele>
        <time>2022-01-23T11:00:51Z</time>
      </trkpt>
      <trkpt lat="47.18182" lon="-1.57376">
        <ele>-27.4</ele>
        <time>2022-01-23T11:00:52Z</time>
      </trkpt>
      <trkpt lat="47.18169" lon="-1.5737">
        <ele>-27.4</ele>
        <time>2022-01-23T11:00:55Z</time>
      </trkpt>
      <trkpt lat="47.18159" lon="-1.57368">
        <ele>-27.2</ele>
        <time>2022-01-23T11:00:57Z</time>
      </trkpt>
      <trkpt lat="47.18147" lon="-1.57368">
        <ele>-27.4</ele>
        <time>2022-01-23T11:00:59Z</time>
      </trkpt>
      <trkpt lat="47.1814" lon="-1.57368">
        <ele>-27</ele>
        <time>2022-01-23T11:01:02Z</time>
      </trkpt>
      <trkpt lat="47.18131" lon="-1.57368">
        <ele>-26.8</ele>
        <time>2022-01-23T11:01:05Z</time>
      </trkpt>
      <trkpt lat="47.18134" lon="-1.57366">
        <ele>-26.8</ele>
        <time>2022-01-23T11:01:08Z</time>
      </trkpt>
      <trkpt lat="47.18137" lon="-1.57366">
        <ele>-26.8</ele>
        <time>2022-01-23T11:01:09Z</time>
      </trkpt>
      <trkpt lat="47.1814" lon="-1.57367">
        <ele>-27</ele>
        <time>2022-01-23T11:01:10Z</time>
      </trkpt>
      <trkpt lat="47.18153" lon="-1.5737">
        <ele>-26.8</ele>
        <time>2022-01-23T11:01:15Z</time>
      </trkpt>
      <trkpt lat="47.18165" lon="-1.57374">
        <ele>-28.8</ele>
        <time>2022-01-23T11:01:20Z</time>
      </trkpt>
      <trkpt lat="47.18174" lon="-1.5738">
        <ele>-29.8</ele>
        <time>2022-01-23T11:01:23Z</time>
      </trkpt>
      <trkpt lat="47.18177" lon="-1.57383">
        <ele>-30.2</ele>
        <time>2022-01-23T11:01:24Z</time>
      </trkpt>
      <trkpt lat="47.18181" lon="-1.57387">
        <ele>-30.6</ele>
        <time>2022-01-23T11:01:25Z</time>
      </trkpt>
      <trkpt lat="47.18195" lon="-1.57396">
        <ele>-32</ele>
        <time>2022-01-23T11:01:28Z</time>
      </trkpt>
      <trkpt lat="47.1822" lon="-1.57406">
        <ele>-33.4</ele>
        <time>2022-01-23T11:01:32Z</time>
      </trkpt>
      <trkpt lat="47.18221" lon="-1.57409">
        <ele>-33.8</ele>
        <time>2022-01-23T11:01:33Z</time>
      </trkpt>
      <trkpt lat="47.1822" lon="-1.57416">
        <ele>-34.8</ele>
        <time>2022-01-23T11:01:36Z</time>
      </trkpt>
      <trkpt lat="47.18224" lon="-1.57418">
        <ele>-34.6</ele>
        <time>2022-01-23T11:01:37Z</time>
      </trkpt>
      <trkpt lat="47.18227" lon="-1.57426">
        <ele>-35.8</ele>
        <time>2022-01-23T11:01:40Z</time>
      </trkpt>
      <trkpt lat="47.18227" lon="-1.57429">
        <ele>-36.4</ele>
        <time>2022-01-23T11:01:41Z</time>
      </trkpt>
      <trkpt lat="47.18234" lon="-1.57444">
        <ele>-38.4</ele>
        <time>2022-01-23T11:01:45Z</time>
      </trkpt>
      <trkpt lat="47.18236" lon="-1.57453">
        <ele>-38.8</ele>
        <time>2022-01-23T11:01:47Z</time>
      </trkpt>
      <trkpt lat="47.18237" lon="-1.5746">
        <ele>-39</ele>
        <time>2022-01-23T11:01:48Z</time>
      </trkpt>
      <trkpt lat="47.1824" lon="-1.57457">
        <ele>-39.2</ele>
        <time>2022-01-23T11:01:50Z</time>
      </trkpt>
      <trkpt lat="47.18246" lon="-1.5745">
        <ele>-39</ele>
        <time>2022-01-23T11:01:51Z</time>
      </trkpt>
      <trkpt lat="47.1825" lon="-1.57451">
        <ele>-38.6</ele>
        <time>2022-01-23T11:01:52Z</time>
      </trkpt>
      <trkpt lat="47.18261" lon="-1.57455">
        <ele>-38.4</ele>
        <time>2022-01-23T11:01:54Z</time>
      </trkpt>
      <trkpt lat="47.18279" lon="-1.57459">
        <ele>-38.2</ele>
        <time>2022-01-23T11:01:58Z</time>
      </trkpt>
      <trkpt lat="47.18301" lon="-1.57462">
        <ele>-40.4</ele>
        <time>2022-01-23T11:02:02Z</time>
      </trkpt>
      <trkpt lat="47.18322" lon="-1.5746">
        <ele>-38</ele>
        <time>2022-01-23T11:02:05Z</time>
      </trkpt>
      <trkpt lat="47.18328" lon="-1.57459">
        <ele>-38</ele>
        <time>2022-01-23T11:02:06Z</time>
      </trkpt>
      <trkpt lat="47.18342" lon="-1.57456">
        <ele>-38</ele>
        <time>2022-01-23T11:02:08Z</time>
      </trkpt>
      <trkpt lat="47.18348" lon="-1.57454">
        <ele>-38.2</ele>
        <time>2022-01-23T11:02:09Z</time>
      </trkpt>
      <trkpt lat="47.18367" lon="-1.57445">
        <ele>-39</ele>
        <time>2022-01-23T11:02:12Z</time>
      </trkpt>
      <trkpt lat="47.18373" lon="-1.57442">
        <ele>-39</ele>
        <time>2022-01-23T11:02:13Z</time>
      </trkpt>
      <trkpt lat="47.184" lon="-1.57431">
        <ele>-38</ele>
        <time>2022-01-23T11:02:17Z</time>
      </trkpt>
      <trkpt lat="47.18415" lon="-1.57425">
        <ele>-37.4</ele>
        <time>2022-01-23T11:02:19Z</time>
      </trkpt>
      <trkpt lat="47.18429" lon="-1.57422">
        <ele>-36.8</ele>
        <time>2022-01-23T11:02:21Z</time>
      </trkpt>
      <trkpt lat="47.18475" lon="-1.57413">
        <ele>-35.4</ele>
        <time>2022-01-23T11:02:27Z</time>
      </trkpt>
      <trkpt lat="47.18488" lon="-1.57409">
        <ele>-35.2</ele>
        <time>2022-01-23T11:02:29Z</time>
      </trkpt>
      <trkpt lat="47.18499" lon="-1.57404">
        <ele>-35.2</ele>
        <time>2022-01-23T11:02:31Z</time>
      </trkpt>
      <trkpt lat="47.18504" lon="-1.57402">
        <ele>-35.2</ele>
        <time>2022-01-23T11:02:32Z</time>
      </trkpt>
      <trkpt lat="47.18515" lon="-1.57399">
        <ele>-35.2</ele>
        <time>2022-01-23T11:02:34Z</time>
      </trkpt>
      <trkpt lat="47.18521" lon="-1.57397">
        <ele>-35.2</ele>
        <time>2022-01-23T11:02:35Z</time>
      </trkpt>
      <trkpt lat="47.18529" lon="-1.57391">
        <ele>-35.2</ele>
        <time>2022-01-23T11:02:37Z</time>
      </trkpt>
      <trkpt lat="47.18531" lon="-1.57389">
        <ele>-35</ele>
        <time>2022-01-23T11:02:38Z</time>
      </trkpt>
      <trkpt lat="47.18533" lon="-1.57387">
        <ele>-34.8</ele>
        <time>2022-01-23T11:02:40Z</time>
      </trkpt>
      <trkpt lat="47.18551" lon="-1.5737">
        <ele>-28.8</ele>
        <time>2022-01-23T11:02:59Z</time>
      </trkpt>
      <trkpt lat="47.18566" lon="-1.57368">
        <ele>-27.8</ele>
        <time>2022-01-23T11:03:02Z</time>
      </trkpt>
      <trkpt lat="47.18579" lon="-1.57369">
        <ele>-27.2</ele>
        <time>2022-01-23T11:03:05Z</time>
      </trkpt>
      <trkpt lat="47.18581" lon="-1.5737">
        <ele>-27.2</ele>
        <time>2022-01-23T11:03:06Z</time>
      </trkpt>
      <trkpt lat="47.18587" lon="-1.57371">
        <ele>-27.2</ele>
        <time>2022-01-23T11:03:08Z</time>
      </trkpt>
      <trkpt lat="47.18591" lon="-1.5737">
        <ele>-27.2</ele>
        <time>2022-01-23T11:03:09Z</time>
      </trkpt>
      <trkpt lat="47.186" lon="-1.57366">
        <ele>-27.2</ele>
        <time>2022-01-23T11:03:12Z</time>
      </trkpt>
      <trkpt lat="47.186" lon="-1.57367">
        <ele>-27.4</ele>
        <time>2022-01-23T11:03:13Z</time>
      </trkpt>
      <trkpt lat="47.18602" lon="-1.57371">
        <ele>-27.6</ele>
        <time>2022-01-23T11:03:14Z</time>
      </trkpt>
      <trkpt lat="47.1862" lon="-1.57385">
        <ele>-28.2</ele>
        <time>2022-01-23T11:03:17Z</time>
      </trkpt>
      <trkpt lat="47.18626" lon="-1.57389">
        <ele>-28.4</ele>
        <time>2022-01-23T11:03:18Z</time>
      </trkpt>
      <trkpt lat="47.18642" lon="-1.57397">
        <ele>-30</ele>
        <time>2022-01-23T11:03:21Z</time>
      </trkpt>
      <trkpt lat="47.18648" lon="-1.57399">
        <ele>-32</ele>
        <time>2022-01-23T11:03:22Z</time>
      </trkpt>
      <trkpt lat="47.18653" lon="-1.57399">
        <ele>-30</ele>
        <time>2022-01-23T11:03:23Z</time>
      </trkpt>
      <trkpt lat="47.18664" lon="-1.57399">
        <ele>-30.8</ele>
        <time>2022-01-23T11:03:25Z</time>
      </trkpt>
      <trkpt lat="47.18674" lon="-1.57401">
        <ele>-31.6</ele>
        <time>2022-01-23T11:03:27Z</time>
      </trkpt>
      <trkpt lat="47.18684" lon="-1.57405">
        <ele>-32.2</ele>
        <time>2022-01-23T11:03:29Z</time>
      </trkpt>
      <trkpt lat="47.1869" lon="-1.57406">
        <ele>-32.6</ele>
        <time>2022-01-23T11:03:30Z</time>
      </trkpt>
      <trkpt lat="47.18699" lon="-1.5741">
        <ele>-33.2</ele>
        <time>2022-01-23T11:03:32Z</time>
      </trkpt>
      <trkpt lat="47.18703" lon="-1.57411">
        <ele>-33.4</ele>
        <time>2022-01-23T11:03:33Z</time>
      </trkpt>
      <trkpt lat="47.1872" lon="-1.57412">
        <ele>-33.4</ele>
        <time>2022-01-23T11:03:37Z</time>
      </trkpt>
      <trkpt lat="47.18722" lon="-1.57414">
        <ele>-33.6</ele>
        <time>2022-01-23T11:03:38Z</time>
      </trkpt>
      <trkpt lat="47.18731" lon="-1.57425">
        <ele>-33.2</ele>
        <time>2022-01-23T11:03:41Z</time>
      </trkpt>
      <trkpt lat="47.18739" lon="-1.57434">
        <ele>-32.8</ele>
        <time>2022-01-23T11:03:43Z</time>
      </trkpt>
      <trkpt lat="47.18744" lon="-1.57439">
        <ele>-32.8</ele>
        <time>2022-01-23T11:03:44Z</time>
      </trkpt>
      <trkpt lat="47.18751" lon="-1.57452">
        <ele>-32.8</ele>
        <time>2022-01-23T11:03:46Z</time>
      </trkpt>
      <trkpt lat="47.18759" lon="-1.57465">
        <ele>-33.4</ele>
        <time>2022-01-23T11:03:48Z</time>
      </trkpt>
      <trkpt lat="47.18765" lon="-1.57471">
        <ele>-33.6</ele>
        <time>2022-01-23T11:03:49Z</time>
      </trkpt>
      <trkpt lat="47.18778" lon="-1.57485">
        <ele>-34</ele>
        <time>2022-01-23T11:03:51Z</time>
      </trkpt>
      <trkpt lat="47.18785" lon="-1.57492">
        <ele>-34.2</ele>
        <time>2022-01-23T11:03:52Z</time>
      </trkpt>
      <trkpt lat="47.18808" lon="-1.57503">
        <ele>-34.8</ele>
        <time>2022-01-23T11:03:55Z</time>
      </trkpt>
      <trkpt lat="47.18847" lon="-1.57525">
        <ele>-35.8</ele>
        <time>2022-01-23T11:04:00Z</time>
      </trkpt>
      <trkpt lat="47.18876" lon="-1.57541">
        <ele>-36.4</ele>
        <time>2022-01-23T11:04:04Z</time>
      </trkpt>
      <trkpt lat="47.18909" lon="-1.5756">
        <ele>-37.4</ele>
        <time>2022-01-23T11:04:09Z</time>
      </trkpt>
      <trkpt lat="47.18928" lon="-1.57573">
        <ele>-38</ele>
        <time>2022-01-23T11:04:12Z</time>
      </trkpt>
      <trkpt lat="47.18934" lon="-1.57575">
        <ele>-38.4</ele>
        <time>2022-01-23T11:04:13Z</time>
      </trkpt>
      <trkpt lat="47.18947" lon="-1.57578">
        <ele>-39</ele>
        <time>2022-01-23T11:04:15Z</time>
      </trkpt>
      <trkpt lat="47.18958" lon="-1.57583">
        <ele>-39.4</ele>
        <time>2022-01-23T11:04:17Z</time>
      </trkpt>
      <trkpt lat="47.18963" lon="-1.57586">
        <ele>-39.8</ele>
        <time>2022-01-23T11:04:18Z</time>
      </trkpt>
      <trkpt lat="47.18973" lon="-1.57592">
        <ele>-40.4</ele>
        <time>2022-01-23T11:04:20Z</time>
      </trkpt>
      <trkpt lat="47.18978" lon="-1.57593">
        <ele>-40.6</ele>
        <time>2022-01-23T11:04:21Z</time>
      </trkpt>
      <trkpt lat="47.18986" lon="-1.5759">
        <ele>-40.4</ele>
        <time>2022-01-23T11:04:22Z</time>
      </trkpt>
      <trkpt lat="47.1899" lon="-1.57585">
        <ele>-40.4</ele>
        <time>2022-01-23T11:04:23Z</time>
      </trkpt>
      <trkpt lat="47.18995" lon="-1.57562">
        <ele>-40.8</ele>
        <time>2022-01-23T11:04:26Z</time>
      </trkpt>
      <trkpt lat="47.18998" lon="-1.57557">
        <ele>-41</ele>
        <time>2022-01-23T11:04:27Z</time>
      </trkpt>
      <trkpt lat="47.19006" lon="-1.57548">
        <ele>-41.4</ele>
        <time>2022-01-23T11:04:29Z</time>
      </trkpt>
      <trkpt lat="47.19013" lon="-1.57536">
        <ele>-41.8</ele>
        <time>2022-01-23T11:04:31Z</time>
      </trkpt>
      <trkpt lat="47.19027" lon="-1.57509">
        <ele>-42.2</ele>
        <time>2022-01-23T11:04:35Z</time>
      </trkpt>
      <trkpt lat="47.19029" lon="-1.57501">
        <ele>-42.6</ele>
        <time>2022-01-23T11:04:36Z</time>
      </trkpt>
      <trkpt lat="47.19034" lon="-1.57488">
        <ele>-43.2</ele>
        <time>2022-01-23T11:04:38Z</time>
      </trkpt>
      <trkpt lat="47.19048" lon="-1.57468">
        <ele>-43.6</ele>
        <time>2022-01-23T11:04:41Z</time>
      </trkpt>
      <trkpt lat="47.19058" lon="-1.57454">
        <ele>-43.6</ele>
        <time>2022-01-23T11:04:43Z</time>
      </trkpt>
      <trkpt lat="47.19063" lon="-1.57439">
        <ele>-43.8</ele>
        <time>2022-01-23T11:04:45Z</time>
      </trkpt>
      <trkpt lat="47.19068" lon="-1.57426">
        <ele>-44.4</ele>
        <time>2022-01-23T11:04:47Z</time>
      </trkpt>
      <trkpt lat="47.19072" lon="-1.57419">
        <ele>-44.6</ele>
        <time>2022-01-23T11:04:48Z</time>
      </trkpt>
      <trkpt lat="47.19074" lon="-1.57411">
        <ele>-45</ele>
        <time>2022-01-23T11:04:49Z</time>
      </trkpt>
      <trkpt lat="47.19081" lon="-1.57397">
        <ele>-45.6</ele>
        <time>2022-01-23T11:04:51Z</time>
      </trkpt>
      <trkpt lat="47.19086" lon="-1.57383">
        <ele>-46.4</ele>
        <time>2022-01-23T11:04:53Z</time>
      </trkpt>
      <trkpt lat="47.19087" lon="-1.57375">
        <ele>-46.8</ele>
        <time>2022-01-23T11:04:54Z</time>
      </trkpt>
      <trkpt lat="47.19095" lon="-1.57347">
        <ele>-47.8</ele>
        <time>2022-01-23T11:04:58Z</time>
      </trkpt>
      <trkpt lat="47.19097" lon="-1.57341">
        <ele>-47.8</ele>
        <time>2022-01-23T11:04:59Z</time>
      </trkpt>
      <trkpt lat="47.19098" lon="-1.57335">
        <ele>-47.6</ele>
        <time>2022-01-23T11:05:00Z</time>
      </trkpt>
      <trkpt lat="47.19103" lon="-1.57318">
        <ele>-47.8</ele>
        <time>2022-01-23T11:05:03Z</time>
      </trkpt>
      <trkpt lat="47.19107" lon="-1.57297">
        <ele>-49.4</ele>
        <time>2022-01-23T11:05:07Z</time>
      </trkpt>
      <trkpt lat="47.19103" lon="-1.57284">
        <ele>-50.4</ele>
        <time>2022-01-23T11:05:11Z</time>
      </trkpt>
      <trkpt lat="47.19103" lon="-1.5728">
        <ele>-50.6</ele>
        <time>2022-01-23T11:05:12Z</time>
      </trkpt>
      <trkpt lat="47.19109" lon="-1.57278">
        <ele>-50.8</ele>
        <time>2022-01-23T11:05:14Z</time>
      </trkpt>
      <trkpt lat="47.19118" lon="-1.57276">
        <ele>-50.6</ele>
        <time>2022-01-23T11:05:16Z</time>
      </trkpt>
      <trkpt lat="47.19122" lon="-1.57272">
        <ele>-51.2</ele>
        <time>2022-01-23T11:05:18Z</time>
      </trkpt>
      <trkpt lat="47.1913" lon="-1.57258">
        <ele>-51.6</ele>
        <time>2022-01-23T11:05:22Z</time>
      </trkpt>
      <trkpt lat="47.19139" lon="-1.57258">
        <ele>-52.8</ele>
        <time>2022-01-23T11:05:25Z</time>
      </trkpt>
      <trkpt lat="47.19144" lon="-1.57257">
        <ele>-53</ele>
        <time>2022-01-23T11:05:26Z</time>
      </trkpt>
      <trkpt lat="47.19158" lon="-1.57255">
        <ele>-53</ele>
        <time>2022-01-23T11:05:30Z</time>
      </trkpt>
      <trkpt lat="47.19171" lon="-1.57248">
        <ele>-53.2</ele>
        <time>2022-01-23T11:05:34Z</time>
      </trkpt>
      <trkpt lat="47.19181" lon="-1.57235">
        <ele>-53.4</ele>
        <time>2022-01-23T11:05:38Z</time>
      </trkpt>
      <trkpt lat="47.19185" lon="-1.57231">
        <ele>-54</ele>
        <time>2022-01-23T11:05:40Z</time>
      </trkpt>
      <trkpt lat="47.19187" lon="-1.57229">
        <ele>-54.4</ele>
        <time>2022-01-23T11:05:41Z</time>
      </trkpt>
      <trkpt lat="47.19192" lon="-1.57221">
        <ele>-53</ele>
        <time>2022-01-23T11:05:44Z</time>
      </trkpt>
      <trkpt lat="47.19194" lon="-1.57213">
        <ele>-53</ele>
        <time>2022-01-23T11:05:45Z</time>
      </trkpt>
      <trkpt lat="47.192" lon="-1.57199">
        <ele>-53</ele>
        <time>2022-01-23T11:05:47Z</time>
      </trkpt>
      <trkpt lat="47.19196" lon="-1.57177">
        <ele>-53.6</ele>
        <time>2022-01-23T11:05:51Z</time>
      </trkpt>
      <trkpt lat="47.19195" lon="-1.5717">
        <ele>-53.4</ele>
        <time>2022-01-23T11:05:52Z</time>
      </trkpt>
      <trkpt lat="47.19196" lon="-1.57164">
        <ele>-53.8</ele>
        <time>2022-01-23T11:05:53Z</time>
      </trkpt>
      <trkpt lat="47.19226" lon="-1.57142">
        <ele>-49</ele>
        <time>2022-01-23T11:05:58Z</time>
      </trkpt>
      <trkpt lat="47.19232" lon="-1.57113">
        <ele>-46.6</ele>
        <time>2022-01-23T11:06:02Z</time>
      </trkpt>
      <trkpt lat="47.19243" lon="-1.57096">
        <ele>-44.8</ele>
        <time>2022-01-23T11:06:07Z</time>
      </trkpt>
      <trkpt lat="47.19252" lon="-1.57081">
        <ele>-42.4</ele>
        <time>2022-01-23T11:06:12Z</time>
      </trkpt>
      <trkpt lat="47.19255" lon="-1.57071">
        <ele>-41</ele>
        <time>2022-01-23T11:06:16Z</time>
      </trkpt>
      <trkpt lat="47.19257" lon="-1.57051">
        <ele>-39.8</ele>
        <time>2022-01-23T11:06:19Z</time>
      </trkpt>
      <trkpt lat="47.19259" lon="-1.57045">
        <ele>-39.4</ele>
        <time>2022-01-23T11:06:20Z</time>
      </trkpt>
      <trkpt lat="47.19262" lon="-1.57041">
        <ele>-39</ele>
        <time>2022-01-23T11:06:21Z</time>
      </trkpt>
      <trkpt lat="47.19269" lon="-1.57039">
        <ele>-38.4</ele>
        <time>2022-01-23T11:06:23Z</time>
      </trkpt>
      <trkpt lat="47.1928" lon="-1.57046">
        <ele>-37.4</ele>
        <time>2022-01-23T11:06:26Z</time>
      </trkpt>
      <trkpt lat="47.19287" lon="-1.5705">
        <ele>-36.8</ele>
        <time>2022-01-23T11:06:28Z</time>
      </trkpt>
      <trkpt lat="47.19295" lon="-1.57051">
        <ele>-36.2</ele>
        <time>2022-01-23T11:06:30Z</time>
      </trkpt>
      <trkpt lat="47.19299" lon="-1.57051">
        <ele>-35.8</ele>
        <time>2022-01-23T11:06:31Z</time>
      </trkpt>
      <trkpt lat="47.19308" lon="-1.57046">
        <ele>-35.2</ele>
        <time>2022-01-23T11:06:33Z</time>
      </trkpt>
      <trkpt lat="47.19313" lon="-1.57043">
        <ele>-34.8</ele>
        <time>2022-01-23T11:06:34Z</time>
      </trkpt>
      <trkpt lat="47.19324" lon="-1.57042">
        <ele>-34.2</ele>
        <time>2022-01-23T11:06:36Z</time>
      </trkpt>
      <trkpt lat="47.19333" lon="-1.57049">
        <ele>-33.2</ele>
        <time>2022-01-23T11:06:38Z</time>
      </trkpt>
      <trkpt lat="47.19337" lon="-1.57054">
        <ele>-33</ele>
        <time>2022-01-23T11:06:39Z</time>
      </trkpt>
      <trkpt lat="47.19342" lon="-1.57058">
        <ele>-32.8</ele>
        <time>2022-01-23T11:06:40Z</time>
      </trkpt>
      <trkpt lat="47.19354" lon="-1.57063">
        <ele>-32.2</ele>
        <time>2022-01-23T11:06:42Z</time>
      </trkpt>
      <trkpt lat="47.1936" lon="-1.57064">
        <ele>-31.8</ele>
        <time>2022-01-23T11:06:43Z</time>
      </trkpt>
      <trkpt lat="47.19384" lon="-1.57068">
        <ele>-30.8</ele>
        <time>2022-01-23T11:06:47Z</time>
      </trkpt>
      <trkpt lat="47.19408" lon="-1.57073">
        <ele>-30</ele>
        <time>2022-01-23T11:06:52Z</time>
      </trkpt>
      <trkpt lat="47.19425" lon="-1.57076">
        <ele>-29.8</ele>
        <time>2022-01-23T11:06:56Z</time>
      </trkpt>
      <trkpt lat="47.1943" lon="-1.57075">
        <ele>-29.6</ele>
        <time>2022-01-23T11:06:57Z</time>
      </trkpt>
      <trkpt lat="47.19435" lon="-1.57072">
        <ele>-29.4</ele>
        <time>2022-01-23T11:06:58Z</time>
      </trkpt>
      <trkpt lat="47.19444" lon="-1.57062">
        <ele>-28.6</ele>
        <time>2022-01-23T11:07:00Z</time>
      </trkpt>
      <trkpt lat="47.19457" lon="-1.57033">
        <ele>-26.2</ele>
        <time>2022-01-23T11:07:04Z</time>
      </trkpt>
      <trkpt lat="47.19463" lon="-1.56982">
        <ele>-24.4</ele>
        <time>2022-01-23T11:07:10Z</time>
      </trkpt>
      <trkpt lat="47.19471" lon="-1.56906">
        <ele>-22</ele>
        <time>2022-01-23T11:07:19Z</time>
      </trkpt>
      <trkpt lat="47.19478" lon="-1.56868">
        <ele>-20.6</ele>
        <time>2022-01-23T11:07:24Z</time>
      </trkpt>
      <trkpt lat="47.19481" lon="-1.5686">
        <ele>-20.2</ele>
        <time>2022-01-23T11:07:25Z</time>
      </trkpt>
      <trkpt lat="47.19494" lon="-1.56835">
        <ele>-19.2</ele>
        <time>2022-01-23T11:07:29Z</time>
      </trkpt>
      <trkpt lat="47.19498" lon="-1.5683">
        <ele>-19</ele>
        <time>2022-01-23T11:07:30Z</time>
      </trkpt>
      <trkpt lat="47.19506" lon="-1.56819">
        <ele>-18.4</ele>
        <time>2022-01-23T11:07:32Z</time>
      </trkpt>
      <trkpt lat="47.19519" lon="-1.56805">
        <ele>-17.6</ele>
        <time>2022-01-23T11:07:35Z</time>
      </trkpt>
      <trkpt lat="47.19543" lon="-1.56796">
        <ele>-16.2</ele>
        <time>2022-01-23T11:07:40Z</time>
      </trkpt>
      <trkpt lat="47.19554" lon="-1.56792">
        <ele>-16</ele>
        <time>2022-01-23T11:07:42Z</time>
      </trkpt>
      <trkpt lat="47.19566" lon="-1.5679">
        <ele>-15.8</ele>
        <time>2022-01-23T11:07:44Z</time>
      </trkpt>
      <trkpt lat="47.19602" lon="-1.56784">
        <ele>-14.8</ele>
        <time>2022-01-23T11:07:50Z</time>
      </trkpt>
      <trkpt lat="47.19611" lon="-1.56776">
        <ele>-14.4</ele>
        <time>2022-01-23T11:07:52Z</time>
      </trkpt>
      <trkpt lat="47.19614" lon="-1.56768">
        <ele>-14.2</ele>
        <time>2022-01-23T11:07:53Z</time>
      </trkpt>
      <trkpt lat="47.19615" lon="-1.5676">
        <ele>-13.8</ele>
        <time>2022-01-23T11:07:54Z</time>
      </trkpt>
      <trkpt lat="47.19618" lon="-1.56726">
        <ele>-13</ele>
        <time>2022-01-23T11:07:58Z</time>
      </trkpt>
      <trkpt lat="47.19619" lon="-1.56718">
        <ele>-12.8</ele>
        <time>2022-01-23T11:07:59Z</time>
      </trkpt>
      <trkpt lat="47.19622" lon="-1.56684">
        <ele>-11.8</ele>
        <time>2022-01-23T11:08:03Z</time>
      </trkpt>
      <trkpt lat="47.19627" lon="-1.56617">
        <ele>-10.2</ele>
        <time>2022-01-23T11:08:11Z</time>
      </trkpt>
      <trkpt lat="47.19632" lon="-1.56568">
        <ele>-9</ele>
        <time>2022-01-23T11:08:17Z</time>
      </trkpt>
      <trkpt lat="47.19636" lon="-1.56511">
        <ele>-7.6</ele>
        <time>2022-01-23T11:08:24Z</time>
      </trkpt>
      <trkpt lat="47.19633" lon="-1.56455">
        <ele>-6.4</ele>
        <time>2022-01-23T11:08:31Z</time>
      </trkpt>
      <trkpt lat="47.1963" lon="-1.56401">
        <ele>-5.4</ele>
        <time>2022-01-23T11:08:38Z</time>
      </trkpt>
      <trkpt lat="47.19627" lon="-1.56349">
        <ele>-4.6</ele>
        <time>2022-01-23T11:08:45Z</time>
      </trkpt>
      <trkpt lat="47.19628" lon="-1.56316">
        <ele>-4.2</ele>
        <time>2022-01-23T11:08:50Z</time>
      </trkpt>
      <trkpt lat="47.19629" lon="-1.56302">
        <ele>-4</ele>
        <time>2022-01-23T11:08:52Z</time>
      </trkpt>
      <trkpt lat="47.1963" lon="-1.56277">
        <ele>-3.6</ele>
        <time>2022-01-23T11:08:56Z</time>
      </trkpt>
      <trkpt lat="47.19633" lon="-1.56249">
        <ele>-3.2</ele>
        <time>2022-01-23T11:09:01Z</time>
      </trkpt>
      <trkpt lat="47.19643" lon="-1.5623">
        <ele>-2.6</ele>
        <time>2022-01-23T11:09:05Z</time>
      </trkpt>
      <trkpt lat="47.19647" lon="-1.56227">
        <ele>-2.6</ele>
        <time>2022-01-23T11:09:06Z</time>
      </trkpt>
      <trkpt lat="47.19659" lon="-1.56224">
        <ele>-2.2</ele>
        <time>2022-01-23T11:09:09Z</time>
      </trkpt>
      <trkpt lat="47.19664" lon="-1.56223">
        <ele>-2.2</ele>
        <time>2022-01-23T11:09:10Z</time>
      </trkpt>
      <trkpt lat="47.19672" lon="-1.56219">
        <ele>-1.8</ele>
        <time>2022-01-23T11:09:12Z</time>
      </trkpt>
      <trkpt lat="47.19688" lon="-1.56215">
        <ele>-1.4</ele>
        <time>2022-01-23T11:09:16Z</time>
      </trkpt>
      <trkpt lat="47.19718" lon="-1.56209">
        <ele>-1.4</ele>
        <time>2022-01-23T11:09:24Z</time>
      </trkpt>
      <trkpt lat="47.19741" lon="-1.56205">
        <ele>0.80000000000001</ele>
        <time>2022-01-23T11:09:30Z</time>
      </trkpt>
      <trkpt lat="47.19768" lon="-1.562">
        <ele>1.8</ele>
        <time>2022-01-23T11:09:37Z</time>
      </trkpt>
      <trkpt lat="47.19809" lon="-1.56192">
        <ele>3.2</ele>
        <time>2022-01-23T11:09:47Z</time>
      </trkpt>
      <trkpt lat="47.19813" lon="-1.56191">
        <ele>3.4</ele>
        <time>2022-01-23T11:09:48Z</time>
      </trkpt>
      <trkpt lat="47.19837" lon="-1.56188">
        <ele>4</ele>
        <time>2022-01-23T11:09:53Z</time>
      </trkpt>
      <trkpt lat="47.19881" lon="-1.56179">
        <ele>4.8</ele>
        <time>2022-01-23T11:10:02Z</time>
      </trkpt>
      <trkpt lat="47.19929" lon="-1.5617">
        <ele>5.2</ele>
        <time>2022-01-23T11:10:10Z</time>
      </trkpt>
      <trkpt lat="47.19959" lon="-1.56166">
        <ele>5</ele>
        <time>2022-01-23T11:10:15Z</time>
      </trkpt>
      <trkpt lat="47.1997" lon="-1.56167">
        <ele>5.2</ele>
        <time>2022-01-23T11:10:17Z</time>
      </trkpt>
      <trkpt lat="47.19975" lon="-1.56171">
        <ele>5</ele>
        <time>2022-01-23T11:10:18Z</time>
      </trkpt>
      <trkpt lat="47.19978" lon="-1.56178">
        <ele>5</ele>
        <time>2022-01-23T11:10:19Z</time>
      </trkpt>
      <trkpt lat="47.19981" lon="-1.56192">
        <ele>5</ele>
        <time>2022-01-23T11:10:21Z</time>
      </trkpt>
      <trkpt lat="47.19989" lon="-1.56195">
        <ele>5.6</ele>
        <time>2022-01-23T11:10:23Z</time>
      </trkpt>
      <trkpt lat="47.19993" lon="-1.56193">
        <ele>5.2</ele>
        <time>2022-01-23T11:10:24Z</time>
      </trkpt>
      <trkpt lat="47.20008" lon="-1.56184">
        <ele>4.4</ele>
        <time>2022-01-23T11:10:27Z</time>
      </trkpt>
      <trkpt lat="47.2002" lon="-1.56181">
        <ele>4.4</ele>
        <time>2022-01-23T11:10:29Z</time>
      </trkpt>
      <trkpt lat="47.20038" lon="-1.5618">
        <ele>4.6</ele>
        <time>2022-01-23T11:10:32Z</time>
      </trkpt>
      <trkpt lat="47.20075" lon="-1.56178">
        <ele>5.4</ele>
        <time>2022-01-23T11:10:38Z</time>
      </trkpt>
      <trkpt lat="47.20132" lon="-1.56178">
        <ele>5.4</ele>
        <time>2022-01-23T11:10:47Z</time>
      </trkpt>
      <trkpt lat="47.20138" lon="-1.56178">
        <ele>5.6</ele>
        <time>2022-01-23T11:10:48Z</time>
      </trkpt>
      <trkpt lat="47.20156" lon="-1.56183">
        <ele>5.4</ele>
        <time>2022-01-23T11:10:51Z</time>
      </trkpt>
      <trkpt lat="47.2016" lon="-1.56187">
        <ele>5</ele>
        <time>2022-01-23T11:10:52Z</time>
      </trkpt>
      <trkpt lat="47.20163" lon="-1.56192">
        <ele>5</ele>
        <time>2022-01-23T11:10:53Z</time>
      </trkpt>
      <trkpt lat="47.20171" lon="-1.56195">
        <ele>4.8</ele>
        <time>2022-01-23T11:10:55Z</time>
      </trkpt>
      <trkpt lat="47.20179" lon="-1.56191">
        <ele>5.2</ele>
        <time>2022-01-23T11:10:57Z</time>
      </trkpt>
      <trkpt lat="47.20182" lon="-1.56185">
        <ele>5.4</ele>
        <time>2022-01-23T11:10:58Z</time>
      </trkpt>
      <trkpt lat="47.20185" lon="-1.56179">
        <ele>5.6</ele>
        <time>2022-01-23T11:10:59Z</time>
      </trkpt>
      <trkpt lat="47.20194" lon="-1.56173">
        <ele>5.4</ele>
        <time>2022-01-23T11:11:01Z</time>
      </trkpt>
      <trkpt lat="47.20212" lon="-1.56165">
        <ele>5.6</ele>
        <time>2022-01-23T11:11:04Z</time>
      </trkpt>
      <trkpt lat="47.20222" lon="-1.56156">
        <ele>5.6</ele>
        <time>2022-01-23T11:11:06Z</time>
      </trkpt>
      <trkpt lat="47.20227" lon="-1.56151">
        <ele>5.6</ele>
        <time>2022-01-23T11:11:07Z</time>
      </trkpt>
      <trkpt lat="47.20238" lon="-1.56133">
        <ele>5.8</ele>
        <time>2022-01-23T11:11:10Z</time>
      </trkpt>
      <trkpt lat="47.20242" lon="-1.56118">
        <ele>5.8</ele>
        <time>2022-01-23T11:11:12Z</time>
      </trkpt>
      <trkpt lat="47.20244" lon="-1.56102">
        <ele>6</ele>
        <time>2022-01-23T11:11:14Z</time>
      </trkpt>
      <trkpt lat="47.2025" lon="-1.56033">
        <ele>6</ele>
        <time>2022-01-23T11:11:22Z</time>
      </trkpt>
      <trkpt lat="47.20258" lon="-1.55963">
        <ele>6.4</ele>
        <time>2022-01-23T11:11:30Z</time>
      </trkpt>
      <trkpt lat="47.20267" lon="-1.5588">
        <ele>6.6</ele>
        <time>2022-01-23T11:11:39Z</time>
      </trkpt>
      <trkpt lat="47.20268" lon="-1.55871">
        <ele>6.6</ele>
        <time>2022-01-23T11:11:40Z</time>
      </trkpt>
      <trkpt lat="47.20276" lon="-1.55789">
        <ele>6.8</ele>
        <time>2022-01-23T11:11:49Z</time>
      </trkpt>
      <trkpt lat="47.20277" lon="-1.55781">
        <ele>6.8</ele>
        <time>2022-01-23T11:11:50Z</time>
      </trkpt>
      <trkpt lat="47.20288" lon="-1.55696">
        <ele>7.2</ele>
        <time>2022-01-23T11:12:00Z</time>
      </trkpt>
      <trkpt lat="47.20297" lon="-1.55613">
        <ele>7.6</ele>
        <time>2022-01-23T11:12:10Z</time>
      </trkpt>
      <trkpt lat="47.203" lon="-1.55581">
        <ele>7.8</ele>
        <time>2022-01-23T11:12:14Z</time>
      </trkpt>
      <trkpt lat="47.20297" lon="-1.55575">
        <ele>7.8</ele>
        <time>2022-01-23T11:12:15Z</time>
      </trkpt>
      <trkpt lat="47.20293" lon="-1.5557">
        <ele>7.8</ele>
        <time>2022-01-23T11:12:16Z</time>
      </trkpt>
      <trkpt lat="47.20283" lon="-1.55565">
        <ele>7.6</ele>
        <time>2022-01-23T11:12:18Z</time>
      </trkpt>
      <trkpt lat="47.20257" lon="-1.55561">
        <ele>7.6</ele>
        <time>2022-01-23T11:12:22Z</time>
      </trkpt>
      <trkpt lat="47.20251" lon="-1.5556">
        <ele>7.6</ele>
        <time>2022-01-23T11:12:23Z</time>
      </trkpt>
      <trkpt lat="47.20225" lon="-1.55549">
        <ele>7.6</ele>
        <time>2022-01-23T11:12:27Z</time>
      </trkpt>
      <trkpt lat="47.2019" lon="-1.55532">
        <ele>7.8</ele>
        <time>2022-01-23T11:12:33Z</time>
      </trkpt>
      <trkpt lat="47.20184" lon="-1.55527">
        <ele>7.8</ele>
        <time>2022-01-23T11:12:34Z</time>
      </trkpt>
      <trkpt lat="47.2018" lon="-1.55521">
        <ele>7.8</ele>
        <time>2022-01-23T11:12:35Z</time>
      </trkpt>
      <trkpt lat="47.20175" lon="-1.55504">
        <ele>7.8</ele>
        <time>2022-01-23T11:12:37Z</time>
      </trkpt>
      <trkpt lat="47.20176" lon="-1.55484">
        <ele>7.6</ele>
        <time>2022-01-23T11:12:39Z</time>
      </trkpt>
      <trkpt lat="47.20178" lon="-1.55475">
        <ele>7.6</ele>
        <time>2022-01-23T11:12:40Z</time>
      </trkpt>
      <trkpt lat="47.20192" lon="-1.55434">
        <ele>7.6</ele>
        <time>2022-01-23T11:12:45Z</time>
      </trkpt>
      <trkpt lat="47.20211" lon="-1.55406">
        <ele>7.6</ele>
        <time>2022-01-23T11:12:50Z</time>
      </trkpt>
      <trkpt lat="47.20215" lon="-1.55402">
        <ele>7.6</ele>
        <time>2022-01-23T11:12:51Z</time>
      </trkpt>
      <trkpt lat="47.20225" lon="-1.55403">
        <ele>7.4</ele>
        <time>2022-01-23T11:12:53Z</time>
      </trkpt>
      <trkpt lat="47.20236" lon="-1.55404">
        <ele>7.2</ele>
        <time>2022-01-23T11:12:56Z</time>
      </trkpt>
      <trkpt lat="47.20238" lon="-1.5539">
        <ele>7</ele>
        <time>2022-01-23T11:12:59Z</time>
      </trkpt>
      <trkpt lat="47.20238" lon="-1.55378">
        <ele>6.8</ele>
        <time>2022-01-23T11:13:01Z</time>
      </trkpt>
      <trkpt lat="47.20236" lon="-1.55368">
        <ele>6.8</ele>
        <time>2022-01-23T11:13:03Z</time>
      </trkpt>
      <trkpt lat="47.20227" lon="-1.5535">
        <ele>6.2</ele>
        <time>2022-01-23T11:13:08Z</time>
      </trkpt>
      <trkpt lat="47.20233" lon="-1.55337">
        <ele>5.6</ele>
        <time>2022-01-23T11:13:11Z</time>
      </trkpt>
      <trkpt lat="47.20246" lon="-1.55316">
        <ele>4.4</ele>
        <time>2022-01-23T11:13:16Z</time>
      </trkpt>
      <trkpt lat="47.20252" lon="-1.55307">
        <ele>4</ele>
        <time>2022-01-23T11:13:18Z</time>
      </trkpt>
      <trkpt lat="47.20273" lon="-1.55275">
        <ele>3.2</ele>
        <time>2022-01-23T11:13:24Z</time>
      </trkpt>
      <trkpt lat="47.20317" lon="-1.55221">
        <ele>2.8</ele>
        <time>2022-01-23T11:13:32Z</time>
      </trkpt>
      <trkpt lat="47.20341" lon="-1.55187">
        <ele>2.8</ele>
        <time>2022-01-23T11:13:37Z</time>
      </trkpt>
      <trkpt lat="47.20347" lon="-1.55175">
        <ele>2.8</ele>
        <time>2022-01-23T11:13:39Z</time>
      </trkpt>
      <trkpt lat="47.20354" lon="-1.55165">
        <ele>2.8</ele>
        <time>2022-01-23T11:13:41Z</time>
      </trkpt>
      <trkpt lat="47.20357" lon="-1.55161">
        <ele>2.6</ele>
        <time>2022-01-23T11:13:42Z</time>
      </trkpt>
      <trkpt lat="47.20361" lon="-1.55156">
        <ele>2.6</ele>
        <time>2022-01-23T11:13:43Z</time>
      </trkpt>
      <trkpt lat="47.2037" lon="-1.55146">
        <ele>2.6</ele>
        <time>2022-01-23T11:13:45Z</time>
      </trkpt>
      <trkpt lat="47.20379" lon="-1.55138">
        <ele>2.6</ele>
        <time>2022-01-23T11:13:47Z</time>
      </trkpt>
      <trkpt lat="47.20383" lon="-1.55134">
        <ele>2.6</ele>
        <time>2022-01-23T11:13:48Z</time>
      </trkpt>
      <trkpt lat="47.20391" lon="-1.55123">
        <ele>2.4</ele>
        <time>2022-01-23T11:13:50Z</time>
      </trkpt>
      <trkpt lat="47.20398" lon="-1.55111">
        <ele>2.2</ele>
        <time>2022-01-23T11:13:52Z</time>
      </trkpt>
      <trkpt lat="47.20416" lon="-1.5506">
        <ele>2.2</ele>
        <time>2022-01-23T11:13:59Z</time>
      </trkpt>
      <trkpt lat="47.20426" lon="-1.55032">
        <ele>1.8</ele>
        <time>2022-01-23T11:14:03Z</time>
      </trkpt>
      <trkpt lat="47.20433" lon="-1.5502">
        <ele>1.8</ele>
        <time>2022-01-23T11:14:05Z</time>
      </trkpt>
      <trkpt lat="47.20441" lon="-1.55">
        <ele>1.4</ele>
        <time>2022-01-23T11:14:08Z</time>
      </trkpt>
      <trkpt lat="47.20446" lon="-1.54984">
        <ele>1.4</ele>
        <time>2022-01-23T11:14:10Z</time>
      </trkpt>
      <trkpt lat="47.20448" lon="-1.54977">
        <ele>1.2</ele>
        <time>2022-01-23T11:14:11Z</time>
      </trkpt>
      <trkpt lat="47.20453" lon="-1.54963">
        <ele>1.2</ele>
        <time>2022-01-23T11:14:13Z</time>
      </trkpt>
      <trkpt lat="47.20455" lon="-1.54956">
        <ele>1</ele>
        <time>2022-01-23T11:14:14Z</time>
      </trkpt>
      <trkpt lat="47.20462" lon="-1.54938">
        <ele>0.80000000000001</ele>
        <time>2022-01-23T11:14:17Z</time>
      </trkpt>
      <trkpt lat="47.20466" lon="-1.54915">
        <ele>0.39999999999998</ele>
        <time>2022-01-23T11:14:20Z</time>
      </trkpt>
      <trkpt lat="47.20472" lon="-1.54894">
        <ele>0.39999999999998</ele>
        <time>2022-01-23T11:14:23Z</time>
      </trkpt>
      <trkpt lat="47.20477" lon="-1.54874">
        <ele>-0.39999999999998</ele>
        <time>2022-01-23T11:14:26Z</time>
      </trkpt>
      <trkpt lat="47.20482" lon="-1.54852">
        <ele>-1.2</ele>
        <time>2022-01-23T11:14:29Z</time>
      </trkpt>
      <trkpt lat="47.20484" lon="-1.54828">
        <ele>-1.8</ele>
        <time>2022-01-23T11:14:32Z</time>
      </trkpt>
      <trkpt lat="47.20483" lon="-1.54811">
        <ele>-2.4</ele>
        <time>2022-01-23T11:14:34Z</time>
      </trkpt>
      <trkpt lat="47.20486" lon="-1.54795">
        <ele>-2.8</ele>
        <time>2022-01-23T11:14:36Z</time>
      </trkpt>
      <trkpt lat="47.20495" lon="-1.54759">
        <ele>-3.2</ele>
        <time>2022-01-23T11:14:41Z</time>
      </trkpt>
      <trkpt lat="47.20496" lon="-1.54754">
        <ele>-3.2</ele>
        <time>2022-01-23T11:14:42Z</time>
      </trkpt>
      <trkpt lat="47.20499" lon="-1.54734">
        <ele>-3.8</ele>
        <time>2022-01-23T11:14:46Z</time>
      </trkpt>
      <trkpt lat="47.20502" lon="-1.54719">
        <ele>-4</ele>
        <time>2022-01-23T11:14:49Z</time>
      </trkpt>
      <trkpt lat="47.20504" lon="-1.54717">
        <ele>-4.2</ele>
        <time>2022-01-23T11:14:50Z</time>
      </trkpt>
      <trkpt lat="47.20507" lon="-1.54717">
        <ele>-4.4</ele>
        <time>2022-01-23T11:14:51Z</time>
      </trkpt>
      <trkpt lat="47.20514" lon="-1.54724">
        <ele>-4.6</ele>
        <time>2022-01-23T11:14:53Z</time>
      </trkpt>
      <trkpt lat="47.2052" lon="-1.54733">
        <ele>-5.2</ele>
        <time>2022-01-23T11:14:55Z</time>
      </trkpt>
      <trkpt lat="47.2053" lon="-1.54741">
        <ele>-5.8</ele>
        <time>2022-01-23T11:14:57Z</time>
      </trkpt>
      <trkpt lat="47.20563" lon="-1.54761">
        <ele>-7.6</ele>
        <time>2022-01-23T11:15:03Z</time>
      </trkpt>
      <trkpt lat="47.20576" lon="-1.54769">
        <ele>-8</ele>
        <time>2022-01-23T11:15:06Z</time>
      </trkpt>
      <trkpt lat="47.20587" lon="-1.54774">
        <ele>-8.2</ele>
        <time>2022-01-23T11:15:08Z</time>
      </trkpt>
      <trkpt lat="47.20599" lon="-1.54781">
        <ele>-8.6</ele>
        <time>2022-01-23T11:15:10Z</time>
      </trkpt>
      <trkpt lat="47.20616" lon="-1.54795">
        <ele>-9</ele>
        <time>2022-01-23T11:15:13Z</time>
      </trkpt>
      <trkpt lat="47.20651" lon="-1.54822">
        <ele>-9.4</ele>
        <time>2022-01-23T11:15:19Z</time>
      </trkpt>
      <trkpt lat="47.20693" lon="-1.54852">
        <ele>-10.4</ele>
        <time>2022-01-23T11:15:26Z</time>
      </trkpt>
      <trkpt lat="47.20749" lon="-1.54882">
        <ele>-7.2</ele>
        <time>2022-01-23T11:15:33Z</time>
      </trkpt>
      <trkpt lat="47.20796" lon="-1.54912">
        <ele>-6</ele>
        <time>2022-01-23T11:15:41Z</time>
      </trkpt>
      <trkpt lat="47.20845" lon="-1.54945">
        <ele>-5.2</ele>
        <time>2022-01-23T11:15:49Z</time>
      </trkpt>
      <trkpt lat="47.20852" lon="-1.54949">
        <ele>-5.2</ele>
        <time>2022-01-23T11:15:50Z</time>
      </trkpt>
      <trkpt lat="47.20873" lon="-1.54966">
        <ele>-4.8</ele>
        <time>2022-01-23T11:15:54Z</time>
      </trkpt>
      <trkpt lat="47.20881" lon="-1.54976">
        <ele>-4.6</ele>
        <time>2022-01-23T11:15:56Z</time>
      </trkpt>
      <trkpt lat="47.20891" lon="-1.54987">
        <ele>-4.4</ele>
        <time>2022-01-23T11:15:58Z</time>
      </trkpt>
      <trkpt lat="47.20913" lon="-1.5501">
        <ele>-4.2</ele>
        <time>2022-01-23T11:16:02Z</time>
      </trkpt>
      <trkpt lat="47.20918" lon="-1.55016">
        <ele>-4</ele>
        <time>2022-01-23T11:16:03Z</time>
      </trkpt>
      <trkpt lat="47.20939" lon="-1.55037">
        <ele>-3.4</ele>
        <time>2022-01-23T11:16:07Z</time>
      </trkpt>
      <trkpt lat="47.20947" lon="-1.55048">
        <ele>-3.4</ele>
        <time>2022-01-23T11:16:09Z</time>
      </trkpt>
      <trkpt lat="47.20968" lon="-1.55073">
        <ele>-3.2</ele>
        <time>2022-01-23T11:16:14Z</time>
      </trkpt>
      <trkpt lat="47.20978" lon="-1.55082">
        <ele>-3</ele>
        <time>2022-01-23T11:16:16Z</time>
      </trkpt>
      <trkpt lat="47.20988" lon="-1.55092">
        <ele>-3.2</ele>
        <time>2022-01-23T11:16:18Z</time>
      </trkpt>
      <trkpt lat="47.20999" lon="-1.55101">
        <ele>-3.2</ele>
        <time>2022-01-23T11:16:20Z</time>
      </trkpt>
      <trkpt lat="47.21013" lon="-1.55117">
        <ele>-3.2</ele>
        <time>2022-01-23T11:16:23Z</time>
      </trkpt>
      <trkpt lat="47.21021" lon="-1.55127">
        <ele>-3.4</ele>
        <time>2022-01-23T11:16:25Z</time>
      </trkpt>
      <trkpt lat="47.21025" lon="-1.55133">
        <ele>-3.4</ele>
        <time>2022-01-23T11:16:26Z</time>
      </trkpt>
      <trkpt lat="47.21034" lon="-1.55144">
        <ele>-3.4</ele>
        <time>2022-01-23T11:16:28Z</time>
      </trkpt>
      <trkpt lat="47.21063" lon="-1.55174">
        <ele>-3.6</ele>
        <time>2022-01-23T11:16:34Z</time>
      </trkpt>
      <trkpt lat="47.21087" lon="-1.55211">
        <ele>-4</ele>
        <time>2022-01-23T11:16:40Z</time>
      </trkpt>
      <trkpt lat="47.21106" lon="-1.55231">
        <ele>-4.2</ele>
        <time>2022-01-23T11:16:44Z</time>
      </trkpt>
      <trkpt lat="47.2112" lon="-1.55248">
        <ele>-4.4</ele>
        <time>2022-01-23T11:16:47Z</time>
      </trkpt>
      <trkpt lat="47.21149" lon="-1.55281">
        <ele>-5.2</ele>
        <time>2022-01-23T11:16:53Z</time>
      </trkpt>
      <trkpt lat="47.21153" lon="-1.55286">
        <ele>-5.4</ele>
        <time>2022-01-23T11:16:54Z</time>
      </trkpt>
      <trkpt lat="47.21167" lon="-1.55303">
        <ele>-5.8</ele>
        <time>2022-01-23T11:16:57Z</time>
      </trkpt>
      <trkpt lat="47.21183" lon="-1.55323">
        <ele>-6.4</ele>
        <time>2022-01-23T11:17:01Z</time>
      </trkpt>
      <trkpt lat="47.21207" lon="-1.55351">
        <ele>-6.8</ele>
        <time>2022-01-23T11:17:07Z</time>
      </trkpt>
      <trkpt lat="47.21215" lon="-1.55362">
        <ele>-6.8</ele>
        <time>2022-01-23T11:17:09Z</time>
      </trkpt>
      <trkpt lat="47.21237" lon="-1.5539">
        <ele>-6.4</ele>
        <time>2022-01-23T11:17:15Z</time>
      </trkpt>
      <trkpt lat="47.21246" lon="-1.55396">
        <ele>-5.8</ele>
        <time>2022-01-23T11:17:18Z</time>
      </trkpt>
      <trkpt lat="47.21249" lon="-1.55397">
        <ele>-5.4</ele>
        <time>2022-01-23T11:17:20Z</time>
      </trkpt>
      <trkpt lat="47.21252" lon="-1.55401">
        <ele>-4.6</ele>
        <time>2022-01-23T11:17:51Z</time>
      </trkpt>
      <trkpt lat="47.21256" lon="-1.55405">
        <ele>-4.2</ele>
        <time>2022-01-23T11:17:52Z</time>
      </trkpt>
      <trkpt lat="47.21275" lon="-1.55422">
        <ele>-3.6</ele>
        <time>2022-01-23T11:17:56Z</time>
      </trkpt>
      <trkpt lat="47.21309" lon="-1.55453">
        <ele>-3.4</ele>
        <time>2022-01-23T11:18:02Z</time>
      </trkpt>
      <trkpt lat="47.21338" lon="-1.55486">
        <ele>-4</ele>
        <time>2022-01-23T11:18:08Z</time>
      </trkpt>
      <trkpt lat="47.21359" lon="-1.55502">
        <ele>-4</ele>
        <time>2022-01-23T11:18:13Z</time>
      </trkpt>
      <trkpt lat="47.21374" lon="-1.55505">
        <ele>-5.6</ele>
        <time>2022-01-23T11:18:17Z</time>
      </trkpt>
      <trkpt lat="47.21378" lon="-1.55503">
        <ele>-5.4</ele>
        <time>2022-01-23T11:18:18Z</time>
      </trkpt>
      <trkpt lat="47.21381" lon="-1.55501">
        <ele>-5.6</ele>
        <time>2022-01-23T11:18:19Z</time>
      </trkpt>
      <trkpt lat="47.21388" lon="-1.55503">
        <ele>-5</ele>
        <time>2022-01-23T11:18:21Z</time>
      </trkpt>
      <trkpt lat="47.21407" lon="-1.55527">
        <ele>-5.8</ele>
        <time>2022-01-23T11:18:26Z</time>
      </trkpt>
      <trkpt lat="47.21437" lon="-1.55559">
        <ele>-7.6</ele>
        <time>2022-01-23T11:18:32Z</time>
      </trkpt>
      <trkpt lat="47.21464" lon="-1.55587">
        <ele>-9.2</ele>
        <time>2022-01-23T11:18:37Z</time>
      </trkpt>
      <trkpt lat="47.21486" lon="-1.55608">
        <ele>-10.8</ele>
        <time>2022-01-23T11:18:42Z</time>
      </trkpt>
      <trkpt lat="47.21491" lon="-1.55612">
        <ele>-11</ele>
        <time>2022-01-23T11:18:43Z</time>
      </trkpt>
      <trkpt lat="47.21507" lon="-1.55625">
        <ele>-12.6</ele>
        <time>2022-01-23T11:18:47Z</time>
      </trkpt>
      <trkpt lat="47.21514" lon="-1.55634">
        <ele>-13.2</ele>
        <time>2022-01-23T11:18:49Z</time>
      </trkpt>
      <trkpt lat="47.21519" lon="-1.5564">
        <ele>-14</ele>
        <time>2022-01-23T11:18:51Z</time>
      </trkpt>
      <trkpt lat="47.21522" lon="-1.55644">
        <ele>-14.4</ele>
        <time>2022-01-23T11:18:52Z</time>
      </trkpt>
      <trkpt lat="47.21528" lon="-1.5566">
        <ele>-15.4</ele>
        <time>2022-01-23T11:18:56Z</time>
      </trkpt>
      <trkpt lat="47.21527" lon="-1.55666">
        <ele>-17</ele>
        <time>2022-01-23T11:19:00Z</time>
      </trkpt>
      <trkpt lat="47.21527" lon="-1.55675">
        <ele>-17.8</ele>
        <time>2022-01-23T11:19:03Z</time>
      </trkpt>
      <trkpt lat="47.21529" lon="-1.5568">
        <ele>-18.2</ele>
        <time>2022-01-23T11:19:05Z</time>
      </trkpt>
      <trkpt lat="47.21532" lon="-1.55683">
        <ele>-18.4</ele>
        <time>2022-01-23T11:19:06Z</time>
      </trkpt>
      <trkpt lat="47.2152" lon="-1.55699">
        <ele>-19.2</ele>
        <time>2022-01-23T11:19:09Z</time>
      </trkpt>
      <trkpt lat="47.21511" lon="-1.55718">
        <ele>-20</ele>
        <time>2022-01-23T11:19:12Z</time>
      </trkpt>
      <trkpt lat="47.21508" lon="-1.55722">
        <ele>-20.4</ele>
        <time>2022-01-23T11:19:13Z</time>
      </trkpt>
      <trkpt lat="47.21505" lon="-1.55722">
        <ele>-20.8</ele>
        <time>2022-01-23T11:19:14Z</time>
      </trkpt>
      <trkpt lat="47.21503" lon="-1.55729">
        <ele>-21.4</ele>
        <time>2022-01-23T11:19:16Z</time>
      </trkpt>
      <trkpt lat="47.21504" lon="-1.55729">
        <ele>-21.8</ele>
        <time>2022-01-23T11:19:17Z</time>
      </trkpt>
      <trkpt lat="47.2151" lon="-1.55734">
        <ele>-22.4</ele>
        <time>2022-01-23T11:19:20Z</time>
      </trkpt>
      <trkpt lat="47.21513" lon="-1.55735">
        <ele>-22.4</ele>
        <time>2022-01-23T11:19:21Z</time>
      </trkpt>
      <trkpt lat="47.21525" lon="-1.55737">
        <ele>-23.2</ele>
        <time>2022-01-23T11:19:26Z</time>
      </trkpt>
      <trkpt lat="47.21528" lon="-1.55738">
        <ele>-23.4</ele>
        <time>2022-01-23T11:19:27Z</time>
      </trkpt>
      <trkpt lat="47.21542" lon="-1.55743">
        <ele>-23.8</ele>
        <time>2022-01-23T11:19:29Z</time>
      </trkpt>
      <trkpt lat="47.21557" lon="-1.55745">
        <ele>-24.6</ele>
        <time>2022-01-23T11:19:34Z</time>
      </trkpt>
      <trkpt lat="47.21558" lon="-1.55746">
        <ele>-25</ele>
        <time>2022-01-23T11:19:36Z</time>
      </trkpt>
      <trkpt lat="47.2156" lon="-1.55749">
        <ele>-28.8</ele>
        <time>2022-01-23T11:20:05Z</time>
      </trkpt>
      <trkpt lat="47.21563" lon="-1.55748">
        <ele>-29</ele>
        <time>2022-01-23T11:20:06Z</time>
      </trkpt>
      <trkpt lat="47.21567" lon="-1.55749">
        <ele>-29.4</ele>
        <time>2022-01-23T11:20:08Z</time>
      </trkpt>
      <trkpt lat="47.21572" lon="-1.55757">
        <ele>-29.4</ele>
        <time>2022-01-23T11:20:10Z</time>
      </trkpt>
      <trkpt lat="47.21576" lon="-1.55768">
        <ele>-29.4</ele>
        <time>2022-01-23T11:20:12Z</time>
      </trkpt>
      <trkpt lat="47.21576" lon="-1.55775">
        <ele>-29.4</ele>
        <time>2022-01-23T11:20:13Z</time>
      </trkpt>
      <trkpt lat="47.21581" lon="-1.55788">
        <ele>-29.8</ele>
        <time>2022-01-23T11:20:15Z</time>
      </trkpt>
      <trkpt lat="47.21578" lon="-1.5581">
        <ele>-27.2</ele>
        <time>2022-01-23T11:20:18Z</time>
      </trkpt>
      <trkpt lat="47.21581" lon="-1.55828">
        <ele>-27</ele>
        <time>2022-01-23T11:20:21Z</time>
      </trkpt>
      <trkpt lat="47.21587" lon="-1.55845">
        <ele>-26.4</ele>
        <time>2022-01-23T11:20:24Z</time>
      </trkpt>
      <trkpt lat="47.21592" lon="-1.55862">
        <ele>-25.8</ele>
        <time>2022-01-23T11:20:27Z</time>
      </trkpt>
      <trkpt lat="47.21599" lon="-1.55871">
        <ele>-25.2</ele>
        <time>2022-01-23T11:20:29Z</time>
      </trkpt>
      <trkpt lat="47.21596" lon="-1.55884">
        <ele>-24.8</ele>
        <time>2022-01-23T11:20:31Z</time>
      </trkpt>
      <trkpt lat="47.21592" lon="-1.55895">
        <ele>-24.2</ele>
        <time>2022-01-23T11:20:33Z</time>
      </trkpt>
      <trkpt lat="47.2159" lon="-1.55898">
        <ele>-23.8</ele>
        <time>2022-01-23T11:20:34Z</time>
      </trkpt>
      <trkpt lat="47.21585" lon="-1.55902">
        <ele>-23.2</ele>
        <time>2022-01-23T11:20:35Z</time>
      </trkpt>
      <trkpt lat="47.21581" lon="-1.55901">
        <ele>-22.6</ele>
        <time>2022-01-23T11:20:37Z</time>
      </trkpt>
      <trkpt lat="47.21569" lon="-1.55901">
        <ele>-21.8</ele>
        <time>2022-01-23T11:20:39Z</time>
      </trkpt>
      <trkpt lat="47.21561" lon="-1.55901">
        <ele>-20.4</ele>
        <time>2022-01-23T11:20:42Z</time>
      </trkpt>
      <trkpt lat="47.21558" lon="-1.55902">
        <ele>-20</ele>
        <time>2022-01-23T11:20:43Z</time>
      </trkpt>
      <trkpt lat="47.21548" lon="-1.55909">
        <ele>-19</ele>
        <time>2022-01-23T11:20:48Z</time>
      </trkpt>
      <trkpt lat="47.21534" lon="-1.55918">
        <ele>-18.4</ele>
        <time>2022-01-23T11:20:51Z</time>
      </trkpt>
      <trkpt lat="47.21525" lon="-1.55925">
        <ele>-18</ele>
        <time>2022-01-23T11:20:53Z</time>
      </trkpt>
      <trkpt lat="47.2152" lon="-1.55927">
        <ele>-17.8</ele>
        <time>2022-01-23T11:20:54Z</time>
      </trkpt>
      <trkpt lat="47.21513" lon="-1.55925">
        <ele>-17.6</ele>
        <time>2022-01-23T11:20:56Z</time>
      </trkpt>
      <trkpt lat="47.21497" lon="-1.55925">
        <ele>-16.8</ele>
        <time>2022-01-23T11:21:02Z</time>
      </trkpt>
      <trkpt lat="47.21497" lon="-1.55933">
        <ele>-16.8</ele>
        <time>2022-01-23T11:21:05Z</time>
      </trkpt>
      <trkpt lat="47.21506" lon="-1.55953">
        <ele>-17</ele>
        <time>2022-01-23T11:21:10Z</time>
      </trkpt>
      <trkpt lat="47.21507" lon="-1.55959">
        <ele>-17</ele>
        <time>2022-01-23T11:21:11Z</time>
      </trkpt>
      <trkpt lat="47.21506" lon="-1.55974">
        <ele>-16.4</ele>
        <time>2022-01-23T11:21:14Z</time>
      </trkpt>
      <trkpt lat="47.21468" lon="-1.55998">
        <ele>-15</ele>
        <time>2022-01-23T11:21:19Z</time>
      </trkpt>
      <trkpt lat="47.21454" lon="-1.56013">
        <ele>-14.6</ele>
        <time>2022-01-23T11:21:21Z</time>
      </trkpt>
      <trkpt lat="47.21447" lon="-1.56019">
        <ele>-14.6</ele>
        <time>2022-01-23T11:21:22Z</time>
      </trkpt>
      <trkpt lat="47.21442" lon="-1.56025">
        <ele>-14.4</ele>
        <time>2022-01-23T11:21:23Z</time>
      </trkpt>
      <trkpt lat="47.21439" lon="-1.56038">
        <ele>-14</ele>
        <time>2022-01-23T11:21:26Z</time>
      </trkpt>
      <trkpt lat="47.21435" lon="-1.5604">
        <ele>-13.8</ele>
        <time>2022-01-23T11:21:27Z</time>
      </trkpt>
      <trkpt lat="47.21417" lon="-1.56048">
        <ele>-13.8</ele>
        <time>2022-01-23T11:21:29Z</time>
      </trkpt>
      <trkpt lat="47.21414" lon="-1.56041">
        <ele>-13.8</ele>
        <time>2022-01-23T11:21:32Z</time>
      </trkpt>
      <trkpt lat="47.21409" lon="-1.56029">
        <ele>-13.2</ele>
        <time>2022-01-23T11:21:38Z</time>
      </trkpt>
      <trkpt lat="47.21406" lon="-1.56029">
        <ele>-13</ele>
        <time>2022-01-23T11:21:39Z</time>
      </trkpt>
      <trkpt lat="47.2138" lon="-1.56038">
        <ele>-12.2</ele>
        <time>2022-01-23T11:21:42Z</time>
      </trkpt>
      <trkpt lat="47.21372" lon="-1.5604">
        <ele>-11</ele>
        <time>2022-01-23T11:21:44Z</time>
      </trkpt>
      <trkpt lat="47.21368" lon="-1.5604">
        <ele>-10.4</ele>
        <time>2022-01-23T11:21:46Z</time>
      </trkpt>
      <trkpt lat="47.21356" lon="-1.56041">
        <ele>-9.4</ele>
        <time>2022-01-23T11:21:51Z</time>
      </trkpt>
      <trkpt lat="47.21341" lon="-1.5604">
        <ele>-8.2</ele>
        <time>2022-01-23T11:21:57Z</time>
      </trkpt>
      <trkpt lat="47.21335" lon="-1.56039">
        <ele>-7.4</ele>
        <time>2022-01-23T11:22:01Z</time>
      </trkpt>
      <trkpt lat="47.21336" lon="-1.5604">
        <ele>-7.2</ele>
        <time>2022-01-23T11:22:02Z</time>
      </trkpt>
      <trkpt lat="47.21338" lon="-1.56045">
        <ele>-6.8</ele>
        <time>2022-01-23T11:22:04Z</time>
      </trkpt>
      <trkpt lat="47.21341" lon="-1.56052">
        <ele>-6.6</ele>
        <time>2022-01-23T11:22:06Z</time>
      </trkpt>
      <trkpt lat="47.21332" lon="-1.56064">
        <ele>-6.2</ele>
        <time>2022-01-23T11:22:08Z</time>
      </trkpt>
      <trkpt lat="47.21315" lon="-1.56078">
        <ele>-5</ele>
        <time>2022-01-23T11:22:13Z</time>
      </trkpt>
      <trkpt lat="47.21296" lon="-1.56092">
        <ele>-4.6</ele>
        <time>2022-01-23T11:22:17Z</time>
      </trkpt>
      <trkpt lat="47.21288" lon="-1.56103">
        <ele>-4.2</ele>
        <time>2022-01-23T11:22:19Z</time>
      </trkpt>
      <trkpt lat="47.21287" lon="-1.56115">
        <ele>-4</ele>
        <time>2022-01-23T11:22:21Z</time>
      </trkpt>
      <trkpt lat="47.2129" lon="-1.56129">
        <ele>-3.6</ele>
        <time>2022-01-23T11:22:23Z</time>
      </trkpt>
      <trkpt lat="47.21293" lon="-1.56145">
        <ele>-3.2</ele>
        <time>2022-01-23T11:22:25Z</time>
      </trkpt>
      <trkpt lat="47.21294" lon="-1.56153">
        <ele>-3.2</ele>
        <time>2022-01-23T11:22:26Z</time>
      </trkpt>
      <trkpt lat="47.21298" lon="-1.56176">
        <ele>-2.6</ele>
        <time>2022-01-23T11:22:29Z</time>
      </trkpt>
      <trkpt lat="47.213" lon="-1.56183">
        <ele>-2.6</ele>
        <time>2022-01-23T11:22:30Z</time>
      </trkpt>
      <trkpt lat="47.21301" lon="-1.56191">
        <ele>-2.4</ele>
        <time>2022-01-23T11:22:31Z</time>
      </trkpt>
      <trkpt lat="47.2131" lon="-1.56222">
        <ele>-1.6</ele>
        <time>2022-01-23T11:22:35Z</time>
      </trkpt>
      <trkpt lat="47.21329" lon="-1.56263">
        <ele>-0.60000000000002</ele>
        <time>2022-01-23T11:22:41Z</time>
      </trkpt>
      <trkpt lat="47.21336" lon="-1.56275">
        <ele>-0.19999999999999</ele>
        <time>2022-01-23T11:22:43Z</time>
      </trkpt>
      <trkpt lat="47.21342" lon="-1.56295">
        <ele>-0.19999999999999</ele>
        <time>2022-01-23T11:22:46Z</time>
      </trkpt>
      <trkpt lat="47.21344" lon="-1.56301">
        <ele>0.39999999999998</ele>
        <time>2022-01-23T11:22:47Z</time>
      </trkpt>
      <trkpt lat="47.21348" lon="-1.56313">
        <ele>0.60000000000002</ele>
        <time>2022-01-23T11:22:49Z</time>
      </trkpt>
      <trkpt lat="47.2135" lon="-1.5632">
        <ele>0.80000000000001</ele>
        <time>2022-01-23T11:22:50Z</time>
      </trkpt>
      <trkpt lat="47.21355" lon="-1.56337">
        <ele>1.2</ele>
        <time>2022-01-23T11:22:53Z</time>
      </trkpt>
      <trkpt lat="47.21361" lon="-1.56359">
        <ele>1.6</ele>
        <time>2022-01-23T11:22:57Z</time>
      </trkpt>
      <trkpt lat="47.21368" lon="-1.56375">
        <ele>2</ele>
        <time>2022-01-23T11:23:00Z</time>
      </trkpt>
      <trkpt lat="47.21372" lon="-1.56391">
        <ele>2.4</ele>
        <time>2022-01-23T11:23:03Z</time>
      </trkpt>
      <trkpt lat="47.21373" lon="-1.56397">
        <ele>2.6</ele>
        <time>2022-01-23T11:23:04Z</time>
      </trkpt>
      <trkpt lat="47.21391" lon="-1.56412">
        <ele>3.6</ele>
        <time>2022-01-23T11:23:08Z</time>
      </trkpt>
      <trkpt lat="47.21405" lon="-1.5643">
        <ele>4.8</ele>
        <time>2022-01-23T11:23:13Z</time>
      </trkpt>
      <trkpt lat="47.21414" lon="-1.56457">
        <ele>5.8</ele>
        <time>2022-01-23T11:23:18Z</time>
      </trkpt>
      <trkpt lat="47.21416" lon="-1.56478">
        <ele>6</ele>
        <time>2022-01-23T11:23:21Z</time>
      </trkpt>
      <trkpt lat="47.21418" lon="-1.56492">
        <ele>6.4</ele>
        <time>2022-01-23T11:23:23Z</time>
      </trkpt>
      <trkpt lat="47.21422" lon="-1.56512">
        <ele>6.8</ele>
        <time>2022-01-23T11:23:26Z</time>
      </trkpt>
      <trkpt lat="47.21428" lon="-1.5653">
        <ele>7</ele>
        <time>2022-01-23T11:23:29Z</time>
      </trkpt>
      <trkpt lat="47.21432" lon="-1.56553">
        <ele>7.6</ele>
        <time>2022-01-23T11:23:34Z</time>
      </trkpt>
      <trkpt lat="47.21433" lon="-1.56557">
        <ele>7.8</ele>
        <time>2022-01-23T11:23:35Z</time>
      </trkpt>
      <trkpt lat="47.21445" lon="-1.56563">
        <ele>8.8</ele>
        <time>2022-01-23T11:23:37Z</time>
      </trkpt>
      <trkpt lat="47.21451" lon="-1.56572">
        <ele>9</ele>
        <time>2022-01-23T11:23:39Z</time>
      </trkpt>
      <trkpt lat="47.21454" lon="-1.56583">
        <ele>9.4</ele>
        <time>2022-01-23T11:23:41Z</time>
      </trkpt>
      <trkpt lat="47.21457" lon="-1.56592">
        <ele>9.8</ele>
        <time>2022-01-23T11:23:43Z</time>
      </trkpt>
      <trkpt lat="47.21457" lon="-1.56597">
        <ele>9.8</ele>
        <time>2022-01-23T11:23:44Z</time>
      </trkpt>
      <trkpt lat="47.21456" lon="-1.56615">
        <ele>10.4</ele>
        <time>2022-01-23T11:23:47Z</time>
      </trkpt>
      <trkpt lat="47.21464" lon="-1.56636">
        <ele>11.4</ele>
        <time>2022-01-23T11:23:51Z</time>
      </trkpt>
      <trkpt lat="47.21464" lon="-1.56642">
        <ele>11.4</ele>
        <time>2022-01-23T11:23:52Z</time>
      </trkpt>
      <trkpt lat="47.21463" lon="-1.56663">
        <ele>12</ele>
        <time>2022-01-23T11:23:55Z</time>
      </trkpt>
      <trkpt lat="47.21463" lon="-1.56677">
        <ele>12.2</ele>
        <time>2022-01-23T11:23:57Z</time>
      </trkpt>
      <trkpt lat="47.21467" lon="-1.56695">
        <ele>12.6</ele>
        <time>2022-01-23T11:24:00Z</time>
      </trkpt>
      <trkpt lat="47.21469" lon="-1.56708">
        <ele>12.8</ele>
        <time>2022-01-23T11:24:02Z</time>
      </trkpt>
      <trkpt lat="47.21465" lon="-1.56739">
        <ele>13.4</ele>
        <time>2022-01-23T11:24:06Z</time>
      </trkpt>
      <trkpt lat="47.21464" lon="-1.56748">
        <ele>13.6</ele>
        <time>2022-01-23T11:24:07Z</time>
      </trkpt>
      <trkpt lat="47.21458" lon="-1.56797">
        <ele>14</ele>
        <time>2022-01-23T11:24:12Z</time>
      </trkpt>
      <trkpt lat="47.21447" lon="-1.56867">
        <ele>14.4</ele>
        <time>2022-01-23T11:24:18Z</time>
      </trkpt>
      <trkpt lat="47.21443" lon="-1.56957">
        <ele>14.6</ele>
        <time>2022-01-23T11:24:25Z</time>
      </trkpt>
      <trkpt lat="47.21441" lon="-1.57012">
        <ele>14.6</ele>
        <time>2022-01-23T11:24:29Z</time>
      </trkpt>
      <trkpt lat="47.21438" lon="-1.57041">
        <ele>14.6</ele>
        <time>2022-01-23T11:24:31Z</time>
      </trkpt>
      <trkpt lat="47.21437" lon="-1.57055">
        <ele>14.6</ele>
        <time>2022-01-23T11:24:32Z</time>
      </trkpt>
      <trkpt lat="47.2144" lon="-1.57097">
        <ele>14.4</ele>
        <time>2022-01-23T11:24:35Z</time>
      </trkpt>
      <trkpt lat="47.21447" lon="-1.57179">
        <ele>14</ele>
        <time>2022-01-23T11:24:41Z</time>
      </trkpt>
      <trkpt lat="47.21449" lon="-1.57228">
        <ele>14</ele>
        <time>2022-01-23T11:24:45Z</time>
      </trkpt>
      <trkpt lat="47.21452" lon="-1.57271">
        <ele>13.6</ele>
        <time>2022-01-23T11:24:49Z</time>
      </trkpt>
      <trkpt lat="47.21455" lon="-1.57279">
        <ele>13.4</ele>
        <time>2022-01-23T11:24:51Z</time>
      </trkpt>
      <trkpt lat="47.21463" lon="-1.57274">
        <ele>13.2</ele>
        <time>2022-01-23T11:24:52Z</time>
      </trkpt>
      <trkpt lat="47.21485" lon="-1.57249">
        <ele>12</ele>
        <time>2022-01-23T11:24:56Z</time>
      </trkpt>
      <trkpt lat="47.21496" lon="-1.5724">
        <ele>11.6</ele>
        <time>2022-01-23T11:24:58Z</time>
      </trkpt>
      <trkpt lat="47.21505" lon="-1.57231">
        <ele>11</ele>
        <time>2022-01-23T11:25:00Z</time>
      </trkpt>
      <trkpt lat="47.21515" lon="-1.57227">
        <ele>10.6</ele>
        <time>2022-01-23T11:25:02Z</time>
      </trkpt>
      <trkpt lat="47.21518" lon="-1.5723">
        <ele>10.4</ele>
        <time>2022-01-23T11:25:03Z</time>
      </trkpt>
      <trkpt lat="47.21521" lon="-1.57234">
        <ele>10.4</ele>
        <time>2022-01-23T11:25:04Z</time>
      </trkpt>
      <trkpt lat="47.21533" lon="-1.57248">
        <ele>10</ele>
        <time>2022-01-23T11:25:07Z</time>
      </trkpt>
      <trkpt lat="47.21563" lon="-1.57283">
        <ele>9</ele>
        <time>2022-01-23T11:25:13Z</time>
      </trkpt>
      <trkpt lat="47.21582" lon="-1.57308">
        <ele>8.4</ele>
        <time>2022-01-23T11:25:17Z</time>
      </trkpt>
      <trkpt lat="47.21592" lon="-1.57319">
        <ele>8.2</ele>
        <time>2022-01-23T11:25:19Z</time>
      </trkpt>
      <trkpt lat="47.21619" lon="-1.57358">
        <ele>7.6</ele>
        <time>2022-01-23T11:25:25Z</time>
      </trkpt>
      <trkpt lat="47.21635" lon="-1.57385">
        <ele>6.8</ele>
        <time>2022-01-23T11:25:29Z</time>
      </trkpt>
      <trkpt lat="47.21642" lon="-1.57395">
        <ele>6.4</ele>
        <time>2022-01-23T11:25:31Z</time>
      </trkpt>
      <trkpt lat="47.21646" lon="-1.57405">
        <ele>6.2</ele>
        <time>2022-01-23T11:25:34Z</time>
      </trkpt>
      <trkpt lat="47.21645" lon="-1.57404">
        <ele>6</ele>
        <time>2022-01-23T11:25:35Z</time>
      </trkpt>
      <trkpt lat="47.21642" lon="-1.57399">
        <ele>5.8</ele>
        <time>2022-01-23T11:25:37Z</time>
      </trkpt>
      <trkpt lat="47.21637" lon="-1.57391">
        <ele>5.6</ele>
        <time>2022-01-23T11:25:39Z</time>
      </trkpt>
      <trkpt lat="47.21632" lon="-1.57381">
        <ele>5.4</ele>
        <time>2022-01-23T11:25:41Z</time>
      </trkpt>
      <trkpt lat="47.21629" lon="-1.57373">
        <ele>5.2</ele>
        <time>2022-01-23T11:25:42Z</time>
      </trkpt>
      <trkpt lat="47.2162" lon="-1.5736">
        <ele>4.8</ele>
        <time>2022-01-23T11:25:44Z</time>
      </trkpt>
      <trkpt lat="47.21603" lon="-1.57338">
        <ele>3.6</ele>
        <time>2022-01-23T11:25:48Z</time>
      </trkpt>
      <trkpt lat="47.216" lon="-1.57333">
        <ele>3.8</ele>
        <time>2022-01-23T11:25:49Z</time>
      </trkpt>
      <trkpt lat="47.21596" lon="-1.57324">
        <ele>4</ele>
        <time>2022-01-23T11:25:51Z</time>
      </trkpt>
      <trkpt lat="47.21588" lon="-1.57329">
        <ele>4.2</ele>
        <time>2022-01-23T11:25:54Z</time>
      </trkpt>
      <trkpt lat="47.21586" lon="-1.57333">
        <ele>4.2</ele>
        <time>2022-01-23T11:25:55Z</time>
      </trkpt>
      <trkpt lat="47.21575" lon="-1.57344">
        <ele>4</ele>
        <time>2022-01-23T11:25:58Z</time>
      </trkpt>
      <trkpt lat="47.21573" lon="-1.57349">
        <ele>4</ele>
        <time>2022-01-23T11:25:59Z</time>
      </trkpt>
      <trkpt lat="47.21573" lon="-1.57356">
        <ele>3.8</ele>
        <time>2022-01-23T11:26:00Z</time>
      </trkpt>
      <trkpt lat="47.21577" lon="-1.57367">
        <ele>3.4</ele>
        <time>2022-01-23T11:26:02Z</time>
      </trkpt>
      <trkpt lat="47.21581" lon="-1.57373">
        <ele>3.2</ele>
        <time>2022-01-23T11:26:03Z</time>
      </trkpt>
      <trkpt lat="47.21589" lon="-1.57383">
        <ele>2.8</ele>
        <time>2022-01-23T11:26:05Z</time>
      </trkpt>
      <trkpt lat="47.21593" lon="-1.57388">
        <ele>2.4</ele>
        <time>2022-01-23T11:26:06Z</time>
      </trkpt>
      <trkpt lat="47.21597" lon="-1.57394">
        <ele>2.2</ele>
        <time>2022-01-23T11:26:07Z</time>
      </trkpt>
      <trkpt lat="47.21602" lon="-1.57406">
        <ele>1.8</ele>
        <time>2022-01-23T11:26:09Z</time>
      </trkpt>
      <trkpt lat="47.21605" lon="-1.57412">
        <ele>1.6</ele>
        <time>2022-01-23T11:26:10Z</time>
      </trkpt>
      <trkpt lat="47.21614" lon="-1.57422">
        <ele>0.80000000000001</ele>
        <time>2022-01-23T11:26:13Z</time>
      </trkpt>
      <trkpt lat="47.21625" lon="-1.5743">
        <ele>0.80000000000001</ele>
        <time>2022-01-23T11:26:16Z</time>
      </trkpt>
      <trkpt lat="47.2163" lon="-1.57429">
        <ele>-0.39999999999998</ele>
        <time>2022-01-23T11:26:17Z</time>
      </trkpt>
      <trkpt lat="47.21645" lon="-1.57427">
        <ele>-1.6</ele>
        <time>2022-01-23T11:26:21Z</time>
      </trkpt>
      <trkpt lat="47.21652" lon="-1.57424">
        <ele>-2.4</ele>
        <time>2022-01-23T11:26:23Z</time>
      </trkpt>
      <trkpt lat="47.21657" lon="-1.5742">
        <ele>-2.6</ele>
        <time>2022-01-23T11:26:24Z</time>
      </trkpt>
      <trkpt lat="47.21661" lon="-1.57413">
        <ele>-3</ele>
        <time>2022-01-23T11:26:25Z</time>
      </trkpt>
      <trkpt lat="47.21665" lon="-1.57401">
        <ele>-3.8</ele>
        <time>2022-01-23T11:26:27Z</time>
      </trkpt>
      <trkpt lat="47.21672" lon="-1.57392">
        <ele>-4.2</ele>
        <time>2022-01-23T11:26:29Z</time>
      </trkpt>
      <trkpt lat="47.21677" lon="-1.57379">
        <ele>-5</ele>
        <time>2022-01-23T11:26:31Z</time>
      </trkpt>
      <trkpt lat="47.21683" lon="-1.57368">
        <ele>-5.8</ele>
        <time>2022-01-23T11:26:33Z</time>
      </trkpt>
      <trkpt lat="47.21687" lon="-1.5736">
        <ele>-6.6</ele>
        <time>2022-01-23T11:26:35Z</time>
      </trkpt>
      <trkpt lat="47.21691" lon="-1.57357">
        <ele>-7.2</ele>
        <time>2022-01-23T11:26:36Z</time>
      </trkpt>
      <trkpt lat="47.21719" lon="-1.5735">
        <ele>-11.2</ele>
        <time>2022-01-23T11:26:41Z</time>
      </trkpt>
      <trkpt lat="47.21732" lon="-1.57349">
        <ele>-12</ele>
        <time>2022-01-23T11:26:43Z</time>
      </trkpt>
      <trkpt lat="47.2174" lon="-1.57349">
        <ele>-12.2</ele>
        <time>2022-01-23T11:26:44Z</time>
      </trkpt>
      <trkpt lat="47.21747" lon="-1.57349">
        <ele>-12.6</ele>
        <time>2022-01-23T11:26:45Z</time>
      </trkpt>
      <trkpt lat="47.21761" lon="-1.5735">
        <ele>-13</ele>
        <time>2022-01-23T11:26:47Z</time>
      </trkpt>
      <trkpt lat="47.21778" lon="-1.57364">
        <ele>-13.8</ele>
        <time>2022-01-23T11:26:50Z</time>
      </trkpt>
      <trkpt lat="47.21787" lon="-1.57371">
        <ele>-14.2</ele>
        <time>2022-01-23T11:26:52Z</time>
      </trkpt>
      <trkpt lat="47.21793" lon="-1.57382">
        <ele>-14.6</ele>
        <time>2022-01-23T11:26:54Z</time>
      </trkpt>
      <trkpt lat="47.21799" lon="-1.5739">
        <ele>-15</ele>
        <time>2022-01-23T11:26:56Z</time>
      </trkpt>
      <trkpt lat="47.21803" lon="-1.57395">
        <ele>-15.4</ele>
        <time>2022-01-23T11:26:57Z</time>
      </trkpt>
      <trkpt lat="47.21819" lon="-1.57414">
        <ele>-16</ele>
        <time>2022-01-23T11:27:00Z</time>
      </trkpt>
      <trkpt lat="47.21824" lon="-1.5742">
        <ele>-16.4</ele>
        <time>2022-01-23T11:27:01Z</time>
      </trkpt>
      <trkpt lat="47.21835" lon="-1.57429">
        <ele>-16.8</ele>
        <time>2022-01-23T11:27:03Z</time>
      </trkpt>
      <trkpt lat="47.2184" lon="-1.57435">
        <ele>-17</ele>
        <time>2022-01-23T11:27:04Z</time>
      </trkpt>
      <trkpt lat="47.21844" lon="-1.57441">
        <ele>-17.2</ele>
        <time>2022-01-23T11:27:05Z</time>
      </trkpt>
      <trkpt lat="47.21851" lon="-1.57451">
        <ele>-17.6</ele>
        <time>2022-01-23T11:27:07Z</time>
      </trkpt>
      <trkpt lat="47.21854" lon="-1.57456">
        <ele>-18</ele>
        <time>2022-01-23T11:27:09Z</time>
      </trkpt>
      <trkpt lat="47.21857" lon="-1.57457">
        <ele>-18.2</ele>
        <time>2022-01-23T11:27:10Z</time>
      </trkpt>
      <trkpt lat="47.21861" lon="-1.57457">
        <ele>-18.6</ele>
        <time>2022-01-23T11:27:11Z</time>
      </trkpt>
      <trkpt lat="47.21872" lon="-1.57468">
        <ele>-19</ele>
        <time>2022-01-23T11:27:13Z</time>
      </trkpt>
      <trkpt lat="47.21887" lon="-1.57487">
        <ele>-19.2</ele>
        <time>2022-01-23T11:27:17Z</time>
      </trkpt>
      <trkpt lat="47.21899" lon="-1.57509">
        <ele>-18.6</ele>
        <time>2022-01-23T11:27:21Z</time>
      </trkpt>
      <trkpt lat="47.21907" lon="-1.57524">
        <ele>-18.6</ele>
        <time>2022-01-23T11:27:23Z</time>
      </trkpt>
      <trkpt lat="47.21915" lon="-1.57546">
        <ele>-18.4</ele>
        <time>2022-01-23T11:27:26Z</time>
      </trkpt>
      <trkpt lat="47.21917" lon="-1.57551">
        <ele>-18.4</ele>
        <time>2022-01-23T11:27:27Z</time>
      </trkpt>
      <trkpt lat="47.21921" lon="-1.57572">
        <ele>-18.6</ele>
        <time>2022-01-23T11:27:30Z</time>
      </trkpt>
      <trkpt lat="47.21926" lon="-1.57585">
        <ele>-20</ele>
        <time>2022-01-23T11:27:32Z</time>
      </trkpt>
      <trkpt lat="47.21929" lon="-1.57591">
        <ele>-20</ele>
        <time>2022-01-23T11:27:33Z</time>
      </trkpt>
      <trkpt lat="47.21927" lon="-1.57603">
        <ele>-19</ele>
        <time>2022-01-23T11:27:34Z</time>
      </trkpt>
      <trkpt lat="47.21933" lon="-1.57609">
        <ele>-19.4</ele>
        <time>2022-01-23T11:27:36Z</time>
      </trkpt>
      <trkpt lat="47.21946" lon="-1.57623">
        <ele>-19.2</ele>
        <time>2022-01-23T11:27:39Z</time>
      </trkpt>
      <trkpt lat="47.2195" lon="-1.57628">
        <ele>-19.2</ele>
        <time>2022-01-23T11:27:40Z</time>
      </trkpt>
      <trkpt lat="47.21951" lon="-1.57634">
        <ele>-19.6</ele>
        <time>2022-01-23T11:27:41Z</time>
      </trkpt>
      <trkpt lat="47.21956" lon="-1.57646">
        <ele>-19.6</ele>
        <time>2022-01-23T11:27:43Z</time>
      </trkpt>
      <trkpt lat="47.21957" lon="-1.57654">
        <ele>-19.8</ele>
        <time>2022-01-23T11:27:44Z</time>
      </trkpt>
      <trkpt lat="47.21957" lon="-1.57661">
        <ele>-19.8</ele>
        <time>2022-01-23T11:27:45Z</time>
      </trkpt>
      <trkpt lat="47.21958" lon="-1.57667">
        <ele>-20</ele>
        <time>2022-01-23T11:27:46Z</time>
      </trkpt>
      <trkpt lat="47.21961" lon="-1.5768">
        <ele>-20.2</ele>
        <time>2022-01-23T11:27:48Z</time>
      </trkpt>
      <trkpt lat="47.21966" lon="-1.57701">
        <ele>-20.4</ele>
        <time>2022-01-23T11:27:52Z</time>
      </trkpt>
      <trkpt lat="47.21971" lon="-1.57707">
        <ele>-20</ele>
        <time>2022-01-23T11:27:55Z</time>
      </trkpt>
      <trkpt lat="47.21974" lon="-1.57711">
        <ele>-20.8</ele>
        <time>2022-01-23T11:27:59Z</time>
      </trkpt>
      <trkpt lat="47.21976" lon="-1.57713">
        <ele>-20</ele>
        <time>2022-01-23T11:28:00Z</time>
      </trkpt>
      <trkpt lat="47.21979" lon="-1.57715">
        <ele>-19.4</ele>
        <time>2022-01-23T11:28:01Z</time>
      </trkpt>
      <trkpt lat="47.2199" lon="-1.57725">
        <ele>-18.6</ele>
        <time>2022-01-23T11:28:04Z</time>
      </trkpt>
      <trkpt lat="47.21994" lon="-1.5773">
        <ele>-19.4</ele>
        <time>2022-01-23T11:28:05Z</time>
      </trkpt>
      <trkpt lat="47.21999" lon="-1.57734">
        <ele>-19.4</ele>
        <time>2022-01-23T11:28:06Z</time>
      </trkpt>
      <trkpt lat="47.22015" lon="-1.57749">
        <ele>-19.6</ele>
        <time>2022-01-23T11:28:09Z</time>
      </trkpt>
      <trkpt lat="47.22032" lon="-1.57766">
        <ele>-19.4</ele>
        <time>2022-01-23T11:28:12Z</time>
      </trkpt>
      <trkpt lat="47.2204" lon="-1.57779">
        <ele>-19.4</ele>
        <time>2022-01-23T11:28:14Z</time>
      </trkpt>
      <trkpt lat="47.22045" lon="-1.57785">
        <ele>-19.4</ele>
        <time>2022-01-23T11:28:15Z</time>
      </trkpt>
      <trkpt lat="47.22057" lon="-1.57795">
        <ele>-19.2</ele>
        <time>2022-01-23T11:28:17Z</time>
      </trkpt>
      <trkpt lat="47.22084" lon="-1.57815">
        <ele>-19</ele>
        <time>2022-01-23T11:28:22Z</time>
      </trkpt>
      <trkpt lat="47.22098" lon="-1.57829">
        <ele>-18.6</ele>
        <time>2022-01-23T11:28:26Z</time>
      </trkpt>
      <trkpt lat="47.22101" lon="-1.57833">
        <ele>-18.6</ele>
        <time>2022-01-23T11:28:27Z</time>
      </trkpt>
      <trkpt lat="47.22116" lon="-1.57846">
        <ele>-18.2</ele>
        <time>2022-01-23T11:28:32Z</time>
      </trkpt>
      <trkpt lat="47.22131" lon="-1.57857">
        <ele>-17.4</ele>
        <time>2022-01-23T11:28:37Z</time>
      </trkpt>
      <trkpt lat="47.22144" lon="-1.57861">
        <ele>-17.2</ele>
        <time>2022-01-23T11:28:40Z</time>
      </trkpt>
      <trkpt lat="47.22148" lon="-1.57863">
        <ele>-17.2</ele>
        <time>2022-01-23T11:28:41Z</time>
      </trkpt>
      <trkpt lat="47.22155" lon="-1.57867">
        <ele>-17</ele>
        <time>2022-01-23T11:28:43Z</time>
      </trkpt>
      <trkpt lat="47.2216" lon="-1.57874">
        <ele>-16.8</ele>
        <time>2022-01-23T11:28:45Z</time>
      </trkpt>
      <trkpt lat="47.22171" lon="-1.57889">
        <ele>-16.4</ele>
        <time>2022-01-23T11:28:49Z</time>
      </trkpt>
      <trkpt lat="47.22175" lon="-1.57895">
        <ele>-16.4</ele>
        <time>2022-01-23T11:28:51Z</time>
      </trkpt>
      <trkpt lat="47.22181" lon="-1.57898">
        <ele>-16.2</ele>
        <time>2022-01-23T11:28:53Z</time>
      </trkpt>
      <trkpt lat="47.22187" lon="-1.57897">
        <ele>-15.4</ele>
        <time>2022-01-23T11:28:55Z</time>
      </trkpt>
      <trkpt lat="47.2219" lon="-1.57893">
        <ele>-14.8</ele>
        <time>2022-01-23T11:28:57Z</time>
      </trkpt>
      <trkpt lat="47.22198" lon="-1.57886">
        <ele>-14.6</ele>
        <time>2022-01-23T11:29:02Z</time>
      </trkpt>
      <trkpt lat="47.222" lon="-1.57885">
        <ele>-14.8</ele>
        <time>2022-01-23T11:29:03Z</time>
      </trkpt>
      <trkpt lat="47.22202" lon="-1.57891">
        <ele>-15</ele>
        <time>2022-01-23T11:29:05Z</time>
      </trkpt>
      <trkpt lat="47.2221" lon="-1.57916">
        <ele>-15.4</ele>
        <time>2022-01-23T11:29:09Z</time>
      </trkpt>
      <trkpt lat="47.22228" lon="-1.57953">
        <ele>-14.6</ele>
        <time>2022-01-23T11:29:13Z</time>
      </trkpt>
      <trkpt lat="47.22247" lon="-1.58004">
        <ele>-13.4</ele>
        <time>2022-01-23T11:29:18Z</time>
      </trkpt>
      <trkpt lat="47.22253" lon="-1.58026">
        <ele>-12.8</ele>
        <time>2022-01-23T11:29:20Z</time>
      </trkpt>
      <trkpt lat="47.22259" lon="-1.58058">
        <ele>-12</ele>
        <time>2022-01-23T11:29:23Z</time>
      </trkpt>
      <trkpt lat="47.22263" lon="-1.5811">
        <ele>-11.4</ele>
        <time>2022-01-23T11:29:28Z</time>
      </trkpt>
      <trkpt lat="47.22264" lon="-1.58161">
        <ele>-10.6</ele>
        <time>2022-01-23T11:29:33Z</time>
      </trkpt>
      <trkpt lat="47.22259" lon="-1.58227">
        <ele>-9.4</ele>
        <time>2022-01-23T11:29:40Z</time>
      </trkpt>
      <trkpt lat="47.22254" lon="-1.58256">
        <ele>-8.8</ele>
        <time>2022-01-23T11:29:43Z</time>
      </trkpt>
      <trkpt lat="47.22253" lon="-1.58285">
        <ele>-8.2</ele>
        <time>2022-01-23T11:29:46Z</time>
      </trkpt>
      <trkpt lat="47.22252" lon="-1.58305">
        <ele>-7.8</ele>
        <time>2022-01-23T11:29:48Z</time>
      </trkpt>
      <trkpt lat="47.22251" lon="-1.58325">
        <ele>-7.4</ele>
        <time>2022-01-23T11:29:50Z</time>
      </trkpt>
      <trkpt lat="47.22245" lon="-1.58363">
        <ele>-6.6</ele>
        <time>2022-01-23T11:29:54Z</time>
      </trkpt>
      <trkpt lat="47.2224" lon="-1.58403">
        <ele>-5.6</ele>
        <time>2022-01-23T11:29:59Z</time>
      </trkpt>
      <trkpt lat="47.22237" lon="-1.58411">
        <ele>-5.4</ele>
        <time>2022-01-23T11:30:00Z</time>
      </trkpt>
      <trkpt lat="47.22235" lon="-1.58418">
        <ele>-5.2</ele>
        <time>2022-01-23T11:30:01Z</time>
      </trkpt>
      <trkpt lat="47.22235" lon="-1.58431">
        <ele>-4.6</ele>
        <time>2022-01-23T11:30:03Z</time>
      </trkpt>
      <trkpt lat="47.22233" lon="-1.58438">
        <ele>-4.2</ele>
        <time>2022-01-23T11:30:04Z</time>
      </trkpt>
      <trkpt lat="47.22232" lon="-1.58452">
        <ele>-3.6</ele>
        <time>2022-01-23T11:30:06Z</time>
      </trkpt>
      <trkpt lat="47.2223" lon="-1.58459">
        <ele>-3.4</ele>
        <time>2022-01-23T11:30:07Z</time>
      </trkpt>
      <trkpt lat="47.22238" lon="-1.58494">
        <ele>-1.6</ele>
        <time>2022-01-23T11:30:13Z</time>
      </trkpt>
      <trkpt lat="47.22246" lon="-1.58514">
        <ele>-0.60000000000002</ele>
        <time>2022-01-23T11:30:17Z</time>
      </trkpt>
      <trkpt lat="47.22249" lon="-1.58517">
        <ele>-0.39999999999998</ele>
        <time>2022-01-23T11:30:18Z</time>
      </trkpt>
      <trkpt lat="47.22254" lon="-1.58518">
        <ele>-0.19999999999999</ele>
        <time>2022-01-23T11:30:19Z</time>
      </trkpt>
      <trkpt lat="47.22264" lon="-1.58515">
        <ele>0.19999999999999</ele>
        <time>2022-01-23T11:30:22Z</time>
      </trkpt>
      <trkpt lat="47.22272" lon="-1.58511">
        <ele>0.39999999999998</ele>
        <time>2022-01-23T11:30:24Z</time>
      </trkpt>
      <trkpt lat="47.22279" lon="-1.58507">
        <ele>0.60000000000002</ele>
        <time>2022-01-23T11:30:25Z</time>
      </trkpt>
      <trkpt lat="47.22289" lon="-1.58502">
        <ele>0.60000000000002</ele>
        <time>2022-01-23T11:30:27Z</time>
      </trkpt>
      <trkpt lat="47.22297" lon="-1.58499">
        <ele>0.39999999999998</ele>
        <time>2022-01-23T11:30:30Z</time>
      </trkpt>
      <trkpt lat="47.22312" lon="-1.58489">
        <ele>-0.19999999999999</ele>
        <time>2022-01-23T11:30:35Z</time>
      </trkpt>
      <trkpt lat="47.22339" lon="-1.58472">
        <ele>-1.4</ele>
        <time>2022-01-23T11:30:41Z</time>
      </trkpt>
      <trkpt lat="47.22344" lon="-1.58468">
        <ele>-1.8</ele>
        <time>2022-01-23T11:30:42Z</time>
      </trkpt>
      <trkpt lat="47.22358" lon="-1.58459">
        <ele>-1.6</ele>
        <time>2022-01-23T11:30:46Z</time>
      </trkpt>
      <trkpt lat="47.22362" lon="-1.58454">
        <ele>-2</ele>
        <time>2022-01-23T11:30:48Z</time>
      </trkpt>
      <trkpt lat="47.2236" lon="-1.58453">
        <ele>-2.4</ele>
        <time>2022-01-23T11:30:49Z</time>
      </trkpt>
      <trkpt lat="47.22358" lon="-1.58455">
        <ele>-2.6</ele>
        <time>2022-01-23T11:30:51Z</time>
      </trkpt>
      <trkpt lat="47.22358" lon="-1.58457">
        <ele>-3</ele>
        <time>2022-01-23T11:30:52Z</time>
      </trkpt>
      <trkpt lat="47.22362" lon="-1.58462">
        <ele>-5.4</ele>
        <time>2022-01-23T11:31:14Z</time>
      </trkpt>
      <trkpt lat="47.22366" lon="-1.58464">
        <ele>-5.6</ele>
        <time>2022-01-23T11:31:16Z</time>
      </trkpt>
      <trkpt lat="47.22367" lon="-1.58468">
        <ele>-5.8</ele>
        <time>2022-01-23T11:31:19Z</time>
      </trkpt>
      <trkpt lat="47.22383" lon="-1.58474">
        <ele>-5.2</ele>
        <time>2022-01-23T11:31:29Z</time>
      </trkpt>
      <trkpt lat="47.22385" lon="-1.58478">
        <ele>-6.4</ele>
        <time>2022-01-23T11:31:31Z</time>
      </trkpt>
      <trkpt lat="47.22385" lon="-1.58478">
        <ele>-6.4</ele>
        <time>2022-01-23T11:31:32Z</time>
      </trkpt>
      <trkpt lat="47.22376" lon="-1.58475">
        <ele>-4.6</ele>
        <time>2022-01-23T11:31:38Z</time>
      </trkpt>
      <trkpt lat="47.22375" lon="-1.58474">
        <ele>-4.6</ele>
        <time>2022-01-23T11:31:39Z</time>
      </trkpt>
      <trkpt lat="47.22374" lon="-1.58474">
        <ele>-4.6</ele>
        <time>2022-01-23T11:31:41Z</time>
      </trkpt>
      <trkpt lat="47.22378" lon="-1.58475">
        <ele>-5.6</ele>
        <time>2022-01-23T11:31:46Z</time>
      </trkpt>
      <trkpt lat="47.22379" lon="-1.58482">
        <ele>-6.4</ele>
        <time>2022-01-23T11:31:50Z</time>
      </trkpt>
      <trkpt lat="47.22384" lon="-1.58486">
        <ele>-6.6</ele>
        <time>2022-01-23T11:31:53Z</time>
      </trkpt>
      <trkpt lat="47.22388" lon="-1.58488">
        <ele>-6.6</ele>
        <time>2022-01-23T11:31:54Z</time>
      </trkpt>
      <trkpt lat="47.2239" lon="-1.58491">
        <ele>-6.8</ele>
        <time>2022-01-23T11:31:55Z</time>
      </trkpt>
      <trkpt lat="47.22393" lon="-1.58497">
        <ele>-7.2</ele>
        <time>2022-01-23T11:31:57Z</time>
      </trkpt>
      <trkpt lat="47.224" lon="-1.58513">
        <ele>-8</ele>
        <time>2022-01-23T11:32:01Z</time>
      </trkpt>
      <trkpt lat="47.22408" lon="-1.58518">
        <ele>-8.4</ele>
        <time>2022-01-23T11:32:03Z</time>
      </trkpt>
      <trkpt lat="47.22416" lon="-1.58526">
        <ele>-8.8</ele>
        <time>2022-01-23T11:32:05Z</time>
      </trkpt>
      <trkpt lat="47.22426" lon="-1.58544">
        <ele>-10</ele>
        <time>2022-01-23T11:32:09Z</time>
      </trkpt>
      <trkpt lat="47.22428" lon="-1.58548">
        <ele>-10.4</ele>
        <time>2022-01-23T11:32:10Z</time>
      </trkpt>
      <trkpt lat="47.22438" lon="-1.58557">
        <ele>-11.4</ele>
        <time>2022-01-23T11:32:13Z</time>
      </trkpt>
      <trkpt lat="47.22443" lon="-1.58564">
        <ele>-12.2</ele>
        <time>2022-01-23T11:32:15Z</time>
      </trkpt>
      <trkpt lat="47.2245" lon="-1.58577">
        <ele>-13.4</ele>
        <time>2022-01-23T11:32:18Z</time>
      </trkpt>
      <trkpt lat="47.22463" lon="-1.58591">
        <ele>-14.6</ele>
        <time>2022-01-23T11:32:21Z</time>
      </trkpt>
      <trkpt lat="47.22468" lon="-1.58594">
        <ele>-15</ele>
        <time>2022-01-23T11:32:22Z</time>
      </trkpt>
      <trkpt lat="47.22479" lon="-1.58599">
        <ele>-15.6</ele>
        <time>2022-01-23T11:32:24Z</time>
      </trkpt>
      <trkpt lat="47.22497" lon="-1.58605">
        <ele>-16.6</ele>
        <time>2022-01-23T11:32:27Z</time>
      </trkpt>
      <trkpt lat="47.22512" lon="-1.58618">
        <ele>-18</ele>
        <time>2022-01-23T11:32:31Z</time>
      </trkpt>
      <trkpt lat="47.22521" lon="-1.58625">
        <ele>-18.6</ele>
        <time>2022-01-23T11:32:33Z</time>
      </trkpt>
      <trkpt lat="47.22532" lon="-1.58632">
        <ele>-19.4</ele>
        <time>2022-01-23T11:32:35Z</time>
      </trkpt>
      <trkpt lat="47.22565" lon="-1.58656">
        <ele>-20.2</ele>
        <time>2022-01-23T11:32:40Z</time>
      </trkpt>
      <trkpt lat="47.22577" lon="-1.58665">
        <ele>-20.6</ele>
        <time>2022-01-23T11:32:42Z</time>
      </trkpt>
      <trkpt lat="47.22591" lon="-1.58676">
        <ele>-20.2</ele>
        <time>2022-01-23T11:32:44Z</time>
      </trkpt>
      <trkpt lat="47.22598" lon="-1.58695">
        <ele>-20.4</ele>
        <time>2022-01-23T11:32:47Z</time>
      </trkpt>
      <trkpt lat="47.226" lon="-1.58716">
        <ele>-21.2</ele>
        <time>2022-01-23T11:32:51Z</time>
      </trkpt>
      <trkpt lat="47.226" lon="-1.58729">
        <ele>-21</ele>
        <time>2022-01-23T11:32:53Z</time>
      </trkpt>
      <trkpt lat="47.22595" lon="-1.58741">
        <ele>-20.2</ele>
        <time>2022-01-23T11:32:54Z</time>
      </trkpt>
      <trkpt lat="47.22585" lon="-1.58754">
        <ele>-20</ele>
        <time>2022-01-23T11:32:56Z</time>
      </trkpt>
      <trkpt lat="47.2257" lon="-1.58769">
        <ele>-16.6</ele>
        <time>2022-01-23T11:32:58Z</time>
      </trkpt>
      <trkpt lat="47.22562" lon="-1.58775">
        <ele>-18.2</ele>
        <time>2022-01-23T11:32:59Z</time>
      </trkpt>
      <trkpt lat="47.22535" lon="-1.58782">
        <ele>-17.6</ele>
        <time>2022-01-23T11:33:03Z</time>
      </trkpt>
      <trkpt lat="47.22525" lon="-1.5879">
        <ele>-17.2</ele>
        <time>2022-01-23T11:33:05Z</time>
      </trkpt>
      <trkpt lat="47.22523" lon="-1.58796">
        <ele>-17</ele>
        <time>2022-01-23T11:33:06Z</time>
      </trkpt>
      <trkpt lat="47.22521" lon="-1.58802">
        <ele>-17</ele>
        <time>2022-01-23T11:33:07Z</time>
      </trkpt>
      <trkpt lat="47.22517" lon="-1.58821">
        <ele>-16.6</ele>
        <time>2022-01-23T11:33:09Z</time>
      </trkpt>
      <trkpt lat="47.22515" lon="-1.58832">
        <ele>-16.6</ele>
        <time>2022-01-23T11:33:10Z</time>
      </trkpt>
      <trkpt lat="47.22517" lon="-1.58851">
        <ele>-16.4</ele>
        <time>2022-01-23T11:33:12Z</time>
      </trkpt>
      <trkpt lat="47.22521" lon="-1.58869">
        <ele>-16.2</ele>
        <time>2022-01-23T11:33:14Z</time>
      </trkpt>
      <trkpt lat="47.22525" lon="-1.58887">
        <ele>-15.8</ele>
        <time>2022-01-23T11:33:16Z</time>
      </trkpt>
      <trkpt lat="47.22531" lon="-1.58904">
        <ele>-15.6</ele>
        <time>2022-01-23T11:33:18Z</time>
      </trkpt>
      <trkpt lat="47.22534" lon="-1.58913">
        <ele>-15.6</ele>
        <time>2022-01-23T11:33:19Z</time>
      </trkpt>
      <trkpt lat="47.22536" lon="-1.58923">
        <ele>-15.4</ele>
        <time>2022-01-23T11:33:20Z</time>
      </trkpt>
      <trkpt lat="47.22541" lon="-1.58962">
        <ele>-15</ele>
        <time>2022-01-23T11:33:24Z</time>
      </trkpt>
      <trkpt lat="47.22543" lon="-1.5897">
        <ele>-15</ele>
        <time>2022-01-23T11:33:25Z</time>
      </trkpt>
      <trkpt lat="47.22551" lon="-1.58991">
        <ele>-14.8</ele>
        <time>2022-01-23T11:33:28Z</time>
      </trkpt>
      <trkpt lat="47.22558" lon="-1.59006">
        <ele>-14.6</ele>
        <time>2022-01-23T11:33:30Z</time>
      </trkpt>
      <trkpt lat="47.22569" lon="-1.59016">
        <ele>-14.4</ele>
        <time>2022-01-23T11:33:32Z</time>
      </trkpt>
      <trkpt lat="47.22575" lon="-1.59018">
        <ele>-14.4</ele>
        <time>2022-01-23T11:33:33Z</time>
      </trkpt>
      <trkpt lat="47.22581" lon="-1.5902">
        <ele>-14.4</ele>
        <time>2022-01-23T11:33:34Z</time>
      </trkpt>
      <trkpt lat="47.22594" lon="-1.59024">
        <ele>-14.2</ele>
        <time>2022-01-23T11:33:36Z</time>
      </trkpt>
      <trkpt lat="47.22606" lon="-1.59029">
        <ele>-14</ele>
        <time>2022-01-23T11:33:38Z</time>
      </trkpt>
      <trkpt lat="47.22624" lon="-1.5904">
        <ele>-13.8</ele>
        <time>2022-01-23T11:33:41Z</time>
      </trkpt>
      <trkpt lat="47.22635" lon="-1.59046">
        <ele>-13.6</ele>
        <time>2022-01-23T11:33:43Z</time>
      </trkpt>
      <trkpt lat="47.22647" lon="-1.59055">
        <ele>-13.4</ele>
        <time>2022-01-23T11:33:45Z</time>
      </trkpt>
      <trkpt lat="47.22667" lon="-1.59074">
        <ele>-12.8</ele>
        <time>2022-01-23T11:33:49Z</time>
      </trkpt>
      <trkpt lat="47.22672" lon="-1.59078">
        <ele>-12.6</ele>
        <time>2022-01-23T11:33:50Z</time>
      </trkpt>
      <trkpt lat="47.22679" lon="-1.5909">
        <ele>-12.4</ele>
        <time>2022-01-23T11:33:52Z</time>
      </trkpt>
      <trkpt lat="47.22685" lon="-1.59105">
        <ele>-11.8</ele>
        <time>2022-01-23T11:33:54Z</time>
      </trkpt>
      <trkpt lat="47.22691" lon="-1.59124">
        <ele>-11.2</ele>
        <time>2022-01-23T11:33:56Z</time>
      </trkpt>
      <trkpt lat="47.22694" lon="-1.59142">
        <ele>-11</ele>
        <time>2022-01-23T11:33:58Z</time>
      </trkpt>
      <trkpt lat="47.22695" lon="-1.59151">
        <ele>-10.8</ele>
        <time>2022-01-23T11:33:59Z</time>
      </trkpt>
      <trkpt lat="47.22695" lon="-1.5916">
        <ele>-10.6</ele>
        <time>2022-01-23T11:34:00Z</time>
      </trkpt>
      <trkpt lat="47.22694" lon="-1.59179">
        <ele>-10.4</ele>
        <time>2022-01-23T11:34:02Z</time>
      </trkpt>
      <trkpt lat="47.22693" lon="-1.59188">
        <ele>-10.2</ele>
        <time>2022-01-23T11:34:03Z</time>
      </trkpt>
      <trkpt lat="47.22691" lon="-1.59197">
        <ele>-10.2</ele>
        <time>2022-01-23T11:34:04Z</time>
      </trkpt>
      <trkpt lat="47.22687" lon="-1.59227">
        <ele>-9.8</ele>
        <time>2022-01-23T11:34:07Z</time>
      </trkpt>
      <trkpt lat="47.22686" lon="-1.59237">
        <ele>-9.6</ele>
        <time>2022-01-23T11:34:08Z</time>
      </trkpt>
      <trkpt lat="47.22684" lon="-1.59257">
        <ele>-9.2</ele>
        <time>2022-01-23T11:34:10Z</time>
      </trkpt>
      <trkpt lat="47.22681" lon="-1.59285">
        <ele>-8.8</ele>
        <time>2022-01-23T11:34:13Z</time>
      </trkpt>
      <trkpt lat="47.22681" lon="-1.59293">
        <ele>-8.8</ele>
        <time>2022-01-23T11:34:14Z</time>
      </trkpt>
      <trkpt lat="47.2268" lon="-1.59302">
        <ele>-8.8</ele>
        <time>2022-01-23T11:34:15Z</time>
      </trkpt>
      <trkpt lat="47.22677" lon="-1.5932">
        <ele>-8.6</ele>
        <time>2022-01-23T11:34:17Z</time>
      </trkpt>
      <trkpt lat="47.22674" lon="-1.59339">
        <ele>-8.4</ele>
        <time>2022-01-23T11:34:19Z</time>
      </trkpt>
      <trkpt lat="47.22668" lon="-1.59368">
        <ele>-8</ele>
        <time>2022-01-23T11:34:22Z</time>
      </trkpt>
      <trkpt lat="47.22666" lon="-1.59377">
        <ele>-7.8</ele>
        <time>2022-01-23T11:34:23Z</time>
      </trkpt>
      <trkpt lat="47.22662" lon="-1.59394">
        <ele>-7.4</ele>
        <time>2022-01-23T11:34:25Z</time>
      </trkpt>
      <trkpt lat="47.22658" lon="-1.59406">
        <ele>-7.2</ele>
        <time>2022-01-23T11:34:27Z</time>
      </trkpt>
      <trkpt lat="47.22654" lon="-1.59419">
        <ele>-6.6</ele>
        <time>2022-01-23T11:34:31Z</time>
      </trkpt>
      <trkpt lat="47.22657" lon="-1.59426">
        <ele>-6.2</ele>
        <time>2022-01-23T11:34:34Z</time>
      </trkpt>
      <trkpt lat="47.22657" lon="-1.59435">
        <ele>-5.8</ele>
        <time>2022-01-23T11:34:37Z</time>
      </trkpt>
      <trkpt lat="47.22664" lon="-1.59436">
        <ele>-5.8</ele>
        <time>2022-01-23T11:34:39Z</time>
      </trkpt>
      <trkpt lat="47.22666" lon="-1.59439">
        <ele>-5.8</ele>
        <time>2022-01-23T11:34:40Z</time>
      </trkpt>
      <trkpt lat="47.2267" lon="-1.59448">
        <ele>-5.8</ele>
        <time>2022-01-23T11:34:44Z</time>
      </trkpt>
      <trkpt lat="47.22681" lon="-1.59447">
        <ele>-6</ele>
        <time>2022-01-23T11:34:46Z</time>
      </trkpt>
      <trkpt lat="47.22686" lon="-1.59449">
        <ele>-6</ele>
        <time>2022-01-23T11:34:47Z</time>
      </trkpt>
      <trkpt lat="47.22696" lon="-1.59456">
        <ele>-6.2</ele>
        <time>2022-01-23T11:34:49Z</time>
      </trkpt>
      <trkpt lat="47.227" lon="-1.59469">
        <ele>-6</ele>
        <time>2022-01-23T11:34:51Z</time>
      </trkpt>
      <trkpt lat="47.227" lon="-1.59478">
        <ele>-6</ele>
        <time>2022-01-23T11:34:52Z</time>
      </trkpt>
      <trkpt lat="47.227" lon="-1.59488">
        <ele>-5.8</ele>
        <time>2022-01-23T11:34:53Z</time>
      </trkpt>
      <trkpt lat="47.22704" lon="-1.59504">
        <ele>-5.6</ele>
        <time>2022-01-23T11:34:55Z</time>
      </trkpt>
      <trkpt lat="47.22718" lon="-1.59531">
        <ele>-5.2</ele>
        <time>2022-01-23T11:34:59Z</time>
      </trkpt>
      <trkpt lat="47.22722" lon="-1.59536">
        <ele>-5</ele>
        <time>2022-01-23T11:35:00Z</time>
      </trkpt>
      <trkpt lat="47.22736" lon="-1.59544">
        <ele>-5</ele>
        <time>2022-01-23T11:35:03Z</time>
      </trkpt>
      <trkpt lat="47.2274" lon="-1.59545">
        <ele>-5</ele>
        <time>2022-01-23T11:35:04Z</time>
      </trkpt>
      <trkpt lat="47.22749" lon="-1.59546">
        <ele>-5.2</ele>
        <time>2022-01-23T11:35:06Z</time>
      </trkpt>
      <trkpt lat="47.22756" lon="-1.59549">
        <ele>-5.2</ele>
        <time>2022-01-23T11:35:08Z</time>
      </trkpt>
      <trkpt lat="47.22769" lon="-1.5955">
        <ele>-5.4</ele>
        <time>2022-01-23T11:35:11Z</time>
      </trkpt>
      <trkpt lat="47.2278" lon="-1.59547">
        <ele>-5.6</ele>
        <time>2022-01-23T11:35:13Z</time>
      </trkpt>
      <trkpt lat="47.22813" lon="-1.5954">
        <ele>-6.4</ele>
        <time>2022-01-23T11:35:18Z</time>
      </trkpt>
      <trkpt lat="47.22834" lon="-1.59537">
        <ele>-7.2</ele>
        <time>2022-01-23T11:35:21Z</time>
      </trkpt>
      <trkpt lat="47.22841" lon="-1.5954">
        <ele>-7.4</ele>
        <time>2022-01-23T11:35:22Z</time>
      </trkpt>
      <trkpt lat="47.22846" lon="-1.59544">
        <ele>-7.6</ele>
        <time>2022-01-23T11:35:23Z</time>
      </trkpt>
      <trkpt lat="47.22852" lon="-1.59551">
        <ele>-7.6</ele>
        <time>2022-01-23T11:35:25Z</time>
      </trkpt>
      <trkpt lat="47.22854" lon="-1.59558">
        <ele>-7.4</ele>
        <time>2022-01-23T11:35:27Z</time>
      </trkpt>
      <trkpt lat="47.22853" lon="-1.5956">
        <ele>-7.4</ele>
        <time>2022-01-23T11:35:28Z</time>
      </trkpt>
      <trkpt lat="47.22852" lon="-1.59572">
        <ele>-7.2</ele>
        <time>2022-01-23T11:35:32Z</time>
      </trkpt>
      <trkpt lat="47.22852" lon="-1.59576">
        <ele>-5.8</ele>
        <time>2022-01-23T11:35:33Z</time>
      </trkpt>
      <trkpt lat="47.2285" lon="-1.59593">
        <ele>-5.4</ele>
        <time>2022-01-23T11:35:37Z</time>
      </trkpt>
      <trkpt lat="47.22848" lon="-1.59605">
        <ele>-4.8</ele>
        <time>2022-01-23T11:35:39Z</time>
      </trkpt>
      <trkpt lat="47.2285" lon="-1.59618">
        <ele>-4.6</ele>
        <time>2022-01-23T11:35:41Z</time>
      </trkpt>
      <trkpt lat="47.22854" lon="-1.59628">
        <ele>-4.4</ele>
        <time>2022-01-23T11:35:43Z</time>
      </trkpt>
      <trkpt lat="47.2286" lon="-1.59637">
        <ele>-4.2</ele>
        <time>2022-01-23T11:35:45Z</time>
      </trkpt>
      <trkpt lat="47.22876" lon="-1.59659">
        <ele>-4.2</ele>
        <time>2022-01-23T11:35:50Z</time>
      </trkpt>
      <trkpt lat="47.22894" lon="-1.59679">
        <ele>-4.2</ele>
        <time>2022-01-23T11:35:55Z</time>
      </trkpt>
      <trkpt lat="47.22898" lon="-1.59683">
        <ele>-4.4</ele>
        <time>2022-01-23T11:35:56Z</time>
      </trkpt>
      <trkpt lat="47.22905" lon="-1.59691">
        <ele>-4.4</ele>
        <time>2022-01-23T11:35:58Z</time>
      </trkpt>
      <trkpt lat="47.22908" lon="-1.59695">
        <ele>-4.2</ele>
        <time>2022-01-23T11:35:59Z</time>
      </trkpt>
      <trkpt lat="47.22925" lon="-1.59708">
        <ele>-4.2</ele>
        <time>2022-01-23T11:36:04Z</time>
      </trkpt>
      <trkpt lat="47.22931" lon="-1.59714">
        <ele>-3.8</ele>
        <time>2022-01-23T11:36:07Z</time>
      </trkpt>
      <trkpt lat="47.2293" lon="-1.59719">
        <ele>-3.6</ele>
        <time>2022-01-23T11:36:08Z</time>
      </trkpt>
      <trkpt lat="47.22928" lon="-1.59723">
        <ele>-3.4</ele>
        <time>2022-01-23T11:36:09Z</time>
      </trkpt>
      <trkpt lat="47.22921" lon="-1.59738">
        <ele>-3.2</ele>
        <time>2022-01-23T11:36:12Z</time>
      </trkpt>
      <trkpt lat="47.22916" lon="-1.59745">
        <ele>-2.6</ele>
        <time>2022-01-23T11:36:14Z</time>
      </trkpt>
      <trkpt lat="47.22916" lon="-1.59747">
        <ele>-2.4</ele>
        <time>2022-01-23T11:36:15Z</time>
      </trkpt>
      <trkpt lat="47.22918" lon="-1.59748">
        <ele>-2.2</ele>
        <time>2022-01-23T11:36:16Z</time>
      </trkpt>
      <trkpt lat="47.22921" lon="-1.59754">
        <ele>-2.2</ele>
        <time>2022-01-23T11:36:18Z</time>
      </trkpt>
      <trkpt lat="47.22925" lon="-1.59765">
        <ele>-2</ele>
        <time>2022-01-23T11:36:20Z</time>
      </trkpt>
      <trkpt lat="47.22928" lon="-1.59776">
        <ele>-2</ele>
        <time>2022-01-23T11:36:22Z</time>
      </trkpt>
      <trkpt lat="47.22931" lon="-1.59793">
        <ele>-1.8</ele>
        <time>2022-01-23T11:36:25Z</time>
      </trkpt>
      <trkpt lat="47.22934" lon="-1.59798">
        <ele>-1.8</ele>
        <time>2022-01-23T11:36:26Z</time>
      </trkpt>
      <trkpt lat="47.22937" lon="-1.59803">
        <ele>-1.6</ele>
        <time>2022-01-23T11:36:27Z</time>
      </trkpt>
      <trkpt lat="47.22943" lon="-1.59814">
        <ele>-1.4</ele>
        <time>2022-01-23T11:36:30Z</time>
      </trkpt>
      <trkpt lat="47.22944" lon="-1.59815">
        <ele>-1.2</ele>
        <time>2022-01-23T11:36:33Z</time>
      </trkpt>
      <trkpt lat="47.22944" lon="-1.59815">
        <ele>-1.2</ele>
        <time>2022-01-23T11:36:34Z</time>
      </trkpt>
      <trkpt lat="47.22955" lon="-1.5981">
        <ele>-1.2</ele>
        <time>2022-01-23T11:36:36Z</time>
      </trkpt>
      <trkpt lat="47.22959" lon="-1.59808">
        <ele>-1.2</ele>
        <time>2022-01-23T11:36:37Z</time>
      </trkpt>
      <trkpt lat="47.22963" lon="-1.59807">
        <ele>-1.2</ele>
        <time>2022-01-23T11:36:38Z</time>
      </trkpt>
      <trkpt lat="47.22969" lon="-1.59805">
        <ele>-1.2</ele>
        <time>2022-01-23T11:36:40Z</time>
      </trkpt>
      <trkpt lat="47.2297" lon="-1.59808">
        <ele>-1.4</ele>
        <time>2022-01-23T11:36:42Z</time>
      </trkpt>
      <trkpt lat="47.2297" lon="-1.59808">
        <ele>-1.4</ele>
        <time>2022-01-23T11:36:43Z</time>
      </trkpt>
      <trkpt lat="47.22975" lon="-1.59808">
        <ele>-1.4</ele>
        <time>2022-01-23T11:36:45Z</time>
      </trkpt>
      <trkpt lat="47.2298" lon="-1.59806">
        <ele>-0.80000000000001</ele>
        <time>2022-01-23T11:36:46Z</time>
      </trkpt>
      <trkpt lat="47.2299" lon="-1.598">
        <ele>-1.6</ele>
        <time>2022-01-23T11:36:48Z</time>
      </trkpt>
      <trkpt lat="47.23009" lon="-1.59787">
        <ele>-1.8</ele>
        <time>2022-01-23T11:36:51Z</time>
      </trkpt>
      <trkpt lat="47.23021" lon="-1.59784">
        <ele>-2</ele>
        <time>2022-01-23T11:36:53Z</time>
      </trkpt>
      <trkpt lat="47.23028" lon="-1.59782">
        <ele>-2</ele>
        <time>2022-01-23T11:36:54Z</time>
      </trkpt>
      <trkpt lat="47.23045" lon="-1.59773">
        <ele>-2.4</ele>
        <time>2022-01-23T11:36:57Z</time>
      </trkpt>
      <trkpt lat="47.23063" lon="-1.59755">
        <ele>-2.4</ele>
        <time>2022-01-23T11:37:01Z</time>
      </trkpt>
      <trkpt lat="47.23074" lon="-1.59738">
        <ele>-2.8</ele>
        <time>2022-01-23T11:37:04Z</time>
      </trkpt>
      <trkpt lat="47.23078" lon="-1.59732">
        <ele>-2.8</ele>
        <time>2022-01-23T11:37:05Z</time>
      </trkpt>
      <trkpt lat="47.23082" lon="-1.59727">
        <ele>-2.8</ele>
        <time>2022-01-23T11:37:06Z</time>
      </trkpt>
      <trkpt lat="47.23087" lon="-1.59725">
        <ele>-2.8</ele>
        <time>2022-01-23T11:37:07Z</time>
      </trkpt>
      <trkpt lat="47.23097" lon="-1.5973">
        <ele>-2.6</ele>
        <time>2022-01-23T11:37:09Z</time>
      </trkpt>
      <trkpt lat="47.23102" lon="-1.59735">
        <ele>-2.6</ele>
        <time>2022-01-23T11:37:10Z</time>
      </trkpt>
      <trkpt lat="47.23133" lon="-1.59774">
        <ele>-2.4</ele>
        <time>2022-01-23T11:37:17Z</time>
      </trkpt>
      <trkpt lat="47.23147" lon="-1.59789">
        <ele>-2.2</ele>
        <time>2022-01-23T11:37:20Z</time>
      </trkpt>
      <trkpt lat="47.23153" lon="-1.59792">
        <ele>-2.2</ele>
        <time>2022-01-23T11:37:21Z</time>
      </trkpt>
      <trkpt lat="47.23164" lon="-1.59796">
        <ele>-2.4</ele>
        <time>2022-01-23T11:37:23Z</time>
      </trkpt>
      <trkpt lat="47.23175" lon="-1.59801">
        <ele>-2.6</ele>
        <time>2022-01-23T11:37:25Z</time>
      </trkpt>
      <trkpt lat="47.23186" lon="-1.59812">
        <ele>-2.6</ele>
        <time>2022-01-23T11:37:27Z</time>
      </trkpt>
      <trkpt lat="47.2319" lon="-1.59819">
        <ele>-2.6</ele>
        <time>2022-01-23T11:37:28Z</time>
      </trkpt>
      <trkpt lat="47.23208" lon="-1.59846">
        <ele>-2.4</ele>
        <time>2022-01-23T11:37:32Z</time>
      </trkpt>
      <trkpt lat="47.23215" lon="-1.59859">
        <ele>-2.4</ele>
        <time>2022-01-23T11:37:34Z</time>
      </trkpt>
      <trkpt lat="47.23222" lon="-1.59869">
        <ele>-2</ele>
        <time>2022-01-23T11:37:37Z</time>
      </trkpt>
      <trkpt lat="47.23232" lon="-1.59876">
        <ele>-1.6</ele>
        <time>2022-01-23T11:37:41Z</time>
      </trkpt>
      <trkpt lat="47.23242" lon="-1.59879">
        <ele>-1.6</ele>
        <time>2022-01-23T11:37:43Z</time>
      </trkpt>
      <trkpt lat="47.23246" lon="-1.59883">
        <ele>-1.4</ele>
        <time>2022-01-23T11:37:44Z</time>
      </trkpt>
      <trkpt lat="47.23257" lon="-1.599">
        <ele>-1.4</ele>
        <time>2022-01-23T11:37:47Z</time>
      </trkpt>
      <trkpt lat="47.23275" lon="-1.59919">
        <ele>-1.6</ele>
        <time>2022-01-23T11:37:51Z</time>
      </trkpt>
      <trkpt lat="47.23286" lon="-1.59936">
        <ele>-1.6</ele>
        <time>2022-01-23T11:37:54Z</time>
      </trkpt>
      <trkpt lat="47.23293" lon="-1.59946">
        <ele>-2.2</ele>
        <time>2022-01-23T11:37:56Z</time>
      </trkpt>
      <trkpt lat="47.23296" lon="-1.59952">
        <ele>-2.4</ele>
        <time>2022-01-23T11:37:57Z</time>
      </trkpt>
      <trkpt lat="47.23303" lon="-1.59963">
        <ele>-2.4</ele>
        <time>2022-01-23T11:37:59Z</time>
      </trkpt>
      <trkpt lat="47.23306" lon="-1.5997">
        <ele>-2.2</ele>
        <time>2022-01-23T11:38:00Z</time>
      </trkpt>
      <trkpt lat="47.23308" lon="-1.59977">
        <ele>-2.2</ele>
        <time>2022-01-23T11:38:01Z</time>
      </trkpt>
      <trkpt lat="47.23311" lon="-1.6">
        <ele>-1.8</ele>
        <time>2022-01-23T11:38:04Z</time>
      </trkpt>
      <trkpt lat="47.23312" lon="-1.60015">
        <ele>-1.2</ele>
        <time>2022-01-23T11:38:06Z</time>
      </trkpt>
      <trkpt lat="47.23312" lon="-1.60038">
        <ele>-1</ele>
        <time>2022-01-23T11:38:09Z</time>
      </trkpt>
      <trkpt lat="47.23313" lon="-1.60051">
        <ele>-0.80000000000001</ele>
        <time>2022-01-23T11:38:11Z</time>
      </trkpt>
      <trkpt lat="47.23313" lon="-1.60058">
        <ele>-0.80000000000001</ele>
        <time>2022-01-23T11:38:12Z</time>
      </trkpt>
      <trkpt lat="47.23313" lon="-1.60065">
        <ele>-0.80000000000001</ele>
        <time>2022-01-23T11:38:13Z</time>
      </trkpt>
      <trkpt lat="47.23318" lon="-1.60081">
        <ele>-0.60000000000002</ele>
        <time>2022-01-23T11:38:16Z</time>
      </trkpt>
      <trkpt lat="47.23319" lon="-1.60086">
        <ele>-0.60000000000002</ele>
        <time>2022-01-23T11:38:17Z</time>
      </trkpt>
      <trkpt lat="47.2332" lon="-1.60097">
        <ele>-0.60000000000002</ele>
        <time>2022-01-23T11:38:19Z</time>
      </trkpt>
      <trkpt lat="47.23322" lon="-1.60104">
        <ele>-0.60000000000002</ele>
        <time>2022-01-23T11:38:20Z</time>
      </trkpt>
      <trkpt lat="47.23327" lon="-1.6012">
        <ele>-0.60000000000002</ele>
        <time>2022-01-23T11:38:22Z</time>
      </trkpt>
      <trkpt lat="47.23331" lon="-1.60134">
        <ele>-0.60000000000002</ele>
        <time>2022-01-23T11:38:24Z</time>
      </trkpt>
      <trkpt lat="47.23335" lon="-1.6014">
        <ele>-0.60000000000002</ele>
        <time>2022-01-23T11:38:25Z</time>
      </trkpt>
      <trkpt lat="47.23346" lon="-1.60164">
        <ele>-0.60000000000002</ele>
        <time>2022-01-23T11:38:28Z</time>
      </trkpt>
      <trkpt lat="47.23354" lon="-1.60185">
        <ele>-0.80000000000001</ele>
        <time>2022-01-23T11:38:31Z</time>
      </trkpt>
      <trkpt lat="47.23361" lon="-1.60198">
        <ele>-0.60000000000002</ele>
        <time>2022-01-23T11:38:33Z</time>
      </trkpt>
      <trkpt lat="47.23368" lon="-1.6021">
        <ele>-0.39999999999998</ele>
        <time>2022-01-23T11:38:35Z</time>
      </trkpt>
      <trkpt lat="47.23396" lon="-1.60243">
        <ele>0.19999999999999</ele>
        <time>2022-01-23T11:38:41Z</time>
      </trkpt>
      <trkpt lat="47.23417" lon="-1.60276">
        <ele>0.60000000000002</ele>
        <time>2022-01-23T11:38:46Z</time>
      </trkpt>
      <trkpt lat="47.23441" lon="-1.603">
        <ele>0.60000000000002</ele>
        <time>2022-01-23T11:38:51Z</time>
      </trkpt>
      <trkpt lat="47.23464" lon="-1.60322">
        <ele>0.80000000000001</ele>
        <time>2022-01-23T11:38:56Z</time>
      </trkpt>
      <trkpt lat="47.23468" lon="-1.60328">
        <ele>1</ele>
        <time>2022-01-23T11:38:57Z</time>
      </trkpt>
      <trkpt lat="47.23474" lon="-1.60333">
        <ele>1</ele>
        <time>2022-01-23T11:38:58Z</time>
      </trkpt>
      <trkpt lat="47.23492" lon="-1.6036">
        <ele>1.4</ele>
        <time>2022-01-23T11:39:02Z</time>
      </trkpt>
      <trkpt lat="47.23504" lon="-1.60393">
        <ele>2</ele>
        <time>2022-01-23T11:39:06Z</time>
      </trkpt>
      <trkpt lat="47.23507" lon="-1.60409">
        <ele>2.2</ele>
        <time>2022-01-23T11:39:08Z</time>
      </trkpt>
      <trkpt lat="47.23509" lon="-1.60417">
        <ele>2.2</ele>
        <time>2022-01-23T11:39:09Z</time>
      </trkpt>
      <trkpt lat="47.23513" lon="-1.60452">
        <ele>2.6</ele>
        <time>2022-01-23T11:39:13Z</time>
      </trkpt>
      <trkpt lat="47.23513" lon="-1.60461">
        <ele>2.6</ele>
        <time>2022-01-23T11:39:14Z</time>
      </trkpt>
      <trkpt lat="47.23514" lon="-1.60488">
        <ele>2.8</ele>
        <time>2022-01-23T11:39:17Z</time>
      </trkpt>
      <trkpt lat="47.23517" lon="-1.6053">
        <ele>3.4</ele>
        <time>2022-01-23T11:39:22Z</time>
      </trkpt>
      <trkpt lat="47.23531" lon="-1.60556">
        <ele>3.6</ele>
        <time>2022-01-23T11:39:26Z</time>
      </trkpt>
      <trkpt lat="47.23547" lon="-1.60579">
        <ele>4</ele>
        <time>2022-01-23T11:39:31Z</time>
      </trkpt>
      <trkpt lat="47.23547" lon="-1.60589">
        <ele>4.2</ele>
        <time>2022-01-23T11:39:33Z</time>
      </trkpt>
      <trkpt lat="47.23533" lon="-1.60603">
        <ele>4.6</ele>
        <time>2022-01-23T11:39:37Z</time>
      </trkpt>
      <trkpt lat="47.2353" lon="-1.60607">
        <ele>4.6</ele>
        <time>2022-01-23T11:39:38Z</time>
      </trkpt>
      <trkpt lat="47.23519" lon="-1.60621">
        <ele>5</ele>
        <time>2022-01-23T11:39:41Z</time>
      </trkpt>
      <trkpt lat="47.23518" lon="-1.60634">
        <ele>5.6</ele>
        <time>2022-01-23T11:39:44Z</time>
      </trkpt>
      <trkpt lat="47.23529" lon="-1.60636">
        <ele>5.8</ele>
        <time>2022-01-23T11:39:47Z</time>
      </trkpt>
      <trkpt lat="47.23533" lon="-1.60641">
        <ele>5.8</ele>
        <time>2022-01-23T11:39:49Z</time>
      </trkpt>
      <trkpt lat="47.23533" lon="-1.60652">
        <ele>6.2</ele>
        <time>2022-01-23T11:39:51Z</time>
      </trkpt>
      <trkpt lat="47.23534" lon="-1.60663">
        <ele>6.2</ele>
        <time>2022-01-23T11:39:53Z</time>
      </trkpt>
      <trkpt lat="47.23536" lon="-1.60675">
        <ele>6.4</ele>
        <time>2022-01-23T11:39:55Z</time>
      </trkpt>
      <trkpt lat="47.2354" lon="-1.60704">
        <ele>7</ele>
        <time>2022-01-23T11:40:00Z</time>
      </trkpt>
      <trkpt lat="47.23552" lon="-1.60733">
        <ele>7.2</ele>
        <time>2022-01-23T11:40:05Z</time>
      </trkpt>
      <trkpt lat="47.23554" lon="-1.60741">
        <ele>7.2</ele>
        <time>2022-01-23T11:40:06Z</time>
      </trkpt>
      <trkpt lat="47.23562" lon="-1.6076">
        <ele>7.4</ele>
        <time>2022-01-23T11:40:09Z</time>
      </trkpt>
      <trkpt lat="47.23564" lon="-1.60766">
        <ele>7.4</ele>
        <time>2022-01-23T11:40:10Z</time>
      </trkpt>
      <trkpt lat="47.23569" lon="-1.60778">
        <ele>7.6</ele>
        <time>2022-01-23T11:40:12Z</time>
      </trkpt>
      <trkpt lat="47.23574" lon="-1.60788">
        <ele>7.6</ele>
        <time>2022-01-23T11:40:14Z</time>
      </trkpt>
      <trkpt lat="47.23576" lon="-1.60798">
        <ele>7.8</ele>
        <time>2022-01-23T11:40:16Z</time>
      </trkpt>
      <trkpt lat="47.23576" lon="-1.60804">
        <ele>7.8</ele>
        <time>2022-01-23T11:40:17Z</time>
      </trkpt>
      <trkpt lat="47.23574" lon="-1.60821">
        <ele>8.4</ele>
        <time>2022-01-23T11:40:21Z</time>
      </trkpt>
      <trkpt lat="47.23575" lon="-1.60825">
        <ele>8.6</ele>
        <time>2022-01-23T11:40:22Z</time>
      </trkpt>
      <trkpt lat="47.23575" lon="-1.6083">
        <ele>8.6</ele>
        <time>2022-01-23T11:40:23Z</time>
      </trkpt>
      <trkpt lat="47.23573" lon="-1.60835">
        <ele>8.8</ele>
        <time>2022-01-23T11:40:24Z</time>
      </trkpt>
      <trkpt lat="47.23572" lon="-1.60847">
        <ele>9.4</ele>
        <time>2022-01-23T11:40:27Z</time>
      </trkpt>
      <trkpt lat="47.23573" lon="-1.60854">
        <ele>9.8</ele>
        <time>2022-01-23T11:40:29Z</time>
      </trkpt>
      <trkpt lat="47.23573" lon="-1.60856">
        <ele>10.2</ele>
        <time>2022-01-23T11:40:30Z</time>
      </trkpt>
      <trkpt lat="47.23577" lon="-1.60858">
        <ele>10.4</ele>
        <time>2022-01-23T11:40:32Z</time>
      </trkpt>
      <trkpt lat="47.23578" lon="-1.60869">
        <ele>10.6</ele>
        <time>2022-01-23T11:40:35Z</time>
      </trkpt>
      <trkpt lat="47.23579" lon="-1.60874">
        <ele>10.6</ele>
        <time>2022-01-23T11:40:36Z</time>
      </trkpt>
      <trkpt lat="47.23588" lon="-1.60898">
        <ele>10.8</ele>
        <time>2022-01-23T11:40:42Z</time>
      </trkpt>
      <trkpt lat="47.2359" lon="-1.60921">
        <ele>10.8</ele>
        <time>2022-01-23T11:40:46Z</time>
      </trkpt>
      <trkpt lat="47.23589" lon="-1.60928">
        <ele>10.8</ele>
        <time>2022-01-23T11:40:47Z</time>
      </trkpt>
      <trkpt lat="47.23586" lon="-1.60942">
        <ele>11</ele>
        <time>2022-01-23T11:40:49Z</time>
      </trkpt>
      <trkpt lat="47.23584" lon="-1.60949">
        <ele>11</ele>
        <time>2022-01-23T11:40:50Z</time>
      </trkpt>
      <trkpt lat="47.2358" lon="-1.60967">
        <ele>11.4</ele>
        <time>2022-01-23T11:40:53Z</time>
      </trkpt>
      <trkpt lat="47.23579" lon="-1.60978">
        <ele>11.8</ele>
        <time>2022-01-23T11:40:55Z</time>
      </trkpt>
      <trkpt lat="47.23577" lon="-1.6099">
        <ele>12</ele>
        <time>2022-01-23T11:40:57Z</time>
      </trkpt>
      <trkpt lat="47.23571" lon="-1.61006">
        <ele>12.6</ele>
        <time>2022-01-23T11:41:00Z</time>
      </trkpt>
      <trkpt lat="47.23567" lon="-1.61016">
        <ele>13</ele>
        <time>2022-01-23T11:41:02Z</time>
      </trkpt>
      <trkpt lat="47.23559" lon="-1.6103">
        <ele>13.4</ele>
        <time>2022-01-23T11:41:05Z</time>
      </trkpt>
      <trkpt lat="47.23557" lon="-1.61035">
        <ele>13.4</ele>
        <time>2022-01-23T11:41:06Z</time>
      </trkpt>
      <trkpt lat="47.23545" lon="-1.61055">
        <ele>14</ele>
        <time>2022-01-23T11:41:11Z</time>
      </trkpt>
      <trkpt lat="47.23528" lon="-1.61068">
        <ele>14.4</ele>
        <time>2022-01-23T11:41:15Z</time>
      </trkpt>
      <trkpt lat="47.23525" lon="-1.61071">
        <ele>14.6</ele>
        <time>2022-01-23T11:41:16Z</time>
      </trkpt>
      <trkpt lat="47.23514" lon="-1.61082">
        <ele>15</ele>
        <time>2022-01-23T11:41:19Z</time>
      </trkpt>
      <trkpt lat="47.23508" lon="-1.61089">
        <ele>15.2</ele>
        <time>2022-01-23T11:41:21Z</time>
      </trkpt>
      <trkpt lat="47.23505" lon="-1.61093">
        <ele>15.4</ele>
        <time>2022-01-23T11:41:23Z</time>
      </trkpt>
      <trkpt lat="47.23502" lon="-1.61096">
        <ele>15.6</ele>
        <time>2022-01-23T11:41:24Z</time>
      </trkpt>
      <trkpt lat="47.23494" lon="-1.61099">
        <ele>15.8</ele>
        <time>2022-01-23T11:41:26Z</time>
      </trkpt>
      <trkpt lat="47.2348" lon="-1.61109">
        <ele>16.2</ele>
        <time>2022-01-23T11:41:30Z</time>
      </trkpt>
      <trkpt lat="47.23472" lon="-1.6112">
        <ele>16.4</ele>
        <time>2022-01-23T11:41:33Z</time>
      </trkpt>
      <trkpt lat="47.23465" lon="-1.61128">
        <ele>16.6</ele>
        <time>2022-01-23T11:41:36Z</time>
      </trkpt>
      <trkpt lat="47.23457" lon="-1.61141">
        <ele>17</ele>
        <time>2022-01-23T11:41:39Z</time>
      </trkpt>
      <trkpt lat="47.23449" lon="-1.61149">
        <ele>17.6</ele>
        <time>2022-01-23T11:41:42Z</time>
      </trkpt>
      <trkpt lat="47.23457" lon="-1.61154">
        <ele>20</ele>
        <time>2022-01-23T11:42:08Z</time>
      </trkpt>
      <trkpt lat="47.23458" lon="-1.61155">
        <ele>20</ele>
        <time>2022-01-23T11:42:10Z</time>
      </trkpt>
      <trkpt lat="47.23469" lon="-1.61188">
        <ele>17.6</ele>
        <time>2022-01-23T11:43:30Z</time>
      </trkpt>
      <trkpt lat="47.23473" lon="-1.61192">
        <ele>17.6</ele>
        <time>2022-01-23T11:43:32Z</time>
      </trkpt>
      <trkpt lat="47.23486" lon="-1.61204">
        <ele>17.4</ele>
        <time>2022-01-23T11:43:37Z</time>
      </trkpt>
      <trkpt lat="47.23489" lon="-1.61211">
        <ele>17.2</ele>
        <time>2022-01-23T11:43:40Z</time>
      </trkpt>
      <trkpt lat="47.23486" lon="-1.61208">
        <ele>16.8</ele>
        <time>2022-01-23T11:43:58Z</time>
      </trkpt>
      <trkpt lat="47.23485" lon="-1.61204">
        <ele>16.8</ele>
        <time>2022-01-23T11:44:00Z</time>
      </trkpt>
      <trkpt lat="47.23483" lon="-1.61201">
        <ele>16.6</ele>
        <time>2022-01-23T11:44:02Z</time>
      </trkpt>
      <trkpt lat="47.23481" lon="-1.61199">
        <ele>16.8</ele>
        <time>2022-01-23T11:44:04Z</time>
      </trkpt>
      <trkpt lat="47.23473" lon="-1.61184">
        <ele>16.4</ele>
        <time>2022-01-23T11:44:14Z</time>
      </trkpt>
      <trkpt lat="47.23479" lon="-1.61174">
        <ele>15.8</ele>
        <time>2022-01-23T11:44:17Z</time>
      </trkpt>
      <trkpt lat="47.23492" lon="-1.61156">
        <ele>15.2</ele>
        <time>2022-01-23T11:44:21Z</time>
      </trkpt>
      <trkpt lat="47.23506" lon="-1.61144">
        <ele>14.4</ele>
        <time>2022-01-23T11:44:25Z</time>
      </trkpt>
      <trkpt lat="47.23517" lon="-1.61133">
        <ele>13.6</ele>
        <time>2022-01-23T11:44:28Z</time>
      </trkpt>
      <trkpt lat="47.23524" lon="-1.61131">
        <ele>13.4</ele>
        <time>2022-01-23T11:44:29Z</time>
      </trkpt>
      <trkpt lat="47.23541" lon="-1.61121">
        <ele>12.8</ele>
        <time>2022-01-23T11:44:31Z</time>
      </trkpt>
      <trkpt lat="47.23552" lon="-1.61107">
        <ele>12.2</ele>
        <time>2022-01-23T11:44:33Z</time>
      </trkpt>
      <trkpt lat="47.23561" lon="-1.61095">
        <ele>11.6</ele>
        <time>2022-01-23T11:44:35Z</time>
      </trkpt>
      <trkpt lat="47.23565" lon="-1.61085">
        <ele>11.2</ele>
        <time>2022-01-23T11:44:37Z</time>
      </trkpt>
      <trkpt lat="47.23567" lon="-1.61069">
        <ele>9.8</ele>
        <time>2022-01-23T11:44:42Z</time>
      </trkpt>
      <trkpt lat="47.23566" lon="-1.61065">
        <ele>9.4</ele>
        <time>2022-01-23T11:44:44Z</time>
      </trkpt>
      <trkpt lat="47.23569" lon="-1.61061">
        <ele>9.4</ele>
        <time>2022-01-23T11:44:45Z</time>
      </trkpt>
      <trkpt lat="47.23577" lon="-1.61055">
        <ele>9.4</ele>
        <time>2022-01-23T11:44:46Z</time>
      </trkpt>
      <trkpt lat="47.23603" lon="-1.61043">
        <ele>9.6</ele>
        <time>2022-01-23T11:44:50Z</time>
      </trkpt>
      <trkpt lat="47.23612" lon="-1.61047">
        <ele>9.8</ele>
        <time>2022-01-23T11:44:54Z</time>
      </trkpt>
      <trkpt lat="47.23617" lon="-1.61053">
        <ele>8.4</ele>
        <time>2022-01-23T11:45:13Z</time>
      </trkpt>
      <trkpt lat="47.23618" lon="-1.61056">
        <ele>8.2</ele>
        <time>2022-01-23T11:45:14Z</time>
      </trkpt>
      <trkpt lat="47.23622" lon="-1.6107">
        <ele>8.4</ele>
        <time>2022-01-23T11:45:18Z</time>
      </trkpt>
      <trkpt lat="47.23623" lon="-1.61077">
        <ele>8.6</ele>
        <time>2022-01-23T11:45:20Z</time>
      </trkpt>
      <trkpt lat="47.23625" lon="-1.61083">
        <ele>8.6</ele>
        <time>2022-01-23T11:45:22Z</time>
      </trkpt>
      <trkpt lat="47.23625" lon="-1.61101">
        <ele>8.4</ele>
        <time>2022-01-23T11:45:26Z</time>
      </trkpt>
      <trkpt lat="47.23633" lon="-1.61114">
        <ele>8.4</ele>
        <time>2022-01-23T11:45:29Z</time>
      </trkpt>
      <trkpt lat="47.23635" lon="-1.61119">
        <ele>8.4</ele>
        <time>2022-01-23T11:45:30Z</time>
      </trkpt>
      <trkpt lat="47.23636" lon="-1.61126">
        <ele>8.2</ele>
        <time>2022-01-23T11:45:31Z</time>
      </trkpt>
      <trkpt lat="47.23641" lon="-1.61148">
        <ele>8.2</ele>
        <time>2022-01-23T11:45:34Z</time>
      </trkpt>
      <trkpt lat="47.23647" lon="-1.61165">
        <ele>7.8</ele>
        <time>2022-01-23T11:45:37Z</time>
      </trkpt>
      <trkpt lat="47.23653" lon="-1.61176">
        <ele>7.6</ele>
        <time>2022-01-23T11:45:39Z</time>
      </trkpt>
      <trkpt lat="47.23659" lon="-1.61199">
        <ele>7.4</ele>
        <time>2022-01-23T11:45:43Z</time>
      </trkpt>
      <trkpt lat="47.23661" lon="-1.61204">
        <ele>7.4</ele>
        <time>2022-01-23T11:45:44Z</time>
      </trkpt>
      <trkpt lat="47.23665" lon="-1.61215">
        <ele>7.2</ele>
        <time>2022-01-23T11:45:46Z</time>
      </trkpt>
      <trkpt lat="47.23669" lon="-1.61235">
        <ele>6.8</ele>
        <time>2022-01-23T11:45:50Z</time>
      </trkpt>
      <trkpt lat="47.23671" lon="-1.61249">
        <ele>6.8</ele>
        <time>2022-01-23T11:45:53Z</time>
      </trkpt>
      <trkpt lat="47.23672" lon="-1.61253">
        <ele>7</ele>
        <time>2022-01-23T11:45:54Z</time>
      </trkpt>
      <trkpt lat="47.23676" lon="-1.61282">
        <ele>7</ele>
        <time>2022-01-23T11:45:59Z</time>
      </trkpt>
      <trkpt lat="47.23677" lon="-1.61306">
        <ele>7.8</ele>
        <time>2022-01-23T11:46:03Z</time>
      </trkpt>
      <trkpt lat="47.23678" lon="-1.61311">
        <ele>7.8</ele>
        <time>2022-01-23T11:46:04Z</time>
      </trkpt>
      <trkpt lat="47.23686" lon="-1.61317">
        <ele>7.8</ele>
        <time>2022-01-23T11:46:07Z</time>
      </trkpt>
      <trkpt lat="47.23701" lon="-1.61323">
        <ele>8</ele>
        <time>2022-01-23T11:46:11Z</time>
      </trkpt>
      <trkpt lat="47.23715" lon="-1.61341">
        <ele>7.8</ele>
        <time>2022-01-23T11:46:16Z</time>
      </trkpt>
      <trkpt lat="47.23718" lon="-1.61344">
        <ele>7.6</ele>
        <time>2022-01-23T11:46:17Z</time>
      </trkpt>
      <trkpt lat="47.23725" lon="-1.61357">
        <ele>7.2</ele>
        <time>2022-01-23T11:46:20Z</time>
      </trkpt>
      <trkpt lat="47.23726" lon="-1.61368">
        <ele>7.2</ele>
        <time>2022-01-23T11:46:22Z</time>
      </trkpt>
      <trkpt lat="47.23728" lon="-1.6137">
        <ele>7.2</ele>
        <time>2022-01-23T11:46:23Z</time>
      </trkpt>
      <trkpt lat="47.23731" lon="-1.61376">
        <ele>8.2</ele>
        <time>2022-01-23T11:46:25Z</time>
      </trkpt>
      <trkpt lat="47.23731" lon="-1.6139">
        <ele>7.6</ele>
        <time>2022-01-23T11:46:27Z</time>
      </trkpt>
      <trkpt lat="47.23732" lon="-1.61396">
        <ele>8</ele>
        <time>2022-01-23T11:46:28Z</time>
      </trkpt>
      <trkpt lat="47.23733" lon="-1.61411">
        <ele>8.2</ele>
        <time>2022-01-23T11:46:31Z</time>
      </trkpt>
      <trkpt lat="47.23736" lon="-1.61415">
        <ele>8.4</ele>
        <time>2022-01-23T11:46:32Z</time>
      </trkpt>
      <trkpt lat="47.2374" lon="-1.61425">
        <ele>8.4</ele>
        <time>2022-01-23T11:46:34Z</time>
      </trkpt>
      <trkpt lat="47.2374" lon="-1.61432">
        <ele>8</ele>
        <time>2022-01-23T11:46:36Z</time>
      </trkpt>
      <trkpt lat="47.23736" lon="-1.6144">
        <ele>8</ele>
        <time>2022-01-23T11:46:38Z</time>
      </trkpt>
      <trkpt lat="47.23732" lon="-1.61448">
        <ele>7.2</ele>
        <time>2022-01-23T11:46:40Z</time>
      </trkpt>
      <trkpt lat="47.23733" lon="-1.6145">
        <ele>7.4</ele>
        <time>2022-01-23T11:46:41Z</time>
      </trkpt>
      <trkpt lat="47.2373" lon="-1.61469">
        <ele>7</ele>
        <time>2022-01-23T11:46:44Z</time>
      </trkpt>
      <trkpt lat="47.2373" lon="-1.61475">
        <ele>7</ele>
        <time>2022-01-23T11:46:45Z</time>
      </trkpt>
      <trkpt lat="47.23732" lon="-1.61486">
        <ele>7</ele>
        <time>2022-01-23T11:46:47Z</time>
      </trkpt>
      <trkpt lat="47.23734" lon="-1.61507">
        <ele>7.2</ele>
        <time>2022-01-23T11:46:51Z</time>
      </trkpt>
      <trkpt lat="47.2374" lon="-1.61521">
        <ele>7.8</ele>
        <time>2022-01-23T11:46:54Z</time>
      </trkpt>
      <trkpt lat="47.23743" lon="-1.61525">
        <ele>8</ele>
        <time>2022-01-23T11:46:55Z</time>
      </trkpt>
      <trkpt lat="47.23754" lon="-1.61541">
        <ele>8.4</ele>
        <time>2022-01-23T11:46:59Z</time>
      </trkpt>
      <trkpt lat="47.23758" lon="-1.61554">
        <ele>8.4</ele>
        <time>2022-01-23T11:47:02Z</time>
      </trkpt>
      <trkpt lat="47.2376" lon="-1.61575">
        <ele>9</ele>
        <time>2022-01-23T11:47:06Z</time>
      </trkpt>
      <trkpt lat="47.2376" lon="-1.61579">
        <ele>9.2</ele>
        <time>2022-01-23T11:47:07Z</time>
      </trkpt>
      <trkpt lat="47.23765" lon="-1.61579">
        <ele>9.2</ele>
        <time>2022-01-23T11:47:09Z</time>
      </trkpt>
      <trkpt lat="47.23766" lon="-1.6159">
        <ele>9.2</ele>
        <time>2022-01-23T11:47:12Z</time>
      </trkpt>
      <trkpt lat="47.23766" lon="-1.61605">
        <ele>10.6</ele>
        <time>2022-01-23T11:47:27Z</time>
      </trkpt>
      <trkpt lat="47.23765" lon="-1.61608">
        <ele>10.6</ele>
        <time>2022-01-23T11:47:28Z</time>
      </trkpt>
      <trkpt lat="47.23765" lon="-1.61613">
        <ele>10.6</ele>
        <time>2022-01-23T11:47:30Z</time>
      </trkpt>
      <trkpt lat="47.23762" lon="-1.61624">
        <ele>10.6</ele>
        <time>2022-01-23T11:47:32Z</time>
      </trkpt>
      <trkpt lat="47.23761" lon="-1.6163">
        <ele>10.6</ele>
        <time>2022-01-23T11:47:33Z</time>
      </trkpt>
      <trkpt lat="47.23759" lon="-1.6164">
        <ele>10.6</ele>
        <time>2022-01-23T11:47:35Z</time>
      </trkpt>
      <trkpt lat="47.23757" lon="-1.61648">
        <ele>10.6</ele>
        <time>2022-01-23T11:47:37Z</time>
      </trkpt>
      <trkpt lat="47.23756" lon="-1.61653">
        <ele>10.4</ele>
        <time>2022-01-23T11:47:38Z</time>
      </trkpt>
      <trkpt lat="47.23756" lon="-1.61658">
        <ele>10.4</ele>
        <time>2022-01-23T11:47:39Z</time>
      </trkpt>
      <trkpt lat="47.23754" lon="-1.6167">
        <ele>10.4</ele>
        <time>2022-01-23T11:47:41Z</time>
      </trkpt>
      <trkpt lat="47.23754" lon="-1.61691">
        <ele>10.6</ele>
        <time>2022-01-23T11:47:44Z</time>
      </trkpt>
      <trkpt lat="47.23753" lon="-1.61712">
        <ele>10.8</ele>
        <time>2022-01-23T11:47:47Z</time>
      </trkpt>
      <trkpt lat="47.23756" lon="-1.6174">
        <ele>11.2</ele>
        <time>2022-01-23T11:47:51Z</time>
      </trkpt>
      <trkpt lat="47.23758" lon="-1.61752">
        <ele>11.4</ele>
        <time>2022-01-23T11:47:53Z</time>
      </trkpt>
      <trkpt lat="47.23759" lon="-1.61758">
        <ele>11.6</ele>
        <time>2022-01-23T11:47:54Z</time>
      </trkpt>
      <trkpt lat="47.23766" lon="-1.61766">
        <ele>11.8</ele>
        <time>2022-01-23T11:47:56Z</time>
      </trkpt>
      <trkpt lat="47.23771" lon="-1.61782">
        <ele>12</ele>
        <time>2022-01-23T11:47:58Z</time>
      </trkpt>
      <trkpt lat="47.23792" lon="-1.61829">
        <ele>12.2</ele>
        <time>2022-01-23T11:48:05Z</time>
      </trkpt>
      <trkpt lat="47.23796" lon="-1.61835">
        <ele>12.2</ele>
        <time>2022-01-23T11:48:06Z</time>
      </trkpt>
      <trkpt lat="47.23802" lon="-1.61849">
        <ele>12.2</ele>
        <time>2022-01-23T11:48:08Z</time>
      </trkpt>
      <trkpt lat="47.23808" lon="-1.61864">
        <ele>12.2</ele>
        <time>2022-01-23T11:48:10Z</time>
      </trkpt>
      <trkpt lat="47.23812" lon="-1.61871">
        <ele>12.2</ele>
        <time>2022-01-23T11:48:11Z</time>
      </trkpt>
      <trkpt lat="47.23816" lon="-1.61877">
        <ele>12</ele>
        <time>2022-01-23T11:48:12Z</time>
      </trkpt>
      <trkpt lat="47.23824" lon="-1.61888">
        <ele>12</ele>
        <time>2022-01-23T11:48:14Z</time>
      </trkpt>
      <trkpt lat="47.23829" lon="-1.61894">
        <ele>12</ele>
        <time>2022-01-23T11:48:15Z</time>
      </trkpt>
      <trkpt lat="47.23841" lon="-1.61914">
        <ele>11.8</ele>
        <time>2022-01-23T11:48:18Z</time>
      </trkpt>
      <trkpt lat="47.23845" lon="-1.61919">
        <ele>12.4</ele>
        <time>2022-01-23T11:48:19Z</time>
      </trkpt>
      <trkpt lat="47.23856" lon="-1.61934">
        <ele>12.2</ele>
        <time>2022-01-23T11:48:23Z</time>
      </trkpt>
      <trkpt lat="47.23864" lon="-1.61946">
        <ele>12.4</ele>
        <time>2022-01-23T11:48:26Z</time>
      </trkpt>
      <trkpt lat="47.23867" lon="-1.61949">
        <ele>12.2</ele>
        <time>2022-01-23T11:48:27Z</time>
      </trkpt>
      <trkpt lat="47.23875" lon="-1.61953">
        <ele>11.8</ele>
        <time>2022-01-23T11:48:29Z</time>
      </trkpt>
      <trkpt lat="47.23884" lon="-1.61953">
        <ele>11.8</ele>
        <time>2022-01-23T11:48:31Z</time>
      </trkpt>
      <trkpt lat="47.23889" lon="-1.61953">
        <ele>11.6</ele>
        <time>2022-01-23T11:48:32Z</time>
      </trkpt>
      <trkpt lat="47.23893" lon="-1.61954">
        <ele>11.2</ele>
        <time>2022-01-23T11:48:33Z</time>
      </trkpt>
      <trkpt lat="47.23903" lon="-1.61959">
        <ele>10.6</ele>
        <time>2022-01-23T11:48:36Z</time>
      </trkpt>
      <trkpt lat="47.23917" lon="-1.61964">
        <ele>9.8</ele>
        <time>2022-01-23T11:48:42Z</time>
      </trkpt>
      <trkpt lat="47.23925" lon="-1.61966">
        <ele>9.6</ele>
        <time>2022-01-23T11:48:45Z</time>
      </trkpt>
      <trkpt lat="47.23928" lon="-1.61966">
        <ele>9.4</ele>
        <time>2022-01-23T11:48:46Z</time>
      </trkpt>
      <trkpt lat="47.23938" lon="-1.6197">
        <ele>9</ele>
        <time>2022-01-23T11:48:48Z</time>
      </trkpt>
      <trkpt lat="47.23953" lon="-1.61979">
        <ele>8.6</ele>
        <time>2022-01-23T11:48:52Z</time>
      </trkpt>
      <trkpt lat="47.23957" lon="-1.61981">
        <ele>8.4</ele>
        <time>2022-01-23T11:48:53Z</time>
      </trkpt>
      <trkpt lat="47.23967" lon="-1.61988">
        <ele>8.2</ele>
        <time>2022-01-23T11:48:55Z</time>
      </trkpt>
      <trkpt lat="47.23983" lon="-1.61995">
        <ele>7.8</ele>
        <time>2022-01-23T11:48:58Z</time>
      </trkpt>
      <trkpt lat="47.23987" lon="-1.61998">
        <ele>7.6</ele>
        <time>2022-01-23T11:48:59Z</time>
      </trkpt>
      <trkpt lat="47.23998" lon="-1.62011">
        <ele>7</ele>
        <time>2022-01-23T11:49:02Z</time>
      </trkpt>
      <trkpt lat="47.24013" lon="-1.6203">
        <ele>6.4</ele>
        <time>2022-01-23T11:49:06Z</time>
      </trkpt>
      <trkpt lat="47.2402" lon="-1.62044">
        <ele>5.4</ele>
        <time>2022-01-23T11:49:09Z</time>
      </trkpt>
      <trkpt lat="47.24022" lon="-1.62049">
        <ele>5.2</ele>
        <time>2022-01-23T11:49:10Z</time>
      </trkpt>
      <trkpt lat="47.24022" lon="-1.62067">
        <ele>4.4</ele>
        <time>2022-01-23T11:49:13Z</time>
      </trkpt>
      <trkpt lat="47.24022" lon="-1.62079">
        <ele>4.2</ele>
        <time>2022-01-23T11:49:15Z</time>
      </trkpt>
      <trkpt lat="47.24021" lon="-1.62085">
        <ele>4</ele>
        <time>2022-01-23T11:49:16Z</time>
      </trkpt>
      <trkpt lat="47.24021" lon="-1.62092">
        <ele>3.8</ele>
        <time>2022-01-23T11:49:17Z</time>
      </trkpt>
      <trkpt lat="47.2402" lon="-1.62107">
        <ele>3.8</ele>
        <time>2022-01-23T11:49:19Z</time>
      </trkpt>
      <trkpt lat="47.2402" lon="-1.62124">
        <ele>3.8</ele>
        <time>2022-01-23T11:49:22Z</time>
      </trkpt>
      <trkpt lat="47.24021" lon="-1.62129">
        <ele>4</ele>
        <time>2022-01-23T11:49:23Z</time>
      </trkpt>
      <trkpt lat="47.24023" lon="-1.62148">
        <ele>4.8</ele>
        <time>2022-01-23T11:49:27Z</time>
      </trkpt>
      <trkpt lat="47.24023" lon="-1.62155">
        <ele>4.6</ele>
        <time>2022-01-23T11:49:28Z</time>
      </trkpt>
      <trkpt lat="47.24021" lon="-1.62165">
        <ele>4.6</ele>
        <time>2022-01-23T11:49:30Z</time>
      </trkpt>
      <trkpt lat="47.24016" lon="-1.62179">
        <ele>3.8</ele>
        <time>2022-01-23T11:49:32Z</time>
      </trkpt>
      <trkpt lat="47.24015" lon="-1.62183">
        <ele>3.8</ele>
        <time>2022-01-23T11:49:33Z</time>
      </trkpt>
      <trkpt lat="47.24014" lon="-1.62197">
        <ele>6.2</ele>
        <time>2022-01-23T11:49:36Z</time>
      </trkpt>
      <trkpt lat="47.24013" lon="-1.62205">
        <ele>5.4</ele>
        <time>2022-01-23T11:49:38Z</time>
      </trkpt>
      <trkpt lat="47.24014" lon="-1.62207">
        <ele>5.6</ele>
        <time>2022-01-23T11:49:40Z</time>
      </trkpt>
      <trkpt lat="47.24015" lon="-1.62213">
        <ele>5.8</ele>
        <time>2022-01-23T11:49:43Z</time>
      </trkpt>
      <trkpt lat="47.24016" lon="-1.62218">
        <ele>5.8</ele>
        <time>2022-01-23T11:49:45Z</time>
      </trkpt>
      <trkpt lat="47.24015" lon="-1.62225">
        <ele>5.8</ele>
        <time>2022-01-23T11:49:47Z</time>
      </trkpt>
      <trkpt lat="47.24018" lon="-1.62239">
        <ele>5.6</ele>
        <time>2022-01-23T11:49:51Z</time>
      </trkpt>
      <trkpt lat="47.24021" lon="-1.62249">
        <ele>6.4</ele>
        <time>2022-01-23T11:49:54Z</time>
      </trkpt>
      <trkpt lat="47.24022" lon="-1.62263">
        <ele>4.2</ele>
        <time>2022-01-23T11:49:57Z</time>
      </trkpt>
      <trkpt lat="47.24023" lon="-1.62268">
        <ele>4.8</ele>
        <time>2022-01-23T11:49:58Z</time>
      </trkpt>
      <trkpt lat="47.24023" lon="-1.62279">
        <ele>4.4</ele>
        <time>2022-01-23T11:50:00Z</time>
      </trkpt>
      <trkpt lat="47.24021" lon="-1.62285">
        <ele>4.2</ele>
        <time>2022-01-23T11:50:01Z</time>
      </trkpt>
      <trkpt lat="47.24014" lon="-1.62307">
        <ele>3.8</ele>
        <time>2022-01-23T11:50:05Z</time>
      </trkpt>
      <trkpt lat="47.24013" lon="-1.62318">
        <ele>3.4</ele>
        <time>2022-01-23T11:50:07Z</time>
      </trkpt>
      <trkpt lat="47.24015" lon="-1.62324">
        <ele>3.2</ele>
        <time>2022-01-23T11:50:08Z</time>
      </trkpt>
      <trkpt lat="47.24019" lon="-1.62343">
        <ele>2</ele>
        <time>2022-01-23T11:50:12Z</time>
      </trkpt>
      <trkpt lat="47.24023" lon="-1.62383">
        <ele>1.2</ele>
        <time>2022-01-23T11:50:18Z</time>
      </trkpt>
      <trkpt lat="47.24022" lon="-1.62396">
        <ele>1.2</ele>
        <time>2022-01-23T11:50:20Z</time>
      </trkpt>
      <trkpt lat="47.24021" lon="-1.62405">
        <ele>1.4</ele>
        <time>2022-01-23T11:50:22Z</time>
      </trkpt>
      <trkpt lat="47.24019" lon="-1.62415">
        <ele>1.6</ele>
        <time>2022-01-23T11:50:24Z</time>
      </trkpt>
      <trkpt lat="47.24015" lon="-1.62426">
        <ele>1.6</ele>
        <time>2022-01-23T11:50:26Z</time>
      </trkpt>
      <trkpt lat="47.24015" lon="-1.62432">
        <ele>1.8</ele>
        <time>2022-01-23T11:50:28Z</time>
      </trkpt>
      <trkpt lat="47.24018" lon="-1.62438">
        <ele>1.6</ele>
        <time>2022-01-23T11:50:30Z</time>
      </trkpt>
      <trkpt lat="47.24021" lon="-1.62443">
        <ele>1.4</ele>
        <time>2022-01-23T11:50:31Z</time>
      </trkpt>
      <trkpt lat="47.24023" lon="-1.62448">
        <ele>1.2</ele>
        <time>2022-01-23T11:50:32Z</time>
      </trkpt>
      <trkpt lat="47.2403" lon="-1.62456">
        <ele>1</ele>
        <time>2022-01-23T11:50:34Z</time>
      </trkpt>
      <trkpt lat="47.24033" lon="-1.62459">
        <ele>1</ele>
        <time>2022-01-23T11:50:35Z</time>
      </trkpt>
      <trkpt lat="47.24045" lon="-1.62481">
        <ele>0.80000000000001</ele>
        <time>2022-01-23T11:50:41Z</time>
      </trkpt>
      <trkpt lat="47.2405" lon="-1.62494">
        <ele>1.2</ele>
        <time>2022-01-23T11:50:44Z</time>
      </trkpt>
      <trkpt lat="47.24054" lon="-1.625">
        <ele>1</ele>
        <time>2022-01-23T11:50:46Z</time>
      </trkpt>
      <trkpt lat="47.24066" lon="-1.62514">
        <ele>1.8</ele>
        <time>2022-01-23T11:50:51Z</time>
      </trkpt>
      <trkpt lat="47.24076" lon="-1.62522">
        <ele>1.8</ele>
        <time>2022-01-23T11:50:54Z</time>
      </trkpt>
      <trkpt lat="47.24078" lon="-1.62524">
        <ele>2</ele>
        <time>2022-01-23T11:50:55Z</time>
      </trkpt>
      <trkpt lat="47.24083" lon="-1.62531">
        <ele>2.2</ele>
        <time>2022-01-23T11:50:57Z</time>
      </trkpt>
      <trkpt lat="47.24092" lon="-1.62535">
        <ele>2.2</ele>
        <time>2022-01-23T11:50:59Z</time>
      </trkpt>
      <trkpt lat="47.24097" lon="-1.62544">
        <ele>2.2</ele>
        <time>2022-01-23T11:51:02Z</time>
      </trkpt>
      <trkpt lat="47.241" lon="-1.62548">
        <ele>2.6</ele>
        <time>2022-01-23T11:51:03Z</time>
      </trkpt>
      <trkpt lat="47.24107" lon="-1.62569">
        <ele>3</ele>
        <time>2022-01-23T11:51:07Z</time>
      </trkpt>
      <trkpt lat="47.24093" lon="-1.62592">
        <ele>3.6</ele>
        <time>2022-01-23T11:51:12Z</time>
      </trkpt>
      <trkpt lat="47.24091" lon="-1.62598">
        <ele>3.8</ele>
        <time>2022-01-23T11:51:15Z</time>
      </trkpt>
      <trkpt lat="47.24087" lon="-1.62608">
        <ele>3.6</ele>
        <time>2022-01-23T11:51:18Z</time>
      </trkpt>
      <trkpt lat="47.24082" lon="-1.62621">
        <ele>3.6</ele>
        <time>2022-01-23T11:51:20Z</time>
      </trkpt>
      <trkpt lat="47.24079" lon="-1.62627">
        <ele>3.8</ele>
        <time>2022-01-23T11:51:21Z</time>
      </trkpt>
      <trkpt lat="47.24071" lon="-1.62644">
        <ele>4</ele>
        <time>2022-01-23T11:51:24Z</time>
      </trkpt>
      <trkpt lat="47.24068" lon="-1.62653">
        <ele>4.4</ele>
        <time>2022-01-23T11:51:26Z</time>
      </trkpt>
      <trkpt lat="47.24068" lon="-1.62658">
        <ele>4.6</ele>
        <time>2022-01-23T11:51:27Z</time>
      </trkpt>
      <trkpt lat="47.24067" lon="-1.62676">
        <ele>4.8</ele>
        <time>2022-01-23T11:51:32Z</time>
      </trkpt>
      <trkpt lat="47.24058" lon="-1.62689">
        <ele>5.2</ele>
        <time>2022-01-23T11:51:35Z</time>
      </trkpt>
      <trkpt lat="47.24041" lon="-1.6271">
        <ele>6</ele>
        <time>2022-01-23T11:51:40Z</time>
      </trkpt>
      <trkpt lat="47.24035" lon="-1.6272">
        <ele>6.6</ele>
        <time>2022-01-23T11:51:44Z</time>
      </trkpt>
      <trkpt lat="47.24035" lon="-1.62724">
        <ele>7.2</ele>
        <time>2022-01-23T11:51:48Z</time>
      </trkpt>
      <trkpt lat="47.2404" lon="-1.62732">
        <ele>7.6</ele>
        <time>2022-01-23T11:51:52Z</time>
      </trkpt>
      <trkpt lat="47.24041" lon="-1.62735">
        <ele>7.8</ele>
        <time>2022-01-23T11:51:53Z</time>
      </trkpt>
      <trkpt lat="47.2404" lon="-1.62741">
        <ele>8.2</ele>
        <time>2022-01-23T11:51:55Z</time>
      </trkpt>
      <trkpt lat="47.2404" lon="-1.62743">
        <ele>8.4</ele>
        <time>2022-01-23T11:51:56Z</time>
      </trkpt>
      <trkpt lat="47.2404" lon="-1.62747">
        <ele>8.8</ele>
        <time>2022-01-23T11:51:58Z</time>
      </trkpt>
      <trkpt lat="47.24042" lon="-1.62748">
        <ele>8.8</ele>
        <time>2022-01-23T11:51:59Z</time>
      </trkpt>
      <trkpt lat="47.24055" lon="-1.62746">
        <ele>9</ele>
        <time>2022-01-23T11:52:03Z</time>
      </trkpt>
      <trkpt lat="47.24072" lon="-1.62745">
        <ele>9.2</ele>
        <time>2022-01-23T11:52:08Z</time>
      </trkpt>
      <trkpt lat="47.24084" lon="-1.6274">
        <ele>9.4</ele>
        <time>2022-01-23T11:52:13Z</time>
      </trkpt>
      <trkpt lat="47.24089" lon="-1.62736">
        <ele>9.4</ele>
        <time>2022-01-23T11:52:15Z</time>
      </trkpt>
      <trkpt lat="47.24091" lon="-1.62734">
        <ele>9.4</ele>
        <time>2022-01-23T11:52:16Z</time>
      </trkpt>
      <trkpt lat="47.24095" lon="-1.62732">
        <ele>9.8</ele>
        <time>2022-01-23T11:52:18Z</time>
      </trkpt>
      <trkpt lat="47.24104" lon="-1.62733">
        <ele>12.4</ele>
        <time>2022-01-23T11:53:32Z</time>
      </trkpt>
      <trkpt lat="47.24106" lon="-1.62747">
        <ele>12.8</ele>
        <time>2022-01-23T11:53:36Z</time>
      </trkpt>
      <trkpt lat="47.24111" lon="-1.6276">
        <ele>12.8</ele>
        <time>2022-01-23T11:53:39Z</time>
      </trkpt>
      <trkpt lat="47.24114" lon="-1.62763">
        <ele>12.8</ele>
        <time>2022-01-23T11:53:40Z</time>
      </trkpt>
      <trkpt lat="47.24125" lon="-1.62784">
        <ele>12.6</ele>
        <time>2022-01-23T11:53:45Z</time>
      </trkpt>
      <trkpt lat="47.24132" lon="-1.62802">
        <ele>12.6</ele>
        <time>2022-01-23T11:53:49Z</time>
      </trkpt>
      <trkpt lat="47.24142" lon="-1.62822">
        <ele>12.2</ele>
        <time>2022-01-23T11:53:53Z</time>
      </trkpt>
      <trkpt lat="47.24145" lon="-1.62826">
        <ele>12</ele>
        <time>2022-01-23T11:53:54Z</time>
      </trkpt>
      <trkpt lat="47.24154" lon="-1.62838">
        <ele>11.4</ele>
        <time>2022-01-23T11:53:57Z</time>
      </trkpt>
      <trkpt lat="47.24162" lon="-1.62855">
        <ele>10.8</ele>
        <time>2022-01-23T11:54:01Z</time>
      </trkpt>
      <trkpt lat="47.24168" lon="-1.62873">
        <ele>10.4</ele>
        <time>2022-01-23T11:54:04Z</time>
      </trkpt>
      <trkpt lat="47.24174" lon="-1.62886">
        <ele>10.2</ele>
        <time>2022-01-23T11:54:06Z</time>
      </trkpt>
      <trkpt lat="47.24179" lon="-1.62901">
        <ele>10.2</ele>
        <time>2022-01-23T11:54:08Z</time>
      </trkpt>
      <trkpt lat="47.24184" lon="-1.62913">
        <ele>10</ele>
        <time>2022-01-23T11:54:10Z</time>
      </trkpt>
      <trkpt lat="47.24186" lon="-1.6292">
        <ele>10</ele>
        <time>2022-01-23T11:54:11Z</time>
      </trkpt>
      <trkpt lat="47.2419" lon="-1.62934">
        <ele>10</ele>
        <time>2022-01-23T11:54:13Z</time>
      </trkpt>
      <trkpt lat="47.24191" lon="-1.6294">
        <ele>9.8</ele>
        <time>2022-01-23T11:54:14Z</time>
      </trkpt>
      <trkpt lat="47.24195" lon="-1.62951">
        <ele>9.8</ele>
        <time>2022-01-23T11:54:16Z</time>
      </trkpt>
      <trkpt lat="47.24198" lon="-1.62953">
        <ele>9.8</ele>
        <time>2022-01-23T11:54:17Z</time>
      </trkpt>
      <trkpt lat="47.24201" lon="-1.62961">
        <ele>9.6</ele>
        <time>2022-01-23T11:54:19Z</time>
      </trkpt>
      <trkpt lat="47.24202" lon="-1.6297">
        <ele>9.4</ele>
        <time>2022-01-23T11:54:21Z</time>
      </trkpt>
      <trkpt lat="47.24205" lon="-1.62988">
        <ele>9.2</ele>
        <time>2022-01-23T11:54:25Z</time>
      </trkpt>
      <trkpt lat="47.24206" lon="-1.63003">
        <ele>9.2</ele>
        <time>2022-01-23T11:54:27Z</time>
      </trkpt>
      <trkpt lat="47.24206" lon="-1.63011">
        <ele>9</ele>
        <time>2022-01-23T11:54:28Z</time>
      </trkpt>
      <trkpt lat="47.24209" lon="-1.63041">
        <ele>8.8</ele>
        <time>2022-01-23T11:54:32Z</time>
      </trkpt>
      <trkpt lat="47.24209" lon="-1.63049">
        <ele>8.6</ele>
        <time>2022-01-23T11:54:33Z</time>
      </trkpt>
      <trkpt lat="47.24209" lon="-1.63056">
        <ele>8.4</ele>
        <time>2022-01-23T11:54:34Z</time>
      </trkpt>
      <trkpt lat="47.24213" lon="-1.63068">
        <ele>8</ele>
        <time>2022-01-23T11:54:36Z</time>
      </trkpt>
      <trkpt lat="47.24216" lon="-1.63074">
        <ele>7.8</ele>
        <time>2022-01-23T11:54:37Z</time>
      </trkpt>
      <trkpt lat="47.2422" lon="-1.63085">
        <ele>7.4</ele>
        <time>2022-01-23T11:54:39Z</time>
      </trkpt>
      <trkpt lat="47.24224" lon="-1.63099">
        <ele>7.2</ele>
        <time>2022-01-23T11:54:41Z</time>
      </trkpt>
      <trkpt lat="47.24226" lon="-1.63104">
        <ele>6.8</ele>
        <time>2022-01-23T11:54:42Z</time>
      </trkpt>
      <trkpt lat="47.24231" lon="-1.63127">
        <ele>7.2</ele>
        <time>2022-01-23T11:54:46Z</time>
      </trkpt>
      <trkpt lat="47.2424" lon="-1.63141">
        <ele>7</ele>
        <time>2022-01-23T11:54:50Z</time>
      </trkpt>
      <trkpt lat="47.24251" lon="-1.63161">
        <ele>7</ele>
        <time>2022-01-23T11:54:54Z</time>
      </trkpt>
      <trkpt lat="47.24253" lon="-1.63169">
        <ele>7.2</ele>
        <time>2022-01-23T11:54:56Z</time>
      </trkpt>
      <trkpt lat="47.24257" lon="-1.63172">
        <ele>7.2</ele>
        <time>2022-01-23T11:54:58Z</time>
      </trkpt>
      <trkpt lat="47.24268" lon="-1.63185">
        <ele>7.2</ele>
        <time>2022-01-23T11:55:02Z</time>
      </trkpt>
      <trkpt lat="47.24276" lon="-1.63193">
        <ele>7.6</ele>
        <time>2022-01-23T11:55:04Z</time>
      </trkpt>
      <trkpt lat="47.24287" lon="-1.63209">
        <ele>7.6</ele>
        <time>2022-01-23T11:55:08Z</time>
      </trkpt>
      <trkpt lat="47.24301" lon="-1.63227">
        <ele>7.6</ele>
        <time>2022-01-23T11:55:13Z</time>
      </trkpt>
      <trkpt lat="47.24303" lon="-1.63229">
        <ele>7.4</ele>
        <time>2022-01-23T11:55:14Z</time>
      </trkpt>
      <trkpt lat="47.24315" lon="-1.63245">
        <ele>8</ele>
        <time>2022-01-23T11:55:19Z</time>
      </trkpt>
      <trkpt lat="47.24327" lon="-1.63256">
        <ele>7</ele>
        <time>2022-01-23T11:55:24Z</time>
      </trkpt>
      <trkpt lat="47.24343" lon="-1.63272">
        <ele>7.4</ele>
        <time>2022-01-23T11:55:29Z</time>
      </trkpt>
      <trkpt lat="47.24356" lon="-1.6328">
        <ele>7.2</ele>
        <time>2022-01-23T11:55:33Z</time>
      </trkpt>
      <trkpt lat="47.24359" lon="-1.63282">
        <ele>7.2</ele>
        <time>2022-01-23T11:55:34Z</time>
      </trkpt>
      <trkpt lat="47.24367" lon="-1.63295">
        <ele>7.2</ele>
        <time>2022-01-23T11:55:38Z</time>
      </trkpt>
      <trkpt lat="47.24369" lon="-1.63298">
        <ele>7.2</ele>
        <time>2022-01-23T11:55:39Z</time>
      </trkpt>
      <trkpt lat="47.24372" lon="-1.6331">
        <ele>7</ele>
        <time>2022-01-23T11:55:41Z</time>
      </trkpt>
      <trkpt lat="47.24375" lon="-1.63322">
        <ele>7</ele>
        <time>2022-01-23T11:55:43Z</time>
      </trkpt>
      <trkpt lat="47.2438" lon="-1.63328">
        <ele>7</ele>
        <time>2022-01-23T11:55:45Z</time>
      </trkpt>
      <trkpt lat="47.24382" lon="-1.63335">
        <ele>7</ele>
        <time>2022-01-23T11:55:46Z</time>
      </trkpt>
      <trkpt lat="47.24382" lon="-1.63347">
        <ele>6.4</ele>
        <time>2022-01-23T11:55:48Z</time>
      </trkpt>
      <trkpt lat="47.24377" lon="-1.63363">
        <ele>6</ele>
        <time>2022-01-23T11:55:50Z</time>
      </trkpt>
      <trkpt lat="47.24375" lon="-1.6337">
        <ele>5.8</ele>
        <time>2022-01-23T11:55:51Z</time>
      </trkpt>
      <trkpt lat="47.24374" lon="-1.63376">
        <ele>5.6</ele>
        <time>2022-01-23T11:55:52Z</time>
      </trkpt>
      <trkpt lat="47.24376" lon="-1.63387">
        <ele>5</ele>
        <time>2022-01-23T11:55:54Z</time>
      </trkpt>
      <trkpt lat="47.24377" lon="-1.63393">
        <ele>5</ele>
        <time>2022-01-23T11:55:57Z</time>
      </trkpt>
      <trkpt lat="47.24376" lon="-1.63415">
        <ele>4.8</ele>
        <time>2022-01-23T11:56:03Z</time>
      </trkpt>
      <trkpt lat="47.2438" lon="-1.63422">
        <ele>7.4</ele>
        <time>2022-01-23T11:56:05Z</time>
      </trkpt>
      <trkpt lat="47.2439" lon="-1.63439">
        <ele>7.2</ele>
        <time>2022-01-23T11:56:10Z</time>
      </trkpt>
      <trkpt lat="47.24394" lon="-1.63449">
        <ele>7.2</ele>
        <time>2022-01-23T11:56:13Z</time>
      </trkpt>
      <trkpt lat="47.24401" lon="-1.63464">
        <ele>7.2</ele>
        <time>2022-01-23T11:56:17Z</time>
      </trkpt>
      <trkpt lat="47.244" lon="-1.63476">
        <ele>7.2</ele>
        <time>2022-01-23T11:56:19Z</time>
      </trkpt>
      <trkpt lat="47.24399" lon="-1.63488">
        <ele>7</ele>
        <time>2022-01-23T11:56:21Z</time>
      </trkpt>
      <trkpt lat="47.24398" lon="-1.635">
        <ele>6.8</ele>
        <time>2022-01-23T11:56:23Z</time>
      </trkpt>
      <trkpt lat="47.24393" lon="-1.63511">
        <ele>7.2</ele>
        <time>2022-01-23T11:56:25Z</time>
      </trkpt>
      <trkpt lat="47.24387" lon="-1.63538">
        <ele>6.2</ele>
        <time>2022-01-23T11:56:29Z</time>
      </trkpt>
      <trkpt lat="47.24384" lon="-1.63556">
        <ele>6.6</ele>
        <time>2022-01-23T11:56:32Z</time>
      </trkpt>
      <trkpt lat="47.24385" lon="-1.63561">
        <ele>6.6</ele>
        <time>2022-01-23T11:56:33Z</time>
      </trkpt>
      <trkpt lat="47.24393" lon="-1.63567">
        <ele>6</ele>
        <time>2022-01-23T11:56:35Z</time>
      </trkpt>
      <trkpt lat="47.24394" lon="-1.63589">
        <ele>6</ele>
        <time>2022-01-23T11:56:39Z</time>
      </trkpt>
      <trkpt lat="47.24399" lon="-1.63611">
        <ele>6.2</ele>
        <time>2022-01-23T11:56:43Z</time>
      </trkpt>
      <trkpt lat="47.24402" lon="-1.63643">
        <ele>7.6</ele>
        <time>2022-01-23T11:56:48Z</time>
      </trkpt>
      <trkpt lat="47.24401" lon="-1.63657">
        <ele>8.4</ele>
        <time>2022-01-23T11:56:51Z</time>
      </trkpt>
      <trkpt lat="47.244" lon="-1.63662">
        <ele>8.6</ele>
        <time>2022-01-23T11:56:52Z</time>
      </trkpt>
      <trkpt lat="47.24399" lon="-1.63672">
        <ele>8.8</ele>
        <time>2022-01-23T11:56:54Z</time>
      </trkpt>
      <trkpt lat="47.244" lon="-1.63676">
        <ele>9</ele>
        <time>2022-01-23T11:56:55Z</time>
      </trkpt>
      <trkpt lat="47.244" lon="-1.63681">
        <ele>9.2</ele>
        <time>2022-01-23T11:56:56Z</time>
      </trkpt>
      <trkpt lat="47.24398" lon="-1.63687">
        <ele>9.2</ele>
        <time>2022-01-23T11:56:57Z</time>
      </trkpt>
      <trkpt lat="47.24394" lon="-1.6371">
        <ele>9.8</ele>
        <time>2022-01-23T11:57:01Z</time>
      </trkpt>
      <trkpt lat="47.24392" lon="-1.63723">
        <ele>10.2</ele>
        <time>2022-01-23T11:57:03Z</time>
      </trkpt>
      <trkpt lat="47.24391" lon="-1.63736">
        <ele>10.4</ele>
        <time>2022-01-23T11:57:05Z</time>
      </trkpt>
      <trkpt lat="47.24394" lon="-1.63744">
        <ele>10.8</ele>
        <time>2022-01-23T11:57:07Z</time>
      </trkpt>
      <trkpt lat="47.24397" lon="-1.63746">
        <ele>11</ele>
        <time>2022-01-23T11:57:09Z</time>
      </trkpt>
      <trkpt lat="47.24401" lon="-1.63744">
        <ele>11.2</ele>
        <time>2022-01-23T11:57:11Z</time>
      </trkpt>
      <trkpt lat="47.24402" lon="-1.63741">
        <ele>11.4</ele>
        <time>2022-01-23T11:57:12Z</time>
      </trkpt>
      <trkpt lat="47.24405" lon="-1.6374">
        <ele>11.6</ele>
        <time>2022-01-23T11:57:13Z</time>
      </trkpt>
      <trkpt lat="47.24414" lon="-1.63736">
        <ele>12</ele>
        <time>2022-01-23T11:57:16Z</time>
      </trkpt>
      <trkpt lat="47.24434" lon="-1.63748">
        <ele>13</ele>
        <time>2022-01-23T11:57:22Z</time>
      </trkpt>
      <trkpt lat="47.24454" lon="-1.63757">
        <ele>14.2</ele>
        <time>2022-01-23T11:57:28Z</time>
      </trkpt>
      <trkpt lat="47.24476" lon="-1.63773">
        <ele>15</ele>
        <time>2022-01-23T11:57:35Z</time>
      </trkpt>
      <trkpt lat="47.24499" lon="-1.63787">
        <ele>15.8</ele>
        <time>2022-01-23T11:57:42Z</time>
      </trkpt>
      <trkpt lat="47.24521" lon="-1.638">
        <ele>17.2</ele>
        <time>2022-01-23T11:57:49Z</time>
      </trkpt>
      <trkpt lat="47.24541" lon="-1.63806">
        <ele>18.2</ele>
        <time>2022-01-23T11:57:55Z</time>
      </trkpt>
      <trkpt lat="47.24564" lon="-1.638">
        <ele>19.4</ele>
        <time>2022-01-23T11:58:02Z</time>
      </trkpt>
      <trkpt lat="47.24581" lon="-1.63783">
        <ele>20.6</ele>
        <time>2022-01-23T11:58:09Z</time>
      </trkpt>
      <trkpt lat="47.24595" lon="-1.63775">
        <ele>21.6</ele>
        <time>2022-01-23T11:58:15Z</time>
      </trkpt>
      <trkpt lat="47.24599" lon="-1.63772">
        <ele>21.8</ele>
        <time>2022-01-23T11:58:17Z</time>
      </trkpt>
      <trkpt lat="47.24605" lon="-1.63768">
        <ele>22.2</ele>
        <time>2022-01-23T11:58:19Z</time>
      </trkpt>
      <trkpt lat="47.24613" lon="-1.63765">
        <ele>22.8</ele>
        <time>2022-01-23T11:58:22Z</time>
      </trkpt>
      <trkpt lat="47.24616" lon="-1.63766">
        <ele>23</ele>
        <time>2022-01-23T11:58:24Z</time>
      </trkpt>
      <trkpt lat="47.2462" lon="-1.63764">
        <ele>23.4</ele>
        <time>2022-01-23T11:58:26Z</time>
      </trkpt>
      <trkpt lat="47.24621" lon="-1.63758">
        <ele>23.6</ele>
        <time>2022-01-23T11:58:28Z</time>
      </trkpt>
      <trkpt lat="47.24625" lon="-1.63759">
        <ele>24.2</ele>
        <time>2022-01-23T11:58:32Z</time>
      </trkpt>
      <trkpt lat="47.24622" lon="-1.63764">
        <ele>24.2</ele>
        <time>2022-01-23T11:58:36Z</time>
      </trkpt>
      <trkpt lat="47.24611" lon="-1.63767">
        <ele>24.8</ele>
        <time>2022-01-23T11:58:40Z</time>
      </trkpt>
      <trkpt lat="47.24594" lon="-1.63776">
        <ele>25.4</ele>
        <time>2022-01-23T11:58:46Z</time>
      </trkpt>
      <trkpt lat="47.24591" lon="-1.6378">
        <ele>25.8</ele>
        <time>2022-01-23T11:58:48Z</time>
      </trkpt>
      <trkpt lat="47.24587" lon="-1.63781">
        <ele>26.2</ele>
        <time>2022-01-23T11:58:50Z</time>
      </trkpt>
      <trkpt lat="47.24574" lon="-1.63788">
        <ele>26.8</ele>
        <time>2022-01-23T11:58:55Z</time>
      </trkpt>
      <trkpt lat="47.24571" lon="-1.63792">
        <ele>26.8</ele>
        <time>2022-01-23T11:58:56Z</time>
      </trkpt>
      <trkpt lat="47.24561" lon="-1.63801">
        <ele>27</ele>
        <time>2022-01-23T11:58:59Z</time>
      </trkpt>
      <trkpt lat="47.24559" lon="-1.63813">
        <ele>27.2</ele>
        <time>2022-01-23T11:59:01Z</time>
      </trkpt>
      <trkpt lat="47.24559" lon="-1.63823">
        <ele>27.2</ele>
        <time>2022-01-23T11:59:03Z</time>
      </trkpt>
      <trkpt lat="47.24559" lon="-1.63828">
        <ele>27.2</ele>
        <time>2022-01-23T11:59:06Z</time>
      </trkpt>
      <trkpt lat="47.24563" lon="-1.63828">
        <ele>27.4</ele>
        <time>2022-01-23T11:59:10Z</time>
      </trkpt>
      <trkpt lat="47.24568" lon="-1.6383">
        <ele>27.4</ele>
        <time>2022-01-23T11:59:12Z</time>
      </trkpt>
      <trkpt lat="47.24574" lon="-1.63832">
        <ele>27.6</ele>
        <time>2022-01-23T11:59:14Z</time>
      </trkpt>
      <trkpt lat="47.24582" lon="-1.63839">
        <ele>27.6</ele>
        <time>2022-01-23T11:59:17Z</time>
      </trkpt>
      <trkpt lat="47.24596" lon="-1.63854">
        <ele>27.6</ele>
        <time>2022-01-23T11:59:22Z</time>
      </trkpt>
      <trkpt lat="47.24604" lon="-1.63862">
        <ele>27.8</ele>
        <time>2022-01-23T11:59:26Z</time>
      </trkpt>
      <trkpt lat="47.24612" lon="-1.6387">
        <ele>27.2</ele>
        <time>2022-01-23T11:59:29Z</time>
      </trkpt>
      <trkpt lat="47.24626" lon="-1.63888">
        <ele>27</ele>
        <time>2022-01-23T11:59:34Z</time>
      </trkpt>
      <trkpt lat="47.24639" lon="-1.63901">
        <ele>27</ele>
        <time>2022-01-23T11:59:39Z</time>
      </trkpt>
      <trkpt lat="47.24655" lon="-1.63918">
        <ele>26.8</ele>
        <time>2022-01-23T11:59:45Z</time>
      </trkpt>
      <trkpt lat="47.24665" lon="-1.63932">
        <ele>26.6</ele>
        <time>2022-01-23T11:59:49Z</time>
      </trkpt>
      <trkpt lat="47.24679" lon="-1.63947">
        <ele>26.8</ele>
        <time>2022-01-23T11:59:54Z</time>
      </trkpt>
      <trkpt lat="47.24694" lon="-1.63963">
        <ele>26.6</ele>
        <time>2022-01-23T11:59:58Z</time>
      </trkpt>
      <trkpt lat="47.24703" lon="-1.63976">
        <ele>26.4</ele>
        <time>2022-01-23T12:00:01Z</time>
      </trkpt>
      <trkpt lat="47.24706" lon="-1.63981">
        <ele>26.4</ele>
        <time>2022-01-23T12:00:02Z</time>
      </trkpt>
      <trkpt lat="47.2472" lon="-1.64001">
        <ele>26.6</ele>
        <time>2022-01-23T12:00:07Z</time>
      </trkpt>
      <trkpt lat="47.24737" lon="-1.64022">
        <ele>27.4</ele>
        <time>2022-01-23T12:00:13Z</time>
      </trkpt>
      <trkpt lat="47.24745" lon="-1.64038">
        <ele>27.6</ele>
        <time>2022-01-23T12:00:17Z</time>
      </trkpt>
      <trkpt lat="47.24748" lon="-1.64052">
        <ele>27.6</ele>
        <time>2022-01-23T12:00:20Z</time>
      </trkpt>
      <trkpt lat="47.24751" lon="-1.64056">
        <ele>27.6</ele>
        <time>2022-01-23T12:00:21Z</time>
      </trkpt>
      <trkpt lat="47.24771" lon="-1.64085">
        <ele>28</ele>
        <time>2022-01-23T12:00:27Z</time>
      </trkpt>
      <trkpt lat="47.24783" lon="-1.64102">
        <ele>28.2</ele>
        <time>2022-01-23T12:00:31Z</time>
      </trkpt>
      <trkpt lat="47.24793" lon="-1.6412">
        <ele>28.4</ele>
        <time>2022-01-23T12:00:35Z</time>
      </trkpt>
      <trkpt lat="47.24804" lon="-1.64136">
        <ele>28.8</ele>
        <time>2022-01-23T12:00:40Z</time>
      </trkpt>
      <trkpt lat="47.24817" lon="-1.64129">
        <ele>29</ele>
        <time>2022-01-23T12:00:44Z</time>
      </trkpt>
      <trkpt lat="47.24823" lon="-1.64126">
        <ele>29.2</ele>
        <time>2022-01-23T12:00:46Z</time>
      </trkpt>
      <trkpt lat="47.24831" lon="-1.64121">
        <ele>29.6</ele>
        <time>2022-01-23T12:00:49Z</time>
      </trkpt>
      <trkpt lat="47.24832" lon="-1.64118">
        <ele>29.6</ele>
        <time>2022-01-23T12:00:50Z</time>
      </trkpt>
      <trkpt lat="47.24834" lon="-1.64116">
        <ele>30.2</ele>
        <time>2022-01-23T12:00:53Z</time>
      </trkpt>
      <trkpt lat="47.24835" lon="-1.64118">
        <ele>30.4</ele>
        <time>2022-01-23T12:00:54Z</time>
      </trkpt>
      <trkpt lat="47.24832" lon="-1.64122">
        <ele>30.6</ele>
        <time>2022-01-23T12:00:56Z</time>
      </trkpt>
      <trkpt lat="47.24816" lon="-1.64132">
        <ele>30.8</ele>
        <time>2022-01-23T12:01:00Z</time>
      </trkpt>
      <trkpt lat="47.24808" lon="-1.64145">
        <ele>30.8</ele>
        <time>2022-01-23T12:01:02Z</time>
      </trkpt>
      <trkpt lat="47.24809" lon="-1.64168">
        <ele>31</ele>
        <time>2022-01-23T12:01:05Z</time>
      </trkpt>
      <trkpt lat="47.24811" lon="-1.64175">
        <ele>31</ele>
        <time>2022-01-23T12:01:06Z</time>
      </trkpt>
      <trkpt lat="47.24815" lon="-1.64192">
        <ele>31.2</ele>
        <time>2022-01-23T12:01:10Z</time>
      </trkpt>
      <trkpt lat="47.24823" lon="-1.64201">
        <ele>31.4</ele>
        <time>2022-01-23T12:01:14Z</time>
      </trkpt>
      <trkpt lat="47.24836" lon="-1.64213">
        <ele>31.8</ele>
        <time>2022-01-23T12:01:19Z</time>
      </trkpt>
      <trkpt lat="47.24859" lon="-1.64223">
        <ele>32.2</ele>
        <time>2022-01-23T12:01:26Z</time>
      </trkpt>
      <trkpt lat="47.24876" lon="-1.6423">
        <ele>32.4</ele>
        <time>2022-01-23T12:01:31Z</time>
      </trkpt>
      <trkpt lat="47.24901" lon="-1.64236">
        <ele>32.8</ele>
        <time>2022-01-23T12:01:39Z</time>
      </trkpt>
      <trkpt lat="47.24919" lon="-1.64239">
        <ele>33.2</ele>
        <time>2022-01-23T12:01:45Z</time>
      </trkpt>
      <trkpt lat="47.24931" lon="-1.64255">
        <ele>33.6</ele>
        <time>2022-01-23T12:01:50Z</time>
      </trkpt>
      <trkpt lat="47.24937" lon="-1.64272">
        <ele>33.8</ele>
        <time>2022-01-23T12:01:54Z</time>
      </trkpt>
      <trkpt lat="47.24943" lon="-1.64293">
        <ele>33.8</ele>
        <time>2022-01-23T12:01:58Z</time>
      </trkpt>
      <trkpt lat="47.24944" lon="-1.64299">
        <ele>33.8</ele>
        <time>2022-01-23T12:01:59Z</time>
      </trkpt>
      <trkpt lat="47.24946" lon="-1.64305">
        <ele>33.8</ele>
        <time>2022-01-23T12:02:00Z</time>
      </trkpt>
      <trkpt lat="47.24954" lon="-1.64332">
        <ele>33.8</ele>
        <time>2022-01-23T12:02:04Z</time>
      </trkpt>
      <trkpt lat="47.24966" lon="-1.64377">
        <ele>33.8</ele>
        <time>2022-01-23T12:02:10Z</time>
      </trkpt>
      <trkpt lat="47.24974" lon="-1.644">
        <ele>33.2</ele>
        <time>2022-01-23T12:02:13Z</time>
      </trkpt>
      <trkpt lat="47.24979" lon="-1.64417">
        <ele>33</ele>
        <time>2022-01-23T12:02:15Z</time>
      </trkpt>
      <trkpt lat="47.24991" lon="-1.64459">
        <ele>32.8</ele>
        <time>2022-01-23T12:02:20Z</time>
      </trkpt>
      <trkpt lat="47.24993" lon="-1.64468">
        <ele>32.8</ele>
        <time>2022-01-23T12:02:21Z</time>
      </trkpt>
      <trkpt lat="47.25" lon="-1.64491">
        <ele>32.4</ele>
        <time>2022-01-23T12:02:24Z</time>
      </trkpt>
      <trkpt lat="47.25008" lon="-1.64514">
        <ele>32</ele>
        <time>2022-01-23T12:02:27Z</time>
      </trkpt>
      <trkpt lat="47.2501" lon="-1.64523">
        <ele>32</ele>
        <time>2022-01-23T12:02:28Z</time>
      </trkpt>
      <trkpt lat="47.25018" lon="-1.64553">
        <ele>31.4</ele>
        <time>2022-01-23T12:02:31Z</time>
      </trkpt>
      <trkpt lat="47.2502" lon="-1.64571">
        <ele>31.4</ele>
        <time>2022-01-23T12:02:33Z</time>
      </trkpt>
      <trkpt lat="47.25023" lon="-1.64575">
        <ele>31.4</ele>
        <time>2022-01-23T12:02:34Z</time>
      </trkpt>
      <trkpt lat="47.25026" lon="-1.6458">
        <ele>31.6</ele>
        <time>2022-01-23T12:02:35Z</time>
      </trkpt>
      <trkpt lat="47.25031" lon="-1.6458">
        <ele>31.8</ele>
        <time>2022-01-23T12:02:37Z</time>
      </trkpt>
      <trkpt lat="47.25037" lon="-1.64573">
        <ele>31.6</ele>
        <time>2022-01-23T12:02:40Z</time>
      </trkpt>
      <trkpt lat="47.2504" lon="-1.6457">
        <ele>31.6</ele>
        <time>2022-01-23T12:02:41Z</time>
      </trkpt>
      <trkpt lat="47.25053" lon="-1.64557">
        <ele>31.6</ele>
        <time>2022-01-23T12:02:45Z</time>
      </trkpt>
      <trkpt lat="47.25069" lon="-1.64541">
        <ele>31.4</ele>
        <time>2022-01-23T12:02:50Z</time>
      </trkpt>
      <trkpt lat="47.25088" lon="-1.64528">
        <ele>31.8</ele>
        <time>2022-01-23T12:02:55Z</time>
      </trkpt>
      <trkpt lat="47.25095" lon="-1.64529">
        <ele>32.2</ele>
        <time>2022-01-23T12:02:57Z</time>
      </trkpt>
      <trkpt lat="47.25099" lon="-1.64538">
        <ele>32.2</ele>
        <time>2022-01-23T12:02:59Z</time>
      </trkpt>
      <trkpt lat="47.25101" lon="-1.64549">
        <ele>32.4</ele>
        <time>2022-01-23T12:03:01Z</time>
      </trkpt>
      <trkpt lat="47.25103" lon="-1.64564">
        <ele>32.4</ele>
        <time>2022-01-23T12:03:03Z</time>
      </trkpt>
      <trkpt lat="47.25107" lon="-1.64611">
        <ele>32.6</ele>
        <time>2022-01-23T12:03:09Z</time>
      </trkpt>
      <trkpt lat="47.25107" lon="-1.64619">
        <ele>32.8</ele>
        <time>2022-01-23T12:03:10Z</time>
      </trkpt>
      <trkpt lat="47.25106" lon="-1.64634">
        <ele>32.8</ele>
        <time>2022-01-23T12:03:12Z</time>
      </trkpt>
      <trkpt lat="47.25106" lon="-1.64655">
        <ele>32.8</ele>
        <time>2022-01-23T12:03:15Z</time>
      </trkpt>
      <trkpt lat="47.25103" lon="-1.64678">
        <ele>32.8</ele>
        <time>2022-01-23T12:03:18Z</time>
      </trkpt>
      <trkpt lat="47.25102" lon="-1.64686">
        <ele>32.8</ele>
        <time>2022-01-23T12:03:19Z</time>
      </trkpt>
      <trkpt lat="47.25092" lon="-1.64751">
        <ele>33</ele>
        <time>2022-01-23T12:03:25Z</time>
      </trkpt>
      <trkpt lat="47.25083" lon="-1.64798">
        <ele>33.2</ele>
        <time>2022-01-23T12:03:30Z</time>
      </trkpt>
      <trkpt lat="47.25082" lon="-1.64807">
        <ele>33.2</ele>
        <time>2022-01-23T12:03:32Z</time>
      </trkpt>
      <trkpt lat="47.25083" lon="-1.6481">
        <ele>33.2</ele>
        <time>2022-01-23T12:03:33Z</time>
      </trkpt>
      <trkpt lat="47.25084" lon="-1.64813">
        <ele>33.2</ele>
        <time>2022-01-23T12:03:34Z</time>
      </trkpt>
      <trkpt lat="47.25089" lon="-1.64817">
        <ele>33.2</ele>
        <time>2022-01-23T12:03:37Z</time>
      </trkpt>
      <trkpt lat="47.25092" lon="-1.64819">
        <ele>33.2</ele>
        <time>2022-01-23T12:03:39Z</time>
      </trkpt>
      <trkpt lat="47.25095" lon="-1.64822">
        <ele>33.2</ele>
        <time>2022-01-23T12:03:41Z</time>
      </trkpt>
      <trkpt lat="47.25095" lon="-1.64827">
        <ele>33.2</ele>
        <time>2022-01-23T12:03:43Z</time>
      </trkpt>
      <trkpt lat="47.25106" lon="-1.64831">
        <ele>33</ele>
        <time>2022-01-23T12:03:46Z</time>
      </trkpt>
      <trkpt lat="47.25109" lon="-1.64833">
        <ele>33</ele>
        <time>2022-01-23T12:03:47Z</time>
      </trkpt>
      <trkpt lat="47.25119" lon="-1.6484">
        <ele>32.6</ele>
        <time>2022-01-23T12:03:52Z</time>
      </trkpt>
      <trkpt lat="47.2513" lon="-1.64846">
        <ele>32.6</ele>
        <time>2022-01-23T12:03:56Z</time>
      </trkpt>
      <trkpt lat="47.25141" lon="-1.6485">
        <ele>32.4</ele>
        <time>2022-01-23T12:04:01Z</time>
      </trkpt>
      <trkpt lat="47.2515" lon="-1.64862">
        <ele>32.4</ele>
        <time>2022-01-23T12:04:06Z</time>
      </trkpt>
      <trkpt lat="47.2516" lon="-1.64879">
        <ele>32.4</ele>
        <time>2022-01-23T12:04:11Z</time>
      </trkpt>
      <trkpt lat="47.25167" lon="-1.64899">
        <ele>32.2</ele>
        <time>2022-01-23T12:04:17Z</time>
      </trkpt>
      <trkpt lat="47.25173" lon="-1.64922">
        <ele>32.2</ele>
        <time>2022-01-23T12:04:23Z</time>
      </trkpt>
      <trkpt lat="47.25177" lon="-1.64945">
        <ele>32.2</ele>
        <time>2022-01-23T12:04:29Z</time>
      </trkpt>
      <trkpt lat="47.25176" lon="-1.64973">
        <ele>32.4</ele>
        <time>2022-01-23T12:04:35Z</time>
      </trkpt>
      <trkpt lat="47.25176" lon="-1.64992">
        <ele>32.2</ele>
        <time>2022-01-23T12:04:39Z</time>
      </trkpt>
      <trkpt lat="47.25177" lon="-1.6502">
        <ele>32.2</ele>
        <time>2022-01-23T12:04:44Z</time>
      </trkpt>
      <trkpt lat="47.25177" lon="-1.65033">
        <ele>32.4</ele>
        <time>2022-01-23T12:04:46Z</time>
      </trkpt>
      <trkpt lat="47.25177" lon="-1.65055">
        <ele>32.4</ele>
        <time>2022-01-23T12:04:49Z</time>
      </trkpt>
      <trkpt lat="47.25179" lon="-1.65083">
        <ele>32.4</ele>
        <time>2022-01-23T12:04:53Z</time>
      </trkpt>
      <trkpt lat="47.25179" lon="-1.6509">
        <ele>32.4</ele>
        <time>2022-01-23T12:04:54Z</time>
      </trkpt>
      <trkpt lat="47.25178" lon="-1.65098">
        <ele>32.4</ele>
        <time>2022-01-23T12:04:55Z</time>
      </trkpt>
      <trkpt lat="47.25174" lon="-1.6512">
        <ele>32.2</ele>
        <time>2022-01-23T12:04:58Z</time>
      </trkpt>
      <trkpt lat="47.25164" lon="-1.6516">
        <ele>32</ele>
        <time>2022-01-23T12:05:03Z</time>
      </trkpt>
      <trkpt lat="47.25162" lon="-1.6517">
        <ele>32</ele>
        <time>2022-01-23T12:05:04Z</time>
      </trkpt>
      <trkpt lat="47.25156" lon="-1.65188">
        <ele>32</ele>
        <time>2022-01-23T12:05:06Z</time>
      </trkpt>
      <trkpt lat="47.25155" lon="-1.65196">
        <ele>32</ele>
        <time>2022-01-23T12:05:07Z</time>
      </trkpt>
      <trkpt lat="47.25156" lon="-1.65205">
        <ele>32</ele>
        <time>2022-01-23T12:05:08Z</time>
      </trkpt>
      <trkpt lat="47.25161" lon="-1.65219">
        <ele>31.6</ele>
        <time>2022-01-23T12:05:10Z</time>
      </trkpt>
      <trkpt lat="47.25163" lon="-1.65227">
        <ele>31.6</ele>
        <time>2022-01-23T12:05:11Z</time>
      </trkpt>
      <trkpt lat="47.25165" lon="-1.65245">
        <ele>31.2</ele>
        <time>2022-01-23T12:05:13Z</time>
      </trkpt>
      <trkpt lat="47.25161" lon="-1.65285">
        <ele>30.8</ele>
        <time>2022-01-23T12:05:17Z</time>
      </trkpt>
      <trkpt lat="47.25158" lon="-1.65295">
        <ele>30.6</ele>
        <time>2022-01-23T12:05:18Z</time>
      </trkpt>
      <trkpt lat="47.25153" lon="-1.65315">
        <ele>30.6</ele>
        <time>2022-01-23T12:05:20Z</time>
      </trkpt>
      <trkpt lat="47.2515" lon="-1.65325">
        <ele>30.4</ele>
        <time>2022-01-23T12:05:21Z</time>
      </trkpt>
      <trkpt lat="47.25136" lon="-1.6537">
        <ele>30.2</ele>
        <time>2022-01-23T12:05:25Z</time>
      </trkpt>
      <trkpt lat="47.25132" lon="-1.65382">
        <ele>30</ele>
        <time>2022-01-23T12:05:26Z</time>
      </trkpt>
      <trkpt lat="47.25126" lon="-1.65393">
        <ele>30</ele>
        <time>2022-01-23T12:05:27Z</time>
      </trkpt>
      <trkpt lat="47.25116" lon="-1.65413">
        <ele>29.6</ele>
        <time>2022-01-23T12:05:29Z</time>
      </trkpt>
      <trkpt lat="47.2511" lon="-1.65435">
        <ele>29.2</ele>
        <time>2022-01-23T12:05:31Z</time>
      </trkpt>
      <trkpt lat="47.25108" lon="-1.65445">
        <ele>29</ele>
        <time>2022-01-23T12:05:32Z</time>
      </trkpt>
      <trkpt lat="47.25107" lon="-1.65454">
        <ele>29</ele>
        <time>2022-01-23T12:05:33Z</time>
      </trkpt>
      <trkpt lat="47.25105" lon="-1.65481">
        <ele>28.4</ele>
        <time>2022-01-23T12:05:36Z</time>
      </trkpt>
      <trkpt lat="47.25099" lon="-1.65511">
        <ele>28</ele>
        <time>2022-01-23T12:05:39Z</time>
      </trkpt>
      <trkpt lat="47.25098" lon="-1.65519">
        <ele>27.8</ele>
        <time>2022-01-23T12:05:40Z</time>
      </trkpt>
      <trkpt lat="47.25093" lon="-1.65538">
        <ele>27.6</ele>
        <time>2022-01-23T12:05:42Z</time>
      </trkpt>
      <trkpt lat="47.25087" lon="-1.65559">
        <ele>27.4</ele>
        <time>2022-01-23T12:05:44Z</time>
      </trkpt>
      <trkpt lat="47.25083" lon="-1.65569">
        <ele>27.4</ele>
        <time>2022-01-23T12:05:45Z</time>
      </trkpt>
      <trkpt lat="47.25076" lon="-1.65599">
        <ele>27</ele>
        <time>2022-01-23T12:05:48Z</time>
      </trkpt>
      <trkpt lat="47.2507" lon="-1.65639">
        <ele>26.2</ele>
        <time>2022-01-23T12:05:53Z</time>
      </trkpt>
      <trkpt lat="47.25071" lon="-1.65649">
        <ele>26</ele>
        <time>2022-01-23T12:05:55Z</time>
      </trkpt>
      <trkpt lat="47.2507" lon="-1.65655">
        <ele>26</ele>
        <time>2022-01-23T12:05:56Z</time>
      </trkpt>
      <trkpt lat="47.25062" lon="-1.65682">
        <ele>25.6</ele>
        <time>2022-01-23T12:06:01Z</time>
      </trkpt>
      <trkpt lat="47.2506" lon="-1.65699">
        <ele>25.2</ele>
        <time>2022-01-23T12:06:04Z</time>
      </trkpt>
      <trkpt lat="47.25059" lon="-1.65706">
        <ele>25.2</ele>
        <time>2022-01-23T12:06:05Z</time>
      </trkpt>
      <trkpt lat="47.2506" lon="-1.65718">
        <ele>24.6</ele>
        <time>2022-01-23T12:06:08Z</time>
      </trkpt>
      <trkpt lat="47.25061" lon="-1.65724">
        <ele>24.4</ele>
        <time>2022-01-23T12:06:10Z</time>
      </trkpt>
      <trkpt lat="47.25062" lon="-1.6573">
        <ele>24</ele>
        <time>2022-01-23T12:06:12Z</time>
      </trkpt>
      <trkpt lat="47.25062" lon="-1.65737">
        <ele>23.8</ele>
        <time>2022-01-23T12:06:14Z</time>
      </trkpt>
      <trkpt lat="47.25059" lon="-1.65756">
        <ele>22.8</ele>
        <time>2022-01-23T12:06:20Z</time>
      </trkpt>
      <trkpt lat="47.25058" lon="-1.65766">
        <ele>22.2</ele>
        <time>2022-01-23T12:06:23Z</time>
      </trkpt>
      <trkpt lat="47.25055" lon="-1.65772">
        <ele>22</ele>
        <time>2022-01-23T12:06:25Z</time>
      </trkpt>
      <trkpt lat="47.2505" lon="-1.65788">
        <ele>21.4</ele>
        <time>2022-01-23T12:06:29Z</time>
      </trkpt>
      <trkpt lat="47.25049" lon="-1.65799">
        <ele>21</ele>
        <time>2022-01-23T12:06:32Z</time>
      </trkpt>
      <trkpt lat="47.2505" lon="-1.65803">
        <ele>21.2</ele>
        <time>2022-01-23T12:06:33Z</time>
      </trkpt>
      <trkpt lat="47.2505" lon="-1.65823">
        <ele>20.8</ele>
        <time>2022-01-23T12:06:38Z</time>
      </trkpt>
      <trkpt lat="47.25053" lon="-1.65839">
        <ele>20.4</ele>
        <time>2022-01-23T12:06:42Z</time>
      </trkpt>
      <trkpt lat="47.25053" lon="-1.65847">
        <ele>20.4</ele>
        <time>2022-01-23T12:06:44Z</time>
      </trkpt>
      <trkpt lat="47.25053" lon="-1.65854">
        <ele>20</ele>
        <time>2022-01-23T12:06:46Z</time>
      </trkpt>
      <trkpt lat="47.25053" lon="-1.65869">
        <ele>19.6</ele>
        <time>2022-01-23T12:06:50Z</time>
      </trkpt>
      <trkpt lat="47.25056" lon="-1.65882">
        <ele>19.2</ele>
        <time>2022-01-23T12:06:54Z</time>
      </trkpt>
      <trkpt lat="47.25055" lon="-1.65893">
        <ele>19.2</ele>
        <time>2022-01-23T12:06:56Z</time>
      </trkpt>
      <trkpt lat="47.25056" lon="-1.65899">
        <ele>19</ele>
        <time>2022-01-23T12:06:58Z</time>
      </trkpt>
      <trkpt lat="47.25056" lon="-1.65902">
        <ele>19</ele>
        <time>2022-01-23T12:06:59Z</time>
      </trkpt>
      <trkpt lat="47.25056" lon="-1.6591">
        <ele>19</ele>
        <time>2022-01-23T12:07:01Z</time>
      </trkpt>
      <trkpt lat="47.25057" lon="-1.65913">
        <ele>18.8</ele>
        <time>2022-01-23T12:07:02Z</time>
      </trkpt>
      <trkpt lat="47.25062" lon="-1.65918">
        <ele>18.4</ele>
        <time>2022-01-23T12:07:05Z</time>
      </trkpt>
      <trkpt lat="47.25063" lon="-1.65925">
        <ele>18.2</ele>
        <time>2022-01-23T12:07:07Z</time>
      </trkpt>
      <trkpt lat="47.25065" lon="-1.65942">
        <ele>17.6</ele>
        <time>2022-01-23T12:07:11Z</time>
      </trkpt>
      <trkpt lat="47.25065" lon="-1.65947">
        <ele>17.4</ele>
        <time>2022-01-23T12:07:13Z</time>
      </trkpt>
      <trkpt lat="47.25066" lon="-1.65958">
        <ele>17.2</ele>
        <time>2022-01-23T12:07:15Z</time>
      </trkpt>
      <trkpt lat="47.25067" lon="-1.65963">
        <ele>17</ele>
        <time>2022-01-23T12:07:16Z</time>
      </trkpt>
      <trkpt lat="47.25073" lon="-1.65979">
        <ele>16.4</ele>
        <time>2022-01-23T12:07:20Z</time>
      </trkpt>
      <trkpt lat="47.25077" lon="-1.65989">
        <ele>16</ele>
        <time>2022-01-23T12:07:23Z</time>
      </trkpt>
      <trkpt lat="47.25078" lon="-1.66001">
        <ele>15.8</ele>
        <time>2022-01-23T12:07:27Z</time>
      </trkpt>
      <trkpt lat="47.25078" lon="-1.66009">
        <ele>16</ele>
        <time>2022-01-23T12:07:28Z</time>
      </trkpt>
      <trkpt lat="47.25078" lon="-1.66012">
        <ele>15.8</ele>
        <time>2022-01-23T12:07:29Z</time>
      </trkpt>
      <trkpt lat="47.25079" lon="-1.66022">
        <ele>15.8</ele>
        <time>2022-01-23T12:07:31Z</time>
      </trkpt>
      <trkpt lat="47.25082" lon="-1.66037">
        <ele>15.4</ele>
        <time>2022-01-23T12:07:34Z</time>
      </trkpt>
      <trkpt lat="47.25084" lon="-1.66039">
        <ele>15.2</ele>
        <time>2022-01-23T12:07:35Z</time>
      </trkpt>
      <trkpt lat="47.2509" lon="-1.66057">
        <ele>15.8</ele>
        <time>2022-01-23T12:07:41Z</time>
      </trkpt>
      <trkpt lat="47.25091" lon="-1.66063">
        <ele>17</ele>
        <time>2022-01-23T12:07:43Z</time>
      </trkpt>
      <trkpt lat="47.25093" lon="-1.66066">
        <ele>16.8</ele>
        <time>2022-01-23T12:07:45Z</time>
      </trkpt>
      <trkpt lat="47.25094" lon="-1.66069">
        <ele>16.8</ele>
        <time>2022-01-23T12:07:46Z</time>
      </trkpt>
      <trkpt lat="47.25095" lon="-1.66076">
        <ele>17.2</ele>
        <time>2022-01-23T12:07:48Z</time>
      </trkpt>
      <trkpt lat="47.25098" lon="-1.66077">
        <ele>17.6</ele>
        <time>2022-01-23T12:07:50Z</time>
      </trkpt>
      <trkpt lat="47.25099" lon="-1.66079">
        <ele>17.6</ele>
        <time>2022-01-23T12:07:51Z</time>
      </trkpt>
      <trkpt lat="47.25101" lon="-1.66086">
        <ele>18</ele>
        <time>2022-01-23T12:07:54Z</time>
      </trkpt>
      <trkpt lat="47.25102" lon="-1.66089">
        <ele>18</ele>
        <time>2022-01-23T12:07:55Z</time>
      </trkpt>
      <trkpt lat="47.2513" lon="-1.66101">
        <ele>21.6</ele>
        <time>2022-01-23T12:08:23Z</time>
      </trkpt>
      <trkpt lat="47.25132" lon="-1.66102">
        <ele>21.6</ele>
        <time>2022-01-23T12:08:24Z</time>
      </trkpt>
      <trkpt lat="47.25133" lon="-1.66103">
        <ele>21.6</ele>
        <time>2022-01-23T12:08:25Z</time>
      </trkpt>
      <trkpt lat="47.2514" lon="-1.6611">
        <ele>22</ele>
        <time>2022-01-23T12:08:29Z</time>
      </trkpt>
      <trkpt lat="47.25146" lon="-1.6612">
        <ele>22.2</ele>
        <time>2022-01-23T12:08:32Z</time>
      </trkpt>
      <trkpt lat="47.25153" lon="-1.66137">
        <ele>22.4</ele>
        <time>2022-01-23T12:08:36Z</time>
      </trkpt>
      <trkpt lat="47.25154" lon="-1.6614">
        <ele>22.6</ele>
        <time>2022-01-23T12:08:38Z</time>
      </trkpt>
      <trkpt lat="47.25167" lon="-1.6615">
        <ele>23.4</ele>
        <time>2022-01-23T12:08:58Z</time>
      </trkpt>
      <trkpt lat="47.25174" lon="-1.6616">
        <ele>23.4</ele>
        <time>2022-01-23T12:09:02Z</time>
      </trkpt>
      <trkpt lat="47.25179" lon="-1.66166">
        <ele>23.4</ele>
        <time>2022-01-23T12:09:05Z</time>
      </trkpt>
      <trkpt lat="47.25181" lon="-1.6617">
        <ele>23.4</ele>
        <time>2022-01-23T12:09:07Z</time>
      </trkpt>
      <trkpt lat="47.25187" lon="-1.6618">
        <ele>23.4</ele>
        <time>2022-01-23T12:09:11Z</time>
      </trkpt>
      <trkpt lat="47.25199" lon="-1.66202">
        <ele>22.8</ele>
        <time>2022-01-23T12:09:17Z</time>
      </trkpt>
      <trkpt lat="47.25201" lon="-1.66207">
        <ele>23</ele>
        <time>2022-01-23T12:09:18Z</time>
      </trkpt>
      <trkpt lat="47.25207" lon="-1.66221">
        <ele>22.8</ele>
        <time>2022-01-23T12:09:21Z</time>
      </trkpt>
      <trkpt lat="47.25217" lon="-1.66234">
        <ele>22.4</ele>
        <time>2022-01-23T12:09:25Z</time>
      </trkpt>
      <trkpt lat="47.25219" lon="-1.66236">
        <ele>22.4</ele>
        <time>2022-01-23T12:09:26Z</time>
      </trkpt>
      <trkpt lat="47.25229" lon="-1.66263">
        <ele>22.6</ele>
        <time>2022-01-23T12:09:31Z</time>
      </trkpt>
      <trkpt lat="47.25239" lon="-1.66279">
        <ele>22.2</ele>
        <time>2022-01-23T12:09:35Z</time>
      </trkpt>
      <trkpt lat="47.25239" lon="-1.66283">
        <ele>22.2</ele>
        <time>2022-01-23T12:09:36Z</time>
      </trkpt>
      <trkpt lat="47.25243" lon="-1.66295">
        <ele>22.2</ele>
        <time>2022-01-23T12:09:39Z</time>
      </trkpt>
      <trkpt lat="47.25248" lon="-1.66309">
        <ele>22.4</ele>
        <time>2022-01-23T12:09:43Z</time>
      </trkpt>
      <trkpt lat="47.25255" lon="-1.6632">
        <ele>22.2</ele>
        <time>2022-01-23T12:09:47Z</time>
      </trkpt>
      <trkpt lat="47.25257" lon="-1.66322">
        <ele>22.2</ele>
        <time>2022-01-23T12:09:48Z</time>
      </trkpt>
      <trkpt lat="47.2526" lon="-1.66326">
        <ele>22.4</ele>
        <time>2022-01-23T12:09:50Z</time>
      </trkpt>
      <trkpt lat="47.25264" lon="-1.6634">
        <ele>22.6</ele>
        <time>2022-01-23T12:09:54Z</time>
      </trkpt>
      <trkpt lat="47.25267" lon="-1.66358">
        <ele>22.6</ele>
        <time>2022-01-23T12:09:58Z</time>
      </trkpt>
      <trkpt lat="47.25274" lon="-1.66382">
        <ele>22.6</ele>
        <time>2022-01-23T12:10:03Z</time>
      </trkpt>
      <trkpt lat="47.25276" lon="-1.66389">
        <ele>22.4</ele>
        <time>2022-01-23T12:10:05Z</time>
      </trkpt>
      <trkpt lat="47.25278" lon="-1.66395">
        <ele>22.6</ele>
        <time>2022-01-23T12:10:07Z</time>
      </trkpt>
      <trkpt lat="47.25283" lon="-1.66413">
        <ele>22.8</ele>
        <time>2022-01-23T12:10:12Z</time>
      </trkpt>
      <trkpt lat="47.25284" lon="-1.6642">
        <ele>23</ele>
        <time>2022-01-23T12:10:14Z</time>
      </trkpt>
      <trkpt lat="47.25286" lon="-1.66427">
        <ele>23</ele>
        <time>2022-01-23T12:10:16Z</time>
      </trkpt>
      <trkpt lat="47.25287" lon="-1.66431">
        <ele>23.2</ele>
        <time>2022-01-23T12:10:17Z</time>
      </trkpt>
      <trkpt lat="47.25293" lon="-1.66443">
        <ele>23.4</ele>
        <time>2022-01-23T12:10:21Z</time>
      </trkpt>
      <trkpt lat="47.25302" lon="-1.66461">
        <ele>23.4</ele>
        <time>2022-01-23T12:10:25Z</time>
      </trkpt>
      <trkpt lat="47.25309" lon="-1.66474">
        <ele>24.2</ele>
        <time>2022-01-23T12:10:30Z</time>
      </trkpt>
      <trkpt lat="47.25315" lon="-1.66482">
        <ele>25</ele>
        <time>2022-01-23T12:10:35Z</time>
      </trkpt>
      <trkpt lat="47.25325" lon="-1.66484">
        <ele>25.4</ele>
        <time>2022-01-23T12:10:40Z</time>
      </trkpt>
      <trkpt lat="47.25326" lon="-1.66486">
        <ele>25.4</ele>
        <time>2022-01-23T12:10:41Z</time>
      </trkpt>
      <trkpt lat="47.25328" lon="-1.66493">
        <ele>25.4</ele>
        <time>2022-01-23T12:10:43Z</time>
      </trkpt>
      <trkpt lat="47.25327" lon="-1.66509">
        <ele>25.6</ele>
        <time>2022-01-23T12:10:46Z</time>
      </trkpt>
      <trkpt lat="47.25328" lon="-1.66521">
        <ele>25.8</ele>
        <time>2022-01-23T12:10:48Z</time>
      </trkpt>
      <trkpt lat="47.25332" lon="-1.66542">
        <ele>26.4</ele>
        <time>2022-01-23T12:10:53Z</time>
      </trkpt>
      <trkpt lat="47.25333" lon="-1.66564">
        <ele>27</ele>
        <time>2022-01-23T12:10:58Z</time>
      </trkpt>
      <trkpt lat="47.25335" lon="-1.66584">
        <ele>27.4</ele>
        <time>2022-01-23T12:11:03Z</time>
      </trkpt>
      <trkpt lat="47.25335" lon="-1.66612">
        <ele>28.4</ele>
        <time>2022-01-23T12:11:09Z</time>
      </trkpt>
      <trkpt lat="47.25336" lon="-1.66643">
        <ele>29</ele>
        <time>2022-01-23T12:11:16Z</time>
      </trkpt>
      <trkpt lat="47.25336" lon="-1.66669">
        <ele>29.8</ele>
        <time>2022-01-23T12:11:22Z</time>
      </trkpt>
      <trkpt lat="47.25336" lon="-1.66706">
        <ele>30.4</ele>
        <time>2022-01-23T12:11:30Z</time>
      </trkpt>
      <trkpt lat="47.25335" lon="-1.6674">
        <ele>31</ele>
        <time>2022-01-23T12:11:37Z</time>
      </trkpt>
      <trkpt lat="47.25337" lon="-1.66768">
        <ele>31.6</ele>
        <time>2022-01-23T12:11:43Z</time>
      </trkpt>
      <trkpt lat="47.25338" lon="-1.66793">
        <ele>32</ele>
        <time>2022-01-23T12:11:49Z</time>
      </trkpt>
      <trkpt lat="47.25338" lon="-1.66812">
        <ele>32.4</ele>
        <time>2022-01-23T12:11:53Z</time>
      </trkpt>
      <trkpt lat="47.25338" lon="-1.66825">
        <ele>32.6</ele>
        <time>2022-01-23T12:11:56Z</time>
      </trkpt>
      <trkpt lat="47.25339" lon="-1.66829">
        <ele>32.6</ele>
        <time>2022-01-23T12:11:57Z</time>
      </trkpt>
      <trkpt lat="47.25337" lon="-1.66845">
        <ele>33</ele>
        <time>2022-01-23T12:12:01Z</time>
      </trkpt>
      <trkpt lat="47.25337" lon="-1.66863">
        <ele>33.4</ele>
        <time>2022-01-23T12:12:05Z</time>
      </trkpt>
      <trkpt lat="47.25341" lon="-1.66898">
        <ele>34</ele>
        <time>2022-01-23T12:12:11Z</time>
      </trkpt>
      <trkpt lat="47.25341" lon="-1.66905">
        <ele>34</ele>
        <time>2022-01-23T12:12:12Z</time>
      </trkpt>
      <trkpt lat="47.25342" lon="-1.66926">
        <ele>34</ele>
        <time>2022-01-23T12:12:15Z</time>
      </trkpt>
      <trkpt lat="47.25342" lon="-1.6694">
        <ele>34</ele>
        <time>2022-01-23T12:12:17Z</time>
      </trkpt>
      <trkpt lat="47.25342" lon="-1.66947">
        <ele>34.2</ele>
        <time>2022-01-23T12:12:18Z</time>
      </trkpt>
      <trkpt lat="47.25342" lon="-1.66962">
        <ele>34.2</ele>
        <time>2022-01-23T12:12:20Z</time>
      </trkpt>
      <trkpt lat="47.25341" lon="-1.66974">
        <ele>34.2</ele>
        <time>2022-01-23T12:12:22Z</time>
      </trkpt>
      <trkpt lat="47.25343" lon="-1.66991">
        <ele>34.2</ele>
        <time>2022-01-23T12:12:25Z</time>
      </trkpt>
      <trkpt lat="47.25344" lon="-1.66998">
        <ele>34.2</ele>
        <time>2022-01-23T12:12:26Z</time>
      </trkpt>
      <trkpt lat="47.25345" lon="-1.67011">
        <ele>34.2</ele>
        <time>2022-01-23T12:12:28Z</time>
      </trkpt>
      <trkpt lat="47.25347" lon="-1.67029">
        <ele>34</ele>
        <time>2022-01-23T12:12:31Z</time>
      </trkpt>
      <trkpt lat="47.25348" lon="-1.67035">
        <ele>34.8</ele>
        <time>2022-01-23T12:12:32Z</time>
      </trkpt>
      <trkpt lat="47.25349" lon="-1.67056">
        <ele>34</ele>
        <time>2022-01-23T12:12:35Z</time>
      </trkpt>
      <trkpt lat="47.2535" lon="-1.67062">
        <ele>33.6</ele>
        <time>2022-01-23T12:12:36Z</time>
      </trkpt>
      <trkpt lat="47.2535" lon="-1.67069">
        <ele>33.4</ele>
        <time>2022-01-23T12:12:37Z</time>
      </trkpt>
      <trkpt lat="47.25351" lon="-1.67083">
        <ele>33.6</ele>
        <time>2022-01-23T12:12:39Z</time>
      </trkpt>
      <trkpt lat="47.25353" lon="-1.67098">
        <ele>33.4</ele>
        <time>2022-01-23T12:12:41Z</time>
      </trkpt>
      <trkpt lat="47.25355" lon="-1.67111">
        <ele>33.2</ele>
        <time>2022-01-23T12:12:43Z</time>
      </trkpt>
      <trkpt lat="47.25356" lon="-1.67126">
        <ele>33</ele>
        <time>2022-01-23T12:12:45Z</time>
      </trkpt>
      <trkpt lat="47.25359" lon="-1.67159">
        <ele>32.6</ele>
        <time>2022-01-23T12:12:50Z</time>
      </trkpt>
      <trkpt lat="47.2536" lon="-1.67179">
        <ele>32.6</ele>
        <time>2022-01-23T12:12:54Z</time>
      </trkpt>
      <trkpt lat="47.25363" lon="-1.67198">
        <ele>32.4</ele>
        <time>2022-01-23T12:12:58Z</time>
      </trkpt>
      <trkpt lat="47.25367" lon="-1.6723">
        <ele>32.2</ele>
        <time>2022-01-23T12:13:02Z</time>
      </trkpt>
      <trkpt lat="47.2537" lon="-1.67256">
        <ele>31.8</ele>
        <time>2022-01-23T12:13:05Z</time>
      </trkpt>
      <trkpt lat="47.25371" lon="-1.67267">
        <ele>31.6</ele>
        <time>2022-01-23T12:13:06Z</time>
      </trkpt>
      <trkpt lat="47.25375" lon="-1.67287">
        <ele>31</ele>
        <time>2022-01-23T12:13:09Z</time>
      </trkpt>
      <trkpt lat="47.25375" lon="-1.67306">
        <ele>30.6</ele>
        <time>2022-01-23T12:13:12Z</time>
      </trkpt>
      <trkpt lat="47.25377" lon="-1.67312">
        <ele>30.4</ele>
        <time>2022-01-23T12:13:13Z</time>
      </trkpt>
      <trkpt lat="47.25379" lon="-1.67319">
        <ele>30.2</ele>
        <time>2022-01-23T12:13:14Z</time>
      </trkpt>
      <trkpt lat="47.25382" lon="-1.67335">
        <ele>29.6</ele>
        <time>2022-01-23T12:13:17Z</time>
      </trkpt>
      <trkpt lat="47.25383" lon="-1.67341">
        <ele>29.4</ele>
        <time>2022-01-23T12:13:18Z</time>
      </trkpt>
      <trkpt lat="47.25385" lon="-1.67355">
        <ele>28.8</ele>
        <time>2022-01-23T12:13:20Z</time>
      </trkpt>
      <trkpt lat="47.25388" lon="-1.67372">
        <ele>28.2</ele>
        <time>2022-01-23T12:13:23Z</time>
      </trkpt>
      <trkpt lat="47.25384" lon="-1.6739">
        <ele>27.8</ele>
        <time>2022-01-23T12:13:26Z</time>
      </trkpt>
      <trkpt lat="47.25373" lon="-1.67407">
        <ele>27.6</ele>
        <time>2022-01-23T12:13:30Z</time>
      </trkpt>
      <trkpt lat="47.25366" lon="-1.67426">
        <ele>27.2</ele>
        <time>2022-01-23T12:13:34Z</time>
      </trkpt>
      <trkpt lat="47.25355" lon="-1.6745">
        <ele>27.6</ele>
        <time>2022-01-23T12:13:38Z</time>
      </trkpt>
      <trkpt lat="47.25345" lon="-1.67475">
        <ele>26.4</ele>
        <time>2022-01-23T12:13:43Z</time>
      </trkpt>
      <trkpt lat="47.25344" lon="-1.67493">
        <ele>28.2</ele>
        <time>2022-01-23T12:13:47Z</time>
      </trkpt>
      <trkpt lat="47.25344" lon="-1.67513">
        <ele>28.4</ele>
        <time>2022-01-23T12:13:51Z</time>
      </trkpt>
      <trkpt lat="47.25343" lon="-1.67517">
        <ele>28.4</ele>
        <time>2022-01-23T12:13:52Z</time>
      </trkpt>
      <trkpt lat="47.25336" lon="-1.67538">
        <ele>28.6</ele>
        <time>2022-01-23T12:13:56Z</time>
      </trkpt>
      <trkpt lat="47.25321" lon="-1.67555">
        <ele>29</ele>
        <time>2022-01-23T12:14:01Z</time>
      </trkpt>
      <trkpt lat="47.25311" lon="-1.67564">
        <ele>29.2</ele>
        <time>2022-01-23T12:14:05Z</time>
      </trkpt>
      <trkpt lat="47.25295" lon="-1.6758">
        <ele>29.8</ele>
        <time>2022-01-23T12:14:10Z</time>
      </trkpt>
      <trkpt lat="47.25288" lon="-1.67589">
        <ele>30.2</ele>
        <time>2022-01-23T12:14:13Z</time>
      </trkpt>
      <trkpt lat="47.25289" lon="-1.67593">
        <ele>30.4</ele>
        <time>2022-01-23T12:14:14Z</time>
      </trkpt>
      <trkpt lat="47.25296" lon="-1.67615">
        <ele>30.8</ele>
        <time>2022-01-23T12:14:19Z</time>
      </trkpt>
      <trkpt lat="47.2531" lon="-1.67658">
        <ele>31</ele>
        <time>2022-01-23T12:14:26Z</time>
      </trkpt>
      <trkpt lat="47.25317" lon="-1.67679">
        <ele>31</ele>
        <time>2022-01-23T12:14:29Z</time>
      </trkpt>
      <trkpt lat="47.25324" lon="-1.67701">
        <ele>30.8</ele>
        <time>2022-01-23T12:14:32Z</time>
      </trkpt>
      <trkpt lat="47.25325" lon="-1.67717">
        <ele>30.8</ele>
        <time>2022-01-23T12:14:34Z</time>
      </trkpt>
      <trkpt lat="47.25323" lon="-1.67732">
        <ele>30.8</ele>
        <time>2022-01-23T12:14:36Z</time>
      </trkpt>
      <trkpt lat="47.25317" lon="-1.67745">
        <ele>31</ele>
        <time>2022-01-23T12:14:38Z</time>
      </trkpt>
      <trkpt lat="47.25309" lon="-1.67755">
        <ele>31.2</ele>
        <time>2022-01-23T12:14:40Z</time>
      </trkpt>
      <trkpt lat="47.25297" lon="-1.67767">
        <ele>31.4</ele>
        <time>2022-01-23T12:14:43Z</time>
      </trkpt>
      <trkpt lat="47.25279" lon="-1.67782">
        <ele>31.8</ele>
        <time>2022-01-23T12:14:47Z</time>
      </trkpt>
      <trkpt lat="47.25262" lon="-1.67795">
        <ele>32</ele>
        <time>2022-01-23T12:14:51Z</time>
      </trkpt>
      <trkpt lat="47.25254" lon="-1.67804">
        <ele>32.2</ele>
        <time>2022-01-23T12:14:53Z</time>
      </trkpt>
      <trkpt lat="47.25242" lon="-1.67816">
        <ele>32.2</ele>
        <time>2022-01-23T12:14:56Z</time>
      </trkpt>
      <trkpt lat="47.25233" lon="-1.67824">
        <ele>32.4</ele>
        <time>2022-01-23T12:14:58Z</time>
      </trkpt>
      <trkpt lat="47.25226" lon="-1.67835">
        <ele>32.6</ele>
        <time>2022-01-23T12:15:00Z</time>
      </trkpt>
      <trkpt lat="47.2522" lon="-1.67848">
        <ele>32.8</ele>
        <time>2022-01-23T12:15:02Z</time>
      </trkpt>
      <trkpt lat="47.25218" lon="-1.67854">
        <ele>33</ele>
        <time>2022-01-23T12:15:03Z</time>
      </trkpt>
      <trkpt lat="47.2521" lon="-1.67895">
        <ele>33.6</ele>
        <time>2022-01-23T12:15:09Z</time>
      </trkpt>
      <trkpt lat="47.25207" lon="-1.67918">
        <ele>33.8</ele>
        <time>2022-01-23T12:15:13Z</time>
      </trkpt>
      <trkpt lat="47.25206" lon="-1.67923">
        <ele>33.8</ele>
        <time>2022-01-23T12:15:14Z</time>
      </trkpt>
      <trkpt lat="47.25204" lon="-1.67927">
        <ele>33.8</ele>
        <time>2022-01-23T12:15:15Z</time>
      </trkpt>
      <trkpt lat="47.25199" lon="-1.67932">
        <ele>34</ele>
        <time>2022-01-23T12:15:17Z</time>
      </trkpt>
      <trkpt lat="47.25192" lon="-1.67941">
        <ele>34.6</ele>
        <time>2022-01-23T12:15:20Z</time>
      </trkpt>
      <trkpt lat="47.25188" lon="-1.67942">
        <ele>35</ele>
        <time>2022-01-23T12:15:22Z</time>
      </trkpt>
      <trkpt lat="47.25177" lon="-1.67937">
        <ele>35.8</ele>
        <time>2022-01-23T12:15:27Z</time>
      </trkpt>
      <trkpt lat="47.25159" lon="-1.67923">
        <ele>37</ele>
        <time>2022-01-23T12:15:35Z</time>
      </trkpt>
      <trkpt lat="47.25149" lon="-1.67914">
        <ele>37.4</ele>
        <time>2022-01-23T12:15:40Z</time>
      </trkpt>
      <trkpt lat="47.25137" lon="-1.67904">
        <ele>38</ele>
        <time>2022-01-23T12:15:46Z</time>
      </trkpt>
      <trkpt lat="47.25123" lon="-1.67892">
        <ele>39.2</ele>
        <time>2022-01-23T12:15:52Z</time>
      </trkpt>
      <trkpt lat="47.25105" lon="-1.67876">
        <ele>40.4</ele>
        <time>2022-01-23T12:16:00Z</time>
      </trkpt>
      <trkpt lat="47.25087" lon="-1.67858">
        <ele>42</ele>
        <time>2022-01-23T12:16:09Z</time>
      </trkpt>
      <trkpt lat="47.25072" lon="-1.67847">
        <ele>43</ele>
        <time>2022-01-23T12:16:16Z</time>
      </trkpt>
      <trkpt lat="47.25056" lon="-1.67833">
        <ele>44.4</ele>
        <time>2022-01-23T12:16:23Z</time>
      </trkpt>
      <trkpt lat="47.25042" lon="-1.67828">
        <ele>45.2</ele>
        <time>2022-01-23T12:16:29Z</time>
      </trkpt>
      <trkpt lat="47.25029" lon="-1.67834">
        <ele>46</ele>
        <time>2022-01-23T12:16:35Z</time>
      </trkpt>
      <trkpt lat="47.25017" lon="-1.67843">
        <ele>47.2</ele>
        <time>2022-01-23T12:16:41Z</time>
      </trkpt>
      <trkpt lat="47.25005" lon="-1.67845">
        <ele>48</ele>
        <time>2022-01-23T12:16:46Z</time>
      </trkpt>
      <trkpt lat="47.24999" lon="-1.67846">
        <ele>48.2</ele>
        <time>2022-01-23T12:16:48Z</time>
      </trkpt>
      <trkpt lat="47.24994" lon="-1.67848">
        <ele>48.6</ele>
        <time>2022-01-23T12:16:50Z</time>
      </trkpt>
      <trkpt lat="47.24984" lon="-1.67849">
        <ele>49.2</ele>
        <time>2022-01-23T12:16:54Z</time>
      </trkpt>
      <trkpt lat="47.24973" lon="-1.67853">
        <ele>49.8</ele>
        <time>2022-01-23T12:16:59Z</time>
      </trkpt>
      <trkpt lat="47.24961" lon="-1.67855">
        <ele>50.8</ele>
        <time>2022-01-23T12:17:04Z</time>
      </trkpt>
      <trkpt lat="47.24947" lon="-1.67859">
        <ele>51.8</ele>
        <time>2022-01-23T12:17:10Z</time>
      </trkpt>
      <trkpt lat="47.24939" lon="-1.67861">
        <ele>52.2</ele>
        <time>2022-01-23T12:17:13Z</time>
      </trkpt>
      <trkpt lat="47.24936" lon="-1.67862">
        <ele>52.4</ele>
        <time>2022-01-23T12:17:14Z</time>
      </trkpt>
      <trkpt lat="47.24923" lon="-1.67865">
        <ele>53.4</ele>
        <time>2022-01-23T12:17:19Z</time>
      </trkpt>
      <trkpt lat="47.24918" lon="-1.67865">
        <ele>53.6</ele>
        <time>2022-01-23T12:17:21Z</time>
      </trkpt>
      <trkpt lat="47.24913" lon="-1.67866">
        <ele>53.8</ele>
        <time>2022-01-23T12:17:23Z</time>
      </trkpt>
      <trkpt lat="47.24905" lon="-1.67866">
        <ele>54.4</ele>
        <time>2022-01-23T12:17:26Z</time>
      </trkpt>
      <trkpt lat="47.24903" lon="-1.67868">
        <ele>54.6</ele>
        <time>2022-01-23T12:17:27Z</time>
      </trkpt>
      <trkpt lat="47.24902" lon="-1.67871">
        <ele>54.6</ele>
        <time>2022-01-23T12:17:28Z</time>
      </trkpt>
      <trkpt lat="47.24902" lon="-1.6788">
        <ele>55</ele>
        <time>2022-01-23T12:17:30Z</time>
      </trkpt>
      <trkpt lat="47.24902" lon="-1.67901">
        <ele>55.4</ele>
        <time>2022-01-23T12:17:35Z</time>
      </trkpt>
      <trkpt lat="47.24905" lon="-1.67917">
        <ele>55.6</ele>
        <time>2022-01-23T12:17:39Z</time>
      </trkpt>
      <trkpt lat="47.24907" lon="-1.67929">
        <ele>55.8</ele>
        <time>2022-01-23T12:17:42Z</time>
      </trkpt>
      <trkpt lat="47.24908" lon="-1.67934">
        <ele>55.8</ele>
        <time>2022-01-23T12:17:43Z</time>
      </trkpt>
      <trkpt lat="47.24911" lon="-1.67956">
        <ele>56.2</ele>
        <time>2022-01-23T12:17:48Z</time>
      </trkpt>
      <trkpt lat="47.24912" lon="-1.67981">
        <ele>56.4</ele>
        <time>2022-01-23T12:17:53Z</time>
      </trkpt>
      <trkpt lat="47.24908" lon="-1.67998">
        <ele>56.6</ele>
        <time>2022-01-23T12:17:57Z</time>
      </trkpt>
      <trkpt lat="47.24902" lon="-1.68026">
        <ele>57</ele>
        <time>2022-01-23T12:18:02Z</time>
      </trkpt>
      <trkpt lat="47.249" lon="-1.68053">
        <ele>57.4</ele>
        <time>2022-01-23T12:18:07Z</time>
      </trkpt>
      <trkpt lat="47.24905" lon="-1.68088">
        <ele>58</ele>
        <time>2022-01-23T12:18:14Z</time>
      </trkpt>
      <trkpt lat="47.24906" lon="-1.68114">
        <ele>58.4</ele>
        <time>2022-01-23T12:18:19Z</time>
      </trkpt>
      <trkpt lat="47.24906" lon="-1.68153">
        <ele>58.6</ele>
        <time>2022-01-23T12:18:26Z</time>
      </trkpt>
      <trkpt lat="47.24905" lon="-1.68176">
        <ele>58.8</ele>
        <time>2022-01-23T12:18:30Z</time>
      </trkpt>
      <trkpt lat="47.24902" lon="-1.68215">
        <ele>58.8</ele>
        <time>2022-01-23T12:18:36Z</time>
      </trkpt>
      <trkpt lat="47.24899" lon="-1.6823">
        <ele>58.8</ele>
        <time>2022-01-23T12:18:39Z</time>
      </trkpt>
      <trkpt lat="47.24898" lon="-1.68242">
        <ele>58.8</ele>
        <time>2022-01-23T12:18:41Z</time>
      </trkpt>
      <trkpt lat="47.24899" lon="-1.68248">
        <ele>58.8</ele>
        <time>2022-01-23T12:18:42Z</time>
      </trkpt>
      <trkpt lat="47.24902" lon="-1.68252">
        <ele>58.8</ele>
        <time>2022-01-23T12:18:43Z</time>
      </trkpt>
      <trkpt lat="47.24907" lon="-1.68256">
        <ele>59</ele>
        <time>2022-01-23T12:18:45Z</time>
      </trkpt>
      <trkpt lat="47.2491" lon="-1.68257">
        <ele>59</ele>
        <time>2022-01-23T12:18:46Z</time>
      </trkpt>
      <trkpt lat="47.24916" lon="-1.68265">
        <ele>59</ele>
        <time>2022-01-23T12:18:48Z</time>
      </trkpt>
      <trkpt lat="47.24918" lon="-1.68271">
        <ele>59</ele>
        <time>2022-01-23T12:18:49Z</time>
      </trkpt>
      <trkpt lat="47.24919" lon="-1.68285">
        <ele>58.8</ele>
        <time>2022-01-23T12:18:51Z</time>
      </trkpt>
      <trkpt lat="47.24919" lon="-1.68324">
        <ele>58.6</ele>
        <time>2022-01-23T12:18:56Z</time>
      </trkpt>
      <trkpt lat="47.24919" lon="-1.68338">
        <ele>58.4</ele>
        <time>2022-01-23T12:18:58Z</time>
      </trkpt>
      <trkpt lat="47.24917" lon="-1.68391">
        <ele>57.6</ele>
        <time>2022-01-23T12:19:05Z</time>
      </trkpt>
      <trkpt lat="47.24917" lon="-1.68444">
        <ele>57</ele>
        <time>2022-01-23T12:19:12Z</time>
      </trkpt>
      <trkpt lat="47.24917" lon="-1.6845">
        <ele>56.8</ele>
        <time>2022-01-23T12:19:13Z</time>
      </trkpt>
      <trkpt lat="47.24911" lon="-1.68457">
        <ele>56.8</ele>
        <time>2022-01-23T12:19:15Z</time>
      </trkpt>
      <trkpt lat="47.24907" lon="-1.68459">
        <ele>57</ele>
        <time>2022-01-23T12:19:16Z</time>
      </trkpt>
      <trkpt lat="47.24898" lon="-1.68462">
        <ele>56.8</ele>
        <time>2022-01-23T12:19:18Z</time>
      </trkpt>
      <trkpt lat="47.24877" lon="-1.68465">
        <ele>56.2</ele>
        <time>2022-01-23T12:19:23Z</time>
      </trkpt>
      <trkpt lat="47.24873" lon="-1.68465">
        <ele>56.2</ele>
        <time>2022-01-23T12:19:24Z</time>
      </trkpt>
      <trkpt lat="47.24864" lon="-1.68465">
        <ele>56</ele>
        <time>2022-01-23T12:19:26Z</time>
      </trkpt>
      <trkpt lat="47.24859" lon="-1.68465">
        <ele>56</ele>
        <time>2022-01-23T12:19:27Z</time>
      </trkpt>
      <trkpt lat="47.24845" lon="-1.68466">
        <ele>55.8</ele>
        <time>2022-01-23T12:19:30Z</time>
      </trkpt>
      <trkpt lat="47.24837" lon="-1.68463">
        <ele>55.8</ele>
        <time>2022-01-23T12:19:32Z</time>
      </trkpt>
      <trkpt lat="47.24818" lon="-1.68457">
        <ele>55.8</ele>
        <time>2022-01-23T12:19:37Z</time>
      </trkpt>
      <trkpt lat="47.24804" lon="-1.68445">
        <ele>55.6</ele>
        <time>2022-01-23T12:19:41Z</time>
      </trkpt>
      <trkpt lat="47.24796" lon="-1.6843">
        <ele>56.6</ele>
        <time>2022-01-23T12:19:46Z</time>
      </trkpt>
      <trkpt lat="47.24795" lon="-1.68426">
        <ele>56.6</ele>
        <time>2022-01-23T12:19:47Z</time>
      </trkpt>
      <trkpt lat="47.24787" lon="-1.68409">
        <ele>56.6</ele>
        <time>2022-01-23T12:19:51Z</time>
      </trkpt>
      <trkpt lat="47.24773" lon="-1.68384">
        <ele>56.8</ele>
        <time>2022-01-23T12:19:56Z</time>
      </trkpt>
      <trkpt lat="47.2477" lon="-1.6838">
        <ele>57</ele>
        <time>2022-01-23T12:19:57Z</time>
      </trkpt>
      <trkpt lat="47.24763" lon="-1.68367">
        <ele>57</ele>
        <time>2022-01-23T12:20:00Z</time>
      </trkpt>
      <trkpt lat="47.24752" lon="-1.68346">
        <ele>57</ele>
        <time>2022-01-23T12:20:04Z</time>
      </trkpt>
      <trkpt lat="47.24745" lon="-1.68327">
        <ele>57</ele>
        <time>2022-01-23T12:20:07Z</time>
      </trkpt>
      <trkpt lat="47.24742" lon="-1.68322">
        <ele>57</ele>
        <time>2022-01-23T12:20:08Z</time>
      </trkpt>
      <trkpt lat="47.2474" lon="-1.68316">
        <ele>57</ele>
        <time>2022-01-23T12:20:09Z</time>
      </trkpt>
      <trkpt lat="47.24734" lon="-1.68289">
        <ele>56.4</ele>
        <time>2022-01-23T12:20:13Z</time>
      </trkpt>
      <trkpt lat="47.2473" lon="-1.68267">
        <ele>56</ele>
        <time>2022-01-23T12:20:16Z</time>
      </trkpt>
      <trkpt lat="47.24727" lon="-1.68256">
        <ele>55.8</ele>
        <time>2022-01-23T12:20:18Z</time>
      </trkpt>
      <trkpt lat="47.24723" lon="-1.68232">
        <ele>55.4</ele>
        <time>2022-01-23T12:20:22Z</time>
      </trkpt>
      <trkpt lat="47.24717" lon="-1.68206">
        <ele>54.8</ele>
        <time>2022-01-23T12:20:27Z</time>
      </trkpt>
      <trkpt lat="47.24714" lon="-1.68197">
        <ele>54.6</ele>
        <time>2022-01-23T12:20:29Z</time>
      </trkpt>
      <trkpt lat="47.2471" lon="-1.68187">
        <ele>54.2</ele>
        <time>2022-01-23T12:20:31Z</time>
      </trkpt>
      <trkpt lat="47.24705" lon="-1.68177">
        <ele>53.8</ele>
        <time>2022-01-23T12:20:34Z</time>
      </trkpt>
      <trkpt lat="47.24703" lon="-1.68173">
        <ele>53.6</ele>
        <time>2022-01-23T12:20:35Z</time>
      </trkpt>
      <trkpt lat="47.24694" lon="-1.68149">
        <ele>53</ele>
        <time>2022-01-23T12:20:40Z</time>
      </trkpt>
      <trkpt lat="47.24687" lon="-1.68133">
        <ele>52.8</ele>
        <time>2022-01-23T12:20:44Z</time>
      </trkpt>
      <trkpt lat="47.24679" lon="-1.68115">
        <ele>52.4</ele>
        <time>2022-01-23T12:20:48Z</time>
      </trkpt>
      <trkpt lat="47.24671" lon="-1.68099">
        <ele>51.8</ele>
        <time>2022-01-23T12:20:51Z</time>
      </trkpt>
      <trkpt lat="47.24665" lon="-1.68092">
        <ele>51.4</ele>
        <time>2022-01-23T12:20:53Z</time>
      </trkpt>
      <trkpt lat="47.24657" lon="-1.68087">
        <ele>51</ele>
        <time>2022-01-23T12:20:55Z</time>
      </trkpt>
      <trkpt lat="47.24651" lon="-1.68084">
        <ele>50.6</ele>
        <time>2022-01-23T12:20:57Z</time>
      </trkpt>
      <trkpt lat="47.24642" lon="-1.68079">
        <ele>50.2</ele>
        <time>2022-01-23T12:21:00Z</time>
      </trkpt>
      <trkpt lat="47.24641" lon="-1.68077">
        <ele>50</ele>
        <time>2022-01-23T12:21:01Z</time>
      </trkpt>
      <trkpt lat="47.24626" lon="-1.68069">
        <ele>49.6</ele>
        <time>2022-01-23T12:21:05Z</time>
      </trkpt>
      <trkpt lat="47.24607" lon="-1.68054">
        <ele>49</ele>
        <time>2022-01-23T12:21:09Z</time>
      </trkpt>
      <trkpt lat="47.24601" lon="-1.68049">
        <ele>49</ele>
        <time>2022-01-23T12:21:10Z</time>
      </trkpt>
      <trkpt lat="47.24591" lon="-1.6804">
        <ele>48.8</ele>
        <time>2022-01-23T12:21:12Z</time>
      </trkpt>
      <trkpt lat="47.24582" lon="-1.68033">
        <ele>48.6</ele>
        <time>2022-01-23T12:21:14Z</time>
      </trkpt>
      <trkpt lat="47.24569" lon="-1.68027">
        <ele>49</ele>
        <time>2022-01-23T12:21:17Z</time>
      </trkpt>
      <trkpt lat="47.24562" lon="-1.68026">
        <ele>49.4</ele>
        <time>2022-01-23T12:21:19Z</time>
      </trkpt>
      <trkpt lat="47.2456" lon="-1.68024">
        <ele>49.4</ele>
        <time>2022-01-23T12:21:20Z</time>
      </trkpt>
      <trkpt lat="47.24558" lon="-1.68021">
        <ele>49.4</ele>
        <time>2022-01-23T12:21:21Z</time>
      </trkpt>
      <trkpt lat="47.24551" lon="-1.68017">
        <ele>49.4</ele>
        <time>2022-01-23T12:21:23Z</time>
      </trkpt>
      <trkpt lat="47.24533" lon="-1.68">
        <ele>49</ele>
        <time>2022-01-23T12:21:29Z</time>
      </trkpt>
      <trkpt lat="47.2452" lon="-1.67991">
        <ele>48.6</ele>
        <time>2022-01-23T12:21:34Z</time>
      </trkpt>
      <trkpt lat="47.2451" lon="-1.67987">
        <ele>49.2</ele>
        <time>2022-01-23T12:21:38Z</time>
      </trkpt>
      <trkpt lat="47.24504" lon="-1.67982">
        <ele>49.4</ele>
        <time>2022-01-23T12:21:40Z</time>
      </trkpt>
      <trkpt lat="47.24494" lon="-1.67976">
        <ele>49.6</ele>
        <time>2022-01-23T12:21:44Z</time>
      </trkpt>
      <trkpt lat="47.24484" lon="-1.67973">
        <ele>49.8</ele>
        <time>2022-01-23T12:21:48Z</time>
      </trkpt>
      <trkpt lat="47.24471" lon="-1.67968">
        <ele>50</ele>
        <time>2022-01-23T12:21:53Z</time>
      </trkpt>
      <trkpt lat="47.24465" lon="-1.67964">
        <ele>50.2</ele>
        <time>2022-01-23T12:21:55Z</time>
      </trkpt>
      <trkpt lat="47.24461" lon="-1.67961">
        <ele>50</ele>
        <time>2022-01-23T12:21:56Z</time>
      </trkpt>
      <trkpt lat="47.2445" lon="-1.67951">
        <ele>50.2</ele>
        <time>2022-01-23T12:21:59Z</time>
      </trkpt>
      <trkpt lat="47.24443" lon="-1.67944">
        <ele>50.2</ele>
        <time>2022-01-23T12:22:01Z</time>
      </trkpt>
      <trkpt lat="47.24425" lon="-1.67923">
        <ele>50.2</ele>
        <time>2022-01-23T12:22:06Z</time>
      </trkpt>
      <trkpt lat="47.24418" lon="-1.67915">
        <ele>50.2</ele>
        <time>2022-01-23T12:22:08Z</time>
      </trkpt>
      <trkpt lat="47.24414" lon="-1.67911">
        <ele>50.4</ele>
        <time>2022-01-23T12:22:09Z</time>
      </trkpt>
      <trkpt lat="47.24397" lon="-1.67895">
        <ele>50.4</ele>
        <time>2022-01-23T12:22:14Z</time>
      </trkpt>
      <trkpt lat="47.24389" lon="-1.67891">
        <ele>50.8</ele>
        <time>2022-01-23T12:22:17Z</time>
      </trkpt>
      <trkpt lat="47.24387" lon="-1.67891">
        <ele>50.8</ele>
        <time>2022-01-23T12:22:18Z</time>
      </trkpt>
      <trkpt lat="47.24384" lon="-1.6789">
        <ele>51</ele>
        <time>2022-01-23T12:22:19Z</time>
      </trkpt>
      <trkpt lat="47.2438" lon="-1.67881">
        <ele>51.2</ele>
        <time>2022-01-23T12:22:21Z</time>
      </trkpt>
      <trkpt lat="47.24379" lon="-1.67868">
        <ele>51.4</ele>
        <time>2022-01-23T12:22:23Z</time>
      </trkpt>
      <trkpt lat="47.24375" lon="-1.67857">
        <ele>51.4</ele>
        <time>2022-01-23T12:22:25Z</time>
      </trkpt>
      <trkpt lat="47.24373" lon="-1.67855">
        <ele>51.4</ele>
        <time>2022-01-23T12:22:26Z</time>
      </trkpt>
      <trkpt lat="47.24365" lon="-1.67853">
        <ele>51.6</ele>
        <time>2022-01-23T12:22:29Z</time>
      </trkpt>
      <trkpt lat="47.24356" lon="-1.6785">
        <ele>51.6</ele>
        <time>2022-01-23T12:22:32Z</time>
      </trkpt>
      <trkpt lat="47.24353" lon="-1.67847">
        <ele>51.8</ele>
        <time>2022-01-23T12:22:33Z</time>
      </trkpt>
      <trkpt lat="47.24331" lon="-1.67837">
        <ele>52</ele>
        <time>2022-01-23T12:22:39Z</time>
      </trkpt>
      <trkpt lat="47.24305" lon="-1.67844">
        <ele>52.6</ele>
        <time>2022-01-23T12:22:46Z</time>
      </trkpt>
      <trkpt lat="47.24278" lon="-1.67857">
        <ele>53.2</ele>
        <time>2022-01-23T12:22:53Z</time>
      </trkpt>
      <trkpt lat="47.24259" lon="-1.67866">
        <ele>53.6</ele>
        <time>2022-01-23T12:22:58Z</time>
      </trkpt>
      <trkpt lat="47.2424" lon="-1.67872">
        <ele>54</ele>
        <time>2022-01-23T12:23:03Z</time>
      </trkpt>
      <trkpt lat="47.24232" lon="-1.67875">
        <ele>54</ele>
        <time>2022-01-23T12:23:05Z</time>
      </trkpt>
      <trkpt lat="47.24215" lon="-1.67885">
        <ele>54.4</ele>
        <time>2022-01-23T12:23:09Z</time>
      </trkpt>
      <trkpt lat="47.24199" lon="-1.67895">
        <ele>54.8</ele>
        <time>2022-01-23T12:23:13Z</time>
      </trkpt>
      <trkpt lat="47.24194" lon="-1.67897">
        <ele>54.8</ele>
        <time>2022-01-23T12:23:14Z</time>
      </trkpt>
      <trkpt lat="47.24181" lon="-1.67904">
        <ele>54.8</ele>
        <time>2022-01-23T12:23:17Z</time>
      </trkpt>
      <trkpt lat="47.24172" lon="-1.67909">
        <ele>55</ele>
        <time>2022-01-23T12:23:19Z</time>
      </trkpt>
      <trkpt lat="47.2416" lon="-1.67915">
        <ele>55</ele>
        <time>2022-01-23T12:23:23Z</time>
      </trkpt>
      <trkpt lat="47.24146" lon="-1.67921">
        <ele>55.2</ele>
        <time>2022-01-23T12:23:27Z</time>
      </trkpt>
      <trkpt lat="47.24142" lon="-1.67923">
        <ele>55.2</ele>
        <time>2022-01-23T12:23:28Z</time>
      </trkpt>
      <trkpt lat="47.24129" lon="-1.67926">
        <ele>55.2</ele>
        <time>2022-01-23T12:23:31Z</time>
      </trkpt>
      <trkpt lat="47.24124" lon="-1.67926">
        <ele>55.2</ele>
        <time>2022-01-23T12:23:32Z</time>
      </trkpt>
      <trkpt lat="47.24118" lon="-1.67926">
        <ele>55.2</ele>
        <time>2022-01-23T12:23:33Z</time>
      </trkpt>
      <trkpt lat="47.24107" lon="-1.67925">
        <ele>55.2</ele>
        <time>2022-01-23T12:23:35Z</time>
      </trkpt>
      <trkpt lat="47.24078" lon="-1.67922">
        <ele>55.2</ele>
        <time>2022-01-23T12:23:40Z</time>
      </trkpt>
      <trkpt lat="47.24073" lon="-1.67922">
        <ele>55.2</ele>
        <time>2022-01-23T12:23:41Z</time>
      </trkpt>
      <trkpt lat="47.24039" lon="-1.6791">
        <ele>55</ele>
        <time>2022-01-23T12:23:47Z</time>
      </trkpt>
      <trkpt lat="47.23999" lon="-1.67893">
        <ele>55</ele>
        <time>2022-01-23T12:23:54Z</time>
      </trkpt>
      <trkpt lat="47.2396" lon="-1.67876">
        <ele>54.8</ele>
        <time>2022-01-23T12:24:01Z</time>
      </trkpt>
      <trkpt lat="47.23949" lon="-1.67872">
        <ele>54.8</ele>
        <time>2022-01-23T12:24:03Z</time>
      </trkpt>
      <trkpt lat="47.23933" lon="-1.67868">
        <ele>54.8</ele>
        <time>2022-01-23T12:24:06Z</time>
      </trkpt>
      <trkpt lat="47.23928" lon="-1.67868">
        <ele>55</ele>
        <time>2022-01-23T12:24:07Z</time>
      </trkpt>
      <trkpt lat="47.23917" lon="-1.67868">
        <ele>54.8</ele>
        <time>2022-01-23T12:24:09Z</time>
      </trkpt>
      <trkpt lat="47.23906" lon="-1.67869">
        <ele>54.6</ele>
        <time>2022-01-23T12:24:11Z</time>
      </trkpt>
      <trkpt lat="47.23872" lon="-1.67874">
        <ele>54.4</ele>
        <time>2022-01-23T12:24:17Z</time>
      </trkpt>
      <trkpt lat="47.2385" lon="-1.67876">
        <ele>54</ele>
        <time>2022-01-23T12:24:21Z</time>
      </trkpt>
      <trkpt lat="47.23845" lon="-1.67877">
        <ele>54</ele>
        <time>2022-01-23T12:24:22Z</time>
      </trkpt>
      <trkpt lat="47.23836" lon="-1.67878">
        <ele>53.8</ele>
        <time>2022-01-23T12:24:24Z</time>
      </trkpt>
      <trkpt lat="47.23827" lon="-1.6788">
        <ele>53.8</ele>
        <time>2022-01-23T12:24:26Z</time>
      </trkpt>
      <trkpt lat="47.23818" lon="-1.67881">
        <ele>53.6</ele>
        <time>2022-01-23T12:24:28Z</time>
      </trkpt>
      <trkpt lat="47.23806" lon="-1.67882">
        <ele>53.6</ele>
        <time>2022-01-23T12:24:31Z</time>
      </trkpt>
      <trkpt lat="47.2379" lon="-1.67885">
        <ele>53.4</ele>
        <time>2022-01-23T12:24:35Z</time>
      </trkpt>
      <trkpt lat="47.2378" lon="-1.67886">
        <ele>53.2</ele>
        <time>2022-01-23T12:24:37Z</time>
      </trkpt>
      <trkpt lat="47.23764" lon="-1.67891">
        <ele>53.2</ele>
        <time>2022-01-23T12:24:40Z</time>
      </trkpt>
      <trkpt lat="47.23752" lon="-1.67895">
        <ele>53</ele>
        <time>2022-01-23T12:24:42Z</time>
      </trkpt>
      <trkpt lat="47.23742" lon="-1.67902">
        <ele>53.2</ele>
        <time>2022-01-23T12:24:44Z</time>
      </trkpt>
      <trkpt lat="47.23738" lon="-1.67907">
        <ele>53.2</ele>
        <time>2022-01-23T12:24:45Z</time>
      </trkpt>
      <trkpt lat="47.23735" lon="-1.67914">
        <ele>53</ele>
        <time>2022-01-23T12:24:46Z</time>
      </trkpt>
      <trkpt lat="47.23733" lon="-1.67928">
        <ele>53.2</ele>
        <time>2022-01-23T12:24:48Z</time>
      </trkpt>
      <trkpt lat="47.23724" lon="-1.67938">
        <ele>53</ele>
        <time>2022-01-23T12:24:50Z</time>
      </trkpt>
      <trkpt lat="47.23707" lon="-1.67947">
        <ele>53</ele>
        <time>2022-01-23T12:24:53Z</time>
      </trkpt>
      <trkpt lat="47.2369" lon="-1.67956">
        <ele>53</ele>
        <time>2022-01-23T12:24:56Z</time>
      </trkpt>
      <trkpt lat="47.23684" lon="-1.67958">
        <ele>53</ele>
        <time>2022-01-23T12:24:57Z</time>
      </trkpt>
      <trkpt lat="47.23674" lon="-1.67965">
        <ele>52.8</ele>
        <time>2022-01-23T12:24:59Z</time>
      </trkpt>
      <trkpt lat="47.23669" lon="-1.67968">
        <ele>52.8</ele>
        <time>2022-01-23T12:25:00Z</time>
      </trkpt>
      <trkpt lat="47.2366" lon="-1.67975">
        <ele>52.8</ele>
        <time>2022-01-23T12:25:03Z</time>
      </trkpt>
      <trkpt lat="47.23658" lon="-1.67974">
        <ele>52.8</ele>
        <time>2022-01-23T12:25:04Z</time>
      </trkpt>
      <trkpt lat="47.23653" lon="-1.67967">
        <ele>52.8</ele>
        <time>2022-01-23T12:25:06Z</time>
      </trkpt>
      <trkpt lat="47.23638" lon="-1.67935">
        <ele>52.4</ele>
        <time>2022-01-23T12:25:11Z</time>
      </trkpt>
      <trkpt lat="47.23631" lon="-1.67916">
        <ele>52.2</ele>
        <time>2022-01-23T12:25:14Z</time>
      </trkpt>
      <trkpt lat="47.23626" lon="-1.67904">
        <ele>52</ele>
        <time>2022-01-23T12:25:16Z</time>
      </trkpt>
      <trkpt lat="47.23611" lon="-1.67868">
        <ele>52</ele>
        <time>2022-01-23T12:25:21Z</time>
      </trkpt>
      <trkpt lat="47.23605" lon="-1.67855">
        <ele>52</ele>
        <time>2022-01-23T12:25:23Z</time>
      </trkpt>
      <trkpt lat="47.23599" lon="-1.67842">
        <ele>52</ele>
        <time>2022-01-23T12:25:25Z</time>
      </trkpt>
      <trkpt lat="47.23593" lon="-1.67827">
        <ele>52</ele>
        <time>2022-01-23T12:25:27Z</time>
      </trkpt>
      <trkpt lat="47.23583" lon="-1.67803">
        <ele>51.6</ele>
        <time>2022-01-23T12:25:31Z</time>
      </trkpt>
      <trkpt lat="47.23572" lon="-1.67779">
        <ele>51.2</ele>
        <time>2022-01-23T12:25:35Z</time>
      </trkpt>
      <trkpt lat="47.23569" lon="-1.67773">
        <ele>51.2</ele>
        <time>2022-01-23T12:25:36Z</time>
      </trkpt>
      <trkpt lat="47.23561" lon="-1.67754">
        <ele>50.8</ele>
        <time>2022-01-23T12:25:39Z</time>
      </trkpt>
      <trkpt lat="47.23558" lon="-1.67747">
        <ele>50.6</ele>
        <time>2022-01-23T12:25:40Z</time>
      </trkpt>
      <trkpt lat="47.23554" lon="-1.67733">
        <ele>50.4</ele>
        <time>2022-01-23T12:25:42Z</time>
      </trkpt>
      <trkpt lat="47.23551" lon="-1.67726">
        <ele>50</ele>
        <time>2022-01-23T12:25:44Z</time>
      </trkpt>
      <trkpt lat="47.23546" lon="-1.67725">
        <ele>50.4</ele>
        <time>2022-01-23T12:25:47Z</time>
      </trkpt>
      <trkpt lat="47.23548" lon="-1.67743">
        <ele>49.6</ele>
        <time>2022-01-23T12:25:52Z</time>
      </trkpt>
      <trkpt lat="47.23548" lon="-1.67761">
        <ele>49</ele>
        <time>2022-01-23T12:25:57Z</time>
      </trkpt>
      <trkpt lat="47.23547" lon="-1.67765">
        <ele>49</ele>
        <time>2022-01-23T12:25:58Z</time>
      </trkpt>
      <trkpt lat="47.2354" lon="-1.67779">
        <ele>48.6</ele>
        <time>2022-01-23T12:26:03Z</time>
      </trkpt>
      <trkpt lat="47.23536" lon="-1.67784">
        <ele>48.2</ele>
        <time>2022-01-23T12:26:06Z</time>
      </trkpt>
      <trkpt lat="47.23535" lon="-1.67787">
        <ele>48.2</ele>
        <time>2022-01-23T12:26:07Z</time>
      </trkpt>
      <trkpt lat="47.23529" lon="-1.67799">
        <ele>48.2</ele>
        <time>2022-01-23T12:26:12Z</time>
      </trkpt>
      <trkpt lat="47.23522" lon="-1.67808">
        <ele>48</ele>
        <time>2022-01-23T12:26:17Z</time>
      </trkpt>
      <trkpt lat="47.2352" lon="-1.6781">
        <ele>47.8</ele>
        <time>2022-01-23T12:26:18Z</time>
      </trkpt>
      <trkpt lat="47.23515" lon="-1.67821">
        <ele>47.6</ele>
        <time>2022-01-23T12:26:22Z</time>
      </trkpt>
      <trkpt lat="47.23509" lon="-1.67832">
        <ele>47.2</ele>
        <time>2022-01-23T12:26:26Z</time>
      </trkpt>
      <trkpt lat="47.23504" lon="-1.67837">
        <ele>47</ele>
        <time>2022-01-23T12:26:29Z</time>
      </trkpt>
      <trkpt lat="47.23502" lon="-1.67838">
        <ele>46.8</ele>
        <time>2022-01-23T12:26:31Z</time>
      </trkpt>
      <trkpt lat="47.23406" lon="-1.67999">
        <ele>40</ele>
        <time>2022-01-23T12:29:28Z</time>
      </trkpt>
      <trkpt lat="47.23406" lon="-1.68">
        <ele>40</ele>
        <time>2022-01-23T12:29:29Z</time>
      </trkpt>
      <trkpt lat="47.23405" lon="-1.68001">
        <ele>40</ele>
        <time>2022-01-23T12:29:30Z</time>
      </trkpt>
      <trkpt lat="47.23403" lon="-1.68007">
        <ele>39.8</ele>
        <time>2022-01-23T12:29:35Z</time>
      </trkpt>
      <trkpt lat="47.23386" lon="-1.68025">
        <ele>39.8</ele>
        <time>2022-01-23T12:30:04Z</time>
      </trkpt>
      <trkpt lat="47.23383" lon="-1.68031">
        <ele>39.8</ele>
        <time>2022-01-23T12:30:06Z</time>
      </trkpt>
      <trkpt lat="47.23378" lon="-1.68035">
        <ele>39.8</ele>
        <time>2022-01-23T12:30:08Z</time>
      </trkpt>
      <trkpt lat="47.23373" lon="-1.68038">
        <ele>39.8</ele>
        <time>2022-01-23T12:30:10Z</time>
      </trkpt>
      <trkpt lat="47.23366" lon="-1.68044">
        <ele>40</ele>
        <time>2022-01-23T12:30:13Z</time>
      </trkpt>
      <trkpt lat="47.23363" lon="-1.68048">
        <ele>40</ele>
        <time>2022-01-23T12:30:15Z</time>
      </trkpt>
      <trkpt lat="47.23361" lon="-1.68054">
        <ele>40</ele>
        <time>2022-01-23T12:30:17Z</time>
      </trkpt>
      <trkpt lat="47.23358" lon="-1.68059">
        <ele>40</ele>
        <time>2022-01-23T12:30:19Z</time>
      </trkpt>
      <trkpt lat="47.23351" lon="-1.68067">
        <ele>40</ele>
        <time>2022-01-23T12:30:24Z</time>
      </trkpt>
      <trkpt lat="47.23347" lon="-1.68074">
        <ele>40.2</ele>
        <time>2022-01-23T12:30:28Z</time>
      </trkpt>
      <trkpt lat="47.23338" lon="-1.681">
        <ele>39.4</ele>
        <time>2022-01-23T12:30:48Z</time>
      </trkpt>
      <trkpt lat="47.23337" lon="-1.68101">
        <ele>39.4</ele>
        <time>2022-01-23T12:30:49Z</time>
      </trkpt>
      <trkpt lat="47.23336" lon="-1.68103">
        <ele>39.2</ele>
        <time>2022-01-23T12:30:50Z</time>
      </trkpt>
      <trkpt lat="47.23334" lon="-1.68106">
        <ele>39.2</ele>
        <time>2022-01-23T12:30:54Z</time>
      </trkpt>
      <trkpt lat="47.23332" lon="-1.68107">
        <ele>39.2</ele>
        <time>2022-01-23T12:30:59Z</time>
      </trkpt>
      <trkpt lat="47.23329" lon="-1.68111">
        <ele>39</ele>
        <time>2022-01-23T12:31:02Z</time>
      </trkpt>
      <trkpt lat="47.23324" lon="-1.68121">
        <ele>39</ele>
        <time>2022-01-23T12:31:09Z</time>
      </trkpt>
      <trkpt lat="47.23323" lon="-1.68127">
        <ele>39</ele>
        <time>2022-01-23T12:31:13Z</time>
      </trkpt>
      <trkpt lat="47.23323" lon="-1.68128">
        <ele>39</ele>
        <time>2022-01-23T12:31:14Z</time>
      </trkpt>
      <trkpt lat="47.23319" lon="-1.68136">
        <ele>39</ele>
        <time>2022-01-23T12:31:19Z</time>
      </trkpt>
      <trkpt lat="47.23319" lon="-1.68136">
        <ele>39</ele>
        <time>2022-01-23T12:31:20Z</time>
      </trkpt>
      <trkpt lat="47.23316" lon="-1.68142">
        <ele>39</ele>
        <time>2022-01-23T12:31:25Z</time>
      </trkpt>
      <trkpt lat="47.23313" lon="-1.68148">
        <ele>38.8</ele>
        <time>2022-01-23T12:31:27Z</time>
      </trkpt>
      <trkpt lat="47.23309" lon="-1.68156">
        <ele>38.6</ele>
        <time>2022-01-23T12:31:30Z</time>
      </trkpt>
      <trkpt lat="47.23308" lon="-1.68159">
        <ele>38.6</ele>
        <time>2022-01-23T12:31:31Z</time>
      </trkpt>
      <trkpt lat="47.23303" lon="-1.68168">
        <ele>38.2</ele>
        <time>2022-01-23T12:31:36Z</time>
      </trkpt>
      <trkpt lat="47.23301" lon="-1.68176">
        <ele>37.8</ele>
        <time>2022-01-23T12:31:40Z</time>
      </trkpt>
      <trkpt lat="47.23298" lon="-1.68181">
        <ele>38</ele>
        <time>2022-01-23T12:31:41Z</time>
      </trkpt>
      <trkpt lat="47.23296" lon="-1.68184">
        <ele>38</ele>
        <time>2022-01-23T12:31:43Z</time>
      </trkpt>
      <trkpt lat="47.23295" lon="-1.68185">
        <ele>37.8</ele>
        <time>2022-01-23T12:31:47Z</time>
      </trkpt>
      <trkpt lat="47.23291" lon="-1.68187">
        <ele>37.8</ele>
        <time>2022-01-23T12:31:51Z</time>
      </trkpt>
      <trkpt lat="47.23289" lon="-1.68188">
        <ele>37.8</ele>
        <time>2022-01-23T12:31:52Z</time>
      </trkpt>
      <trkpt lat="47.23287" lon="-1.6819">
        <ele>37.6</ele>
        <time>2022-01-23T12:31:55Z</time>
      </trkpt>
      <trkpt lat="47.2326" lon="-1.68242">
        <ele>35.8</ele>
        <time>2022-01-23T12:32:48Z</time>
      </trkpt>
      <trkpt lat="47.23256" lon="-1.68248">
        <ele>35.6</ele>
        <time>2022-01-23T12:32:51Z</time>
      </trkpt>
      <trkpt lat="47.23253" lon="-1.68251">
        <ele>35.4</ele>
        <time>2022-01-23T12:32:54Z</time>
      </trkpt>
      <trkpt lat="47.23253" lon="-1.68253">
        <ele>35.2</ele>
        <time>2022-01-23T12:32:55Z</time>
      </trkpt>
      <trkpt lat="47.23249" lon="-1.68258">
        <ele>35.6</ele>
        <time>2022-01-23T12:32:59Z</time>
      </trkpt>
      <trkpt lat="47.23247" lon="-1.68262">
        <ele>35.6</ele>
        <time>2022-01-23T12:33:02Z</time>
      </trkpt>
      <trkpt lat="47.23232" lon="-1.68289">
        <ele>36</ele>
        <time>2022-01-23T12:33:27Z</time>
      </trkpt>
      <trkpt lat="47.23231" lon="-1.68291">
        <ele>36.2</ele>
        <time>2022-01-23T12:33:28Z</time>
      </trkpt>
      <trkpt lat="47.23228" lon="-1.68298">
        <ele>36.2</ele>
        <time>2022-01-23T12:33:32Z</time>
      </trkpt>
      <trkpt lat="47.23225" lon="-1.68303">
        <ele>36.4</ele>
        <time>2022-01-23T12:33:35Z</time>
      </trkpt>
      <trkpt lat="47.23224" lon="-1.68305">
        <ele>36.4</ele>
        <time>2022-01-23T12:33:37Z</time>
      </trkpt>
      <trkpt lat="47.23222" lon="-1.68307">
        <ele>36.6</ele>
        <time>2022-01-23T12:33:39Z</time>
      </trkpt>
      <trkpt lat="47.23218" lon="-1.68313">
        <ele>36.8</ele>
        <time>2022-01-23T12:33:43Z</time>
      </trkpt>
      <trkpt lat="47.23215" lon="-1.68321">
        <ele>37.4</ele>
        <time>2022-01-23T12:33:50Z</time>
      </trkpt>
      <trkpt lat="47.23211" lon="-1.68326">
        <ele>37.8</ele>
        <time>2022-01-23T12:33:54Z</time>
      </trkpt>
      <trkpt lat="47.2321" lon="-1.68327">
        <ele>37.8</ele>
        <time>2022-01-23T12:33:55Z</time>
      </trkpt>
      <trkpt lat="47.23207" lon="-1.68331">
        <ele>38</ele>
        <time>2022-01-23T12:33:59Z</time>
      </trkpt>
      <trkpt lat="47.23204" lon="-1.68335">
        <ele>38.2</ele>
        <time>2022-01-23T12:34:04Z</time>
      </trkpt>
      <trkpt lat="47.23195" lon="-1.68354">
        <ele>38.4</ele>
        <time>2022-01-23T12:34:10Z</time>
      </trkpt>
      <trkpt lat="47.23193" lon="-1.68357">
        <ele>38.4</ele>
        <time>2022-01-23T12:34:11Z</time>
      </trkpt>
      <trkpt lat="47.23187" lon="-1.68364">
        <ele>38.4</ele>
        <time>2022-01-23T12:34:14Z</time>
      </trkpt>
      <trkpt lat="47.23186" lon="-1.68365">
        <ele>38.6</ele>
        <time>2022-01-23T12:34:15Z</time>
      </trkpt>
      <trkpt lat="47.23183" lon="-1.68372">
        <ele>38.4</ele>
        <time>2022-01-23T12:34:18Z</time>
      </trkpt>
      <trkpt lat="47.23176" lon="-1.68383">
        <ele>38.4</ele>
        <time>2022-01-23T12:34:22Z</time>
      </trkpt>
      <trkpt lat="47.23166" lon="-1.68398">
        <ele>38.4</ele>
        <time>2022-01-23T12:34:26Z</time>
      </trkpt>
      <trkpt lat="47.23154" lon="-1.6842">
        <ele>38.6</ele>
        <time>2022-01-23T12:34:31Z</time>
      </trkpt>
      <trkpt lat="47.23139" lon="-1.6844">
        <ele>38.8</ele>
        <time>2022-01-23T12:34:36Z</time>
      </trkpt>
      <trkpt lat="47.23122" lon="-1.68465">
        <ele>39</ele>
        <time>2022-01-23T12:34:42Z</time>
      </trkpt>
      <trkpt lat="47.23112" lon="-1.68482">
        <ele>39</ele>
        <time>2022-01-23T12:34:46Z</time>
      </trkpt>
      <trkpt lat="47.23109" lon="-1.68487">
        <ele>39</ele>
        <time>2022-01-23T12:34:47Z</time>
      </trkpt>
      <trkpt lat="47.23098" lon="-1.68496">
        <ele>39.2</ele>
        <time>2022-01-23T12:34:50Z</time>
      </trkpt>
      <trkpt lat="47.23088" lon="-1.68504">
        <ele>39.2</ele>
        <time>2022-01-23T12:34:55Z</time>
      </trkpt>
      <trkpt lat="47.23083" lon="-1.68507">
        <ele>39.4</ele>
        <time>2022-01-23T12:34:59Z</time>
      </trkpt>
      <trkpt lat="47.23076" lon="-1.68511">
        <ele>39.6</ele>
        <time>2022-01-23T12:35:07Z</time>
      </trkpt>
      <trkpt lat="47.23071" lon="-1.68515">
        <ele>39.8</ele>
        <time>2022-01-23T12:35:09Z</time>
      </trkpt>
      <trkpt lat="47.23056" lon="-1.68528">
        <ele>39.8</ele>
        <time>2022-01-23T12:35:13Z</time>
      </trkpt>
      <trkpt lat="47.23048" lon="-1.68537">
        <ele>39.6</ele>
        <time>2022-01-23T12:35:15Z</time>
      </trkpt>
      <trkpt lat="47.23037" lon="-1.68549">
        <ele>39.6</ele>
        <time>2022-01-23T12:35:18Z</time>
      </trkpt>
      <trkpt lat="47.23016" lon="-1.68577">
        <ele>39.4</ele>
        <time>2022-01-23T12:35:24Z</time>
      </trkpt>
      <trkpt lat="47.23007" lon="-1.68589">
        <ele>39.2</ele>
        <time>2022-01-23T12:35:27Z</time>
      </trkpt>
      <trkpt lat="47.23003" lon="-1.68594">
        <ele>39.2</ele>
        <time>2022-01-23T12:35:28Z</time>
      </trkpt>
      <trkpt lat="47.22995" lon="-1.68605">
        <ele>39</ele>
        <time>2022-01-23T12:35:30Z</time>
      </trkpt>
      <trkpt lat="47.22991" lon="-1.6861">
        <ele>38.8</ele>
        <time>2022-01-23T12:35:31Z</time>
      </trkpt>
      <trkpt lat="47.22987" lon="-1.68615">
        <ele>38.8</ele>
        <time>2022-01-23T12:35:32Z</time>
      </trkpt>
      <trkpt lat="47.22978" lon="-1.68623">
        <ele>38.4</ele>
        <time>2022-01-23T12:35:34Z</time>
      </trkpt>
      <trkpt lat="47.22974" lon="-1.68627">
        <ele>38.4</ele>
        <time>2022-01-23T12:35:35Z</time>
      </trkpt>
      <trkpt lat="47.2297" lon="-1.68632">
        <ele>38.4</ele>
        <time>2022-01-23T12:35:36Z</time>
      </trkpt>
      <trkpt lat="47.22956" lon="-1.68651">
        <ele>38</ele>
        <time>2022-01-23T12:35:40Z</time>
      </trkpt>
      <trkpt lat="47.2295" lon="-1.68658">
        <ele>38</ele>
        <time>2022-01-23T12:35:42Z</time>
      </trkpt>
      <trkpt lat="47.22947" lon="-1.68662">
        <ele>37.8</ele>
        <time>2022-01-23T12:35:43Z</time>
      </trkpt>
      <trkpt lat="47.22942" lon="-1.68671">
        <ele>37.6</ele>
        <time>2022-01-23T12:35:47Z</time>
      </trkpt>
      <trkpt lat="47.22931" lon="-1.68685">
        <ele>37.4</ele>
        <time>2022-01-23T12:35:51Z</time>
      </trkpt>
      <trkpt lat="47.22906" lon="-1.68712">
        <ele>37.4</ele>
        <time>2022-01-23T12:35:57Z</time>
      </trkpt>
      <trkpt lat="47.2287" lon="-1.68757">
        <ele>36.8</ele>
        <time>2022-01-23T12:36:04Z</time>
      </trkpt>
      <trkpt lat="47.22826" lon="-1.68806">
        <ele>36.6</ele>
        <time>2022-01-23T12:36:11Z</time>
      </trkpt>
      <trkpt lat="47.2278" lon="-1.68852">
        <ele>36.2</ele>
        <time>2022-01-23T12:36:18Z</time>
      </trkpt>
      <trkpt lat="47.22733" lon="-1.68908">
        <ele>35.8</ele>
        <time>2022-01-23T12:36:25Z</time>
      </trkpt>
      <trkpt lat="47.22702" lon="-1.68957">
        <ele>35.2</ele>
        <time>2022-01-23T12:36:30Z</time>
      </trkpt>
      <trkpt lat="47.22663" lon="-1.69021">
        <ele>34.6</ele>
        <time>2022-01-23T12:36:36Z</time>
      </trkpt>
      <trkpt lat="47.2264" lon="-1.6906">
        <ele>34</ele>
        <time>2022-01-23T12:36:40Z</time>
      </trkpt>
      <trkpt lat="47.22624" lon="-1.69093">
        <ele>33.4</ele>
        <time>2022-01-23T12:36:44Z</time>
      </trkpt>
      <trkpt lat="47.22618" lon="-1.69126">
        <ele>33</ele>
        <time>2022-01-23T12:36:47Z</time>
      </trkpt>
      <trkpt lat="47.22617" lon="-1.69138">
        <ele>32.8</ele>
        <time>2022-01-23T12:36:48Z</time>
      </trkpt>
      <trkpt lat="47.22613" lon="-1.69224">
        <ele>31.8</ele>
        <time>2022-01-23T12:36:55Z</time>
      </trkpt>
      <trkpt lat="47.22608" lon="-1.69249">
        <ele>31.4</ele>
        <time>2022-01-23T12:36:57Z</time>
      </trkpt>
      <trkpt lat="47.22603" lon="-1.6926">
        <ele>31.2</ele>
        <time>2022-01-23T12:36:58Z</time>
      </trkpt>
      <trkpt lat="47.22597" lon="-1.69269">
        <ele>31</ele>
        <time>2022-01-23T12:36:59Z</time>
      </trkpt>
      <trkpt lat="47.22583" lon="-1.6928">
        <ele>30.6</ele>
        <time>2022-01-23T12:37:01Z</time>
      </trkpt>
      <trkpt lat="47.22567" lon="-1.69276">
        <ele>30.2</ele>
        <time>2022-01-23T12:37:03Z</time>
      </trkpt>
      <trkpt lat="47.22527" lon="-1.69257">
        <ele>29.2</ele>
        <time>2022-01-23T12:37:08Z</time>
      </trkpt>
      <trkpt lat="47.22485" lon="-1.69244">
        <ele>28.2</ele>
        <time>2022-01-23T12:37:13Z</time>
      </trkpt>
      <trkpt lat="47.22471" lon="-1.69251">
        <ele>27.6</ele>
        <time>2022-01-23T12:37:15Z</time>
      </trkpt>
      <trkpt lat="47.22465" lon="-1.69259">
        <ele>27.4</ele>
        <time>2022-01-23T12:37:16Z</time>
      </trkpt>
      <trkpt lat="47.2246" lon="-1.69268">
        <ele>27.2</ele>
        <time>2022-01-23T12:37:17Z</time>
      </trkpt>
      <trkpt lat="47.22451" lon="-1.6929">
        <ele>26.6</ele>
        <time>2022-01-23T12:37:19Z</time>
      </trkpt>
      <trkpt lat="47.22446" lon="-1.69301">
        <ele>26.4</ele>
        <time>2022-01-23T12:37:20Z</time>
      </trkpt>
      <trkpt lat="47.2244" lon="-1.69311">
        <ele>26</ele>
        <time>2022-01-23T12:37:21Z</time>
      </trkpt>
      <trkpt lat="47.22426" lon="-1.69327">
        <ele>25.4</ele>
        <time>2022-01-23T12:37:23Z</time>
      </trkpt>
      <trkpt lat="47.224" lon="-1.6934">
        <ele>24.4</ele>
        <time>2022-01-23T12:37:26Z</time>
      </trkpt>
      <trkpt lat="47.2237" lon="-1.69342">
        <ele>23.4</ele>
        <time>2022-01-23T12:37:29Z</time>
      </trkpt>
      <trkpt lat="47.22361" lon="-1.6934">
        <ele>23</ele>
        <time>2022-01-23T12:37:30Z</time>
      </trkpt>
      <trkpt lat="47.2234" lon="-1.69338">
        <ele>22</ele>
        <time>2022-01-23T12:37:33Z</time>
      </trkpt>
      <trkpt lat="47.22337" lon="-1.69341">
        <ele>21.6</ele>
        <time>2022-01-23T12:37:34Z</time>
      </trkpt>
      <trkpt lat="47.22336" lon="-1.69347">
        <ele>21.2</ele>
        <time>2022-01-23T12:37:35Z</time>
      </trkpt>
      <trkpt lat="47.22337" lon="-1.69353">
        <ele>20.8</ele>
        <time>2022-01-23T12:37:36Z</time>
      </trkpt>
      <trkpt lat="47.2234" lon="-1.69369">
        <ele>20</ele>
        <time>2022-01-23T12:37:38Z</time>
      </trkpt>
      <trkpt lat="47.22348" lon="-1.694">
        <ele>18.6</ele>
        <time>2022-01-23T12:37:42Z</time>
      </trkpt>
      <trkpt lat="47.22351" lon="-1.69408">
        <ele>18.2</ele>
        <time>2022-01-23T12:37:43Z</time>
      </trkpt>
      <trkpt lat="47.22358" lon="-1.69421">
        <ele>17.4</ele>
        <time>2022-01-23T12:37:45Z</time>
      </trkpt>
      <trkpt lat="47.2237" lon="-1.6944">
        <ele>16.4</ele>
        <time>2022-01-23T12:37:48Z</time>
      </trkpt>
      <trkpt lat="47.22375" lon="-1.69445">
        <ele>16</ele>
        <time>2022-01-23T12:37:49Z</time>
      </trkpt>
      <trkpt lat="47.22383" lon="-1.69458">
        <ele>15.2</ele>
        <time>2022-01-23T12:37:51Z</time>
      </trkpt>
      <trkpt lat="47.22392" lon="-1.6947">
        <ele>14.6</ele>
        <time>2022-01-23T12:37:53Z</time>
      </trkpt>
      <trkpt lat="47.22402" lon="-1.6948">
        <ele>13.8</ele>
        <time>2022-01-23T12:37:55Z</time>
      </trkpt>
      <trkpt lat="47.2241" lon="-1.6949">
        <ele>13</ele>
        <time>2022-01-23T12:37:57Z</time>
      </trkpt>
      <trkpt lat="47.22421" lon="-1.69512">
        <ele>11.8</ele>
        <time>2022-01-23T12:38:00Z</time>
      </trkpt>
      <trkpt lat="47.22424" lon="-1.6952">
        <ele>11.6</ele>
        <time>2022-01-23T12:38:01Z</time>
      </trkpt>
      <trkpt lat="47.22427" lon="-1.69528">
        <ele>11.2</ele>
        <time>2022-01-23T12:38:02Z</time>
      </trkpt>
      <trkpt lat="47.2244" lon="-1.6955">
        <ele>10.2</ele>
        <time>2022-01-23T12:38:05Z</time>
      </trkpt>
      <trkpt lat="47.22459" lon="-1.69579">
        <ele>9</ele>
        <time>2022-01-23T12:38:09Z</time>
      </trkpt>
      <trkpt lat="47.22463" lon="-1.69585">
        <ele>8.8</ele>
        <time>2022-01-23T12:38:10Z</time>
      </trkpt>
      <trkpt lat="47.22488" lon="-1.6962">
        <ele>7.2</ele>
        <time>2022-01-23T12:38:15Z</time>
      </trkpt>
      <trkpt lat="47.22502" lon="-1.6964">
        <ele>6.2</ele>
        <time>2022-01-23T12:38:18Z</time>
      </trkpt>
      <trkpt lat="47.22506" lon="-1.69649">
        <ele>5.8</ele>
        <time>2022-01-23T12:38:19Z</time>
      </trkpt>
      <trkpt lat="47.22513" lon="-1.69668">
        <ele>5</ele>
        <time>2022-01-23T12:38:21Z</time>
      </trkpt>
      <trkpt lat="47.22519" lon="-1.69686">
        <ele>4.4</ele>
        <time>2022-01-23T12:38:23Z</time>
      </trkpt>
      <trkpt lat="47.22531" lon="-1.69721">
        <ele>2.8</ele>
        <time>2022-01-23T12:38:27Z</time>
      </trkpt>
      <trkpt lat="47.22534" lon="-1.69731">
        <ele>2.6</ele>
        <time>2022-01-23T12:38:28Z</time>
      </trkpt>
      <trkpt lat="47.22547" lon="-1.69765">
        <ele>1.2</ele>
        <time>2022-01-23T12:38:32Z</time>
      </trkpt>
      <trkpt lat="47.2255" lon="-1.69774">
        <ele>1</ele>
        <time>2022-01-23T12:38:33Z</time>
      </trkpt>
      <trkpt lat="47.22555" lon="-1.69789">
        <ele>0.19999999999999</ele>
        <time>2022-01-23T12:38:35Z</time>
      </trkpt>
      <trkpt lat="47.22558" lon="-1.69797">
        <ele>-0.19999999999999</ele>
        <time>2022-01-23T12:38:36Z</time>
      </trkpt>
      <trkpt lat="47.22563" lon="-1.69812">
        <ele>-0.60000000000002</ele>
        <time>2022-01-23T12:38:38Z</time>
      </trkpt>
      <trkpt lat="47.22569" lon="-1.69829">
        <ele>-1.2</ele>
        <time>2022-01-23T12:38:40Z</time>
      </trkpt>
      <trkpt lat="47.22572" lon="-1.69837">
        <ele>-1.6</ele>
        <time>2022-01-23T12:38:41Z</time>
      </trkpt>
      <trkpt lat="47.22583" lon="-1.69861">
        <ele>-2.4</ele>
        <time>2022-01-23T12:38:44Z</time>
      </trkpt>
      <trkpt lat="47.22586" lon="-1.69868">
        <ele>-2.6</ele>
        <time>2022-01-23T12:38:45Z</time>
      </trkpt>
      <trkpt lat="47.22589" lon="-1.69872">
        <ele>-2.6</ele>
        <time>2022-01-23T12:38:46Z</time>
      </trkpt>
      <trkpt lat="47.22607" lon="-1.6989">
        <ele>-3.8</ele>
        <time>2022-01-23T12:38:51Z</time>
      </trkpt>
      <trkpt lat="47.22621" lon="-1.69903">
        <ele>-5.2</ele>
        <time>2022-01-23T12:38:55Z</time>
      </trkpt>
      <trkpt lat="47.22624" lon="-1.69909">
        <ele>-5.4</ele>
        <time>2022-01-23T12:38:56Z</time>
      </trkpt>
      <trkpt lat="47.22627" lon="-1.69918">
        <ele>-5.4</ele>
        <time>2022-01-23T12:38:57Z</time>
      </trkpt>
      <trkpt lat="47.22641" lon="-1.69946">
        <ele>-6</ele>
        <time>2022-01-23T12:39:01Z</time>
      </trkpt>
      <trkpt lat="47.22644" lon="-1.69952">
        <ele>-6.2</ele>
        <time>2022-01-23T12:39:02Z</time>
      </trkpt>
      <trkpt lat="47.22659" lon="-1.69981">
        <ele>-6.6</ele>
        <time>2022-01-23T12:39:06Z</time>
      </trkpt>
      <trkpt lat="47.22676" lon="-1.70013">
        <ele>-5.8</ele>
        <time>2022-01-23T12:39:11Z</time>
      </trkpt>
      <trkpt lat="47.22679" lon="-1.70019">
        <ele>-5.6</ele>
        <time>2022-01-23T12:39:12Z</time>
      </trkpt>
      <trkpt lat="47.22681" lon="-1.70026">
        <ele>-5.6</ele>
        <time>2022-01-23T12:39:13Z</time>
      </trkpt>
      <trkpt lat="47.22685" lon="-1.70052">
        <ele>-5.8</ele>
        <time>2022-01-23T12:39:16Z</time>
      </trkpt>
      <trkpt lat="47.22694" lon="-1.70129">
        <ele>-5.8</ele>
        <time>2022-01-23T12:39:25Z</time>
      </trkpt>
      <trkpt lat="47.22702" lon="-1.70198">
        <ele>-5.2</ele>
        <time>2022-01-23T12:39:32Z</time>
      </trkpt>
      <trkpt lat="47.22709" lon="-1.7025">
        <ele>-5.6</ele>
        <time>2022-01-23T12:39:37Z</time>
      </trkpt>
      <trkpt lat="47.22717" lon="-1.70303">
        <ele>-5.6</ele>
        <time>2022-01-23T12:39:42Z</time>
      </trkpt>
      <trkpt lat="47.22731" lon="-1.7035">
        <ele>-5.4</ele>
        <time>2022-01-23T12:39:47Z</time>
      </trkpt>
      <trkpt lat="47.22742" lon="-1.70383">
        <ele>-5.2</ele>
        <time>2022-01-23T12:39:51Z</time>
      </trkpt>
      <trkpt lat="47.22745" lon="-1.70401">
        <ele>-5.2</ele>
        <time>2022-01-23T12:39:53Z</time>
      </trkpt>
      <trkpt lat="47.22759" lon="-1.70478">
        <ele>-4.8</ele>
        <time>2022-01-23T12:40:02Z</time>
      </trkpt>
      <trkpt lat="47.2276" lon="-1.70486">
        <ele>-4.8</ele>
        <time>2022-01-23T12:40:03Z</time>
      </trkpt>
      <trkpt lat="47.22769" lon="-1.70537">
        <ele>-4.4</ele>
        <time>2022-01-23T12:40:09Z</time>
      </trkpt>
      <trkpt lat="47.22779" lon="-1.70585">
        <ele>-4.2</ele>
        <time>2022-01-23T12:40:15Z</time>
      </trkpt>
      <trkpt lat="47.22784" lon="-1.70634">
        <ele>-3.6</ele>
        <time>2022-01-23T12:40:21Z</time>
      </trkpt>
      <trkpt lat="47.22786" lon="-1.70651">
        <ele>-3.6</ele>
        <time>2022-01-23T12:40:23Z</time>
      </trkpt>
      <trkpt lat="47.22786" lon="-1.70658">
        <ele>-3.6</ele>
        <time>2022-01-23T12:40:24Z</time>
      </trkpt>
      <trkpt lat="47.22786" lon="-1.70666">
        <ele>-3.4</ele>
        <time>2022-01-23T12:40:25Z</time>
      </trkpt>
      <trkpt lat="47.22788" lon="-1.70699">
        <ele>-3.2</ele>
        <time>2022-01-23T12:40:29Z</time>
      </trkpt>
      <trkpt lat="47.22791" lon="-1.70754">
        <ele>-2.4</ele>
        <time>2022-01-23T12:40:36Z</time>
      </trkpt>
      <trkpt lat="47.22794" lon="-1.70792">
        <ele>-1.8</ele>
        <time>2022-01-23T12:40:41Z</time>
      </trkpt>
      <trkpt lat="47.22799" lon="-1.70839">
        <ele>-1</ele>
        <time>2022-01-23T12:40:48Z</time>
      </trkpt>
      <trkpt lat="47.22806" lon="-1.70876">
        <ele>-0.19999999999999</ele>
        <time>2022-01-23T12:40:54Z</time>
      </trkpt>
      <trkpt lat="47.22805" lon="-1.70918">
        <ele>0.80000000000001</ele>
        <time>2022-01-23T12:41:01Z</time>
      </trkpt>
      <trkpt lat="47.22808" lon="-1.70951">
        <ele>1.6</ele>
        <time>2022-01-23T12:41:07Z</time>
      </trkpt>
      <trkpt lat="47.22812" lon="-1.70961">
        <ele>2.4</ele>
        <time>2022-01-23T12:41:11Z</time>
      </trkpt>
      <trkpt lat="47.22815" lon="-1.70969">
        <ele>2.8</ele>
        <time>2022-01-23T12:41:14Z</time>
      </trkpt>
      <trkpt lat="47.22821" lon="-1.70983">
        <ele>3.2</ele>
        <time>2022-01-23T12:41:18Z</time>
      </trkpt>
      <trkpt lat="47.22828" lon="-1.70998">
        <ele>3.8</ele>
        <time>2022-01-23T12:41:22Z</time>
      </trkpt>
      <trkpt lat="47.22836" lon="-1.71015">
        <ele>4.4</ele>
        <time>2022-01-23T12:41:28Z</time>
      </trkpt>
      <trkpt lat="47.22843" lon="-1.71031">
        <ele>4.8</ele>
        <time>2022-01-23T12:41:33Z</time>
      </trkpt>
      <trkpt lat="47.22849" lon="-1.71043">
        <ele>5.2</ele>
        <time>2022-01-23T12:41:37Z</time>
      </trkpt>
      <trkpt lat="47.22857" lon="-1.7106">
        <ele>6.2</ele>
        <time>2022-01-23T12:41:43Z</time>
      </trkpt>
      <trkpt lat="47.22862" lon="-1.71066">
        <ele>7.2</ele>
        <time>2022-01-23T12:41:46Z</time>
      </trkpt>
      <trkpt lat="47.22865" lon="-1.71068">
        <ele>7.6</ele>
        <time>2022-01-23T12:41:48Z</time>
      </trkpt>
      <trkpt lat="47.22865" lon="-1.71078">
        <ele>8.4</ele>
        <time>2022-01-23T12:41:51Z</time>
      </trkpt>
      <trkpt lat="47.22851" lon="-1.71099">
        <ele>9.2</ele>
        <time>2022-01-23T12:41:57Z</time>
      </trkpt>
      <trkpt lat="47.22844" lon="-1.71109">
        <ele>9.4</ele>
        <time>2022-01-23T12:41:59Z</time>
      </trkpt>
      <trkpt lat="47.22831" lon="-1.71129">
        <ele>10</ele>
        <time>2022-01-23T12:42:03Z</time>
      </trkpt>
      <trkpt lat="47.22803" lon="-1.7117">
        <ele>11.4</ele>
        <time>2022-01-23T12:42:11Z</time>
      </trkpt>
      <trkpt lat="47.22782" lon="-1.71203">
        <ele>12.4</ele>
        <time>2022-01-23T12:42:17Z</time>
      </trkpt>
      <trkpt lat="47.22741" lon="-1.71263">
        <ele>14.2</ele>
        <time>2022-01-23T12:42:28Z</time>
      </trkpt>
      <trkpt lat="47.2271" lon="-1.7131">
        <ele>15.4</ele>
        <time>2022-01-23T12:42:36Z</time>
      </trkpt>
      <trkpt lat="47.22685" lon="-1.71348">
        <ele>16.4</ele>
        <time>2022-01-23T12:42:42Z</time>
      </trkpt>
      <trkpt lat="47.22657" lon="-1.71393">
        <ele>17</ele>
        <time>2022-01-23T12:42:48Z</time>
      </trkpt>
      <trkpt lat="47.22624" lon="-1.71444">
        <ele>17.6</ele>
        <time>2022-01-23T12:42:54Z</time>
      </trkpt>
      <trkpt lat="47.22591" lon="-1.71504">
        <ele>17.8</ele>
        <time>2022-01-23T12:43:00Z</time>
      </trkpt>
      <trkpt lat="47.22574" lon="-1.71537">
        <ele>18</ele>
        <time>2022-01-23T12:43:03Z</time>
      </trkpt>
      <trkpt lat="47.22546" lon="-1.71592">
        <ele>18</ele>
        <time>2022-01-23T12:43:08Z</time>
      </trkpt>
      <trkpt lat="47.2251" lon="-1.71661">
        <ele>18.2</ele>
        <time>2022-01-23T12:43:14Z</time>
      </trkpt>
      <trkpt lat="47.22498" lon="-1.71685">
        <ele>18</ele>
        <time>2022-01-23T12:43:16Z</time>
      </trkpt>
      <trkpt lat="47.22467" lon="-1.71755">
        <ele>17.6</ele>
        <time>2022-01-23T12:43:21Z</time>
      </trkpt>
      <trkpt lat="47.22451" lon="-1.71824">
        <ele>17.2</ele>
        <time>2022-01-23T12:43:25Z</time>
      </trkpt>
      <trkpt lat="47.22439" lon="-1.71878">
        <ele>16.8</ele>
        <time>2022-01-23T12:43:28Z</time>
      </trkpt>
      <trkpt lat="47.22433" lon="-1.71895">
        <ele>16.6</ele>
        <time>2022-01-23T12:43:29Z</time>
      </trkpt>
      <trkpt lat="47.22425" lon="-1.7191">
        <ele>16.4</ele>
        <time>2022-01-23T12:43:30Z</time>
      </trkpt>
      <trkpt lat="47.22415" lon="-1.71922">
        <ele>16.2</ele>
        <time>2022-01-23T12:43:31Z</time>
      </trkpt>
      <trkpt lat="47.22403" lon="-1.71932">
        <ele>16</ele>
        <time>2022-01-23T12:43:32Z</time>
      </trkpt>
      <trkpt lat="47.22378" lon="-1.71946">
        <ele>15.4</ele>
        <time>2022-01-23T12:43:34Z</time>
      </trkpt>
      <trkpt lat="47.22317" lon="-1.71979">
        <ele>14.2</ele>
        <time>2022-01-23T12:43:39Z</time>
      </trkpt>
      <trkpt lat="47.22294" lon="-1.71992">
        <ele>13.6</ele>
        <time>2022-01-23T12:43:41Z</time>
      </trkpt>
      <trkpt lat="47.22243" lon="-1.72022">
        <ele>13</ele>
        <time>2022-01-23T12:43:46Z</time>
      </trkpt>
      <trkpt lat="47.22233" lon="-1.72028">
        <ele>13</ele>
        <time>2022-01-23T12:43:47Z</time>
      </trkpt>
      <trkpt lat="47.22189" lon="-1.72054">
        <ele>12.4</ele>
        <time>2022-01-23T12:43:52Z</time>
      </trkpt>
      <trkpt lat="47.22133" lon="-1.72086">
        <ele>11.6</ele>
        <time>2022-01-23T12:43:59Z</time>
      </trkpt>
      <trkpt lat="47.22105" lon="-1.72104">
        <ele>11</ele>
        <time>2022-01-23T12:44:03Z</time>
      </trkpt>
      <trkpt lat="47.22099" lon="-1.7211">
        <ele>11</ele>
        <time>2022-01-23T12:44:04Z</time>
      </trkpt>
      <trkpt lat="47.22089" lon="-1.72123">
        <ele>10.8</ele>
        <time>2022-01-23T12:44:06Z</time>
      </trkpt>
      <trkpt lat="47.22086" lon="-1.72131">
        <ele>10.8</ele>
        <time>2022-01-23T12:44:07Z</time>
      </trkpt>
      <trkpt lat="47.22079" lon="-1.72155">
        <ele>10.6</ele>
        <time>2022-01-23T12:44:10Z</time>
      </trkpt>
      <trkpt lat="47.22078" lon="-1.72164">
        <ele>10.6</ele>
        <time>2022-01-23T12:44:11Z</time>
      </trkpt>
      <trkpt lat="47.22076" lon="-1.72217">
        <ele>10.2</ele>
        <time>2022-01-23T12:44:18Z</time>
      </trkpt>
      <trkpt lat="47.22075" lon="-1.72254">
        <ele>10.2</ele>
        <time>2022-01-23T12:44:24Z</time>
      </trkpt>
      <trkpt lat="47.22073" lon="-1.7229">
        <ele>10</ele>
        <time>2022-01-23T12:44:31Z</time>
      </trkpt>
      <trkpt lat="47.22071" lon="-1.72325">
        <ele>10</ele>
        <time>2022-01-23T12:44:38Z</time>
      </trkpt>
      <trkpt lat="47.2207" lon="-1.72365">
        <ele>10.4</ele>
        <time>2022-01-23T12:44:46Z</time>
      </trkpt>
      <trkpt lat="47.22065" lon="-1.72399">
        <ele>10.4</ele>
        <time>2022-01-23T12:44:53Z</time>
      </trkpt>
      <trkpt lat="47.22061" lon="-1.72424">
        <ele>10.4</ele>
        <time>2022-01-23T12:44:58Z</time>
      </trkpt>
      <trkpt lat="47.22062" lon="-1.72433">
        <ele>10.6</ele>
        <time>2022-01-23T12:45:00Z</time>
      </trkpt>
      <trkpt lat="47.22058" lon="-1.72442">
        <ele>10.6</ele>
        <time>2022-01-23T12:45:02Z</time>
      </trkpt>
      <trkpt lat="47.22041" lon="-1.72452">
        <ele>11</ele>
        <time>2022-01-23T12:45:07Z</time>
      </trkpt>
      <trkpt lat="47.22016" lon="-1.72465">
        <ele>11.6</ele>
        <time>2022-01-23T12:45:14Z</time>
      </trkpt>
      <trkpt lat="47.21988" lon="-1.72483">
        <ele>12.4</ele>
        <time>2022-01-23T12:45:22Z</time>
      </trkpt>
      <trkpt lat="47.21954" lon="-1.72505">
        <ele>13.2</ele>
        <time>2022-01-23T12:45:31Z</time>
      </trkpt>
      <trkpt lat="47.21916" lon="-1.72527">
        <ele>14</ele>
        <time>2022-01-23T12:45:40Z</time>
      </trkpt>
      <trkpt lat="47.21887" lon="-1.7254">
        <ele>14.6</ele>
        <time>2022-01-23T12:45:47Z</time>
      </trkpt>
      <trkpt lat="47.2187" lon="-1.72543">
        <ele>14.8</ele>
        <time>2022-01-23T12:45:51Z</time>
      </trkpt>
      <trkpt lat="47.21857" lon="-1.72542">
        <ele>15</ele>
        <time>2022-01-23T12:45:54Z</time>
      </trkpt>
      <trkpt lat="47.21852" lon="-1.72541">
        <ele>15.2</ele>
        <time>2022-01-23T12:45:55Z</time>
      </trkpt>
      <trkpt lat="47.21831" lon="-1.7254">
        <ele>15.6</ele>
        <time>2022-01-23T12:46:00Z</time>
      </trkpt>
      <trkpt lat="47.21785" lon="-1.72536">
        <ele>16.6</ele>
        <time>2022-01-23T12:46:11Z</time>
      </trkpt>
      <trkpt lat="47.21775" lon="-1.72543">
        <ele>17</ele>
        <time>2022-01-23T12:46:15Z</time>
      </trkpt>
      <trkpt lat="47.21772" lon="-1.72544">
        <ele>17</ele>
        <time>2022-01-23T12:46:16Z</time>
      </trkpt>
      <trkpt lat="47.21765" lon="-1.72538">
        <ele>17.2</ele>
        <time>2022-01-23T12:46:18Z</time>
      </trkpt>
      <trkpt lat="47.21762" lon="-1.72537">
        <ele>17.2</ele>
        <time>2022-01-23T12:46:19Z</time>
      </trkpt>
      <trkpt lat="47.21754" lon="-1.72536">
        <ele>17.4</ele>
        <time>2022-01-23T12:46:21Z</time>
      </trkpt>
      <trkpt lat="47.21724" lon="-1.72533">
        <ele>17.8</ele>
        <time>2022-01-23T12:46:28Z</time>
      </trkpt>
      <trkpt lat="47.21688" lon="-1.72532">
        <ele>18.2</ele>
        <time>2022-01-23T12:46:35Z</time>
      </trkpt>
      <trkpt lat="47.21651" lon="-1.72531">
        <ele>18.4</ele>
        <time>2022-01-23T12:46:41Z</time>
      </trkpt>
      <trkpt lat="47.21637" lon="-1.72533">
        <ele>18.6</ele>
        <time>2022-01-23T12:46:43Z</time>
      </trkpt>
      <trkpt lat="47.21623" lon="-1.72535">
        <ele>18.6</ele>
        <time>2022-01-23T12:46:45Z</time>
      </trkpt>
      <trkpt lat="47.21568" lon="-1.72539">
        <ele>18.2</ele>
        <time>2022-01-23T12:46:52Z</time>
      </trkpt>
      <trkpt lat="47.21544" lon="-1.72539">
        <ele>18.8</ele>
        <time>2022-01-23T12:46:55Z</time>
      </trkpt>
      <trkpt lat="47.21535" lon="-1.72541">
        <ele>18.8</ele>
        <time>2022-01-23T12:46:56Z</time>
      </trkpt>
      <trkpt lat="47.21527" lon="-1.72542">
        <ele>18.4</ele>
        <time>2022-01-23T12:46:57Z</time>
      </trkpt>
      <trkpt lat="47.21499" lon="-1.72544">
        <ele>18</ele>
        <time>2022-01-23T12:47:00Z</time>
      </trkpt>
      <trkpt lat="47.21459" lon="-1.72548">
        <ele>17.6</ele>
        <time>2022-01-23T12:47:05Z</time>
      </trkpt>
      <trkpt lat="47.21448" lon="-1.72564">
        <ele>17.4</ele>
        <time>2022-01-23T12:47:07Z</time>
      </trkpt>
      <trkpt lat="47.21445" lon="-1.72587">
        <ele>17</ele>
        <time>2022-01-23T12:47:09Z</time>
      </trkpt>
      <trkpt lat="47.21444" lon="-1.726">
        <ele>17</ele>
        <time>2022-01-23T12:47:10Z</time>
      </trkpt>
      <trkpt lat="47.21437" lon="-1.72679">
        <ele>16.2</ele>
        <time>2022-01-23T12:47:16Z</time>
      </trkpt>
      <trkpt lat="47.21435" lon="-1.72692">
        <ele>16.2</ele>
        <time>2022-01-23T12:47:17Z</time>
      </trkpt>
      <trkpt lat="47.21426" lon="-1.72772">
        <ele>15.4</ele>
        <time>2022-01-23T12:47:23Z</time>
      </trkpt>
      <trkpt lat="47.21425" lon="-1.72785">
        <ele>15.2</ele>
        <time>2022-01-23T12:47:24Z</time>
      </trkpt>
      <trkpt lat="47.21415" lon="-1.72872">
        <ele>14.8</ele>
        <time>2022-01-23T12:47:31Z</time>
      </trkpt>
      <trkpt lat="47.21411" lon="-1.72904">
        <ele>14.8</ele>
        <time>2022-01-23T12:47:34Z</time>
      </trkpt>
      <trkpt lat="47.21412" lon="-1.72915">
        <ele>14.8</ele>
        <time>2022-01-23T12:47:35Z</time>
      </trkpt>
      <trkpt lat="47.21411" lon="-1.72925">
        <ele>14.8</ele>
        <time>2022-01-23T12:47:36Z</time>
      </trkpt>
      <trkpt lat="47.21407" lon="-1.72945">
        <ele>14.6</ele>
        <time>2022-01-23T12:47:38Z</time>
      </trkpt>
      <trkpt lat="47.214" lon="-1.72998">
        <ele>14.4</ele>
        <time>2022-01-23T12:47:43Z</time>
      </trkpt>
      <trkpt lat="47.21392" lon="-1.73066">
        <ele>14.2</ele>
        <time>2022-01-23T12:47:50Z</time>
      </trkpt>
      <trkpt lat="47.21384" lon="-1.73134">
        <ele>14.2</ele>
        <time>2022-01-23T12:47:58Z</time>
      </trkpt>
      <trkpt lat="47.21375" lon="-1.73212">
        <ele>14.6</ele>
        <time>2022-01-23T12:48:08Z</time>
      </trkpt>
      <trkpt lat="47.21368" lon="-1.73278">
        <ele>14.4</ele>
        <time>2022-01-23T12:48:16Z</time>
      </trkpt>
      <trkpt lat="47.2136" lon="-1.73342">
        <ele>14.2</ele>
        <time>2022-01-23T12:48:23Z</time>
      </trkpt>
      <trkpt lat="47.21352" lon="-1.7341">
        <ele>13.8</ele>
        <time>2022-01-23T12:48:29Z</time>
      </trkpt>
      <trkpt lat="47.21347" lon="-1.73447">
        <ele>13.6</ele>
        <time>2022-01-23T12:48:32Z</time>
      </trkpt>
      <trkpt lat="47.21343" lon="-1.73457">
        <ele>13.6</ele>
        <time>2022-01-23T12:48:33Z</time>
      </trkpt>
      <trkpt lat="47.21307" lon="-1.73506">
        <ele>12.8</ele>
        <time>2022-01-23T12:48:38Z</time>
      </trkpt>
      <trkpt lat="47.21299" lon="-1.73515">
        <ele>12.6</ele>
        <time>2022-01-23T12:48:39Z</time>
      </trkpt>
      <trkpt lat="47.2128" lon="-1.73527">
        <ele>12.4</ele>
        <time>2022-01-23T12:48:41Z</time>
      </trkpt>
      <trkpt lat="47.21219" lon="-1.7356">
        <ele>11.2</ele>
        <time>2022-01-23T12:48:47Z</time>
      </trkpt>
      <trkpt lat="47.21198" lon="-1.73572">
        <ele>10.8</ele>
        <time>2022-01-23T12:48:49Z</time>
      </trkpt>
      <trkpt lat="47.21146" lon="-1.73599">
        <ele>10.2</ele>
        <time>2022-01-23T12:48:54Z</time>
      </trkpt>
      <trkpt lat="47.21137" lon="-1.73604">
        <ele>10</ele>
        <time>2022-01-23T12:48:55Z</time>
      </trkpt>
      <trkpt lat="47.21117" lon="-1.73617">
        <ele>9.8</ele>
        <time>2022-01-23T12:48:58Z</time>
      </trkpt>
      <trkpt lat="47.21109" lon="-1.7363">
        <ele>9.6</ele>
        <time>2022-01-23T12:49:00Z</time>
      </trkpt>
      <trkpt lat="47.21108" lon="-1.73638">
        <ele>9.6</ele>
        <time>2022-01-23T12:49:01Z</time>
      </trkpt>
      <trkpt lat="47.21108" lon="-1.73648">
        <ele>9.4</ele>
        <time>2022-01-23T12:49:02Z</time>
      </trkpt>
      <trkpt lat="47.21109" lon="-1.73671">
        <ele>9.2</ele>
        <time>2022-01-23T12:49:04Z</time>
      </trkpt>
      <trkpt lat="47.21115" lon="-1.73719">
        <ele>8.8</ele>
        <time>2022-01-23T12:49:08Z</time>
      </trkpt>
      <trkpt lat="47.21124" lon="-1.73778">
        <ele>8.4</ele>
        <time>2022-01-23T12:49:13Z</time>
      </trkpt>
      <trkpt lat="47.21129" lon="-1.738">
        <ele>8.2</ele>
        <time>2022-01-23T12:49:15Z</time>
      </trkpt>
      <trkpt lat="47.21132" lon="-1.73811">
        <ele>8.2</ele>
        <time>2022-01-23T12:49:16Z</time>
      </trkpt>
      <trkpt lat="47.21136" lon="-1.73833">
        <ele>8</ele>
        <time>2022-01-23T12:49:18Z</time>
      </trkpt>
      <trkpt lat="47.21148" lon="-1.73889">
        <ele>7.4</ele>
        <time>2022-01-23T12:49:23Z</time>
      </trkpt>
      <trkpt lat="47.21158" lon="-1.73938">
        <ele>7.2</ele>
        <time>2022-01-23T12:49:28Z</time>
      </trkpt>
      <trkpt lat="47.21162" lon="-1.73966">
        <ele>7</ele>
        <time>2022-01-23T12:49:31Z</time>
      </trkpt>
      <trkpt lat="47.21165" lon="-1.73983">
        <ele>7</ele>
        <time>2022-01-23T12:49:33Z</time>
      </trkpt>
      <trkpt lat="47.21172" lon="-1.74019">
        <ele>6.6</ele>
        <time>2022-01-23T12:49:37Z</time>
      </trkpt>
      <trkpt lat="47.21175" lon="-1.74026">
        <ele>6.6</ele>
        <time>2022-01-23T12:49:38Z</time>
      </trkpt>
      <trkpt lat="47.21179" lon="-1.74034">
        <ele>6.6</ele>
        <time>2022-01-23T12:49:39Z</time>
      </trkpt>
      <trkpt lat="47.21178" lon="-1.74052">
        <ele>6.4</ele>
        <time>2022-01-23T12:49:41Z</time>
      </trkpt>
      <trkpt lat="47.21165" lon="-1.74073">
        <ele>6.2</ele>
        <time>2022-01-23T12:49:44Z</time>
      </trkpt>
      <trkpt lat="47.21129" lon="-1.74121">
        <ele>5.8</ele>
        <time>2022-01-23T12:49:51Z</time>
      </trkpt>
      <trkpt lat="47.21089" lon="-1.74179">
        <ele>5.4</ele>
        <time>2022-01-23T12:49:59Z</time>
      </trkpt>
      <trkpt lat="47.21051" lon="-1.74238">
        <ele>5</ele>
        <time>2022-01-23T12:50:07Z</time>
      </trkpt>
      <trkpt lat="47.21025" lon="-1.74298">
        <ele>4.6</ele>
        <time>2022-01-23T12:50:14Z</time>
      </trkpt>
      <trkpt lat="47.21006" lon="-1.7435">
        <ele>4.2</ele>
        <time>2022-01-23T12:50:20Z</time>
      </trkpt>
      <trkpt lat="47.21001" lon="-1.74369">
        <ele>4</ele>
        <time>2022-01-23T12:50:22Z</time>
      </trkpt>
      <trkpt lat="47.20999" lon="-1.74388">
        <ele>3.8</ele>
        <time>2022-01-23T12:50:24Z</time>
      </trkpt>
      <trkpt lat="47.20994" lon="-1.74456">
        <ele>3.2</ele>
        <time>2022-01-23T12:50:31Z</time>
      </trkpt>
      <trkpt lat="47.20992" lon="-1.74475">
        <ele>3</ele>
        <time>2022-01-23T12:50:33Z</time>
      </trkpt>
      <trkpt lat="47.2099" lon="-1.74494">
        <ele>3</ele>
        <time>2022-01-23T12:50:35Z</time>
      </trkpt>
      <trkpt lat="47.20984" lon="-1.7455">
        <ele>2.4</ele>
        <time>2022-01-23T12:50:41Z</time>
      </trkpt>
      <trkpt lat="47.20976" lon="-1.746">
        <ele>2.2</ele>
        <time>2022-01-23T12:50:47Z</time>
      </trkpt>
      <trkpt lat="47.2097" lon="-1.74643">
        <ele>1.8</ele>
        <time>2022-01-23T12:50:52Z</time>
      </trkpt>
      <trkpt lat="47.20963" lon="-1.74708">
        <ele>1.4</ele>
        <time>2022-01-23T12:50:59Z</time>
      </trkpt>
      <trkpt lat="47.20958" lon="-1.74762">
        <ele>1.2</ele>
        <time>2022-01-23T12:51:05Z</time>
      </trkpt>
      <trkpt lat="47.20952" lon="-1.74827">
        <ele>0.60000000000002</ele>
        <time>2022-01-23T12:51:12Z</time>
      </trkpt>
      <trkpt lat="47.2095" lon="-1.74844">
        <ele>0.60000000000002</ele>
        <time>2022-01-23T12:51:14Z</time>
      </trkpt>
      <trkpt lat="47.20944" lon="-1.7486">
        <ele>0.60000000000002</ele>
        <time>2022-01-23T12:51:16Z</time>
      </trkpt>
      <trkpt lat="47.20934" lon="-1.74872">
        <ele>0.39999999999998</ele>
        <time>2022-01-23T12:51:18Z</time>
      </trkpt>
      <trkpt lat="47.20929" lon="-1.74876">
        <ele>0.39999999999998</ele>
        <time>2022-01-23T12:51:19Z</time>
      </trkpt>
      <trkpt lat="47.20916" lon="-1.74884">
        <ele>0.39999999999998</ele>
        <time>2022-01-23T12:51:21Z</time>
      </trkpt>
      <trkpt lat="47.20896" lon="-1.74892">
        <ele>0.39999999999998</ele>
        <time>2022-01-23T12:51:24Z</time>
      </trkpt>
      <trkpt lat="47.20852" lon="-1.74908">
        <ele>0.19999999999999</ele>
        <time>2022-01-23T12:51:31Z</time>
      </trkpt>
      <trkpt lat="47.20806" lon="-1.74926">
        <ele>0.19999999999999</ele>
        <time>2022-01-23T12:51:38Z</time>
      </trkpt>
      <trkpt lat="47.20753" lon="-1.74946">
        <ele>-0.39999999999998</ele>
        <time>2022-01-23T12:51:46Z</time>
      </trkpt>
      <trkpt lat="47.20716" lon="-1.74957">
        <ele>-0.60000000000002</ele>
        <time>2022-01-23T12:51:52Z</time>
      </trkpt>
      <trkpt lat="47.20704" lon="-1.74963">
        <ele>-0.60000000000002</ele>
        <time>2022-01-23T12:51:54Z</time>
      </trkpt>
      <trkpt lat="47.20694" lon="-1.74973">
        <ele>-0.60000000000002</ele>
        <time>2022-01-23T12:51:56Z</time>
      </trkpt>
      <trkpt lat="47.20679" lon="-1.74989">
        <ele>-0.80000000000001</ele>
        <time>2022-01-23T12:51:59Z</time>
      </trkpt>
      <trkpt lat="47.20666" lon="-1.75011">
        <ele>-0.80000000000001</ele>
        <time>2022-01-23T12:52:02Z</time>
      </trkpt>
      <trkpt lat="47.20654" lon="-1.75041">
        <ele>-0.80000000000001</ele>
        <time>2022-01-23T12:52:06Z</time>
      </trkpt>
      <trkpt lat="47.20646" lon="-1.75056">
        <ele>-1</ele>
        <time>2022-01-23T12:52:08Z</time>
      </trkpt>
      <trkpt lat="47.20627" lon="-1.75112">
        <ele>-1</ele>
        <time>2022-01-23T12:52:15Z</time>
      </trkpt>
      <trkpt lat="47.20605" lon="-1.75179">
        <ele>-1.2</ele>
        <time>2022-01-23T12:52:23Z</time>
      </trkpt>
      <trkpt lat="47.20596" lon="-1.7519">
        <ele>-1.2</ele>
        <time>2022-01-23T12:52:25Z</time>
      </trkpt>
      <trkpt lat="47.20591" lon="-1.75193">
        <ele>-1.2</ele>
        <time>2022-01-23T12:52:26Z</time>
      </trkpt>
      <trkpt lat="47.20586" lon="-1.75193">
        <ele>-1.4</ele>
        <time>2022-01-23T12:52:27Z</time>
      </trkpt>
      <trkpt lat="47.20581" lon="-1.7519">
        <ele>-1.2</ele>
        <time>2022-01-23T12:52:28Z</time>
      </trkpt>
      <trkpt lat="47.20576" lon="-1.75189">
        <ele>-1.2</ele>
        <time>2022-01-23T12:52:29Z</time>
      </trkpt>
      <trkpt lat="47.20572" lon="-1.75194">
        <ele>-1.2</ele>
        <time>2022-01-23T12:52:31Z</time>
      </trkpt>
      <trkpt lat="47.20571" lon="-1.75195">
        <ele>-1.2</ele>
        <time>2022-01-23T12:52:34Z</time>
      </trkpt>
    </trkseg>
  </trk>
</gpx>